<?xml version="1.0" encoding="UTF-8" standalone="no" ?>
<gpx xmlns="http://www.topografix.com/GPX/1/1" xmlns:xsi="http://www.w3.org/2001/XMLSchema-instance" xsi:schemaLocation="http://www.topografix.com/GPX/1/1 http://www.topografix.com/GPX/1/1/gpx.xsd" version="1.1" creator="VisuGPX - https://www.visugpx.com">
  <metadata>
    <name>Champagnat Cyclisme sur route</name>
  </metadata>
  <trk>
    <name><![CDATA[Champagnat Cyclisme sur route_1]]></name>
    <trkseg>
      <trkpt lat="46.4826" lon="5.36821">
        <ele>264.2</ele>
        <time>2022-04-10T11:06:08Z</time>
      </trkpt>
      <trkpt lat="46.48251" lon="5.36812">
        <ele>264</ele>
        <time>2022-04-10T11:06:09Z</time>
      </trkpt>
      <trkpt lat="46.4824" lon="5.36803">
        <ele>263.2</ele>
        <time>2022-04-10T11:06:10Z</time>
      </trkpt>
      <trkpt lat="46.48219" lon="5.36786">
        <ele>261.2</ele>
        <time>2022-04-10T11:06:12Z</time>
      </trkpt>
      <trkpt lat="46.48209" lon="5.36778">
        <ele>260</ele>
        <time>2022-04-10T11:06:13Z</time>
      </trkpt>
      <trkpt lat="46.48188" lon="5.36761">
        <ele>258</ele>
        <time>2022-04-10T11:06:15Z</time>
      </trkpt>
      <trkpt lat="46.48168" lon="5.36744">
        <ele>257</ele>
        <time>2022-04-10T11:06:17Z</time>
      </trkpt>
      <trkpt lat="46.48147" lon="5.36728">
        <ele>255.6</ele>
        <time>2022-04-10T11:06:19Z</time>
      </trkpt>
      <trkpt lat="46.48128" lon="5.36715">
        <ele>254.4</ele>
        <time>2022-04-10T11:06:21Z</time>
      </trkpt>
      <trkpt lat="46.48119" lon="5.3671">
        <ele>253.2</ele>
        <time>2022-04-10T11:06:22Z</time>
      </trkpt>
      <trkpt lat="46.48111" lon="5.36694">
        <ele>252.2</ele>
        <time>2022-04-10T11:06:24Z</time>
      </trkpt>
      <trkpt lat="46.48115" lon="5.36674">
        <ele>250.6</ele>
        <time>2022-04-10T11:06:26Z</time>
      </trkpt>
      <trkpt lat="46.48129" lon="5.36661">
        <ele>249.4</ele>
        <time>2022-04-10T11:06:28Z</time>
      </trkpt>
      <trkpt lat="46.48136" lon="5.36655">
        <ele>248.6</ele>
        <time>2022-04-10T11:06:29Z</time>
      </trkpt>
      <trkpt lat="46.48143" lon="5.36648">
        <ele>248.2</ele>
        <time>2022-04-10T11:06:30Z</time>
      </trkpt>
      <trkpt lat="46.48148" lon="5.36628">
        <ele>247.2</ele>
        <time>2022-04-10T11:06:32Z</time>
      </trkpt>
      <trkpt lat="46.48154" lon="5.36624">
        <ele>246.8</ele>
        <time>2022-04-10T11:06:33Z</time>
      </trkpt>
      <trkpt lat="46.48161" lon="5.36619">
        <ele>246.4</ele>
        <time>2022-04-10T11:06:34Z</time>
      </trkpt>
      <trkpt lat="46.48176" lon="5.36607">
        <ele>246</ele>
        <time>2022-04-10T11:06:36Z</time>
      </trkpt>
      <trkpt lat="46.48184" lon="5.36603">
        <ele>246</ele>
        <time>2022-04-10T11:06:37Z</time>
      </trkpt>
      <trkpt lat="46.48192" lon="5.366">
        <ele>245.8</ele>
        <time>2022-04-10T11:06:38Z</time>
      </trkpt>
      <trkpt lat="46.48208" lon="5.36593">
        <ele>245.6</ele>
        <time>2022-04-10T11:06:40Z</time>
      </trkpt>
      <trkpt lat="46.48217" lon="5.36576">
        <ele>245.4</ele>
        <time>2022-04-10T11:06:42Z</time>
      </trkpt>
      <trkpt lat="46.48225" lon="5.36557">
        <ele>245.4</ele>
        <time>2022-04-10T11:06:44Z</time>
      </trkpt>
      <trkpt lat="46.48231" lon="5.3655">
        <ele>245.4</ele>
        <time>2022-04-10T11:06:45Z</time>
      </trkpt>
      <trkpt lat="46.48243" lon="5.36537">
        <ele>245</ele>
        <time>2022-04-10T11:06:47Z</time>
      </trkpt>
      <trkpt lat="46.48289" lon="5.3649">
        <ele>244.2</ele>
        <time>2022-04-10T11:06:54Z</time>
      </trkpt>
      <trkpt lat="46.48295" lon="5.36483">
        <ele>244</ele>
        <time>2022-04-10T11:06:55Z</time>
      </trkpt>
      <trkpt lat="46.48301" lon="5.36476">
        <ele>243.8</ele>
        <time>2022-04-10T11:06:56Z</time>
      </trkpt>
      <trkpt lat="46.48346" lon="5.36427">
        <ele>242.6</ele>
        <time>2022-04-10T11:07:03Z</time>
      </trkpt>
      <trkpt lat="46.48353" lon="5.3642">
        <ele>242.6</ele>
        <time>2022-04-10T11:07:04Z</time>
      </trkpt>
      <trkpt lat="46.48379" lon="5.36392">
        <ele>241.2</ele>
        <time>2022-04-10T11:07:08Z</time>
      </trkpt>
      <trkpt lat="46.48412" lon="5.36361">
        <ele>240.2</ele>
        <time>2022-04-10T11:07:13Z</time>
      </trkpt>
      <trkpt lat="46.48419" lon="5.36356">
        <ele>240</ele>
        <time>2022-04-10T11:07:14Z</time>
      </trkpt>
      <trkpt lat="46.48441" lon="5.36349">
        <ele>239.2</ele>
        <time>2022-04-10T11:07:17Z</time>
      </trkpt>
      <trkpt lat="46.48497" lon="5.3634">
        <ele>238.8</ele>
        <time>2022-04-10T11:07:25Z</time>
      </trkpt>
      <trkpt lat="46.48553" lon="5.3633">
        <ele>238.4</ele>
        <time>2022-04-10T11:07:33Z</time>
      </trkpt>
      <trkpt lat="46.48583" lon="5.36326">
        <ele>238.2</ele>
        <time>2022-04-10T11:07:37Z</time>
      </trkpt>
      <trkpt lat="46.48614" lon="5.36318">
        <ele>237.8</ele>
        <time>2022-04-10T11:07:41Z</time>
      </trkpt>
      <trkpt lat="46.48621" lon="5.36313">
        <ele>237.4</ele>
        <time>2022-04-10T11:07:42Z</time>
      </trkpt>
      <trkpt lat="46.48628" lon="5.36304">
        <ele>237.2</ele>
        <time>2022-04-10T11:07:43Z</time>
      </trkpt>
      <trkpt lat="46.48632" lon="5.36294">
        <ele>236.6</ele>
        <time>2022-04-10T11:07:44Z</time>
      </trkpt>
      <trkpt lat="46.48635" lon="5.36282">
        <ele>236.2</ele>
        <time>2022-04-10T11:07:45Z</time>
      </trkpt>
      <trkpt lat="46.48639" lon="5.36256">
        <ele>235.2</ele>
        <time>2022-04-10T11:07:47Z</time>
      </trkpt>
      <trkpt lat="46.48643" lon="5.36218">
        <ele>234</ele>
        <time>2022-04-10T11:07:50Z</time>
      </trkpt>
      <trkpt lat="46.48644" lon="5.36192">
        <ele>232.8</ele>
        <time>2022-04-10T11:07:52Z</time>
      </trkpt>
      <trkpt lat="46.48649" lon="5.36143">
        <ele>231.4</ele>
        <time>2022-04-10T11:07:56Z</time>
      </trkpt>
      <trkpt lat="46.48655" lon="5.36108">
        <ele>230.8</ele>
        <time>2022-04-10T11:07:59Z</time>
      </trkpt>
      <trkpt lat="46.48669" lon="5.36046">
        <ele>230.6</ele>
        <time>2022-04-10T11:08:05Z</time>
      </trkpt>
      <trkpt lat="46.4868" lon="5.36004">
        <ele>230.8</ele>
        <time>2022-04-10T11:08:10Z</time>
      </trkpt>
      <trkpt lat="46.48682" lon="5.35997">
        <ele>230.8</ele>
        <time>2022-04-10T11:08:11Z</time>
      </trkpt>
      <trkpt lat="46.48684" lon="5.35979">
        <ele>230.8</ele>
        <time>2022-04-10T11:08:13Z</time>
      </trkpt>
      <trkpt lat="46.48685" lon="5.35969">
        <ele>231</ele>
        <time>2022-04-10T11:08:14Z</time>
      </trkpt>
      <trkpt lat="46.4869" lon="5.35927">
        <ele>231.4</ele>
        <time>2022-04-10T11:08:18Z</time>
      </trkpt>
      <trkpt lat="46.48695" lon="5.35906">
        <ele>231.4</ele>
        <time>2022-04-10T11:08:20Z</time>
      </trkpt>
      <trkpt lat="46.4872" lon="5.35836">
        <ele>231.2</ele>
        <time>2022-04-10T11:08:27Z</time>
      </trkpt>
      <trkpt lat="46.48737" lon="5.35797">
        <ele>230.4</ele>
        <time>2022-04-10T11:08:31Z</time>
      </trkpt>
      <trkpt lat="46.48749" lon="5.35769">
        <ele>229.8</ele>
        <time>2022-04-10T11:08:34Z</time>
      </trkpt>
      <trkpt lat="46.48754" lon="5.3576">
        <ele>229.4</ele>
        <time>2022-04-10T11:08:35Z</time>
      </trkpt>
      <trkpt lat="46.4877" lon="5.35722">
        <ele>229</ele>
        <time>2022-04-10T11:08:39Z</time>
      </trkpt>
      <trkpt lat="46.48793" lon="5.35668">
        <ele>228.6</ele>
        <time>2022-04-10T11:08:45Z</time>
      </trkpt>
      <trkpt lat="46.48824" lon="5.35597">
        <ele>228.4</ele>
        <time>2022-04-10T11:08:53Z</time>
      </trkpt>
      <trkpt lat="46.48828" lon="5.35589">
        <ele>228.4</ele>
        <time>2022-04-10T11:08:54Z</time>
      </trkpt>
      <trkpt lat="46.48853" lon="5.3553">
        <ele>229</ele>
        <time>2022-04-10T11:09:01Z</time>
      </trkpt>
      <trkpt lat="46.48884" lon="5.35459">
        <ele>228.8</ele>
        <time>2022-04-10T11:09:09Z</time>
      </trkpt>
      <trkpt lat="46.48888" lon="5.3545">
        <ele>228.6</ele>
        <time>2022-04-10T11:09:10Z</time>
      </trkpt>
      <trkpt lat="46.48922" lon="5.35376">
        <ele>228.2</ele>
        <time>2022-04-10T11:09:18Z</time>
      </trkpt>
      <trkpt lat="46.48926" lon="5.35366">
        <ele>228.2</ele>
        <time>2022-04-10T11:09:19Z</time>
      </trkpt>
      <trkpt lat="46.48956" lon="5.353">
        <ele>227.8</ele>
        <time>2022-04-10T11:09:26Z</time>
      </trkpt>
      <trkpt lat="46.48987" lon="5.35231">
        <ele>227.6</ele>
        <time>2022-04-10T11:09:34Z</time>
      </trkpt>
      <trkpt lat="46.49011" lon="5.35178">
        <ele>228.4</ele>
        <time>2022-04-10T11:09:41Z</time>
      </trkpt>
      <trkpt lat="46.49036" lon="5.35121">
        <ele>229.4</ele>
        <time>2022-04-10T11:09:49Z</time>
      </trkpt>
      <trkpt lat="46.49046" lon="5.35109">
        <ele>229.4</ele>
        <time>2022-04-10T11:09:51Z</time>
      </trkpt>
      <trkpt lat="46.49056" lon="5.351">
        <ele>229.2</ele>
        <time>2022-04-10T11:09:53Z</time>
      </trkpt>
      <trkpt lat="46.491" lon="5.35061">
        <ele>229.2</ele>
        <time>2022-04-10T11:10:01Z</time>
      </trkpt>
      <trkpt lat="46.49143" lon="5.35025">
        <ele>228.8</ele>
        <time>2022-04-10T11:10:08Z</time>
      </trkpt>
      <trkpt lat="46.49162" lon="5.35009">
        <ele>228.2</ele>
        <time>2022-04-10T11:10:11Z</time>
      </trkpt>
      <trkpt lat="46.49178" lon="5.34993">
        <ele>228</ele>
        <time>2022-04-10T11:10:14Z</time>
      </trkpt>
      <trkpt lat="46.49203" lon="5.34963">
        <ele>228</ele>
        <time>2022-04-10T11:10:19Z</time>
      </trkpt>
      <trkpt lat="46.49243" lon="5.34904">
        <ele>227.6</ele>
        <time>2022-04-10T11:10:27Z</time>
      </trkpt>
      <trkpt lat="46.49276" lon="5.34856">
        <ele>227.6</ele>
        <time>2022-04-10T11:10:34Z</time>
      </trkpt>
      <trkpt lat="46.49281" lon="5.34851">
        <ele>227.6</ele>
        <time>2022-04-10T11:10:35Z</time>
      </trkpt>
      <trkpt lat="46.49293" lon="5.34843">
        <ele>227.6</ele>
        <time>2022-04-10T11:10:37Z</time>
      </trkpt>
      <trkpt lat="46.49299" lon="5.34841">
        <ele>227.6</ele>
        <time>2022-04-10T11:10:38Z</time>
      </trkpt>
      <trkpt lat="46.49324" lon="5.34833">
        <ele>227.2</ele>
        <time>2022-04-10T11:10:42Z</time>
      </trkpt>
      <trkpt lat="46.49342" lon="5.3483">
        <ele>227</ele>
        <time>2022-04-10T11:10:45Z</time>
      </trkpt>
      <trkpt lat="46.49349" lon="5.34829">
        <ele>227</ele>
        <time>2022-04-10T11:10:46Z</time>
      </trkpt>
      <trkpt lat="46.49384" lon="5.34821">
        <ele>227</ele>
        <time>2022-04-10T11:10:52Z</time>
      </trkpt>
      <trkpt lat="46.49395" lon="5.34816">
        <ele>227</ele>
        <time>2022-04-10T11:10:54Z</time>
      </trkpt>
      <trkpt lat="46.49418" lon="5.34801">
        <ele>227.2</ele>
        <time>2022-04-10T11:10:58Z</time>
      </trkpt>
      <trkpt lat="46.49452" lon="5.34769">
        <ele>227</ele>
        <time>2022-04-10T11:11:04Z</time>
      </trkpt>
      <trkpt lat="46.49485" lon="5.34735">
        <ele>225.6</ele>
        <time>2022-04-10T11:11:09Z</time>
      </trkpt>
      <trkpt lat="46.49506" lon="5.34712">
        <ele>224.2</ele>
        <time>2022-04-10T11:11:12Z</time>
      </trkpt>
      <trkpt lat="46.49527" lon="5.34688">
        <ele>223.2</ele>
        <time>2022-04-10T11:11:15Z</time>
      </trkpt>
      <trkpt lat="46.4955" lon="5.34662">
        <ele>222</ele>
        <time>2022-04-10T11:11:18Z</time>
      </trkpt>
      <trkpt lat="46.49564" lon="5.34644">
        <ele>221</ele>
        <time>2022-04-10T11:11:20Z</time>
      </trkpt>
      <trkpt lat="46.49585" lon="5.34616">
        <ele>219.8</ele>
        <time>2022-04-10T11:11:23Z</time>
      </trkpt>
      <trkpt lat="46.49603" lon="5.34589">
        <ele>218.6</ele>
        <time>2022-04-10T11:11:26Z</time>
      </trkpt>
      <trkpt lat="46.49615" lon="5.34572">
        <ele>218</ele>
        <time>2022-04-10T11:11:28Z</time>
      </trkpt>
      <trkpt lat="46.49627" lon="5.34556">
        <ele>217.4</ele>
        <time>2022-04-10T11:11:30Z</time>
      </trkpt>
      <trkpt lat="46.49633" lon="5.3455">
        <ele>217</ele>
        <time>2022-04-10T11:11:31Z</time>
      </trkpt>
      <trkpt lat="46.49639" lon="5.34546">
        <ele>216.4</ele>
        <time>2022-04-10T11:11:32Z</time>
      </trkpt>
      <trkpt lat="46.49643" lon="5.34542">
        <ele>216.2</ele>
        <time>2022-04-10T11:11:33Z</time>
      </trkpt>
      <trkpt lat="46.49647" lon="5.34538">
        <ele>215.8</ele>
        <time>2022-04-10T11:11:34Z</time>
      </trkpt>
      <trkpt lat="46.49655" lon="5.34529">
        <ele>215.6</ele>
        <time>2022-04-10T11:11:36Z</time>
      </trkpt>
      <trkpt lat="46.49659" lon="5.34522">
        <ele>215.4</ele>
        <time>2022-04-10T11:11:37Z</time>
      </trkpt>
      <trkpt lat="46.49663" lon="5.34508">
        <ele>215.4</ele>
        <time>2022-04-10T11:11:39Z</time>
      </trkpt>
      <trkpt lat="46.49677" lon="5.34452">
        <ele>216</ele>
        <time>2022-04-10T11:11:46Z</time>
      </trkpt>
      <trkpt lat="46.49679" lon="5.34444">
        <ele>216</ele>
        <time>2022-04-10T11:11:47Z</time>
      </trkpt>
      <trkpt lat="46.49687" lon="5.34413">
        <ele>216.6</ele>
        <time>2022-04-10T11:11:51Z</time>
      </trkpt>
      <trkpt lat="46.49694" lon="5.3439">
        <ele>217</ele>
        <time>2022-04-10T11:11:54Z</time>
      </trkpt>
      <trkpt lat="46.49696" lon="5.34383">
        <ele>217.2</ele>
        <time>2022-04-10T11:11:55Z</time>
      </trkpt>
      <trkpt lat="46.497" lon="5.34368">
        <ele>217.6</ele>
        <time>2022-04-10T11:11:57Z</time>
      </trkpt>
      <trkpt lat="46.49705" lon="5.34355">
        <ele>218</ele>
        <time>2022-04-10T11:11:59Z</time>
      </trkpt>
      <trkpt lat="46.49708" lon="5.34348">
        <ele>218.2</ele>
        <time>2022-04-10T11:12:00Z</time>
      </trkpt>
      <trkpt lat="46.4971" lon="5.34342">
        <ele>218.4</ele>
        <time>2022-04-10T11:12:01Z</time>
      </trkpt>
      <trkpt lat="46.49721" lon="5.34316">
        <ele>219.4</ele>
        <time>2022-04-10T11:12:05Z</time>
      </trkpt>
      <trkpt lat="46.49735" lon="5.34278">
        <ele>220</ele>
        <time>2022-04-10T11:12:10Z</time>
      </trkpt>
      <trkpt lat="46.49763" lon="5.34225">
        <ele>220</ele>
        <time>2022-04-10T11:12:18Z</time>
      </trkpt>
      <trkpt lat="46.49789" lon="5.34181">
        <ele>220</ele>
        <time>2022-04-10T11:12:25Z</time>
      </trkpt>
      <trkpt lat="46.49808" lon="5.3415">
        <ele>220.4</ele>
        <time>2022-04-10T11:12:30Z</time>
      </trkpt>
      <trkpt lat="46.4982" lon="5.34134">
        <ele>220.6</ele>
        <time>2022-04-10T11:12:33Z</time>
      </trkpt>
      <trkpt lat="46.49846" lon="5.34091">
        <ele>220.6</ele>
        <time>2022-04-10T11:12:39Z</time>
      </trkpt>
      <trkpt lat="46.49881" lon="5.34045">
        <ele>220.2</ele>
        <time>2022-04-10T11:12:46Z</time>
      </trkpt>
      <trkpt lat="46.49891" lon="5.34033">
        <ele>220.2</ele>
        <time>2022-04-10T11:12:48Z</time>
      </trkpt>
      <trkpt lat="46.499" lon="5.34023">
        <ele>220.2</ele>
        <time>2022-04-10T11:12:50Z</time>
      </trkpt>
      <trkpt lat="46.49928" lon="5.33993">
        <ele>220.8</ele>
        <time>2022-04-10T11:12:56Z</time>
      </trkpt>
      <trkpt lat="46.49941" lon="5.3398">
        <ele>221.2</ele>
        <time>2022-04-10T11:12:59Z</time>
      </trkpt>
      <trkpt lat="46.4995" lon="5.33971">
        <ele>221.6</ele>
        <time>2022-04-10T11:13:01Z</time>
      </trkpt>
      <trkpt lat="46.49954" lon="5.33967">
        <ele>221.8</ele>
        <time>2022-04-10T11:13:02Z</time>
      </trkpt>
      <trkpt lat="46.49976" lon="5.33943">
        <ele>222.4</ele>
        <time>2022-04-10T11:13:07Z</time>
      </trkpt>
      <trkpt lat="46.49985" lon="5.33932">
        <ele>222.6</ele>
        <time>2022-04-10T11:13:09Z</time>
      </trkpt>
      <trkpt lat="46.50014" lon="5.33899">
        <ele>222.8</ele>
        <time>2022-04-10T11:13:15Z</time>
      </trkpt>
      <trkpt lat="46.50042" lon="5.33867">
        <ele>223</ele>
        <time>2022-04-10T11:13:20Z</time>
      </trkpt>
      <trkpt lat="46.50072" lon="5.33834">
        <ele>223</ele>
        <time>2022-04-10T11:13:25Z</time>
      </trkpt>
      <trkpt lat="46.5011" lon="5.33793">
        <ele>222</ele>
        <time>2022-04-10T11:13:31Z</time>
      </trkpt>
      <trkpt lat="46.50153" lon="5.33748">
        <ele>221.2</ele>
        <time>2022-04-10T11:13:38Z</time>
      </trkpt>
      <trkpt lat="46.50185" lon="5.33712">
        <ele>221.2</ele>
        <time>2022-04-10T11:13:44Z</time>
      </trkpt>
      <trkpt lat="46.50223" lon="5.33673">
        <ele>221.6</ele>
        <time>2022-04-10T11:13:51Z</time>
      </trkpt>
      <trkpt lat="46.5027" lon="5.33621">
        <ele>221.6</ele>
        <time>2022-04-10T11:14:00Z</time>
      </trkpt>
      <trkpt lat="46.50315" lon="5.33574">
        <ele>220.8</ele>
        <time>2022-04-10T11:14:08Z</time>
      </trkpt>
      <trkpt lat="46.50354" lon="5.33532">
        <ele>220.4</ele>
        <time>2022-04-10T11:14:15Z</time>
      </trkpt>
      <trkpt lat="46.50389" lon="5.33496">
        <ele>219.8</ele>
        <time>2022-04-10T11:14:21Z</time>
      </trkpt>
      <trkpt lat="46.504" lon="5.33484">
        <ele>219.6</ele>
        <time>2022-04-10T11:14:23Z</time>
      </trkpt>
      <trkpt lat="46.50435" lon="5.33446">
        <ele>218.8</ele>
        <time>2022-04-10T11:14:29Z</time>
      </trkpt>
      <trkpt lat="46.5045" lon="5.33422">
        <ele>218.6</ele>
        <time>2022-04-10T11:14:32Z</time>
      </trkpt>
      <trkpt lat="46.50454" lon="5.33414">
        <ele>218.6</ele>
        <time>2022-04-10T11:14:33Z</time>
      </trkpt>
      <trkpt lat="46.50462" lon="5.33394">
        <ele>218</ele>
        <time>2022-04-10T11:14:35Z</time>
      </trkpt>
      <trkpt lat="46.50464" lon="5.33383">
        <ele>217.8</ele>
        <time>2022-04-10T11:14:36Z</time>
      </trkpt>
      <trkpt lat="46.50467" lon="5.33362">
        <ele>217.6</ele>
        <time>2022-04-10T11:14:38Z</time>
      </trkpt>
      <trkpt lat="46.5047" lon="5.33319">
        <ele>217.2</ele>
        <time>2022-04-10T11:14:42Z</time>
      </trkpt>
      <trkpt lat="46.50471" lon="5.33299">
        <ele>217.2</ele>
        <time>2022-04-10T11:14:44Z</time>
      </trkpt>
      <trkpt lat="46.50473" lon="5.33279">
        <ele>217.2</ele>
        <time>2022-04-10T11:14:46Z</time>
      </trkpt>
      <trkpt lat="46.50472" lon="5.33229">
        <ele>217.6</ele>
        <time>2022-04-10T11:14:51Z</time>
      </trkpt>
      <trkpt lat="46.50473" lon="5.33184">
        <ele>217.8</ele>
        <time>2022-04-10T11:14:56Z</time>
      </trkpt>
      <trkpt lat="46.50472" lon="5.33152">
        <ele>217.8</ele>
        <time>2022-04-10T11:14:59Z</time>
      </trkpt>
      <trkpt lat="46.50472" lon="5.33117">
        <ele>217.4</ele>
        <time>2022-04-10T11:15:02Z</time>
      </trkpt>
      <trkpt lat="46.50473" lon="5.33046">
        <ele>216.4</ele>
        <time>2022-04-10T11:15:08Z</time>
      </trkpt>
      <trkpt lat="46.50474" lon="5.33008">
        <ele>215</ele>
        <time>2022-04-10T11:15:11Z</time>
      </trkpt>
      <trkpt lat="46.50474" lon="5.32982">
        <ele>214</ele>
        <time>2022-04-10T11:15:13Z</time>
      </trkpt>
      <trkpt lat="46.50475" lon="5.32955">
        <ele>213.2</ele>
        <time>2022-04-10T11:15:15Z</time>
      </trkpt>
      <trkpt lat="46.50475" lon="5.32944">
        <ele>212.6</ele>
        <time>2022-04-10T11:15:16Z</time>
      </trkpt>
      <trkpt lat="46.50476" lon="5.32902">
        <ele>211.4</ele>
        <time>2022-04-10T11:15:19Z</time>
      </trkpt>
      <trkpt lat="46.50477" lon="5.32875">
        <ele>210.2</ele>
        <time>2022-04-10T11:15:21Z</time>
      </trkpt>
      <trkpt lat="46.50477" lon="5.32848">
        <ele>209.4</ele>
        <time>2022-04-10T11:15:23Z</time>
      </trkpt>
      <trkpt lat="46.50478" lon="5.32834">
        <ele>209</ele>
        <time>2022-04-10T11:15:24Z</time>
      </trkpt>
      <trkpt lat="46.50478" lon="5.32807">
        <ele>208</ele>
        <time>2022-04-10T11:15:26Z</time>
      </trkpt>
      <trkpt lat="46.50478" lon="5.32768">
        <ele>206.4</ele>
        <time>2022-04-10T11:15:29Z</time>
      </trkpt>
      <trkpt lat="46.50479" lon="5.32731">
        <ele>205.2</ele>
        <time>2022-04-10T11:15:32Z</time>
      </trkpt>
      <trkpt lat="46.5048" lon="5.32645">
        <ele>204.4</ele>
        <time>2022-04-10T11:15:39Z</time>
      </trkpt>
      <trkpt lat="46.5048" lon="5.32633">
        <ele>204.2</ele>
        <time>2022-04-10T11:15:40Z</time>
      </trkpt>
      <trkpt lat="46.50478" lon="5.32552">
        <ele>202.8</ele>
        <time>2022-04-10T11:15:47Z</time>
      </trkpt>
      <trkpt lat="46.50477" lon="5.3254">
        <ele>202.6</ele>
        <time>2022-04-10T11:15:48Z</time>
      </trkpt>
      <trkpt lat="46.50472" lon="5.32471">
        <ele>201.8</ele>
        <time>2022-04-10T11:15:54Z</time>
      </trkpt>
      <trkpt lat="46.50466" lon="5.32426">
        <ele>201</ele>
        <time>2022-04-10T11:15:58Z</time>
      </trkpt>
      <trkpt lat="46.50459" lon="5.32393">
        <ele>200.8</ele>
        <time>2022-04-10T11:16:01Z</time>
      </trkpt>
      <trkpt lat="46.50448" lon="5.3234">
        <ele>200.4</ele>
        <time>2022-04-10T11:16:06Z</time>
      </trkpt>
      <trkpt lat="46.50435" lon="5.3227">
        <ele>200.2</ele>
        <time>2022-04-10T11:16:13Z</time>
      </trkpt>
      <trkpt lat="46.50434" lon="5.32208">
        <ele>200.2</ele>
        <time>2022-04-10T11:16:19Z</time>
      </trkpt>
      <trkpt lat="46.50442" lon="5.32192">
        <ele>200.2</ele>
        <time>2022-04-10T11:16:21Z</time>
      </trkpt>
      <trkpt lat="46.50454" lon="5.32182">
        <ele>200</ele>
        <time>2022-04-10T11:16:23Z</time>
      </trkpt>
      <trkpt lat="46.50463" lon="5.32169">
        <ele>200</ele>
        <time>2022-04-10T11:16:25Z</time>
      </trkpt>
      <trkpt lat="46.50477" lon="5.32125">
        <ele>200</ele>
        <time>2022-04-10T11:16:30Z</time>
      </trkpt>
      <trkpt lat="46.505" lon="5.32069">
        <ele>200.4</ele>
        <time>2022-04-10T11:16:37Z</time>
      </trkpt>
      <trkpt lat="46.50533" lon="5.32016">
        <ele>200.6</ele>
        <time>2022-04-10T11:16:45Z</time>
      </trkpt>
      <trkpt lat="46.50554" lon="5.31984">
        <ele>200.6</ele>
        <time>2022-04-10T11:16:51Z</time>
      </trkpt>
      <trkpt lat="46.5057" lon="5.31943">
        <ele>201.8</ele>
        <time>2022-04-10T11:16:58Z</time>
      </trkpt>
      <trkpt lat="46.50581" lon="5.31918">
        <ele>203.2</ele>
        <time>2022-04-10T11:17:03Z</time>
      </trkpt>
      <trkpt lat="46.50587" lon="5.31902">
        <ele>204.2</ele>
        <time>2022-04-10T11:17:06Z</time>
      </trkpt>
      <trkpt lat="46.50595" lon="5.31882">
        <ele>205.2</ele>
        <time>2022-04-10T11:17:10Z</time>
      </trkpt>
      <trkpt lat="46.50597" lon="5.31877">
        <ele>205.4</ele>
        <time>2022-04-10T11:17:11Z</time>
      </trkpt>
      <trkpt lat="46.50607" lon="5.31853">
        <ele>206.2</ele>
        <time>2022-04-10T11:17:16Z</time>
      </trkpt>
      <trkpt lat="46.50612" lon="5.31842">
        <ele>206.6</ele>
        <time>2022-04-10T11:17:18Z</time>
      </trkpt>
      <trkpt lat="46.5062" lon="5.31821">
        <ele>207.8</ele>
        <time>2022-04-10T11:17:22Z</time>
      </trkpt>
      <trkpt lat="46.50628" lon="5.31794">
        <ele>208.2</ele>
        <time>2022-04-10T11:17:26Z</time>
      </trkpt>
      <trkpt lat="46.50629" lon="5.31787">
        <ele>208.4</ele>
        <time>2022-04-10T11:17:27Z</time>
      </trkpt>
      <trkpt lat="46.50633" lon="5.31774">
        <ele>209</ele>
        <time>2022-04-10T11:17:29Z</time>
      </trkpt>
      <trkpt lat="46.50641" lon="5.31747">
        <ele>209.4</ele>
        <time>2022-04-10T11:17:33Z</time>
      </trkpt>
      <trkpt lat="46.50644" lon="5.3174">
        <ele>209.4</ele>
        <time>2022-04-10T11:17:34Z</time>
      </trkpt>
      <trkpt lat="46.50655" lon="5.31725">
        <ele>209.4</ele>
        <time>2022-04-10T11:17:37Z</time>
      </trkpt>
      <trkpt lat="46.50659" lon="5.31721">
        <ele>209.4</ele>
        <time>2022-04-10T11:17:38Z</time>
      </trkpt>
      <trkpt lat="46.50669" lon="5.31715">
        <ele>209.4</ele>
        <time>2022-04-10T11:17:40Z</time>
      </trkpt>
      <trkpt lat="46.5068" lon="5.31712">
        <ele>209.6</ele>
        <time>2022-04-10T11:17:42Z</time>
      </trkpt>
      <trkpt lat="46.5072" lon="5.31708">
        <ele>210</ele>
        <time>2022-04-10T11:17:49Z</time>
      </trkpt>
      <trkpt lat="46.50767" lon="5.31705">
        <ele>210.2</ele>
        <time>2022-04-10T11:17:57Z</time>
      </trkpt>
      <trkpt lat="46.50772" lon="5.31706">
        <ele>210.4</ele>
        <time>2022-04-10T11:17:58Z</time>
      </trkpt>
      <trkpt lat="46.50788" lon="5.31716">
        <ele>210.4</ele>
        <time>2022-04-10T11:18:01Z</time>
      </trkpt>
      <trkpt lat="46.50827" lon="5.31745">
        <ele>210.4</ele>
        <time>2022-04-10T11:18:09Z</time>
      </trkpt>
      <trkpt lat="46.50838" lon="5.31747">
        <ele>210.6</ele>
        <time>2022-04-10T11:18:11Z</time>
      </trkpt>
      <trkpt lat="46.50848" lon="5.31745">
        <ele>210.6</ele>
        <time>2022-04-10T11:18:13Z</time>
      </trkpt>
      <trkpt lat="46.50856" lon="5.31739">
        <ele>210.6</ele>
        <time>2022-04-10T11:18:15Z</time>
      </trkpt>
      <trkpt lat="46.50865" lon="5.3173">
        <ele>210.8</ele>
        <time>2022-04-10T11:18:17Z</time>
      </trkpt>
      <trkpt lat="46.50874" lon="5.3172">
        <ele>211.2</ele>
        <time>2022-04-10T11:18:19Z</time>
      </trkpt>
      <trkpt lat="46.50904" lon="5.31689">
        <ele>211.4</ele>
        <time>2022-04-10T11:18:25Z</time>
      </trkpt>
      <trkpt lat="46.50938" lon="5.31653">
        <ele>211.4</ele>
        <time>2022-04-10T11:18:31Z</time>
      </trkpt>
      <trkpt lat="46.50987" lon="5.31601">
        <ele>210</ele>
        <time>2022-04-10T11:18:39Z</time>
      </trkpt>
      <trkpt lat="46.5102" lon="5.31569">
        <ele>210</ele>
        <time>2022-04-10T11:18:45Z</time>
      </trkpt>
      <trkpt lat="46.51029" lon="5.31558">
        <ele>210</ele>
        <time>2022-04-10T11:18:47Z</time>
      </trkpt>
      <trkpt lat="46.51037" lon="5.31544">
        <ele>210</ele>
        <time>2022-04-10T11:18:49Z</time>
      </trkpt>
      <trkpt lat="46.51041" lon="5.31536">
        <ele>210.2</ele>
        <time>2022-04-10T11:18:50Z</time>
      </trkpt>
      <trkpt lat="46.51051" lon="5.31496">
        <ele>210</ele>
        <time>2022-04-10T11:18:54Z</time>
      </trkpt>
      <trkpt lat="46.51062" lon="5.31449">
        <ele>209.8</ele>
        <time>2022-04-10T11:18:58Z</time>
      </trkpt>
      <trkpt lat="46.51064" lon="5.31438">
        <ele>209.6</ele>
        <time>2022-04-10T11:18:59Z</time>
      </trkpt>
      <trkpt lat="46.51069" lon="5.31413">
        <ele>208.6</ele>
        <time>2022-04-10T11:19:01Z</time>
      </trkpt>
      <trkpt lat="46.51073" lon="5.31374">
        <ele>207.6</ele>
        <time>2022-04-10T11:19:04Z</time>
      </trkpt>
      <trkpt lat="46.51075" lon="5.31361">
        <ele>207.2</ele>
        <time>2022-04-10T11:19:05Z</time>
      </trkpt>
      <trkpt lat="46.51074" lon="5.31336">
        <ele>206.6</ele>
        <time>2022-04-10T11:19:07Z</time>
      </trkpt>
      <trkpt lat="46.51074" lon="5.31324">
        <ele>206.4</ele>
        <time>2022-04-10T11:19:08Z</time>
      </trkpt>
      <trkpt lat="46.51075" lon="5.31313">
        <ele>206.2</ele>
        <time>2022-04-10T11:19:09Z</time>
      </trkpt>
      <trkpt lat="46.51084" lon="5.31293">
        <ele>205.6</ele>
        <time>2022-04-10T11:19:11Z</time>
      </trkpt>
      <trkpt lat="46.5109" lon="5.31283">
        <ele>205.2</ele>
        <time>2022-04-10T11:19:12Z</time>
      </trkpt>
      <trkpt lat="46.51105" lon="5.31266">
        <ele>204.6</ele>
        <time>2022-04-10T11:19:14Z</time>
      </trkpt>
      <trkpt lat="46.51118" lon="5.3125">
        <ele>203.8</ele>
        <time>2022-04-10T11:19:16Z</time>
      </trkpt>
      <trkpt lat="46.51131" lon="5.3123">
        <ele>203.2</ele>
        <time>2022-04-10T11:19:18Z</time>
      </trkpt>
      <trkpt lat="46.51138" lon="5.31222">
        <ele>202.8</ele>
        <time>2022-04-10T11:19:19Z</time>
      </trkpt>
      <trkpt lat="46.51159" lon="5.31197">
        <ele>201.8</ele>
        <time>2022-04-10T11:19:22Z</time>
      </trkpt>
      <trkpt lat="46.51172" lon="5.31181">
        <ele>201.4</ele>
        <time>2022-04-10T11:19:24Z</time>
      </trkpt>
      <trkpt lat="46.51195" lon="5.31147">
        <ele>200.6</ele>
        <time>2022-04-10T11:19:28Z</time>
      </trkpt>
      <trkpt lat="46.51206" lon="5.31132">
        <ele>200.6</ele>
        <time>2022-04-10T11:19:30Z</time>
      </trkpt>
      <trkpt lat="46.51247" lon="5.31084">
        <ele>199.6</ele>
        <time>2022-04-10T11:19:36Z</time>
      </trkpt>
      <trkpt lat="46.51254" lon="5.31078">
        <ele>199.4</ele>
        <time>2022-04-10T11:19:37Z</time>
      </trkpt>
      <trkpt lat="46.51262" lon="5.31073">
        <ele>199.4</ele>
        <time>2022-04-10T11:19:38Z</time>
      </trkpt>
      <trkpt lat="46.5127" lon="5.31071">
        <ele>199.2</ele>
        <time>2022-04-10T11:19:39Z</time>
      </trkpt>
      <trkpt lat="46.51287" lon="5.31072">
        <ele>199</ele>
        <time>2022-04-10T11:19:41Z</time>
      </trkpt>
      <trkpt lat="46.51312" lon="5.31072">
        <ele>198.6</ele>
        <time>2022-04-10T11:19:44Z</time>
      </trkpt>
      <trkpt lat="46.51372" lon="5.31069">
        <ele>198.6</ele>
        <time>2022-04-10T11:19:52Z</time>
      </trkpt>
      <trkpt lat="46.51427" lon="5.31067">
        <ele>198.4</ele>
        <time>2022-04-10T11:20:00Z</time>
      </trkpt>
      <trkpt lat="46.51482" lon="5.31068">
        <ele>198.4</ele>
        <time>2022-04-10T11:20:08Z</time>
      </trkpt>
      <trkpt lat="46.51534" lon="5.31071">
        <ele>198.4</ele>
        <time>2022-04-10T11:20:16Z</time>
      </trkpt>
      <trkpt lat="46.51587" lon="5.31079">
        <ele>199</ele>
        <time>2022-04-10T11:20:25Z</time>
      </trkpt>
      <trkpt lat="46.51624" lon="5.31096">
        <ele>199</ele>
        <time>2022-04-10T11:20:32Z</time>
      </trkpt>
      <trkpt lat="46.51639" lon="5.31101">
        <ele>199</ele>
        <time>2022-04-10T11:20:35Z</time>
      </trkpt>
      <trkpt lat="46.51653" lon="5.31102">
        <ele>199.4</ele>
        <time>2022-04-10T11:20:38Z</time>
      </trkpt>
      <trkpt lat="46.51662" lon="5.31101">
        <ele>199.8</ele>
        <time>2022-04-10T11:20:40Z</time>
      </trkpt>
      <trkpt lat="46.51671" lon="5.31106">
        <ele>200</ele>
        <time>2022-04-10T11:20:42Z</time>
      </trkpt>
      <trkpt lat="46.51686" lon="5.31131">
        <ele>200.8</ele>
        <time>2022-04-10T11:20:46Z</time>
      </trkpt>
      <trkpt lat="46.51705" lon="5.31157">
        <ele>201</ele>
        <time>2022-04-10T11:20:50Z</time>
      </trkpt>
      <trkpt lat="46.51711" lon="5.31163">
        <ele>201</ele>
        <time>2022-04-10T11:20:51Z</time>
      </trkpt>
      <trkpt lat="46.51725" lon="5.31171">
        <ele>200.8</ele>
        <time>2022-04-10T11:20:53Z</time>
      </trkpt>
      <trkpt lat="46.5174" lon="5.31177">
        <ele>200.4</ele>
        <time>2022-04-10T11:20:55Z</time>
      </trkpt>
      <trkpt lat="46.51765" lon="5.31179">
        <ele>199.8</ele>
        <time>2022-04-10T11:20:58Z</time>
      </trkpt>
      <trkpt lat="46.51782" lon="5.3118">
        <ele>199.2</ele>
        <time>2022-04-10T11:21:00Z</time>
      </trkpt>
      <trkpt lat="46.518" lon="5.3118">
        <ele>198.2</ele>
        <time>2022-04-10T11:21:02Z</time>
      </trkpt>
      <trkpt lat="46.51837" lon="5.31188">
        <ele>196.8</ele>
        <time>2022-04-10T11:21:06Z</time>
      </trkpt>
      <trkpt lat="46.51854" lon="5.31197">
        <ele>195.8</ele>
        <time>2022-04-10T11:21:08Z</time>
      </trkpt>
      <trkpt lat="46.51862" lon="5.31204">
        <ele>195.4</ele>
        <time>2022-04-10T11:21:09Z</time>
      </trkpt>
      <trkpt lat="46.51869" lon="5.31212">
        <ele>195</ele>
        <time>2022-04-10T11:21:10Z</time>
      </trkpt>
      <trkpt lat="46.51888" lon="5.31238">
        <ele>194.2</ele>
        <time>2022-04-10T11:21:13Z</time>
      </trkpt>
      <trkpt lat="46.51898" lon="5.31255">
        <ele>193.6</ele>
        <time>2022-04-10T11:21:15Z</time>
      </trkpt>
      <trkpt lat="46.51929" lon="5.31302">
        <ele>193.2</ele>
        <time>2022-04-10T11:21:21Z</time>
      </trkpt>
      <trkpt lat="46.51934" lon="5.31309">
        <ele>193</ele>
        <time>2022-04-10T11:21:22Z</time>
      </trkpt>
      <trkpt lat="46.51967" lon="5.31359">
        <ele>192.8</ele>
        <time>2022-04-10T11:21:29Z</time>
      </trkpt>
      <trkpt lat="46.52008" lon="5.31418">
        <ele>193.2</ele>
        <time>2022-04-10T11:21:38Z</time>
      </trkpt>
      <trkpt lat="46.52012" lon="5.31424">
        <ele>193.2</ele>
        <time>2022-04-10T11:21:39Z</time>
      </trkpt>
      <trkpt lat="46.52026" lon="5.31442">
        <ele>193.6</ele>
        <time>2022-04-10T11:21:42Z</time>
      </trkpt>
      <trkpt lat="46.52034" lon="5.31453">
        <ele>193.8</ele>
        <time>2022-04-10T11:21:44Z</time>
      </trkpt>
      <trkpt lat="46.52042" lon="5.31465">
        <ele>194</ele>
        <time>2022-04-10T11:21:46Z</time>
      </trkpt>
      <trkpt lat="46.5205" lon="5.31477">
        <ele>194.2</ele>
        <time>2022-04-10T11:21:48Z</time>
      </trkpt>
      <trkpt lat="46.52069" lon="5.31506">
        <ele>194.8</ele>
        <time>2022-04-10T11:21:53Z</time>
      </trkpt>
      <trkpt lat="46.52076" lon="5.31517">
        <ele>195.2</ele>
        <time>2022-04-10T11:21:55Z</time>
      </trkpt>
      <trkpt lat="46.52099" lon="5.31549">
        <ele>196.2</ele>
        <time>2022-04-10T11:22:01Z</time>
      </trkpt>
      <trkpt lat="46.52121" lon="5.31579">
        <ele>197.2</ele>
        <time>2022-04-10T11:22:07Z</time>
      </trkpt>
      <trkpt lat="46.52125" lon="5.31584">
        <ele>197.4</ele>
        <time>2022-04-10T11:22:08Z</time>
      </trkpt>
      <trkpt lat="46.52138" lon="5.31605">
        <ele>198.2</ele>
        <time>2022-04-10T11:22:12Z</time>
      </trkpt>
      <trkpt lat="46.52141" lon="5.31609">
        <ele>198.2</ele>
        <time>2022-04-10T11:22:13Z</time>
      </trkpt>
      <trkpt lat="46.52145" lon="5.31614">
        <ele>198.2</ele>
        <time>2022-04-10T11:22:14Z</time>
      </trkpt>
      <trkpt lat="46.52148" lon="5.31619">
        <ele>198.6</ele>
        <time>2022-04-10T11:22:15Z</time>
      </trkpt>
      <trkpt lat="46.52162" lon="5.3164">
        <ele>199.2</ele>
        <time>2022-04-10T11:22:19Z</time>
      </trkpt>
      <trkpt lat="46.52172" lon="5.31655">
        <ele>199.8</ele>
        <time>2022-04-10T11:22:22Z</time>
      </trkpt>
      <trkpt lat="46.52176" lon="5.3166">
        <ele>200</ele>
        <time>2022-04-10T11:22:23Z</time>
      </trkpt>
      <trkpt lat="46.52179" lon="5.31664">
        <ele>200.4</ele>
        <time>2022-04-10T11:22:24Z</time>
      </trkpt>
      <trkpt lat="46.52194" lon="5.31683">
        <ele>201.2</ele>
        <time>2022-04-10T11:22:28Z</time>
      </trkpt>
      <trkpt lat="46.522" lon="5.31691">
        <ele>201.4</ele>
        <time>2022-04-10T11:22:30Z</time>
      </trkpt>
      <trkpt lat="46.52218" lon="5.31714">
        <ele>202.2</ele>
        <time>2022-04-10T11:22:35Z</time>
      </trkpt>
      <trkpt lat="46.52222" lon="5.31719">
        <ele>202.4</ele>
        <time>2022-04-10T11:22:36Z</time>
      </trkpt>
      <trkpt lat="46.52225" lon="5.31724">
        <ele>202.4</ele>
        <time>2022-04-10T11:22:37Z</time>
      </trkpt>
      <trkpt lat="46.5224" lon="5.31747">
        <ele>203</ele>
        <time>2022-04-10T11:22:41Z</time>
      </trkpt>
      <trkpt lat="46.52251" lon="5.31763">
        <ele>203.6</ele>
        <time>2022-04-10T11:22:44Z</time>
      </trkpt>
      <trkpt lat="46.52278" lon="5.31805">
        <ele>204.6</ele>
        <time>2022-04-10T11:22:52Z</time>
      </trkpt>
      <trkpt lat="46.52305" lon="5.31844">
        <ele>205.4</ele>
        <time>2022-04-10T11:23:00Z</time>
      </trkpt>
      <trkpt lat="46.52329" lon="5.31878">
        <ele>206.6</ele>
        <time>2022-04-10T11:23:07Z</time>
      </trkpt>
      <trkpt lat="46.52336" lon="5.31888">
        <ele>207</ele>
        <time>2022-04-10T11:23:09Z</time>
      </trkpt>
      <trkpt lat="46.52346" lon="5.31903">
        <ele>207.6</ele>
        <time>2022-04-10T11:23:12Z</time>
      </trkpt>
      <trkpt lat="46.52375" lon="5.31941">
        <ele>208.2</ele>
        <time>2022-04-10T11:23:19Z</time>
      </trkpt>
      <trkpt lat="46.52411" lon="5.31991">
        <ele>207.6</ele>
        <time>2022-04-10T11:23:26Z</time>
      </trkpt>
      <trkpt lat="46.52439" lon="5.32031">
        <ele>206.6</ele>
        <time>2022-04-10T11:23:31Z</time>
      </trkpt>
      <trkpt lat="46.52445" lon="5.32039">
        <ele>206.2</ele>
        <time>2022-04-10T11:23:32Z</time>
      </trkpt>
      <trkpt lat="46.52463" lon="5.32064">
        <ele>205.4</ele>
        <time>2022-04-10T11:23:35Z</time>
      </trkpt>
      <trkpt lat="46.52486" lon="5.32098">
        <ele>204.2</ele>
        <time>2022-04-10T11:23:39Z</time>
      </trkpt>
      <trkpt lat="46.52498" lon="5.32114">
        <ele>203.6</ele>
        <time>2022-04-10T11:23:41Z</time>
      </trkpt>
      <trkpt lat="46.5251" lon="5.32131">
        <ele>203.2</ele>
        <time>2022-04-10T11:23:43Z</time>
      </trkpt>
      <trkpt lat="46.52535" lon="5.32164">
        <ele>202</ele>
        <time>2022-04-10T11:23:47Z</time>
      </trkpt>
      <trkpt lat="46.52549" lon="5.32178">
        <ele>201.4</ele>
        <time>2022-04-10T11:23:49Z</time>
      </trkpt>
      <trkpt lat="46.52557" lon="5.32184">
        <ele>201</ele>
        <time>2022-04-10T11:23:50Z</time>
      </trkpt>
      <trkpt lat="46.52588" lon="5.32203">
        <ele>200</ele>
        <time>2022-04-10T11:23:54Z</time>
      </trkpt>
      <trkpt lat="46.52596" lon="5.32207">
        <ele>199.6</ele>
        <time>2022-04-10T11:23:55Z</time>
      </trkpt>
      <trkpt lat="46.52623" lon="5.32219">
        <ele>198.6</ele>
        <time>2022-04-10T11:23:58Z</time>
      </trkpt>
      <trkpt lat="46.52648" lon="5.32235">
        <ele>197</ele>
        <time>2022-04-10T11:24:01Z</time>
      </trkpt>
      <trkpt lat="46.52665" lon="5.32247">
        <ele>196</ele>
        <time>2022-04-10T11:24:03Z</time>
      </trkpt>
      <trkpt lat="46.52687" lon="5.32269">
        <ele>194.6</ele>
        <time>2022-04-10T11:24:06Z</time>
      </trkpt>
      <trkpt lat="46.52694" lon="5.32276">
        <ele>194.2</ele>
        <time>2022-04-10T11:24:07Z</time>
      </trkpt>
      <trkpt lat="46.52712" lon="5.32298">
        <ele>193.4</ele>
        <time>2022-04-10T11:24:10Z</time>
      </trkpt>
      <trkpt lat="46.52729" lon="5.32321">
        <ele>193</ele>
        <time>2022-04-10T11:24:13Z</time>
      </trkpt>
      <trkpt lat="46.52767" lon="5.32365">
        <ele>192.8</ele>
        <time>2022-04-10T11:24:20Z</time>
      </trkpt>
      <trkpt lat="46.52813" lon="5.32418">
        <ele>192.6</ele>
        <time>2022-04-10T11:24:29Z</time>
      </trkpt>
      <trkpt lat="46.52853" lon="5.32461">
        <ele>192.6</ele>
        <time>2022-04-10T11:24:37Z</time>
      </trkpt>
      <trkpt lat="46.52884" lon="5.32493">
        <ele>192.4</ele>
        <time>2022-04-10T11:24:43Z</time>
      </trkpt>
      <trkpt lat="46.5291" lon="5.32518">
        <ele>192.6</ele>
        <time>2022-04-10T11:24:48Z</time>
      </trkpt>
      <trkpt lat="46.52954" lon="5.32563">
        <ele>192.8</ele>
        <time>2022-04-10T11:24:57Z</time>
      </trkpt>
      <trkpt lat="46.52967" lon="5.32577">
        <ele>192.8</ele>
        <time>2022-04-10T11:25:00Z</time>
      </trkpt>
      <trkpt lat="46.52999" lon="5.32609">
        <ele>193.6</ele>
        <time>2022-04-10T11:25:08Z</time>
      </trkpt>
      <trkpt lat="46.53002" lon="5.32613">
        <ele>193.8</ele>
        <time>2022-04-10T11:25:09Z</time>
      </trkpt>
      <trkpt lat="46.53019" lon="5.32631">
        <ele>194.8</ele>
        <time>2022-04-10T11:25:14Z</time>
      </trkpt>
      <trkpt lat="46.53025" lon="5.32639">
        <ele>195</ele>
        <time>2022-04-10T11:25:16Z</time>
      </trkpt>
      <trkpt lat="46.53041" lon="5.32656">
        <ele>196</ele>
        <time>2022-04-10T11:25:21Z</time>
      </trkpt>
      <trkpt lat="46.5305" lon="5.32666">
        <ele>197</ele>
        <time>2022-04-10T11:25:24Z</time>
      </trkpt>
      <trkpt lat="46.53056" lon="5.32672">
        <ele>197.2</ele>
        <time>2022-04-10T11:25:26Z</time>
      </trkpt>
      <trkpt lat="46.53059" lon="5.32675">
        <ele>197.2</ele>
        <time>2022-04-10T11:25:27Z</time>
      </trkpt>
      <trkpt lat="46.53065" lon="5.32682">
        <ele>198</ele>
        <time>2022-04-10T11:25:29Z</time>
      </trkpt>
      <trkpt lat="46.53074" lon="5.32693">
        <ele>199.2</ele>
        <time>2022-04-10T11:25:32Z</time>
      </trkpt>
      <trkpt lat="46.5308" lon="5.32699">
        <ele>199.4</ele>
        <time>2022-04-10T11:25:34Z</time>
      </trkpt>
      <trkpt lat="46.53092" lon="5.32712">
        <ele>200.2</ele>
        <time>2022-04-10T11:25:38Z</time>
      </trkpt>
      <trkpt lat="46.53102" lon="5.32723">
        <ele>201.2</ele>
        <time>2022-04-10T11:25:42Z</time>
      </trkpt>
      <trkpt lat="46.53105" lon="5.32726">
        <ele>201.4</ele>
        <time>2022-04-10T11:25:43Z</time>
      </trkpt>
      <trkpt lat="46.5312" lon="5.32744">
        <ele>202.8</ele>
        <time>2022-04-10T11:25:49Z</time>
      </trkpt>
      <trkpt lat="46.53132" lon="5.32756">
        <ele>203.8</ele>
        <time>2022-04-10T11:25:53Z</time>
      </trkpt>
      <trkpt lat="46.53134" lon="5.3276">
        <ele>204.2</ele>
        <time>2022-04-10T11:25:54Z</time>
      </trkpt>
      <trkpt lat="46.53144" lon="5.32772">
        <ele>204.8</ele>
        <time>2022-04-10T11:25:58Z</time>
      </trkpt>
      <trkpt lat="46.53155" lon="5.32789">
        <ele>205.6</ele>
        <time>2022-04-10T11:26:03Z</time>
      </trkpt>
      <trkpt lat="46.53162" lon="5.32799">
        <ele>206.2</ele>
        <time>2022-04-10T11:26:06Z</time>
      </trkpt>
      <trkpt lat="46.53171" lon="5.32814">
        <ele>207.4</ele>
        <time>2022-04-10T11:26:10Z</time>
      </trkpt>
      <trkpt lat="46.53177" lon="5.32827">
        <ele>207.8</ele>
        <time>2022-04-10T11:26:13Z</time>
      </trkpt>
      <trkpt lat="46.53184" lon="5.32839">
        <ele>208.4</ele>
        <time>2022-04-10T11:26:16Z</time>
      </trkpt>
      <trkpt lat="46.53196" lon="5.32863">
        <ele>209.6</ele>
        <time>2022-04-10T11:26:22Z</time>
      </trkpt>
      <trkpt lat="46.53204" lon="5.32878">
        <ele>210.6</ele>
        <time>2022-04-10T11:26:26Z</time>
      </trkpt>
      <trkpt lat="46.53214" lon="5.32898">
        <ele>211.4</ele>
        <time>2022-04-10T11:26:31Z</time>
      </trkpt>
      <trkpt lat="46.53218" lon="5.32906">
        <ele>211.6</ele>
        <time>2022-04-10T11:26:33Z</time>
      </trkpt>
      <trkpt lat="46.53233" lon="5.32935">
        <ele>212.8</ele>
        <time>2022-04-10T11:26:40Z</time>
      </trkpt>
      <trkpt lat="46.53246" lon="5.3296">
        <ele>213.8</ele>
        <time>2022-04-10T11:26:46Z</time>
      </trkpt>
      <trkpt lat="46.53257" lon="5.32982">
        <ele>214.6</ele>
        <time>2022-04-10T11:26:51Z</time>
      </trkpt>
      <trkpt lat="46.53264" lon="5.32995">
        <ele>215</ele>
        <time>2022-04-10T11:26:54Z</time>
      </trkpt>
      <trkpt lat="46.53281" lon="5.33027">
        <ele>216</ele>
        <time>2022-04-10T11:27:01Z</time>
      </trkpt>
      <trkpt lat="46.53286" lon="5.33036">
        <ele>216.2</ele>
        <time>2022-04-10T11:27:03Z</time>
      </trkpt>
      <trkpt lat="46.53312" lon="5.33075">
        <ele>216.6</ele>
        <time>2022-04-10T11:27:11Z</time>
      </trkpt>
      <trkpt lat="46.53335" lon="5.33107">
        <ele>217.2</ele>
        <time>2022-04-10T11:27:17Z</time>
      </trkpt>
      <trkpt lat="46.53344" lon="5.33118">
        <ele>217.4</ele>
        <time>2022-04-10T11:27:19Z</time>
      </trkpt>
      <trkpt lat="46.53382" lon="5.33171">
        <ele>217.2</ele>
        <time>2022-04-10T11:27:28Z</time>
      </trkpt>
      <trkpt lat="46.53426" lon="5.33231">
        <ele>217.2</ele>
        <time>2022-04-10T11:27:38Z</time>
      </trkpt>
      <trkpt lat="46.53466" lon="5.33288">
        <ele>217.2</ele>
        <time>2022-04-10T11:27:47Z</time>
      </trkpt>
      <trkpt lat="46.5348" lon="5.33307">
        <ele>217.2</ele>
        <time>2022-04-10T11:27:50Z</time>
      </trkpt>
      <trkpt lat="46.53522" lon="5.33365">
        <ele>216.6</ele>
        <time>2022-04-10T11:27:59Z</time>
      </trkpt>
      <trkpt lat="46.53527" lon="5.33372">
        <ele>216.6</ele>
        <time>2022-04-10T11:28:00Z</time>
      </trkpt>
      <trkpt lat="46.53562" lon="5.33421">
        <ele>216.2</ele>
        <time>2022-04-10T11:28:07Z</time>
      </trkpt>
      <trkpt lat="46.53572" lon="5.33435">
        <ele>216.2</ele>
        <time>2022-04-10T11:28:09Z</time>
      </trkpt>
      <trkpt lat="46.53597" lon="5.3347">
        <ele>214.8</ele>
        <time>2022-04-10T11:28:14Z</time>
      </trkpt>
      <trkpt lat="46.53607" lon="5.33484">
        <ele>214.4</ele>
        <time>2022-04-10T11:28:16Z</time>
      </trkpt>
      <trkpt lat="46.5362" lon="5.33503">
        <ele>213.8</ele>
        <time>2022-04-10T11:28:19Z</time>
      </trkpt>
      <trkpt lat="46.53626" lon="5.33513">
        <ele>213.4</ele>
        <time>2022-04-10T11:28:21Z</time>
      </trkpt>
      <trkpt lat="46.53629" lon="5.3352">
        <ele>212.8</ele>
        <time>2022-04-10T11:28:23Z</time>
      </trkpt>
      <trkpt lat="46.53629" lon="5.33522">
        <ele>212.6</ele>
        <time>2022-04-10T11:28:24Z</time>
      </trkpt>
      <trkpt lat="46.53629" lon="5.33524">
        <ele>212.4</ele>
        <time>2022-04-10T11:28:27Z</time>
      </trkpt>
      <trkpt lat="46.53631" lon="5.33526">
        <ele>212</ele>
        <time>2022-04-10T11:28:34Z</time>
      </trkpt>
      <trkpt lat="46.53644" lon="5.33515">
        <ele>212.2</ele>
        <time>2022-04-10T11:28:39Z</time>
      </trkpt>
      <trkpt lat="46.53663" lon="5.33499">
        <ele>212.6</ele>
        <time>2022-04-10T11:28:44Z</time>
      </trkpt>
      <trkpt lat="46.53689" lon="5.33475">
        <ele>213.4</ele>
        <time>2022-04-10T11:28:50Z</time>
      </trkpt>
      <trkpt lat="46.53698" lon="5.33468">
        <ele>213.6</ele>
        <time>2022-04-10T11:28:52Z</time>
      </trkpt>
      <trkpt lat="46.53703" lon="5.33466">
        <ele>213.8</ele>
        <time>2022-04-10T11:28:53Z</time>
      </trkpt>
      <trkpt lat="46.53708" lon="5.33466">
        <ele>214</ele>
        <time>2022-04-10T11:28:54Z</time>
      </trkpt>
      <trkpt lat="46.53734" lon="5.33479">
        <ele>214.4</ele>
        <time>2022-04-10T11:28:58Z</time>
      </trkpt>
      <trkpt lat="46.53774" lon="5.33506">
        <ele>214</ele>
        <time>2022-04-10T11:29:04Z</time>
      </trkpt>
      <trkpt lat="46.53814" lon="5.33534">
        <ele>212.8</ele>
        <time>2022-04-10T11:29:10Z</time>
      </trkpt>
      <trkpt lat="46.53828" lon="5.33541">
        <ele>212.4</ele>
        <time>2022-04-10T11:29:12Z</time>
      </trkpt>
      <trkpt lat="46.53869" lon="5.33559">
        <ele>212</ele>
        <time>2022-04-10T11:29:18Z</time>
      </trkpt>
      <trkpt lat="46.53884" lon="5.33562">
        <ele>211.6</ele>
        <time>2022-04-10T11:29:20Z</time>
      </trkpt>
      <trkpt lat="46.53917" lon="5.33564">
        <ele>211.4</ele>
        <time>2022-04-10T11:29:24Z</time>
      </trkpt>
      <trkpt lat="46.53942" lon="5.33565">
        <ele>210.4</ele>
        <time>2022-04-10T11:29:27Z</time>
      </trkpt>
      <trkpt lat="46.5396" lon="5.33566">
        <ele>209</ele>
        <time>2022-04-10T11:29:29Z</time>
      </trkpt>
      <trkpt lat="46.53969" lon="5.33567">
        <ele>208.4</ele>
        <time>2022-04-10T11:29:30Z</time>
      </trkpt>
      <trkpt lat="46.53978" lon="5.33568">
        <ele>208.2</ele>
        <time>2022-04-10T11:29:31Z</time>
      </trkpt>
      <trkpt lat="46.53987" lon="5.33568">
        <ele>208</ele>
        <time>2022-04-10T11:29:32Z</time>
      </trkpt>
      <trkpt lat="46.54006" lon="5.33571">
        <ele>206.6</ele>
        <time>2022-04-10T11:29:34Z</time>
      </trkpt>
      <trkpt lat="46.54025" lon="5.33577">
        <ele>205.2</ele>
        <time>2022-04-10T11:29:36Z</time>
      </trkpt>
      <trkpt lat="46.54051" lon="5.33593">
        <ele>204</ele>
        <time>2022-04-10T11:29:39Z</time>
      </trkpt>
      <trkpt lat="46.54078" lon="5.3361">
        <ele>202.2</ele>
        <time>2022-04-10T11:29:42Z</time>
      </trkpt>
      <trkpt lat="46.54095" lon="5.33621">
        <ele>201</ele>
        <time>2022-04-10T11:29:44Z</time>
      </trkpt>
      <trkpt lat="46.54126" lon="5.33638">
        <ele>200</ele>
        <time>2022-04-10T11:29:48Z</time>
      </trkpt>
      <trkpt lat="46.54141" lon="5.33644">
        <ele>200</ele>
        <time>2022-04-10T11:29:50Z</time>
      </trkpt>
      <trkpt lat="46.54161" lon="5.33648">
        <ele>200.2</ele>
        <time>2022-04-10T11:29:53Z</time>
      </trkpt>
      <trkpt lat="46.54192" lon="5.33651">
        <ele>201.2</ele>
        <time>2022-04-10T11:29:58Z</time>
      </trkpt>
      <trkpt lat="46.54203" lon="5.33652">
        <ele>201.4</ele>
        <time>2022-04-10T11:30:00Z</time>
      </trkpt>
      <trkpt lat="46.5423" lon="5.33654">
        <ele>202.4</ele>
        <time>2022-04-10T11:30:05Z</time>
      </trkpt>
      <trkpt lat="46.54241" lon="5.33654">
        <ele>202.8</ele>
        <time>2022-04-10T11:30:07Z</time>
      </trkpt>
      <trkpt lat="46.54247" lon="5.33655">
        <ele>203</ele>
        <time>2022-04-10T11:30:08Z</time>
      </trkpt>
      <trkpt lat="46.54258" lon="5.33656">
        <ele>203.6</ele>
        <time>2022-04-10T11:30:10Z</time>
      </trkpt>
      <trkpt lat="46.54315" lon="5.3366">
        <ele>204.2</ele>
        <time>2022-04-10T11:30:19Z</time>
      </trkpt>
      <trkpt lat="46.54352" lon="5.33665">
        <ele>203</ele>
        <time>2022-04-10T11:30:24Z</time>
      </trkpt>
      <trkpt lat="46.54367" lon="5.33669">
        <ele>202.2</ele>
        <time>2022-04-10T11:30:26Z</time>
      </trkpt>
      <trkpt lat="46.54395" lon="5.3368">
        <ele>201</ele>
        <time>2022-04-10T11:30:30Z</time>
      </trkpt>
      <trkpt lat="46.54401" lon="5.33683">
        <ele>200.8</ele>
        <time>2022-04-10T11:30:31Z</time>
      </trkpt>
      <trkpt lat="46.54434" lon="5.33699">
        <ele>200.8</ele>
        <time>2022-04-10T11:30:37Z</time>
      </trkpt>
      <trkpt lat="46.54458" lon="5.33709">
        <ele>202</ele>
        <time>2022-04-10T11:30:43Z</time>
      </trkpt>
      <trkpt lat="46.54468" lon="5.33714">
        <ele>203</ele>
        <time>2022-04-10T11:30:46Z</time>
      </trkpt>
      <trkpt lat="46.54472" lon="5.33716">
        <ele>203.2</ele>
        <time>2022-04-10T11:30:47Z</time>
      </trkpt>
      <trkpt lat="46.54479" lon="5.3372">
        <ele>204</ele>
        <time>2022-04-10T11:30:49Z</time>
      </trkpt>
      <trkpt lat="46.54486" lon="5.33724">
        <ele>204.4</ele>
        <time>2022-04-10T11:30:51Z</time>
      </trkpt>
      <trkpt lat="46.54504" lon="5.33733">
        <ele>205.4</ele>
        <time>2022-04-10T11:30:56Z</time>
      </trkpt>
      <trkpt lat="46.5452" lon="5.33741">
        <ele>206.4</ele>
        <time>2022-04-10T11:31:01Z</time>
      </trkpt>
      <trkpt lat="46.5453" lon="5.33745">
        <ele>207</ele>
        <time>2022-04-10T11:31:04Z</time>
      </trkpt>
      <trkpt lat="46.54533" lon="5.33746">
        <ele>207.6</ele>
        <time>2022-04-10T11:31:05Z</time>
      </trkpt>
      <trkpt lat="46.54547" lon="5.33753">
        <ele>208.6</ele>
        <time>2022-04-10T11:31:09Z</time>
      </trkpt>
      <trkpt lat="46.54556" lon="5.33759">
        <ele>209.4</ele>
        <time>2022-04-10T11:31:12Z</time>
      </trkpt>
      <trkpt lat="46.5456" lon="5.3376">
        <ele>209.6</ele>
        <time>2022-04-10T11:31:13Z</time>
      </trkpt>
      <trkpt lat="46.54576" lon="5.33767">
        <ele>210.6</ele>
        <time>2022-04-10T11:31:18Z</time>
      </trkpt>
      <trkpt lat="46.54583" lon="5.33769">
        <ele>211</ele>
        <time>2022-04-10T11:31:20Z</time>
      </trkpt>
      <trkpt lat="46.54595" lon="5.33773">
        <ele>211.8</ele>
        <time>2022-04-10T11:31:23Z</time>
      </trkpt>
      <trkpt lat="46.54614" lon="5.33778">
        <ele>213</ele>
        <time>2022-04-10T11:31:28Z</time>
      </trkpt>
      <trkpt lat="46.54622" lon="5.3378">
        <ele>213.4</ele>
        <time>2022-04-10T11:31:30Z</time>
      </trkpt>
      <trkpt lat="46.54657" lon="5.3379">
        <ele>214</ele>
        <time>2022-04-10T11:31:37Z</time>
      </trkpt>
      <trkpt lat="46.54692" lon="5.33792">
        <ele>213.6</ele>
        <time>2022-04-10T11:31:42Z</time>
      </trkpt>
      <trkpt lat="46.54738" lon="5.33781">
        <ele>212.2</ele>
        <time>2022-04-10T11:31:48Z</time>
      </trkpt>
      <trkpt lat="46.54746" lon="5.3378">
        <ele>212</ele>
        <time>2022-04-10T11:31:49Z</time>
      </trkpt>
      <trkpt lat="46.5477" lon="5.33779">
        <ele>211.2</ele>
        <time>2022-04-10T11:31:52Z</time>
      </trkpt>
      <trkpt lat="46.54778" lon="5.33779">
        <ele>210.8</ele>
        <time>2022-04-10T11:31:53Z</time>
      </trkpt>
      <trkpt lat="46.54811" lon="5.3378">
        <ele>209.6</ele>
        <time>2022-04-10T11:31:57Z</time>
      </trkpt>
      <trkpt lat="46.54837" lon="5.33781">
        <ele>208.8</ele>
        <time>2022-04-10T11:32:00Z</time>
      </trkpt>
      <trkpt lat="46.54854" lon="5.33781">
        <ele>208.4</ele>
        <time>2022-04-10T11:32:02Z</time>
      </trkpt>
      <trkpt lat="46.54887" lon="5.33774">
        <ele>207.6</ele>
        <time>2022-04-10T11:32:06Z</time>
      </trkpt>
      <trkpt lat="46.54895" lon="5.33773">
        <ele>207.2</ele>
        <time>2022-04-10T11:32:07Z</time>
      </trkpt>
      <trkpt lat="46.54927" lon="5.33773">
        <ele>206.4</ele>
        <time>2022-04-10T11:32:11Z</time>
      </trkpt>
      <trkpt lat="46.54943" lon="5.33776">
        <ele>206</ele>
        <time>2022-04-10T11:32:13Z</time>
      </trkpt>
      <trkpt lat="46.5498" lon="5.33785">
        <ele>205.6</ele>
        <time>2022-04-10T11:32:18Z</time>
      </trkpt>
      <trkpt lat="46.55019" lon="5.33796">
        <ele>205.6</ele>
        <time>2022-04-10T11:32:24Z</time>
      </trkpt>
      <trkpt lat="46.55054" lon="5.33815">
        <ele>205.8</ele>
        <time>2022-04-10T11:32:30Z</time>
      </trkpt>
      <trkpt lat="46.55085" lon="5.33842">
        <ele>206.6</ele>
        <time>2022-04-10T11:32:36Z</time>
      </trkpt>
      <trkpt lat="46.55113" lon="5.33879">
        <ele>207</ele>
        <time>2022-04-10T11:32:43Z</time>
      </trkpt>
      <trkpt lat="46.55116" lon="5.33885">
        <ele>207.2</ele>
        <time>2022-04-10T11:32:44Z</time>
      </trkpt>
      <trkpt lat="46.55131" lon="5.33906">
        <ele>208.2</ele>
        <time>2022-04-10T11:32:48Z</time>
      </trkpt>
      <trkpt lat="46.55144" lon="5.33927">
        <ele>209</ele>
        <time>2022-04-10T11:32:52Z</time>
      </trkpt>
      <trkpt lat="46.55154" lon="5.33943">
        <ele>209.4</ele>
        <time>2022-04-10T11:32:55Z</time>
      </trkpt>
      <trkpt lat="46.55165" lon="5.33967">
        <ele>210.8</ele>
        <time>2022-04-10T11:33:00Z</time>
      </trkpt>
      <trkpt lat="46.55175" lon="5.33988">
        <ele>212</ele>
        <time>2022-04-10T11:33:04Z</time>
      </trkpt>
      <trkpt lat="46.5518" lon="5.34003">
        <ele>212.8</ele>
        <time>2022-04-10T11:33:07Z</time>
      </trkpt>
      <trkpt lat="46.55182" lon="5.34009">
        <ele>213</ele>
        <time>2022-04-10T11:33:08Z</time>
      </trkpt>
      <trkpt lat="46.55187" lon="5.34038">
        <ele>214</ele>
        <time>2022-04-10T11:33:13Z</time>
      </trkpt>
      <trkpt lat="46.55188" lon="5.34044">
        <ele>214</ele>
        <time>2022-04-10T11:33:14Z</time>
      </trkpt>
      <trkpt lat="46.5519" lon="5.3405">
        <ele>214.4</ele>
        <time>2022-04-10T11:33:15Z</time>
      </trkpt>
      <trkpt lat="46.55199" lon="5.34072">
        <ele>215.2</ele>
        <time>2022-04-10T11:33:19Z</time>
      </trkpt>
      <trkpt lat="46.55201" lon="5.34078">
        <ele>215.2</ele>
        <time>2022-04-10T11:33:20Z</time>
      </trkpt>
      <trkpt lat="46.55205" lon="5.34089">
        <ele>215.6</ele>
        <time>2022-04-10T11:33:22Z</time>
      </trkpt>
      <trkpt lat="46.55211" lon="5.34105">
        <ele>216</ele>
        <time>2022-04-10T11:33:25Z</time>
      </trkpt>
      <trkpt lat="46.55213" lon="5.34111">
        <ele>216.2</ele>
        <time>2022-04-10T11:33:26Z</time>
      </trkpt>
      <trkpt lat="46.55216" lon="5.34117">
        <ele>216.4</ele>
        <time>2022-04-10T11:33:27Z</time>
      </trkpt>
      <trkpt lat="46.55223" lon="5.34144">
        <ele>216.8</ele>
        <time>2022-04-10T11:33:31Z</time>
      </trkpt>
      <trkpt lat="46.55228" lon="5.34168">
        <ele>217</ele>
        <time>2022-04-10T11:33:34Z</time>
      </trkpt>
      <trkpt lat="46.55231" lon="5.34193">
        <ele>217</ele>
        <time>2022-04-10T11:33:37Z</time>
      </trkpt>
      <trkpt lat="46.55234" lon="5.34211">
        <ele>216.6</ele>
        <time>2022-04-10T11:33:39Z</time>
      </trkpt>
      <trkpt lat="46.55241" lon="5.34229">
        <ele>216.6</ele>
        <time>2022-04-10T11:33:41Z</time>
      </trkpt>
      <trkpt lat="46.5525" lon="5.34245">
        <ele>216.4</ele>
        <time>2022-04-10T11:33:43Z</time>
      </trkpt>
      <trkpt lat="46.55265" lon="5.34263">
        <ele>216</ele>
        <time>2022-04-10T11:33:46Z</time>
      </trkpt>
      <trkpt lat="46.55301" lon="5.34303">
        <ele>215.2</ele>
        <time>2022-04-10T11:33:52Z</time>
      </trkpt>
      <trkpt lat="46.55319" lon="5.34326">
        <ele>214.8</ele>
        <time>2022-04-10T11:33:55Z</time>
      </trkpt>
      <trkpt lat="46.55333" lon="5.3434">
        <ele>214.4</ele>
        <time>2022-04-10T11:33:57Z</time>
      </trkpt>
      <trkpt lat="46.55359" lon="5.34369">
        <ele>213.6</ele>
        <time>2022-04-10T11:34:01Z</time>
      </trkpt>
      <trkpt lat="46.55371" lon="5.34383">
        <ele>212.8</ele>
        <time>2022-04-10T11:34:03Z</time>
      </trkpt>
      <trkpt lat="46.55377" lon="5.34389">
        <ele>212.4</ele>
        <time>2022-04-10T11:34:04Z</time>
      </trkpt>
      <trkpt lat="46.55421" lon="5.34435">
        <ele>211.8</ele>
        <time>2022-04-10T11:34:11Z</time>
      </trkpt>
      <trkpt lat="46.55427" lon="5.34442">
        <ele>211.8</ele>
        <time>2022-04-10T11:34:12Z</time>
      </trkpt>
      <trkpt lat="46.55445" lon="5.3446">
        <ele>211.4</ele>
        <time>2022-04-10T11:34:15Z</time>
      </trkpt>
      <trkpt lat="46.5548" lon="5.34495">
        <ele>211</ele>
        <time>2022-04-10T11:34:21Z</time>
      </trkpt>
      <trkpt lat="46.55528" lon="5.34535">
        <ele>210.8</ele>
        <time>2022-04-10T11:34:29Z</time>
      </trkpt>
      <trkpt lat="46.55568" lon="5.34553">
        <ele>210.8</ele>
        <time>2022-04-10T11:34:35Z</time>
      </trkpt>
      <trkpt lat="46.55612" lon="5.34568">
        <ele>210.2</ele>
        <time>2022-04-10T11:34:41Z</time>
      </trkpt>
      <trkpt lat="46.55621" lon="5.34571">
        <ele>210.2</ele>
        <time>2022-04-10T11:34:42Z</time>
      </trkpt>
      <trkpt lat="46.55647" lon="5.34577">
        <ele>209.6</ele>
        <time>2022-04-10T11:34:45Z</time>
      </trkpt>
      <trkpt lat="46.55656" lon="5.34577">
        <ele>209.4</ele>
        <time>2022-04-10T11:34:46Z</time>
      </trkpt>
      <trkpt lat="46.55666" lon="5.34577">
        <ele>209</ele>
        <time>2022-04-10T11:34:47Z</time>
      </trkpt>
      <trkpt lat="46.55696" lon="5.34576">
        <ele>207.6</ele>
        <time>2022-04-10T11:34:50Z</time>
      </trkpt>
      <trkpt lat="46.55716" lon="5.34579">
        <ele>206.6</ele>
        <time>2022-04-10T11:34:52Z</time>
      </trkpt>
      <trkpt lat="46.55745" lon="5.34584">
        <ele>205.4</ele>
        <time>2022-04-10T11:34:55Z</time>
      </trkpt>
      <trkpt lat="46.55764" lon="5.34589">
        <ele>204.6</ele>
        <time>2022-04-10T11:34:57Z</time>
      </trkpt>
      <trkpt lat="46.55783" lon="5.34593">
        <ele>203.4</ele>
        <time>2022-04-10T11:34:59Z</time>
      </trkpt>
      <trkpt lat="46.55802" lon="5.34598">
        <ele>202.2</ele>
        <time>2022-04-10T11:35:01Z</time>
      </trkpt>
      <trkpt lat="46.55811" lon="5.346">
        <ele>202</ele>
        <time>2022-04-10T11:35:02Z</time>
      </trkpt>
      <trkpt lat="46.55828" lon="5.34604">
        <ele>201.2</ele>
        <time>2022-04-10T11:35:04Z</time>
      </trkpt>
      <trkpt lat="46.55868" lon="5.34613">
        <ele>200.2</ele>
        <time>2022-04-10T11:35:09Z</time>
      </trkpt>
      <trkpt lat="46.55876" lon="5.34615">
        <ele>200</ele>
        <time>2022-04-10T11:35:10Z</time>
      </trkpt>
      <trkpt lat="46.55917" lon="5.34625">
        <ele>200.8</ele>
        <time>2022-04-10T11:35:15Z</time>
      </trkpt>
      <trkpt lat="46.55934" lon="5.34628">
        <ele>198.6</ele>
        <time>2022-04-10T11:35:17Z</time>
      </trkpt>
      <trkpt lat="46.55974" lon="5.34639">
        <ele>197.8</ele>
        <time>2022-04-10T11:35:22Z</time>
      </trkpt>
      <trkpt lat="46.55994" lon="5.34645">
        <ele>197.6</ele>
        <time>2022-04-10T11:35:25Z</time>
      </trkpt>
      <trkpt lat="46.56044" lon="5.34657">
        <ele>197.8</ele>
        <time>2022-04-10T11:35:32Z</time>
      </trkpt>
      <trkpt lat="46.561" lon="5.34671">
        <ele>198.2</ele>
        <time>2022-04-10T11:35:40Z</time>
      </trkpt>
      <trkpt lat="46.56113" lon="5.34673">
        <ele>198.4</ele>
        <time>2022-04-10T11:35:42Z</time>
      </trkpt>
      <trkpt lat="46.56142" lon="5.34678">
        <ele>198.6</ele>
        <time>2022-04-10T11:35:47Z</time>
      </trkpt>
      <trkpt lat="46.56154" lon="5.34679">
        <ele>198.8</ele>
        <time>2022-04-10T11:35:49Z</time>
      </trkpt>
      <trkpt lat="46.56181" lon="5.34678">
        <ele>199.8</ele>
        <time>2022-04-10T11:35:54Z</time>
      </trkpt>
      <trkpt lat="46.56186" lon="5.34677">
        <ele>200</ele>
        <time>2022-04-10T11:35:55Z</time>
      </trkpt>
      <trkpt lat="46.56205" lon="5.34671">
        <ele>201</ele>
        <time>2022-04-10T11:35:59Z</time>
      </trkpt>
      <trkpt lat="46.56228" lon="5.34665">
        <ele>201.8</ele>
        <time>2022-04-10T11:36:04Z</time>
      </trkpt>
      <trkpt lat="46.56232" lon="5.34665">
        <ele>202</ele>
        <time>2022-04-10T11:36:05Z</time>
      </trkpt>
      <trkpt lat="46.56259" lon="5.34657">
        <ele>203.2</ele>
        <time>2022-04-10T11:36:11Z</time>
      </trkpt>
      <trkpt lat="46.56263" lon="5.34655">
        <ele>203.6</ele>
        <time>2022-04-10T11:36:12Z</time>
      </trkpt>
      <trkpt lat="46.56272" lon="5.34652">
        <ele>204</ele>
        <time>2022-04-10T11:36:14Z</time>
      </trkpt>
      <trkpt lat="46.56276" lon="5.3465">
        <ele>204.2</ele>
        <time>2022-04-10T11:36:15Z</time>
      </trkpt>
      <trkpt lat="46.56281" lon="5.34649">
        <ele>204.4</ele>
        <time>2022-04-10T11:36:16Z</time>
      </trkpt>
      <trkpt lat="46.56289" lon="5.34648">
        <ele>204.6</ele>
        <time>2022-04-10T11:36:18Z</time>
      </trkpt>
      <trkpt lat="46.56307" lon="5.34647">
        <ele>205.6</ele>
        <time>2022-04-10T11:36:22Z</time>
      </trkpt>
      <trkpt lat="46.56326" lon="5.34649">
        <ele>207</ele>
        <time>2022-04-10T11:36:26Z</time>
      </trkpt>
      <trkpt lat="46.56331" lon="5.34651">
        <ele>207</ele>
        <time>2022-04-10T11:36:27Z</time>
      </trkpt>
      <trkpt lat="46.56357" lon="5.34663">
        <ele>207.4</ele>
        <time>2022-04-10T11:36:32Z</time>
      </trkpt>
      <trkpt lat="46.56392" lon="5.34675">
        <ele>207.8</ele>
        <time>2022-04-10T11:36:38Z</time>
      </trkpt>
      <trkpt lat="46.56425" lon="5.34687">
        <ele>207.6</ele>
        <time>2022-04-10T11:36:43Z</time>
      </trkpt>
      <trkpt lat="46.56475" lon="5.34716">
        <ele>206.2</ele>
        <time>2022-04-10T11:36:50Z</time>
      </trkpt>
      <trkpt lat="46.56483" lon="5.3472">
        <ele>205.8</ele>
        <time>2022-04-10T11:36:51Z</time>
      </trkpt>
      <trkpt lat="46.56536" lon="5.3475">
        <ele>205</ele>
        <time>2022-04-10T11:36:58Z</time>
      </trkpt>
      <trkpt lat="46.56544" lon="5.34755">
        <ele>204.8</ele>
        <time>2022-04-10T11:36:59Z</time>
      </trkpt>
      <trkpt lat="46.56553" lon="5.3476">
        <ele>204.2</ele>
        <time>2022-04-10T11:37:00Z</time>
      </trkpt>
      <trkpt lat="46.56561" lon="5.34764">
        <ele>203.6</ele>
        <time>2022-04-10T11:37:01Z</time>
      </trkpt>
      <trkpt lat="46.5658" lon="5.34772">
        <ele>202.8</ele>
        <time>2022-04-10T11:37:03Z</time>
      </trkpt>
      <trkpt lat="46.56591" lon="5.34772">
        <ele>202.6</ele>
        <time>2022-04-10T11:37:04Z</time>
      </trkpt>
      <trkpt lat="46.56601" lon="5.3477">
        <ele>202.2</ele>
        <time>2022-04-10T11:37:05Z</time>
      </trkpt>
      <trkpt lat="46.56616" lon="5.34755">
        <ele>201.2</ele>
        <time>2022-04-10T11:37:07Z</time>
      </trkpt>
      <trkpt lat="46.56628" lon="5.3473">
        <ele>199.8</ele>
        <time>2022-04-10T11:37:09Z</time>
      </trkpt>
      <trkpt lat="46.56634" lon="5.34717">
        <ele>198.6</ele>
        <time>2022-04-10T11:37:10Z</time>
      </trkpt>
      <trkpt lat="46.5664" lon="5.34705">
        <ele>198.2</ele>
        <time>2022-04-10T11:37:11Z</time>
      </trkpt>
      <trkpt lat="46.56648" lon="5.34697">
        <ele>197.6</ele>
        <time>2022-04-10T11:37:12Z</time>
      </trkpt>
      <trkpt lat="46.56658" lon="5.34691">
        <ele>197.2</ele>
        <time>2022-04-10T11:37:13Z</time>
      </trkpt>
      <trkpt lat="46.56667" lon="5.34688">
        <ele>196.4</ele>
        <time>2022-04-10T11:37:14Z</time>
      </trkpt>
      <trkpt lat="46.56676" lon="5.34686">
        <ele>196</ele>
        <time>2022-04-10T11:37:15Z</time>
      </trkpt>
      <trkpt lat="46.56701" lon="5.34678">
        <ele>195.2</ele>
        <time>2022-04-10T11:37:18Z</time>
      </trkpt>
      <trkpt lat="46.56709" lon="5.34675">
        <ele>195</ele>
        <time>2022-04-10T11:37:19Z</time>
      </trkpt>
      <trkpt lat="46.56741" lon="5.34661">
        <ele>194.6</ele>
        <time>2022-04-10T11:37:23Z</time>
      </trkpt>
      <trkpt lat="46.56749" lon="5.34659">
        <ele>194.4</ele>
        <time>2022-04-10T11:37:24Z</time>
      </trkpt>
      <trkpt lat="46.56757" lon="5.3466">
        <ele>194.2</ele>
        <time>2022-04-10T11:37:25Z</time>
      </trkpt>
      <trkpt lat="46.5677" lon="5.34671">
        <ele>194</ele>
        <time>2022-04-10T11:37:27Z</time>
      </trkpt>
      <trkpt lat="46.5678" lon="5.34701">
        <ele>193.6</ele>
        <time>2022-04-10T11:37:30Z</time>
      </trkpt>
      <trkpt lat="46.56796" lon="5.34772">
        <ele>193.6</ele>
        <time>2022-04-10T11:37:37Z</time>
      </trkpt>
      <trkpt lat="46.56811" lon="5.34853">
        <ele>193.4</ele>
        <time>2022-04-10T11:37:45Z</time>
      </trkpt>
      <trkpt lat="46.56819" lon="5.349">
        <ele>193.4</ele>
        <time>2022-04-10T11:37:50Z</time>
      </trkpt>
      <trkpt lat="46.56827" lon="5.34942">
        <ele>193.8</ele>
        <time>2022-04-10T11:37:55Z</time>
      </trkpt>
      <trkpt lat="46.56833" lon="5.34972">
        <ele>194.6</ele>
        <time>2022-04-10T11:37:59Z</time>
      </trkpt>
      <trkpt lat="46.56835" lon="5.34979">
        <ele>194.8</ele>
        <time>2022-04-10T11:38:00Z</time>
      </trkpt>
      <trkpt lat="46.56839" lon="5.34992">
        <ele>195</ele>
        <time>2022-04-10T11:38:02Z</time>
      </trkpt>
      <trkpt lat="46.56852" lon="5.35021">
        <ele>196.2</ele>
        <time>2022-04-10T11:38:07Z</time>
      </trkpt>
      <trkpt lat="46.56855" lon="5.35027">
        <ele>196.2</ele>
        <time>2022-04-10T11:38:08Z</time>
      </trkpt>
      <trkpt lat="46.5686" lon="5.35038">
        <ele>197.2</ele>
        <time>2022-04-10T11:38:10Z</time>
      </trkpt>
      <trkpt lat="46.56868" lon="5.3506">
        <ele>198.2</ele>
        <time>2022-04-10T11:38:14Z</time>
      </trkpt>
      <trkpt lat="46.56878" lon="5.35085">
        <ele>199.4</ele>
        <time>2022-04-10T11:38:19Z</time>
      </trkpt>
      <trkpt lat="46.56883" lon="5.35094">
        <ele>200.4</ele>
        <time>2022-04-10T11:38:21Z</time>
      </trkpt>
      <trkpt lat="46.56888" lon="5.35103">
        <ele>200.8</ele>
        <time>2022-04-10T11:38:23Z</time>
      </trkpt>
      <trkpt lat="46.56894" lon="5.35117">
        <ele>201.8</ele>
        <time>2022-04-10T11:38:26Z</time>
      </trkpt>
      <trkpt lat="46.56901" lon="5.35132">
        <ele>202.4</ele>
        <time>2022-04-10T11:38:29Z</time>
      </trkpt>
      <trkpt lat="46.56908" lon="5.35146">
        <ele>203</ele>
        <time>2022-04-10T11:38:32Z</time>
      </trkpt>
      <trkpt lat="46.56916" lon="5.35158">
        <ele>204</ele>
        <time>2022-04-10T11:38:35Z</time>
      </trkpt>
      <trkpt lat="46.56933" lon="5.35174">
        <ele>205.2</ele>
        <time>2022-04-10T11:38:39Z</time>
      </trkpt>
      <trkpt lat="46.56954" lon="5.3519">
        <ele>205.4</ele>
        <time>2022-04-10T11:38:43Z</time>
      </trkpt>
      <trkpt lat="46.5696" lon="5.35196">
        <ele>205.4</ele>
        <time>2022-04-10T11:38:44Z</time>
      </trkpt>
      <trkpt lat="46.56965" lon="5.35204">
        <ele>205.4</ele>
        <time>2022-04-10T11:38:45Z</time>
      </trkpt>
      <trkpt lat="46.56972" lon="5.35223">
        <ele>205.4</ele>
        <time>2022-04-10T11:38:47Z</time>
      </trkpt>
      <trkpt lat="46.56982" lon="5.35269">
        <ele>204</ele>
        <time>2022-04-10T11:38:51Z</time>
      </trkpt>
      <trkpt lat="46.56988" lon="5.35292">
        <ele>202.8</ele>
        <time>2022-04-10T11:38:53Z</time>
      </trkpt>
      <trkpt lat="46.56995" lon="5.35314">
        <ele>201.6</ele>
        <time>2022-04-10T11:38:55Z</time>
      </trkpt>
      <trkpt lat="46.57002" lon="5.35335">
        <ele>200.8</ele>
        <time>2022-04-10T11:38:57Z</time>
      </trkpt>
      <trkpt lat="46.57008" lon="5.35356">
        <ele>200.4</ele>
        <time>2022-04-10T11:38:59Z</time>
      </trkpt>
      <trkpt lat="46.57031" lon="5.35426">
        <ele>199.8</ele>
        <time>2022-04-10T11:39:06Z</time>
      </trkpt>
      <trkpt lat="46.57038" lon="5.35488">
        <ele>199.6</ele>
        <time>2022-04-10T11:39:12Z</time>
      </trkpt>
      <trkpt lat="46.57042" lon="5.35528">
        <ele>199.4</ele>
        <time>2022-04-10T11:39:16Z</time>
      </trkpt>
      <trkpt lat="46.57045" lon="5.35569">
        <ele>199</ele>
        <time>2022-04-10T11:39:20Z</time>
      </trkpt>
      <trkpt lat="46.57052" lon="5.35611">
        <ele>198.4</ele>
        <time>2022-04-10T11:39:24Z</time>
      </trkpt>
      <trkpt lat="46.57054" lon="5.35618">
        <ele>198.2</ele>
        <time>2022-04-10T11:39:25Z</time>
      </trkpt>
      <trkpt lat="46.57059" lon="5.35629">
        <ele>198</ele>
        <time>2022-04-10T11:39:26Z</time>
      </trkpt>
      <trkpt lat="46.57069" lon="5.35643">
        <ele>197.6</ele>
        <time>2022-04-10T11:39:28Z</time>
      </trkpt>
      <trkpt lat="46.57085" lon="5.35662">
        <ele>197.4</ele>
        <time>2022-04-10T11:39:31Z</time>
      </trkpt>
      <trkpt lat="46.57093" lon="5.35676">
        <ele>197.4</ele>
        <time>2022-04-10T11:39:33Z</time>
      </trkpt>
      <trkpt lat="46.57099" lon="5.35683">
        <ele>197.4</ele>
        <time>2022-04-10T11:39:34Z</time>
      </trkpt>
      <trkpt lat="46.57119" lon="5.3571">
        <ele>197.4</ele>
        <time>2022-04-10T11:39:38Z</time>
      </trkpt>
      <trkpt lat="46.5713" lon="5.35723">
        <ele>197.4</ele>
        <time>2022-04-10T11:39:40Z</time>
      </trkpt>
      <trkpt lat="46.57147" lon="5.35737">
        <ele>197.6</ele>
        <time>2022-04-10T11:39:43Z</time>
      </trkpt>
      <trkpt lat="46.5719" lon="5.35764">
        <ele>197.8</ele>
        <time>2022-04-10T11:39:50Z</time>
      </trkpt>
      <trkpt lat="46.57242" lon="5.35798">
        <ele>198.2</ele>
        <time>2022-04-10T11:39:59Z</time>
      </trkpt>
      <trkpt lat="46.57254" lon="5.35805">
        <ele>198.2</ele>
        <time>2022-04-10T11:40:01Z</time>
      </trkpt>
      <trkpt lat="46.57293" lon="5.3583">
        <ele>198.6</ele>
        <time>2022-04-10T11:40:08Z</time>
      </trkpt>
      <trkpt lat="46.57305" lon="5.35835">
        <ele>198.6</ele>
        <time>2022-04-10T11:40:10Z</time>
      </trkpt>
      <trkpt lat="46.57329" lon="5.3584">
        <ele>199</ele>
        <time>2022-04-10T11:40:14Z</time>
      </trkpt>
      <trkpt lat="46.57342" lon="5.35839">
        <ele>199.2</ele>
        <time>2022-04-10T11:40:16Z</time>
      </trkpt>
      <trkpt lat="46.57354" lon="5.35833">
        <ele>199.4</ele>
        <time>2022-04-10T11:40:18Z</time>
      </trkpt>
      <trkpt lat="46.57364" lon="5.35823">
        <ele>199.4</ele>
        <time>2022-04-10T11:40:20Z</time>
      </trkpt>
      <trkpt lat="46.57387" lon="5.35786">
        <ele>199.8</ele>
        <time>2022-04-10T11:40:26Z</time>
      </trkpt>
      <trkpt lat="46.57393" lon="5.35773">
        <ele>200.4</ele>
        <time>2022-04-10T11:40:28Z</time>
      </trkpt>
      <trkpt lat="46.574" lon="5.35761">
        <ele>200.8</ele>
        <time>2022-04-10T11:40:30Z</time>
      </trkpt>
      <trkpt lat="46.5741" lon="5.3575">
        <ele>201.4</ele>
        <time>2022-04-10T11:40:32Z</time>
      </trkpt>
      <trkpt lat="46.57429" lon="5.35737">
        <ele>201.8</ele>
        <time>2022-04-10T11:40:35Z</time>
      </trkpt>
      <trkpt lat="46.57445" lon="5.35729">
        <ele>201.8</ele>
        <time>2022-04-10T11:40:37Z</time>
      </trkpt>
      <trkpt lat="46.57486" lon="5.35702">
        <ele>200.2</ele>
        <time>2022-04-10T11:40:42Z</time>
      </trkpt>
      <trkpt lat="46.57494" lon="5.35697">
        <ele>199.2</ele>
        <time>2022-04-10T11:40:43Z</time>
      </trkpt>
      <trkpt lat="46.57503" lon="5.35692">
        <ele>199</ele>
        <time>2022-04-10T11:40:44Z</time>
      </trkpt>
      <trkpt lat="46.57521" lon="5.3568">
        <ele>198</ele>
        <time>2022-04-10T11:40:46Z</time>
      </trkpt>
      <trkpt lat="46.57544" lon="5.35657">
        <ele>196.8</ele>
        <time>2022-04-10T11:40:49Z</time>
      </trkpt>
      <trkpt lat="46.57563" lon="5.35628">
        <ele>195.6</ele>
        <time>2022-04-10T11:40:52Z</time>
      </trkpt>
      <trkpt lat="46.57583" lon="5.356">
        <ele>194.4</ele>
        <time>2022-04-10T11:40:55Z</time>
      </trkpt>
      <trkpt lat="46.576" lon="5.35587">
        <ele>193.4</ele>
        <time>2022-04-10T11:40:57Z</time>
      </trkpt>
      <trkpt lat="46.57623" lon="5.35567">
        <ele>192.4</ele>
        <time>2022-04-10T11:41:00Z</time>
      </trkpt>
      <trkpt lat="46.57658" lon="5.35532">
        <ele>191.6</ele>
        <time>2022-04-10T11:41:05Z</time>
      </trkpt>
      <trkpt lat="46.57698" lon="5.35504">
        <ele>191.6</ele>
        <time>2022-04-10T11:41:11Z</time>
      </trkpt>
      <trkpt lat="46.57724" lon="5.35486">
        <ele>192.4</ele>
        <time>2022-04-10T11:41:16Z</time>
      </trkpt>
      <trkpt lat="46.57742" lon="5.35474">
        <ele>193.8</ele>
        <time>2022-04-10T11:41:20Z</time>
      </trkpt>
      <trkpt lat="46.5775" lon="5.35469">
        <ele>194.2</ele>
        <time>2022-04-10T11:41:22Z</time>
      </trkpt>
      <trkpt lat="46.57764" lon="5.35459">
        <ele>194.8</ele>
        <time>2022-04-10T11:41:26Z</time>
      </trkpt>
      <trkpt lat="46.57768" lon="5.35456">
        <ele>195.2</ele>
        <time>2022-04-10T11:41:27Z</time>
      </trkpt>
      <trkpt lat="46.57782" lon="5.35445">
        <ele>196.4</ele>
        <time>2022-04-10T11:41:31Z</time>
      </trkpt>
      <trkpt lat="46.57789" lon="5.35439">
        <ele>197.4</ele>
        <time>2022-04-10T11:41:33Z</time>
      </trkpt>
      <trkpt lat="46.57792" lon="5.35436">
        <ele>197.6</ele>
        <time>2022-04-10T11:41:34Z</time>
      </trkpt>
      <trkpt lat="46.57807" lon="5.35427">
        <ele>198.8</ele>
        <time>2022-04-10T11:41:38Z</time>
      </trkpt>
      <trkpt lat="46.57818" lon="5.35428">
        <ele>199.8</ele>
        <time>2022-04-10T11:41:41Z</time>
      </trkpt>
      <trkpt lat="46.57822" lon="5.35432">
        <ele>200.2</ele>
        <time>2022-04-10T11:41:42Z</time>
      </trkpt>
      <trkpt lat="46.57825" lon="5.35443">
        <ele>201</ele>
        <time>2022-04-10T11:41:44Z</time>
      </trkpt>
      <trkpt lat="46.57829" lon="5.3547">
        <ele>201.6</ele>
        <time>2022-04-10T11:41:48Z</time>
      </trkpt>
      <trkpt lat="46.57831" lon="5.35485">
        <ele>201.6</ele>
        <time>2022-04-10T11:41:50Z</time>
      </trkpt>
      <trkpt lat="46.57843" lon="5.35525">
        <ele>201.6</ele>
        <time>2022-04-10T11:41:55Z</time>
      </trkpt>
      <trkpt lat="46.57867" lon="5.3558">
        <ele>200.4</ele>
        <time>2022-04-10T11:42:01Z</time>
      </trkpt>
      <trkpt lat="46.57871" lon="5.35591">
        <ele>200</ele>
        <time>2022-04-10T11:42:02Z</time>
      </trkpt>
      <trkpt lat="46.57875" lon="5.35601">
        <ele>199.4</ele>
        <time>2022-04-10T11:42:03Z</time>
      </trkpt>
      <trkpt lat="46.57879" lon="5.35623">
        <ele>199</ele>
        <time>2022-04-10T11:42:05Z</time>
      </trkpt>
      <trkpt lat="46.5788" lon="5.35634">
        <ele>199</ele>
        <time>2022-04-10T11:42:06Z</time>
      </trkpt>
      <trkpt lat="46.57885" lon="5.35672">
        <ele>198.8</ele>
        <time>2022-04-10T11:42:10Z</time>
      </trkpt>
      <trkpt lat="46.57891" lon="5.35698">
        <ele>198.8</ele>
        <time>2022-04-10T11:42:13Z</time>
      </trkpt>
      <trkpt lat="46.57894" lon="5.35706">
        <ele>199</ele>
        <time>2022-04-10T11:42:14Z</time>
      </trkpt>
      <trkpt lat="46.57924" lon="5.3577">
        <ele>199.6</ele>
        <time>2022-04-10T11:42:22Z</time>
      </trkpt>
      <trkpt lat="46.57935" lon="5.35798">
        <ele>199.4</ele>
        <time>2022-04-10T11:42:25Z</time>
      </trkpt>
      <trkpt lat="46.57938" lon="5.3582">
        <ele>199.4</ele>
        <time>2022-04-10T11:42:27Z</time>
      </trkpt>
      <trkpt lat="46.57936" lon="5.35843">
        <ele>199.2</ele>
        <time>2022-04-10T11:42:29Z</time>
      </trkpt>
      <trkpt lat="46.57931" lon="5.35865">
        <ele>199</ele>
        <time>2022-04-10T11:42:31Z</time>
      </trkpt>
      <trkpt lat="46.57912" lon="5.35949">
        <ele>198</ele>
        <time>2022-04-10T11:42:39Z</time>
      </trkpt>
      <trkpt lat="46.57912" lon="5.35962">
        <ele>197.8</ele>
        <time>2022-04-10T11:42:40Z</time>
      </trkpt>
      <trkpt lat="46.57917" lon="5.35983">
        <ele>197.6</ele>
        <time>2022-04-10T11:42:42Z</time>
      </trkpt>
      <trkpt lat="46.5793" lon="5.35998">
        <ele>196.8</ele>
        <time>2022-04-10T11:42:44Z</time>
      </trkpt>
      <trkpt lat="46.57952" lon="5.36016">
        <ele>195.8</ele>
        <time>2022-04-10T11:42:47Z</time>
      </trkpt>
      <trkpt lat="46.57965" lon="5.36029">
        <ele>195.6</ele>
        <time>2022-04-10T11:42:49Z</time>
      </trkpt>
      <trkpt lat="46.57976" lon="5.36042">
        <ele>195.4</ele>
        <time>2022-04-10T11:42:51Z</time>
      </trkpt>
      <trkpt lat="46.57983" lon="5.36055">
        <ele>195.4</ele>
        <time>2022-04-10T11:42:53Z</time>
      </trkpt>
      <trkpt lat="46.57991" lon="5.36072">
        <ele>195.4</ele>
        <time>2022-04-10T11:42:55Z</time>
      </trkpt>
      <trkpt lat="46.58" lon="5.36088">
        <ele>195.4</ele>
        <time>2022-04-10T11:42:57Z</time>
      </trkpt>
      <trkpt lat="46.58007" lon="5.36106">
        <ele>195.6</ele>
        <time>2022-04-10T11:42:59Z</time>
      </trkpt>
      <trkpt lat="46.58014" lon="5.36125">
        <ele>195.8</ele>
        <time>2022-04-10T11:43:01Z</time>
      </trkpt>
      <trkpt lat="46.58024" lon="5.3616">
        <ele>196.6</ele>
        <time>2022-04-10T11:43:05Z</time>
      </trkpt>
      <trkpt lat="46.58024" lon="5.36185">
        <ele>196.8</ele>
        <time>2022-04-10T11:43:08Z</time>
      </trkpt>
      <trkpt lat="46.58023" lon="5.36203">
        <ele>197</ele>
        <time>2022-04-10T11:43:10Z</time>
      </trkpt>
      <trkpt lat="46.58021" lon="5.36231">
        <ele>197.2</ele>
        <time>2022-04-10T11:43:13Z</time>
      </trkpt>
      <trkpt lat="46.5802" lon="5.36266">
        <ele>197.4</ele>
        <time>2022-04-10T11:43:17Z</time>
      </trkpt>
      <trkpt lat="46.58018" lon="5.36283">
        <ele>197.6</ele>
        <time>2022-04-10T11:43:19Z</time>
      </trkpt>
      <trkpt lat="46.58021" lon="5.36318">
        <ele>197.4</ele>
        <time>2022-04-10T11:43:23Z</time>
      </trkpt>
      <trkpt lat="46.58026" lon="5.36336">
        <ele>197.6</ele>
        <time>2022-04-10T11:43:25Z</time>
      </trkpt>
      <trkpt lat="46.58033" lon="5.36351">
        <ele>197.4</ele>
        <time>2022-04-10T11:43:27Z</time>
      </trkpt>
      <trkpt lat="46.58043" lon="5.36365">
        <ele>197.4</ele>
        <time>2022-04-10T11:43:29Z</time>
      </trkpt>
      <trkpt lat="46.58059" lon="5.36385">
        <ele>197.4</ele>
        <time>2022-04-10T11:43:32Z</time>
      </trkpt>
      <trkpt lat="46.58083" lon="5.36425">
        <ele>197.6</ele>
        <time>2022-04-10T11:43:38Z</time>
      </trkpt>
      <trkpt lat="46.58086" lon="5.36432">
        <ele>197.8</ele>
        <time>2022-04-10T11:43:39Z</time>
      </trkpt>
      <trkpt lat="46.58107" lon="5.36475">
        <ele>198.2</ele>
        <time>2022-04-10T11:43:45Z</time>
      </trkpt>
      <trkpt lat="46.5812" lon="5.36515">
        <ele>198.4</ele>
        <time>2022-04-10T11:43:50Z</time>
      </trkpt>
      <trkpt lat="46.58121" lon="5.36523">
        <ele>198.4</ele>
        <time>2022-04-10T11:43:51Z</time>
      </trkpt>
      <trkpt lat="46.58124" lon="5.36558">
        <ele>198.8</ele>
        <time>2022-04-10T11:43:55Z</time>
      </trkpt>
      <trkpt lat="46.58124" lon="5.36566">
        <ele>199.2</ele>
        <time>2022-04-10T11:43:56Z</time>
      </trkpt>
      <trkpt lat="46.58124" lon="5.36592">
        <ele>199.4</ele>
        <time>2022-04-10T11:43:59Z</time>
      </trkpt>
      <trkpt lat="46.58127" lon="5.36609">
        <ele>199.4</ele>
        <time>2022-04-10T11:44:01Z</time>
      </trkpt>
      <trkpt lat="46.58144" lon="5.36657">
        <ele>199.6</ele>
        <time>2022-04-10T11:44:07Z</time>
      </trkpt>
      <trkpt lat="46.58169" lon="5.36716">
        <ele>199.8</ele>
        <time>2022-04-10T11:44:15Z</time>
      </trkpt>
      <trkpt lat="46.582" lon="5.36788">
        <ele>199.6</ele>
        <time>2022-04-10T11:44:24Z</time>
      </trkpt>
      <trkpt lat="46.58224" lon="5.36848">
        <ele>200.2</ele>
        <time>2022-04-10T11:44:32Z</time>
      </trkpt>
      <trkpt lat="46.58252" lon="5.36915">
        <ele>201</ele>
        <time>2022-04-10T11:44:41Z</time>
      </trkpt>
      <trkpt lat="46.58255" lon="5.36922">
        <ele>201</ele>
        <time>2022-04-10T11:44:42Z</time>
      </trkpt>
      <trkpt lat="46.58261" lon="5.36936">
        <ele>201.6</ele>
        <time>2022-04-10T11:44:44Z</time>
      </trkpt>
      <trkpt lat="46.58267" lon="5.3695">
        <ele>201.8</ele>
        <time>2022-04-10T11:44:46Z</time>
      </trkpt>
      <trkpt lat="46.58274" lon="5.36963">
        <ele>202</ele>
        <time>2022-04-10T11:44:48Z</time>
      </trkpt>
      <trkpt lat="46.58277" lon="5.36969">
        <ele>202.2</ele>
        <time>2022-04-10T11:44:49Z</time>
      </trkpt>
      <trkpt lat="46.58286" lon="5.36981">
        <ele>202.4</ele>
        <time>2022-04-10T11:44:51Z</time>
      </trkpt>
      <trkpt lat="46.58296" lon="5.36989">
        <ele>202.6</ele>
        <time>2022-04-10T11:44:53Z</time>
      </trkpt>
      <trkpt lat="46.58301" lon="5.36992">
        <ele>202.6</ele>
        <time>2022-04-10T11:44:54Z</time>
      </trkpt>
      <trkpt lat="46.58327" lon="5.37005">
        <ele>203.2</ele>
        <time>2022-04-10T11:44:59Z</time>
      </trkpt>
      <trkpt lat="46.58347" lon="5.37014">
        <ele>203.8</ele>
        <time>2022-04-10T11:45:03Z</time>
      </trkpt>
      <trkpt lat="46.58362" lon="5.37021">
        <ele>204.4</ele>
        <time>2022-04-10T11:45:06Z</time>
      </trkpt>
      <trkpt lat="46.5839" lon="5.37036">
        <ele>205.4</ele>
        <time>2022-04-10T11:45:12Z</time>
      </trkpt>
      <trkpt lat="46.58395" lon="5.37038">
        <ele>205.8</ele>
        <time>2022-04-10T11:45:13Z</time>
      </trkpt>
      <trkpt lat="46.58418" lon="5.37049">
        <ele>206.8</ele>
        <time>2022-04-10T11:45:18Z</time>
      </trkpt>
      <trkpt lat="46.58431" lon="5.37054">
        <ele>207.4</ele>
        <time>2022-04-10T11:45:21Z</time>
      </trkpt>
      <trkpt lat="46.58448" lon="5.37063">
        <ele>208</ele>
        <time>2022-04-10T11:45:25Z</time>
      </trkpt>
      <trkpt lat="46.58464" lon="5.37072">
        <ele>209.2</ele>
        <time>2022-04-10T11:45:29Z</time>
      </trkpt>
      <trkpt lat="46.58485" lon="5.37085">
        <ele>209.8</ele>
        <time>2022-04-10T11:45:34Z</time>
      </trkpt>
      <trkpt lat="46.58492" lon="5.37092">
        <ele>210.2</ele>
        <time>2022-04-10T11:45:36Z</time>
      </trkpt>
      <trkpt lat="46.58496" lon="5.37096">
        <ele>210.4</ele>
        <time>2022-04-10T11:45:37Z</time>
      </trkpt>
      <trkpt lat="46.58521" lon="5.37123">
        <ele>211.2</ele>
        <time>2022-04-10T11:45:43Z</time>
      </trkpt>
      <trkpt lat="46.58525" lon="5.37129">
        <ele>211.4</ele>
        <time>2022-04-10T11:45:44Z</time>
      </trkpt>
      <trkpt lat="46.58549" lon="5.37164">
        <ele>211.2</ele>
        <time>2022-04-10T11:45:49Z</time>
      </trkpt>
      <trkpt lat="46.5856" lon="5.3719">
        <ele>210.2</ele>
        <time>2022-04-10T11:45:52Z</time>
      </trkpt>
      <trkpt lat="46.5857" lon="5.37215">
        <ele>209.4</ele>
        <time>2022-04-10T11:45:55Z</time>
      </trkpt>
      <trkpt lat="46.58593" lon="5.37291">
        <ele>209.2</ele>
        <time>2022-04-10T11:46:04Z</time>
      </trkpt>
      <trkpt lat="46.58611" lon="5.37369">
        <ele>209.6</ele>
        <time>2022-04-10T11:46:13Z</time>
      </trkpt>
      <trkpt lat="46.58615" lon="5.37386">
        <ele>209.6</ele>
        <time>2022-04-10T11:46:15Z</time>
      </trkpt>
      <trkpt lat="46.58638" lon="5.37463">
        <ele>209.6</ele>
        <time>2022-04-10T11:46:24Z</time>
      </trkpt>
      <trkpt lat="46.58666" lon="5.37515">
        <ele>209.4</ele>
        <time>2022-04-10T11:46:31Z</time>
      </trkpt>
      <trkpt lat="46.5867" lon="5.37521">
        <ele>209.4</ele>
        <time>2022-04-10T11:46:32Z</time>
      </trkpt>
      <trkpt lat="46.58693" lon="5.37549">
        <ele>209.4</ele>
        <time>2022-04-10T11:46:37Z</time>
      </trkpt>
      <trkpt lat="46.58725" lon="5.37593">
        <ele>209.8</ele>
        <time>2022-04-10T11:46:45Z</time>
      </trkpt>
      <trkpt lat="46.58752" lon="5.37626">
        <ele>211.2</ele>
        <time>2022-04-10T11:46:52Z</time>
      </trkpt>
      <trkpt lat="46.5876" lon="5.37636">
        <ele>211.6</ele>
        <time>2022-04-10T11:46:54Z</time>
      </trkpt>
      <trkpt lat="46.58771" lon="5.37651">
        <ele>212.4</ele>
        <time>2022-04-10T11:46:57Z</time>
      </trkpt>
      <trkpt lat="46.58788" lon="5.3768">
        <ele>212.8</ele>
        <time>2022-04-10T11:47:02Z</time>
      </trkpt>
      <trkpt lat="46.5881" lon="5.37725">
        <ele>213.4</ele>
        <time>2022-04-10T11:47:09Z</time>
      </trkpt>
      <trkpt lat="46.58816" lon="5.37739">
        <ele>213.4</ele>
        <time>2022-04-10T11:47:11Z</time>
      </trkpt>
      <trkpt lat="46.58849" lon="5.37807">
        <ele>214</ele>
        <time>2022-04-10T11:47:21Z</time>
      </trkpt>
      <trkpt lat="46.58878" lon="5.37849">
        <ele>214.2</ele>
        <time>2022-04-10T11:47:28Z</time>
      </trkpt>
      <trkpt lat="46.58914" lon="5.37882">
        <ele>214.6</ele>
        <time>2022-04-10T11:47:35Z</time>
      </trkpt>
      <trkpt lat="46.58919" lon="5.37886">
        <ele>214.6</ele>
        <time>2022-04-10T11:47:36Z</time>
      </trkpt>
      <trkpt lat="46.58948" lon="5.37908">
        <ele>214.4</ele>
        <time>2022-04-10T11:47:41Z</time>
      </trkpt>
      <trkpt lat="46.58953" lon="5.37914">
        <ele>214.4</ele>
        <time>2022-04-10T11:47:42Z</time>
      </trkpt>
      <trkpt lat="46.58957" lon="5.37921">
        <ele>214.4</ele>
        <time>2022-04-10T11:47:43Z</time>
      </trkpt>
      <trkpt lat="46.58971" lon="5.37953">
        <ele>214.2</ele>
        <time>2022-04-10T11:47:47Z</time>
      </trkpt>
      <trkpt lat="46.58997" lon="5.38028">
        <ele>213.6</ele>
        <time>2022-04-10T11:47:56Z</time>
      </trkpt>
      <trkpt lat="46.59001" lon="5.38037">
        <ele>213.4</ele>
        <time>2022-04-10T11:47:57Z</time>
      </trkpt>
      <trkpt lat="46.59021" lon="5.38094">
        <ele>213.2</ele>
        <time>2022-04-10T11:48:04Z</time>
      </trkpt>
      <trkpt lat="46.59047" lon="5.38166">
        <ele>213</ele>
        <time>2022-04-10T11:48:13Z</time>
      </trkpt>
      <trkpt lat="46.5905" lon="5.38174">
        <ele>213</ele>
        <time>2022-04-10T11:48:14Z</time>
      </trkpt>
      <trkpt lat="46.59074" lon="5.3824">
        <ele>212.6</ele>
        <time>2022-04-10T11:48:22Z</time>
      </trkpt>
      <trkpt lat="46.59099" lon="5.38315">
        <ele>212.6</ele>
        <time>2022-04-10T11:48:31Z</time>
      </trkpt>
      <trkpt lat="46.59109" lon="5.38348">
        <ele>212.6</ele>
        <time>2022-04-10T11:48:35Z</time>
      </trkpt>
      <trkpt lat="46.59112" lon="5.38359">
        <ele>212.4</ele>
        <time>2022-04-10T11:48:36Z</time>
      </trkpt>
      <trkpt lat="46.59133" lon="5.3842">
        <ele>212.2</ele>
        <time>2022-04-10T11:48:43Z</time>
      </trkpt>
      <trkpt lat="46.5914" lon="5.38445">
        <ele>212.2</ele>
        <time>2022-04-10T11:48:46Z</time>
      </trkpt>
      <trkpt lat="46.59147" lon="5.3846">
        <ele>212.2</ele>
        <time>2022-04-10T11:48:48Z</time>
      </trkpt>
      <trkpt lat="46.59151" lon="5.38466">
        <ele>212.2</ele>
        <time>2022-04-10T11:48:49Z</time>
      </trkpt>
      <trkpt lat="46.59176" lon="5.38505">
        <ele>212.6</ele>
        <time>2022-04-10T11:48:55Z</time>
      </trkpt>
      <trkpt lat="46.59185" lon="5.38517">
        <ele>212.8</ele>
        <time>2022-04-10T11:48:57Z</time>
      </trkpt>
      <trkpt lat="46.59202" lon="5.38536">
        <ele>213.6</ele>
        <time>2022-04-10T11:49:01Z</time>
      </trkpt>
      <trkpt lat="46.59219" lon="5.38556">
        <ele>214.4</ele>
        <time>2022-04-10T11:49:05Z</time>
      </trkpt>
      <trkpt lat="46.59224" lon="5.38561">
        <ele>214.6</ele>
        <time>2022-04-10T11:49:06Z</time>
      </trkpt>
      <trkpt lat="46.5925" lon="5.38588">
        <ele>215.6</ele>
        <time>2022-04-10T11:49:11Z</time>
      </trkpt>
      <trkpt lat="46.59298" lon="5.38639">
        <ele>215.2</ele>
        <time>2022-04-10T11:49:20Z</time>
      </trkpt>
      <trkpt lat="46.59342" lon="5.38687">
        <ele>215</ele>
        <time>2022-04-10T11:49:29Z</time>
      </trkpt>
      <trkpt lat="46.59347" lon="5.38692">
        <ele>215</ele>
        <time>2022-04-10T11:49:30Z</time>
      </trkpt>
      <trkpt lat="46.59385" lon="5.38732">
        <ele>215</ele>
        <time>2022-04-10T11:49:38Z</time>
      </trkpt>
      <trkpt lat="46.59427" lon="5.38779">
        <ele>215.4</ele>
        <time>2022-04-10T11:49:47Z</time>
      </trkpt>
      <trkpt lat="46.59435" lon="5.38791">
        <ele>215.6</ele>
        <time>2022-04-10T11:49:49Z</time>
      </trkpt>
      <trkpt lat="46.59441" lon="5.38806">
        <ele>215.6</ele>
        <time>2022-04-10T11:49:51Z</time>
      </trkpt>
      <trkpt lat="46.59446" lon="5.38822">
        <ele>215.6</ele>
        <time>2022-04-10T11:49:53Z</time>
      </trkpt>
      <trkpt lat="46.59447" lon="5.38831">
        <ele>216</ele>
        <time>2022-04-10T11:49:54Z</time>
      </trkpt>
      <trkpt lat="46.59448" lon="5.38848">
        <ele>215.8</ele>
        <time>2022-04-10T11:49:56Z</time>
      </trkpt>
      <trkpt lat="46.59454" lon="5.38902">
        <ele>216.2</ele>
        <time>2022-04-10T11:50:02Z</time>
      </trkpt>
      <trkpt lat="46.59457" lon="5.38911">
        <ele>216</ele>
        <time>2022-04-10T11:50:03Z</time>
      </trkpt>
      <trkpt lat="46.59473" lon="5.38953">
        <ele>215.6</ele>
        <time>2022-04-10T11:50:08Z</time>
      </trkpt>
      <trkpt lat="46.59482" lon="5.38998">
        <ele>215.2</ele>
        <time>2022-04-10T11:50:13Z</time>
      </trkpt>
      <trkpt lat="46.5949" lon="5.39081">
        <ele>215</ele>
        <time>2022-04-10T11:50:22Z</time>
      </trkpt>
      <trkpt lat="46.595" lon="5.39151">
        <ele>215.2</ele>
        <time>2022-04-10T11:50:30Z</time>
      </trkpt>
      <trkpt lat="46.59506" lon="5.39183">
        <ele>215.4</ele>
        <time>2022-04-10T11:50:34Z</time>
      </trkpt>
      <trkpt lat="46.5951" lon="5.39189">
        <ele>215.6</ele>
        <time>2022-04-10T11:50:35Z</time>
      </trkpt>
      <trkpt lat="46.59513" lon="5.39196">
        <ele>215.6</ele>
        <time>2022-04-10T11:50:36Z</time>
      </trkpt>
      <trkpt lat="46.59522" lon="5.39206">
        <ele>215.8</ele>
        <time>2022-04-10T11:50:38Z</time>
      </trkpt>
      <trkpt lat="46.59533" lon="5.39211">
        <ele>216.2</ele>
        <time>2022-04-10T11:50:40Z</time>
      </trkpt>
      <trkpt lat="46.59544" lon="5.39211">
        <ele>216.4</ele>
        <time>2022-04-10T11:50:42Z</time>
      </trkpt>
      <trkpt lat="46.5957" lon="5.39208">
        <ele>216.8</ele>
        <time>2022-04-10T11:50:46Z</time>
      </trkpt>
      <trkpt lat="46.5958" lon="5.39203">
        <ele>217</ele>
        <time>2022-04-10T11:50:48Z</time>
      </trkpt>
      <trkpt lat="46.59605" lon="5.39191">
        <ele>217.4</ele>
        <time>2022-04-10T11:50:52Z</time>
      </trkpt>
      <trkpt lat="46.59617" lon="5.39188">
        <ele>217.4</ele>
        <time>2022-04-10T11:50:54Z</time>
      </trkpt>
      <trkpt lat="46.59623" lon="5.39187">
        <ele>217.4</ele>
        <time>2022-04-10T11:50:55Z</time>
      </trkpt>
      <trkpt lat="46.59672" lon="5.39194">
        <ele>218</ele>
        <time>2022-04-10T11:51:03Z</time>
      </trkpt>
      <trkpt lat="46.59717" lon="5.39204">
        <ele>218.4</ele>
        <time>2022-04-10T11:51:11Z</time>
      </trkpt>
      <trkpt lat="46.59727" lon="5.39213">
        <ele>218.6</ele>
        <time>2022-04-10T11:51:13Z</time>
      </trkpt>
      <trkpt lat="46.59731" lon="5.39218">
        <ele>218.6</ele>
        <time>2022-04-10T11:51:14Z</time>
      </trkpt>
      <trkpt lat="46.59735" lon="5.39223">
        <ele>218.6</ele>
        <time>2022-04-10T11:51:15Z</time>
      </trkpt>
      <trkpt lat="46.59741" lon="5.39225">
        <ele>218.6</ele>
        <time>2022-04-10T11:51:16Z</time>
      </trkpt>
      <trkpt lat="46.5975" lon="5.39223">
        <ele>218.6</ele>
        <time>2022-04-10T11:51:18Z</time>
      </trkpt>
      <trkpt lat="46.59762" lon="5.39212">
        <ele>218.4</ele>
        <time>2022-04-10T11:51:20Z</time>
      </trkpt>
      <trkpt lat="46.59789" lon="5.39198">
        <ele>218</ele>
        <time>2022-04-10T11:51:24Z</time>
      </trkpt>
      <trkpt lat="46.5981" lon="5.39195">
        <ele>217.8</ele>
        <time>2022-04-10T11:51:27Z</time>
      </trkpt>
      <trkpt lat="46.59825" lon="5.39196">
        <ele>217.6</ele>
        <time>2022-04-10T11:51:29Z</time>
      </trkpt>
      <trkpt lat="46.59872" lon="5.392">
        <ele>217.4</ele>
        <time>2022-04-10T11:51:36Z</time>
      </trkpt>
      <trkpt lat="46.59917" lon="5.39188">
        <ele>217</ele>
        <time>2022-04-10T11:51:43Z</time>
      </trkpt>
      <trkpt lat="46.59926" lon="5.39187">
        <ele>217</ele>
        <time>2022-04-10T11:51:44Z</time>
      </trkpt>
      <trkpt lat="46.59955" lon="5.39186">
        <ele>216.2</ele>
        <time>2022-04-10T11:51:48Z</time>
      </trkpt>
      <trkpt lat="46.59973" lon="5.39188">
        <ele>215.8</ele>
        <time>2022-04-10T11:51:50Z</time>
      </trkpt>
      <trkpt lat="46.59997" lon="5.39196">
        <ele>215.2</ele>
        <time>2022-04-10T11:51:53Z</time>
      </trkpt>
      <trkpt lat="46.60017" lon="5.39209">
        <ele>214.8</ele>
        <time>2022-04-10T11:51:56Z</time>
      </trkpt>
      <trkpt lat="46.60023" lon="5.39215">
        <ele>214.6</ele>
        <time>2022-04-10T11:51:57Z</time>
      </trkpt>
      <trkpt lat="46.60029" lon="5.39223">
        <ele>214.6</ele>
        <time>2022-04-10T11:51:58Z</time>
      </trkpt>
      <trkpt lat="46.60035" lon="5.39231">
        <ele>214.4</ele>
        <time>2022-04-10T11:51:59Z</time>
      </trkpt>
      <trkpt lat="46.60043" lon="5.3925">
        <ele>214.4</ele>
        <time>2022-04-10T11:52:01Z</time>
      </trkpt>
      <trkpt lat="46.60048" lon="5.39264">
        <ele>214.2</ele>
        <time>2022-04-10T11:52:02Z</time>
      </trkpt>
      <trkpt lat="46.6005" lon="5.39274">
        <ele>213.6</ele>
        <time>2022-04-10T11:52:03Z</time>
      </trkpt>
      <trkpt lat="46.60052" lon="5.39291">
        <ele>213</ele>
        <time>2022-04-10T11:52:04Z</time>
      </trkpt>
      <trkpt lat="46.60052" lon="5.39318">
        <ele>211.6</ele>
        <time>2022-04-10T11:52:06Z</time>
      </trkpt>
      <trkpt lat="46.6005" lon="5.39345">
        <ele>210.4</ele>
        <time>2022-04-10T11:52:08Z</time>
      </trkpt>
      <trkpt lat="46.60047" lon="5.39369">
        <ele>209.4</ele>
        <time>2022-04-10T11:52:10Z</time>
      </trkpt>
      <trkpt lat="46.60044" lon="5.39384">
        <ele>209</ele>
        <time>2022-04-10T11:52:11Z</time>
      </trkpt>
      <trkpt lat="46.60038" lon="5.39418">
        <ele>207.8</ele>
        <time>2022-04-10T11:52:14Z</time>
      </trkpt>
      <trkpt lat="46.60036" lon="5.39429">
        <ele>207.8</ele>
        <time>2022-04-10T11:52:15Z</time>
      </trkpt>
      <trkpt lat="46.60035" lon="5.39439">
        <ele>207.6</ele>
        <time>2022-04-10T11:52:16Z</time>
      </trkpt>
      <trkpt lat="46.60035" lon="5.39468">
        <ele>207.6</ele>
        <time>2022-04-10T11:52:19Z</time>
      </trkpt>
      <trkpt lat="46.60036" lon="5.3948">
        <ele>207.6</ele>
        <time>2022-04-10T11:52:20Z</time>
      </trkpt>
      <trkpt lat="46.60041" lon="5.39501">
        <ele>207.8</ele>
        <time>2022-04-10T11:52:22Z</time>
      </trkpt>
      <trkpt lat="46.60045" lon="5.39511">
        <ele>207.8</ele>
        <time>2022-04-10T11:52:23Z</time>
      </trkpt>
      <trkpt lat="46.60073" lon="5.39573">
        <ele>206.8</ele>
        <time>2022-04-10T11:52:29Z</time>
      </trkpt>
      <trkpt lat="46.60085" lon="5.39605">
        <ele>205.6</ele>
        <time>2022-04-10T11:52:32Z</time>
      </trkpt>
      <trkpt lat="46.60088" lon="5.3962">
        <ele>205.4</ele>
        <time>2022-04-10T11:52:33Z</time>
      </trkpt>
      <trkpt lat="46.60088" lon="5.39634">
        <ele>205.2</ele>
        <time>2022-04-10T11:52:34Z</time>
      </trkpt>
      <trkpt lat="46.60086" lon="5.39661">
        <ele>204.6</ele>
        <time>2022-04-10T11:52:36Z</time>
      </trkpt>
      <trkpt lat="46.60078" lon="5.39686">
        <ele>203.8</ele>
        <time>2022-04-10T11:52:38Z</time>
      </trkpt>
      <trkpt lat="46.60073" lon="5.39698">
        <ele>203.6</ele>
        <time>2022-04-10T11:52:39Z</time>
      </trkpt>
      <trkpt lat="46.60067" lon="5.39709">
        <ele>203.4</ele>
        <time>2022-04-10T11:52:40Z</time>
      </trkpt>
      <trkpt lat="46.60062" lon="5.39734">
        <ele>202.4</ele>
        <time>2022-04-10T11:52:42Z</time>
      </trkpt>
      <trkpt lat="46.60062" lon="5.39747">
        <ele>201.6</ele>
        <time>2022-04-10T11:52:43Z</time>
      </trkpt>
      <trkpt lat="46.60065" lon="5.39759">
        <ele>201</ele>
        <time>2022-04-10T11:52:44Z</time>
      </trkpt>
      <trkpt lat="46.60069" lon="5.39771">
        <ele>200.4</ele>
        <time>2022-04-10T11:52:45Z</time>
      </trkpt>
      <trkpt lat="46.60089" lon="5.39815">
        <ele>199.4</ele>
        <time>2022-04-10T11:52:49Z</time>
      </trkpt>
      <trkpt lat="46.60096" lon="5.39825">
        <ele>199.2</ele>
        <time>2022-04-10T11:52:50Z</time>
      </trkpt>
      <trkpt lat="46.60132" lon="5.39859">
        <ele>198.6</ele>
        <time>2022-04-10T11:52:55Z</time>
      </trkpt>
      <trkpt lat="46.60172" lon="5.399">
        <ele>198.4</ele>
        <time>2022-04-10T11:53:01Z</time>
      </trkpt>
      <trkpt lat="46.6018" lon="5.39919">
        <ele>198.6</ele>
        <time>2022-04-10T11:53:03Z</time>
      </trkpt>
      <trkpt lat="46.60183" lon="5.39929">
        <ele>198.6</ele>
        <time>2022-04-10T11:53:04Z</time>
      </trkpt>
      <trkpt lat="46.60185" lon="5.39939">
        <ele>198.6</ele>
        <time>2022-04-10T11:53:05Z</time>
      </trkpt>
      <trkpt lat="46.60187" lon="5.39967">
        <ele>198.8</ele>
        <time>2022-04-10T11:53:08Z</time>
      </trkpt>
      <trkpt lat="46.60189" lon="5.40024">
        <ele>200</ele>
        <time>2022-04-10T11:53:14Z</time>
      </trkpt>
      <trkpt lat="46.6019" lon="5.40031">
        <ele>200.4</ele>
        <time>2022-04-10T11:53:15Z</time>
      </trkpt>
      <trkpt lat="46.60192" lon="5.40068">
        <ele>201.2</ele>
        <time>2022-04-10T11:53:19Z</time>
      </trkpt>
      <trkpt lat="46.60192" lon="5.40087">
        <ele>201.4</ele>
        <time>2022-04-10T11:53:21Z</time>
      </trkpt>
      <trkpt lat="46.60191" lon="5.40121">
        <ele>201.8</ele>
        <time>2022-04-10T11:53:25Z</time>
      </trkpt>
      <trkpt lat="46.6019" lon="5.40127">
        <ele>202</ele>
        <time>2022-04-10T11:53:26Z</time>
      </trkpt>
      <trkpt lat="46.60189" lon="5.40137">
        <ele>202</ele>
        <time>2022-04-10T11:53:27Z</time>
      </trkpt>
      <trkpt lat="46.60181" lon="5.40172">
        <ele>202.6</ele>
        <time>2022-04-10T11:53:31Z</time>
      </trkpt>
      <trkpt lat="46.60179" lon="5.40181">
        <ele>202.6</ele>
        <time>2022-04-10T11:53:32Z</time>
      </trkpt>
      <trkpt lat="46.60176" lon="5.402">
        <ele>202.8</ele>
        <time>2022-04-10T11:53:34Z</time>
      </trkpt>
      <trkpt lat="46.60175" lon="5.4022">
        <ele>203</ele>
        <time>2022-04-10T11:53:36Z</time>
      </trkpt>
      <trkpt lat="46.60176" lon="5.40229">
        <ele>203</ele>
        <time>2022-04-10T11:53:37Z</time>
      </trkpt>
      <trkpt lat="46.60179" lon="5.40239">
        <ele>202.8</ele>
        <time>2022-04-10T11:53:38Z</time>
      </trkpt>
      <trkpt lat="46.60188" lon="5.40265">
        <ele>202.8</ele>
        <time>2022-04-10T11:53:41Z</time>
      </trkpt>
      <trkpt lat="46.60212" lon="5.40331">
        <ele>203</ele>
        <time>2022-04-10T11:53:49Z</time>
      </trkpt>
      <trkpt lat="46.60221" lon="5.40373">
        <ele>203.2</ele>
        <time>2022-04-10T11:53:54Z</time>
      </trkpt>
      <trkpt lat="46.60221" lon="5.40383">
        <ele>203.2</ele>
        <time>2022-04-10T11:53:55Z</time>
      </trkpt>
      <trkpt lat="46.60219" lon="5.40428">
        <ele>203.2</ele>
        <time>2022-04-10T11:53:59Z</time>
      </trkpt>
      <trkpt lat="46.60219" lon="5.4048">
        <ele>202.4</ele>
        <time>2022-04-10T11:54:03Z</time>
      </trkpt>
      <trkpt lat="46.60221" lon="5.40494">
        <ele>202.2</ele>
        <time>2022-04-10T11:54:04Z</time>
      </trkpt>
      <trkpt lat="46.60223" lon="5.40507">
        <ele>201.6</ele>
        <time>2022-04-10T11:54:05Z</time>
      </trkpt>
      <trkpt lat="46.60232" lon="5.40545">
        <ele>200.4</ele>
        <time>2022-04-10T11:54:08Z</time>
      </trkpt>
      <trkpt lat="46.60234" lon="5.40557">
        <ele>200.2</ele>
        <time>2022-04-10T11:54:09Z</time>
      </trkpt>
      <trkpt lat="46.60235" lon="5.4057">
        <ele>200</ele>
        <time>2022-04-10T11:54:10Z</time>
      </trkpt>
      <trkpt lat="46.60235" lon="5.40594">
        <ele>199.4</ele>
        <time>2022-04-10T11:54:12Z</time>
      </trkpt>
      <trkpt lat="46.60231" lon="5.40617">
        <ele>199</ele>
        <time>2022-04-10T11:54:14Z</time>
      </trkpt>
      <trkpt lat="46.60227" lon="5.40628">
        <ele>198.8</ele>
        <time>2022-04-10T11:54:15Z</time>
      </trkpt>
      <trkpt lat="46.60222" lon="5.40638">
        <ele>198.8</ele>
        <time>2022-04-10T11:54:16Z</time>
      </trkpt>
      <trkpt lat="46.60201" lon="5.40673">
        <ele>198.4</ele>
        <time>2022-04-10T11:54:20Z</time>
      </trkpt>
      <trkpt lat="46.60196" lon="5.40682">
        <ele>198.2</ele>
        <time>2022-04-10T11:54:21Z</time>
      </trkpt>
      <trkpt lat="46.60182" lon="5.40709">
        <ele>198</ele>
        <time>2022-04-10T11:54:24Z</time>
      </trkpt>
      <trkpt lat="46.60179" lon="5.40717">
        <ele>198</ele>
        <time>2022-04-10T11:54:25Z</time>
      </trkpt>
      <trkpt lat="46.60175" lon="5.40729">
        <ele>197.8</ele>
        <time>2022-04-10T11:54:26Z</time>
      </trkpt>
      <trkpt lat="46.60172" lon="5.40751">
        <ele>197.6</ele>
        <time>2022-04-10T11:54:28Z</time>
      </trkpt>
      <trkpt lat="46.60171" lon="5.40763">
        <ele>197.6</ele>
        <time>2022-04-10T11:54:29Z</time>
      </trkpt>
      <trkpt lat="46.60172" lon="5.40774">
        <ele>197.4</ele>
        <time>2022-04-10T11:54:30Z</time>
      </trkpt>
      <trkpt lat="46.60177" lon="5.40796">
        <ele>197.4</ele>
        <time>2022-04-10T11:54:32Z</time>
      </trkpt>
      <trkpt lat="46.60185" lon="5.40812">
        <ele>197.4</ele>
        <time>2022-04-10T11:54:34Z</time>
      </trkpt>
      <trkpt lat="46.60191" lon="5.40821">
        <ele>197.4</ele>
        <time>2022-04-10T11:54:35Z</time>
      </trkpt>
      <trkpt lat="46.60221" lon="5.40849">
        <ele>197.6</ele>
        <time>2022-04-10T11:54:40Z</time>
      </trkpt>
      <trkpt lat="46.60266" lon="5.40883">
        <ele>198.8</ele>
        <time>2022-04-10T11:54:48Z</time>
      </trkpt>
      <trkpt lat="46.60281" lon="5.40896">
        <ele>199.2</ele>
        <time>2022-04-10T11:54:51Z</time>
      </trkpt>
      <trkpt lat="46.60293" lon="5.40908">
        <ele>200</ele>
        <time>2022-04-10T11:54:54Z</time>
      </trkpt>
      <trkpt lat="46.60301" lon="5.40918">
        <ele>200.2</ele>
        <time>2022-04-10T11:54:56Z</time>
      </trkpt>
      <trkpt lat="46.6031" lon="5.40936">
        <ele>200.4</ele>
        <time>2022-04-10T11:54:59Z</time>
      </trkpt>
      <trkpt lat="46.60326" lon="5.40965">
        <ele>201.6</ele>
        <time>2022-04-10T11:55:05Z</time>
      </trkpt>
      <trkpt lat="46.60329" lon="5.4097">
        <ele>201.8</ele>
        <time>2022-04-10T11:55:06Z</time>
      </trkpt>
      <trkpt lat="46.60337" lon="5.40982">
        <ele>202.8</ele>
        <time>2022-04-10T11:55:09Z</time>
      </trkpt>
      <trkpt lat="46.60345" lon="5.40993">
        <ele>203.8</ele>
        <time>2022-04-10T11:55:12Z</time>
      </trkpt>
      <trkpt lat="46.60348" lon="5.40996">
        <ele>204.2</ele>
        <time>2022-04-10T11:55:13Z</time>
      </trkpt>
      <trkpt lat="46.60357" lon="5.41004">
        <ele>205.2</ele>
        <time>2022-04-10T11:55:16Z</time>
      </trkpt>
      <trkpt lat="46.60371" lon="5.41012">
        <ele>206.2</ele>
        <time>2022-04-10T11:55:20Z</time>
      </trkpt>
      <trkpt lat="46.60374" lon="5.41014">
        <ele>206.6</ele>
        <time>2022-04-10T11:55:21Z</time>
      </trkpt>
      <trkpt lat="46.6039" lon="5.41029">
        <ele>207.8</ele>
        <time>2022-04-10T11:55:26Z</time>
      </trkpt>
      <trkpt lat="46.60405" lon="5.41049">
        <ele>208.8</ele>
        <time>2022-04-10T11:55:31Z</time>
      </trkpt>
      <trkpt lat="46.60409" lon="5.41058">
        <ele>209.2</ele>
        <time>2022-04-10T11:55:33Z</time>
      </trkpt>
      <trkpt lat="46.60417" lon="5.41081">
        <ele>210</ele>
        <time>2022-04-10T11:55:37Z</time>
      </trkpt>
      <trkpt lat="46.60427" lon="5.41106">
        <ele>210.4</ele>
        <time>2022-04-10T11:55:41Z</time>
      </trkpt>
      <trkpt lat="46.60435" lon="5.41118">
        <ele>210.4</ele>
        <time>2022-04-10T11:55:43Z</time>
      </trkpt>
      <trkpt lat="46.60445" lon="5.41128">
        <ele>210.4</ele>
        <time>2022-04-10T11:55:45Z</time>
      </trkpt>
      <trkpt lat="46.60462" lon="5.41137">
        <ele>210</ele>
        <time>2022-04-10T11:55:48Z</time>
      </trkpt>
      <trkpt lat="46.60467" lon="5.41138">
        <ele>210</ele>
        <time>2022-04-10T11:55:49Z</time>
      </trkpt>
      <trkpt lat="46.60507" lon="5.41141">
        <ele>209.4</ele>
        <time>2022-04-10T11:55:55Z</time>
      </trkpt>
      <trkpt lat="46.60528" lon="5.41142">
        <ele>209</ele>
        <time>2022-04-10T11:55:58Z</time>
      </trkpt>
      <trkpt lat="46.60558" lon="5.41145">
        <ele>208</ele>
        <time>2022-04-10T11:56:02Z</time>
      </trkpt>
      <trkpt lat="46.60565" lon="5.41146">
        <ele>207.8</ele>
        <time>2022-04-10T11:56:03Z</time>
      </trkpt>
      <trkpt lat="46.60602" lon="5.41156">
        <ele>206.8</ele>
        <time>2022-04-10T11:56:08Z</time>
      </trkpt>
      <trkpt lat="46.60616" lon="5.4116">
        <ele>206.4</ele>
        <time>2022-04-10T11:56:10Z</time>
      </trkpt>
      <trkpt lat="46.60638" lon="5.41168">
        <ele>205.6</ele>
        <time>2022-04-10T11:56:13Z</time>
      </trkpt>
      <trkpt lat="46.60668" lon="5.41178">
        <ele>204.6</ele>
        <time>2022-04-10T11:56:17Z</time>
      </trkpt>
      <trkpt lat="46.60675" lon="5.41181">
        <ele>204.4</ele>
        <time>2022-04-10T11:56:18Z</time>
      </trkpt>
      <trkpt lat="46.60689" lon="5.41189">
        <ele>204.2</ele>
        <time>2022-04-10T11:56:20Z</time>
      </trkpt>
      <trkpt lat="46.60701" lon="5.412">
        <ele>204</ele>
        <time>2022-04-10T11:56:22Z</time>
      </trkpt>
      <trkpt lat="46.60732" lon="5.41239">
        <ele>203.4</ele>
        <time>2022-04-10T11:56:28Z</time>
      </trkpt>
      <trkpt lat="46.60765" lon="5.41277">
        <ele>203.2</ele>
        <time>2022-04-10T11:56:35Z</time>
      </trkpt>
      <trkpt lat="46.60799" lon="5.41313">
        <ele>203.4</ele>
        <time>2022-04-10T11:56:41Z</time>
      </trkpt>
      <trkpt lat="46.60812" lon="5.41324">
        <ele>203.4</ele>
        <time>2022-04-10T11:56:43Z</time>
      </trkpt>
      <trkpt lat="46.60827" lon="5.41332">
        <ele>203.2</ele>
        <time>2022-04-10T11:56:45Z</time>
      </trkpt>
      <trkpt lat="46.60842" lon="5.41332">
        <ele>202.2</ele>
        <time>2022-04-10T11:56:47Z</time>
      </trkpt>
      <trkpt lat="46.60848" lon="5.4133">
        <ele>201.4</ele>
        <time>2022-04-10T11:56:48Z</time>
      </trkpt>
      <trkpt lat="46.6086" lon="5.4132">
        <ele>200.8</ele>
        <time>2022-04-10T11:56:50Z</time>
      </trkpt>
      <trkpt lat="46.60872" lon="5.41307">
        <ele>200.2</ele>
        <time>2022-04-10T11:56:52Z</time>
      </trkpt>
      <trkpt lat="46.6089" lon="5.41284">
        <ele>199.6</ele>
        <time>2022-04-10T11:56:55Z</time>
      </trkpt>
      <trkpt lat="46.60921" lon="5.41245">
        <ele>198.6</ele>
        <time>2022-04-10T11:57:00Z</time>
      </trkpt>
      <trkpt lat="46.60927" lon="5.41238">
        <ele>198.6</ele>
        <time>2022-04-10T11:57:01Z</time>
      </trkpt>
      <trkpt lat="46.60967" lon="5.41198">
        <ele>197.8</ele>
        <time>2022-04-10T11:57:07Z</time>
      </trkpt>
      <trkpt lat="46.60979" lon="5.41186">
        <ele>197.2</ele>
        <time>2022-04-10T11:57:09Z</time>
      </trkpt>
      <trkpt lat="46.61018" lon="5.41153">
        <ele>196.4</ele>
        <time>2022-04-10T11:57:15Z</time>
      </trkpt>
      <trkpt lat="46.61031" lon="5.41148">
        <ele>196.4</ele>
        <time>2022-04-10T11:57:17Z</time>
      </trkpt>
      <trkpt lat="46.61038" lon="5.41148">
        <ele>196.4</ele>
        <time>2022-04-10T11:57:18Z</time>
      </trkpt>
      <trkpt lat="46.61045" lon="5.41151">
        <ele>196.4</ele>
        <time>2022-04-10T11:57:19Z</time>
      </trkpt>
      <trkpt lat="46.61056" lon="5.41166">
        <ele>196.4</ele>
        <time>2022-04-10T11:57:21Z</time>
      </trkpt>
      <trkpt lat="46.61062" lon="5.41197">
        <ele>196.4</ele>
        <time>2022-04-10T11:57:24Z</time>
      </trkpt>
      <trkpt lat="46.61068" lon="5.41218">
        <ele>196.6</ele>
        <time>2022-04-10T11:57:26Z</time>
      </trkpt>
      <trkpt lat="46.61079" lon="5.41246">
        <ele>196.6</ele>
        <time>2022-04-10T11:57:29Z</time>
      </trkpt>
      <trkpt lat="46.61088" lon="5.41264">
        <ele>196.4</ele>
        <time>2022-04-10T11:57:31Z</time>
      </trkpt>
      <trkpt lat="46.61109" lon="5.41307">
        <ele>196.6</ele>
        <time>2022-04-10T11:57:36Z</time>
      </trkpt>
      <trkpt lat="46.61112" lon="5.41316">
        <ele>196.6</ele>
        <time>2022-04-10T11:57:37Z</time>
      </trkpt>
      <trkpt lat="46.61116" lon="5.41335">
        <ele>196.6</ele>
        <time>2022-04-10T11:57:39Z</time>
      </trkpt>
      <trkpt lat="46.61119" lon="5.41363">
        <ele>196.6</ele>
        <time>2022-04-10T11:57:42Z</time>
      </trkpt>
      <trkpt lat="46.61125" lon="5.41429">
        <ele>196.2</ele>
        <time>2022-04-10T11:57:49Z</time>
      </trkpt>
      <trkpt lat="46.6114" lon="5.41481">
        <ele>196.2</ele>
        <time>2022-04-10T11:57:55Z</time>
      </trkpt>
      <trkpt lat="46.61166" lon="5.4153">
        <ele>196.4</ele>
        <time>2022-04-10T11:58:02Z</time>
      </trkpt>
      <trkpt lat="46.61203" lon="5.41588">
        <ele>196.2</ele>
        <time>2022-04-10T11:58:11Z</time>
      </trkpt>
      <trkpt lat="46.61238" lon="5.41658">
        <ele>196.6</ele>
        <time>2022-04-10T11:58:21Z</time>
      </trkpt>
      <trkpt lat="46.61272" lon="5.41722">
        <ele>196.6</ele>
        <time>2022-04-10T11:58:30Z</time>
      </trkpt>
      <trkpt lat="46.61277" lon="5.41728">
        <ele>196.6</ele>
        <time>2022-04-10T11:58:31Z</time>
      </trkpt>
      <trkpt lat="46.61317" lon="5.41785">
        <ele>196.6</ele>
        <time>2022-04-10T11:58:40Z</time>
      </trkpt>
      <trkpt lat="46.61357" lon="5.41839">
        <ele>196.8</ele>
        <time>2022-04-10T11:58:49Z</time>
      </trkpt>
      <trkpt lat="46.61365" lon="5.41849">
        <ele>196.8</ele>
        <time>2022-04-10T11:58:51Z</time>
      </trkpt>
      <trkpt lat="46.61398" lon="5.41886">
        <ele>197.2</ele>
        <time>2022-04-10T11:58:58Z</time>
      </trkpt>
      <trkpt lat="46.61409" lon="5.41904">
        <ele>197.4</ele>
        <time>2022-04-10T11:59:01Z</time>
      </trkpt>
      <trkpt lat="46.6142" lon="5.41925">
        <ele>197.6</ele>
        <time>2022-04-10T11:59:04Z</time>
      </trkpt>
      <trkpt lat="46.61453" lon="5.41997">
        <ele>197.6</ele>
        <time>2022-04-10T11:59:14Z</time>
      </trkpt>
      <trkpt lat="46.61456" lon="5.42005">
        <ele>197.6</ele>
        <time>2022-04-10T11:59:15Z</time>
      </trkpt>
      <trkpt lat="46.61482" lon="5.42054">
        <ele>198.2</ele>
        <time>2022-04-10T11:59:22Z</time>
      </trkpt>
      <trkpt lat="46.61504" lon="5.42084">
        <ele>198.2</ele>
        <time>2022-04-10T11:59:27Z</time>
      </trkpt>
      <trkpt lat="46.61509" lon="5.42093">
        <ele>197.8</ele>
        <time>2022-04-10T11:59:28Z</time>
      </trkpt>
      <trkpt lat="46.61532" lon="5.42158">
        <ele>197.8</ele>
        <time>2022-04-10T11:59:36Z</time>
      </trkpt>
      <trkpt lat="46.61552" lon="5.42234">
        <ele>198</ele>
        <time>2022-04-10T11:59:45Z</time>
      </trkpt>
      <trkpt lat="46.61563" lon="5.42303">
        <ele>197.8</ele>
        <time>2022-04-10T11:59:53Z</time>
      </trkpt>
      <trkpt lat="46.61571" lon="5.42375">
        <ele>198</ele>
        <time>2022-04-10T12:00:01Z</time>
      </trkpt>
      <trkpt lat="46.6158" lon="5.42425">
        <ele>198</ele>
        <time>2022-04-10T12:00:07Z</time>
      </trkpt>
      <trkpt lat="46.616" lon="5.42482">
        <ele>198.6</ele>
        <time>2022-04-10T12:00:15Z</time>
      </trkpt>
      <trkpt lat="46.61606" lon="5.42497">
        <ele>198.8</ele>
        <time>2022-04-10T12:00:17Z</time>
      </trkpt>
      <trkpt lat="46.61611" lon="5.42507">
        <ele>199</ele>
        <time>2022-04-10T12:00:19Z</time>
      </trkpt>
      <trkpt lat="46.61615" lon="5.42513">
        <ele>199</ele>
        <time>2022-04-10T12:00:20Z</time>
      </trkpt>
      <trkpt lat="46.61641" lon="5.42533">
        <ele>199.8</ele>
        <time>2022-04-10T12:00:26Z</time>
      </trkpt>
      <trkpt lat="46.61644" lon="5.42535">
        <ele>200</ele>
        <time>2022-04-10T12:00:27Z</time>
      </trkpt>
      <trkpt lat="46.61665" lon="5.42548">
        <ele>201</ele>
        <time>2022-04-10T12:00:32Z</time>
      </trkpt>
      <trkpt lat="46.61677" lon="5.42558">
        <ele>201.8</ele>
        <time>2022-04-10T12:00:35Z</time>
      </trkpt>
      <trkpt lat="46.6168" lon="5.42561">
        <ele>202</ele>
        <time>2022-04-10T12:00:36Z</time>
      </trkpt>
      <trkpt lat="46.61694" lon="5.42574">
        <ele>203</ele>
        <time>2022-04-10T12:00:40Z</time>
      </trkpt>
      <trkpt lat="46.61705" lon="5.42585">
        <ele>203.4</ele>
        <time>2022-04-10T12:00:43Z</time>
      </trkpt>
      <trkpt lat="46.61709" lon="5.42589">
        <ele>203.8</ele>
        <time>2022-04-10T12:00:44Z</time>
      </trkpt>
      <trkpt lat="46.61717" lon="5.42598">
        <ele>204.2</ele>
        <time>2022-04-10T12:00:46Z</time>
      </trkpt>
      <trkpt lat="46.61725" lon="5.42606">
        <ele>204.4</ele>
        <time>2022-04-10T12:00:48Z</time>
      </trkpt>
      <trkpt lat="46.61731" lon="5.42617">
        <ele>204.8</ele>
        <time>2022-04-10T12:00:50Z</time>
      </trkpt>
      <trkpt lat="46.61734" lon="5.42623">
        <ele>205.2</ele>
        <time>2022-04-10T12:00:51Z</time>
      </trkpt>
      <trkpt lat="46.61738" lon="5.42635">
        <ele>205.6</ele>
        <time>2022-04-10T12:00:53Z</time>
      </trkpt>
      <trkpt lat="46.6174" lon="5.42646">
        <ele>205.8</ele>
        <time>2022-04-10T12:00:55Z</time>
      </trkpt>
      <trkpt lat="46.61742" lon="5.42653">
        <ele>205.8</ele>
        <time>2022-04-10T12:00:56Z</time>
      </trkpt>
      <trkpt lat="46.61746" lon="5.42664">
        <ele>206</ele>
        <time>2022-04-10T12:00:58Z</time>
      </trkpt>
      <trkpt lat="46.6175" lon="5.42669">
        <ele>206.2</ele>
        <time>2022-04-10T12:00:59Z</time>
      </trkpt>
      <trkpt lat="46.61758" lon="5.42676">
        <ele>206.2</ele>
        <time>2022-04-10T12:01:01Z</time>
      </trkpt>
      <trkpt lat="46.6178" lon="5.42697">
        <ele>207</ele>
        <time>2022-04-10T12:01:07Z</time>
      </trkpt>
      <trkpt lat="46.61786" lon="5.42704">
        <ele>207.6</ele>
        <time>2022-04-10T12:01:09Z</time>
      </trkpt>
      <trkpt lat="46.61804" lon="5.42718">
        <ele>208.8</ele>
        <time>2022-04-10T12:01:14Z</time>
      </trkpt>
      <trkpt lat="46.61824" lon="5.42731">
        <ele>209.8</ele>
        <time>2022-04-10T12:01:19Z</time>
      </trkpt>
      <trkpt lat="46.61847" lon="5.42743">
        <ele>210.8</ele>
        <time>2022-04-10T12:01:24Z</time>
      </trkpt>
      <trkpt lat="46.61851" lon="5.42745">
        <ele>211</ele>
        <time>2022-04-10T12:01:25Z</time>
      </trkpt>
      <trkpt lat="46.61882" lon="5.42763">
        <ele>212</ele>
        <time>2022-04-10T12:01:32Z</time>
      </trkpt>
      <trkpt lat="46.61887" lon="5.42766">
        <ele>212</ele>
        <time>2022-04-10T12:01:33Z</time>
      </trkpt>
      <trkpt lat="46.61912" lon="5.42791">
        <ele>212.6</ele>
        <time>2022-04-10T12:01:39Z</time>
      </trkpt>
      <trkpt lat="46.61938" lon="5.4283">
        <ele>212.6</ele>
        <time>2022-04-10T12:01:47Z</time>
      </trkpt>
      <trkpt lat="46.61971" lon="5.42882">
        <ele>213.2</ele>
        <time>2022-04-10T12:01:57Z</time>
      </trkpt>
      <trkpt lat="46.6201" lon="5.42932">
        <ele>214.2</ele>
        <time>2022-04-10T12:02:07Z</time>
      </trkpt>
      <trkpt lat="46.62019" lon="5.42942">
        <ele>214.4</ele>
        <time>2022-04-10T12:02:09Z</time>
      </trkpt>
      <trkpt lat="46.62045" lon="5.42965">
        <ele>214.8</ele>
        <time>2022-04-10T12:02:14Z</time>
      </trkpt>
      <trkpt lat="46.62082" lon="5.42997">
        <ele>213.8</ele>
        <time>2022-04-10T12:02:20Z</time>
      </trkpt>
      <trkpt lat="46.62102" lon="5.43011">
        <ele>213.4</ele>
        <time>2022-04-10T12:02:23Z</time>
      </trkpt>
      <trkpt lat="46.62114" lon="5.43021">
        <ele>213</ele>
        <time>2022-04-10T12:02:25Z</time>
      </trkpt>
      <trkpt lat="46.62126" lon="5.43033">
        <ele>212.4</ele>
        <time>2022-04-10T12:02:27Z</time>
      </trkpt>
      <trkpt lat="46.62132" lon="5.43039">
        <ele>211.8</ele>
        <time>2022-04-10T12:02:28Z</time>
      </trkpt>
      <trkpt lat="46.62149" lon="5.43066">
        <ele>211.4</ele>
        <time>2022-04-10T12:02:32Z</time>
      </trkpt>
      <trkpt lat="46.62154" lon="5.43074">
        <ele>211.4</ele>
        <time>2022-04-10T12:02:33Z</time>
      </trkpt>
      <trkpt lat="46.62164" lon="5.43096">
        <ele>211.4</ele>
        <time>2022-04-10T12:02:36Z</time>
      </trkpt>
      <trkpt lat="46.6218" lon="5.4314">
        <ele>212.4</ele>
        <time>2022-04-10T12:02:43Z</time>
      </trkpt>
      <trkpt lat="46.62186" lon="5.43154">
        <ele>213</ele>
        <time>2022-04-10T12:02:45Z</time>
      </trkpt>
      <trkpt lat="46.62199" lon="5.43186">
        <ele>214</ele>
        <time>2022-04-10T12:02:50Z</time>
      </trkpt>
      <trkpt lat="46.62207" lon="5.43206">
        <ele>214.6</ele>
        <time>2022-04-10T12:02:53Z</time>
      </trkpt>
      <trkpt lat="46.62218" lon="5.43232">
        <ele>215.2</ele>
        <time>2022-04-10T12:02:57Z</time>
      </trkpt>
      <trkpt lat="46.62227" lon="5.43246">
        <ele>215.2</ele>
        <time>2022-04-10T12:02:59Z</time>
      </trkpt>
      <trkpt lat="46.6224" lon="5.43266">
        <ele>215.4</ele>
        <time>2022-04-10T12:03:02Z</time>
      </trkpt>
      <trkpt lat="46.62254" lon="5.43283">
        <ele>215.4</ele>
        <time>2022-04-10T12:03:05Z</time>
      </trkpt>
      <trkpt lat="46.62261" lon="5.43291">
        <ele>215.4</ele>
        <time>2022-04-10T12:03:06Z</time>
      </trkpt>
      <trkpt lat="46.6229" lon="5.43322">
        <ele>215.2</ele>
        <time>2022-04-10T12:03:11Z</time>
      </trkpt>
      <trkpt lat="46.62321" lon="5.43357">
        <ele>214.2</ele>
        <time>2022-04-10T12:03:16Z</time>
      </trkpt>
      <trkpt lat="46.62328" lon="5.43363">
        <ele>213.8</ele>
        <time>2022-04-10T12:03:17Z</time>
      </trkpt>
      <trkpt lat="46.62346" lon="5.43383">
        <ele>213</ele>
        <time>2022-04-10T12:03:20Z</time>
      </trkpt>
      <trkpt lat="46.62388" lon="5.4343">
        <ele>212.6</ele>
        <time>2022-04-10T12:03:27Z</time>
      </trkpt>
      <trkpt lat="46.62436" lon="5.43483">
        <ele>212.2</ele>
        <time>2022-04-10T12:03:35Z</time>
      </trkpt>
      <trkpt lat="46.62454" lon="5.43502">
        <ele>211.8</ele>
        <time>2022-04-10T12:03:38Z</time>
      </trkpt>
      <trkpt lat="46.625" lon="5.43552">
        <ele>211.6</ele>
        <time>2022-04-10T12:03:46Z</time>
      </trkpt>
      <trkpt lat="46.62517" lon="5.43571">
        <ele>211.4</ele>
        <time>2022-04-10T12:03:49Z</time>
      </trkpt>
      <trkpt lat="46.62529" lon="5.43584">
        <ele>211.2</ele>
        <time>2022-04-10T12:03:51Z</time>
      </trkpt>
      <trkpt lat="46.62563" lon="5.43622">
        <ele>210</ele>
        <time>2022-04-10T12:03:57Z</time>
      </trkpt>
      <trkpt lat="46.6257" lon="5.4363">
        <ele>209.8</ele>
        <time>2022-04-10T12:03:58Z</time>
      </trkpt>
      <trkpt lat="46.62611" lon="5.43679">
        <ele>208.8</ele>
        <time>2022-04-10T12:04:05Z</time>
      </trkpt>
      <trkpt lat="46.62622" lon="5.43708">
        <ele>208.2</ele>
        <time>2022-04-10T12:04:08Z</time>
      </trkpt>
      <trkpt lat="46.62624" lon="5.43718">
        <ele>208</ele>
        <time>2022-04-10T12:04:09Z</time>
      </trkpt>
      <trkpt lat="46.62625" lon="5.43728">
        <ele>207.8</ele>
        <time>2022-04-10T12:04:10Z</time>
      </trkpt>
      <trkpt lat="46.62628" lon="5.4377">
        <ele>207.4</ele>
        <time>2022-04-10T12:04:14Z</time>
      </trkpt>
      <trkpt lat="46.6263" lon="5.43832">
        <ele>206.6</ele>
        <time>2022-04-10T12:04:20Z</time>
      </trkpt>
      <trkpt lat="46.62631" lon="5.43862">
        <ele>206.4</ele>
        <time>2022-04-10T12:04:23Z</time>
      </trkpt>
      <trkpt lat="46.62633" lon="5.43881">
        <ele>206.4</ele>
        <time>2022-04-10T12:04:25Z</time>
      </trkpt>
      <trkpt lat="46.62638" lon="5.43899">
        <ele>206.4</ele>
        <time>2022-04-10T12:04:27Z</time>
      </trkpt>
      <trkpt lat="46.6265" lon="5.43916">
        <ele>206.6</ele>
        <time>2022-04-10T12:04:30Z</time>
      </trkpt>
      <trkpt lat="46.6268" lon="5.4395">
        <ele>207.6</ele>
        <time>2022-04-10T12:04:36Z</time>
      </trkpt>
      <trkpt lat="46.62685" lon="5.43956">
        <ele>207.8</ele>
        <time>2022-04-10T12:04:37Z</time>
      </trkpt>
      <trkpt lat="46.6269" lon="5.43962">
        <ele>207.8</ele>
        <time>2022-04-10T12:04:38Z</time>
      </trkpt>
      <trkpt lat="46.62721" lon="5.44016">
        <ele>208.8</ele>
        <time>2022-04-10T12:04:46Z</time>
      </trkpt>
      <trkpt lat="46.62728" lon="5.4403">
        <ele>209</ele>
        <time>2022-04-10T12:04:48Z</time>
      </trkpt>
      <trkpt lat="46.62738" lon="5.4406">
        <ele>209.2</ele>
        <time>2022-04-10T12:04:52Z</time>
      </trkpt>
      <trkpt lat="46.62748" lon="5.44096">
        <ele>210</ele>
        <time>2022-04-10T12:04:57Z</time>
      </trkpt>
      <trkpt lat="46.62753" lon="5.44108">
        <ele>210.4</ele>
        <time>2022-04-10T12:04:59Z</time>
      </trkpt>
      <trkpt lat="46.62766" lon="5.44134">
        <ele>211.4</ele>
        <time>2022-04-10T12:05:03Z</time>
      </trkpt>
      <trkpt lat="46.62783" lon="5.4416">
        <ele>211.8</ele>
        <time>2022-04-10T12:05:07Z</time>
      </trkpt>
      <trkpt lat="46.62808" lon="5.44195">
        <ele>211.8</ele>
        <time>2022-04-10T12:05:12Z</time>
      </trkpt>
      <trkpt lat="46.6283" lon="5.44245">
        <ele>210.4</ele>
        <time>2022-04-10T12:05:17Z</time>
      </trkpt>
      <trkpt lat="46.62835" lon="5.44256">
        <ele>210</ele>
        <time>2022-04-10T12:05:18Z</time>
      </trkpt>
      <trkpt lat="46.62841" lon="5.44278">
        <ele>208.4</ele>
        <time>2022-04-10T12:05:20Z</time>
      </trkpt>
      <trkpt lat="46.62843" lon="5.44289">
        <ele>208.2</ele>
        <time>2022-04-10T12:05:21Z</time>
      </trkpt>
      <trkpt lat="46.62846" lon="5.44331">
        <ele>207.4</ele>
        <time>2022-04-10T12:05:25Z</time>
      </trkpt>
      <trkpt lat="46.62845" lon="5.44343">
        <ele>207.4</ele>
        <time>2022-04-10T12:05:26Z</time>
      </trkpt>
      <trkpt lat="46.62845" lon="5.44402">
        <ele>207.2</ele>
        <time>2022-04-10T12:05:32Z</time>
      </trkpt>
      <trkpt lat="46.62846" lon="5.44469">
        <ele>207</ele>
        <time>2022-04-10T12:05:39Z</time>
      </trkpt>
      <trkpt lat="46.62845" lon="5.44488">
        <ele>206.8</ele>
        <time>2022-04-10T12:05:41Z</time>
      </trkpt>
      <trkpt lat="46.6284" lon="5.44505">
        <ele>206.4</ele>
        <time>2022-04-10T12:05:43Z</time>
      </trkpt>
      <trkpt lat="46.62837" lon="5.44513">
        <ele>206.4</ele>
        <time>2022-04-10T12:05:44Z</time>
      </trkpt>
      <trkpt lat="46.62833" lon="5.4452">
        <ele>206.2</ele>
        <time>2022-04-10T12:05:45Z</time>
      </trkpt>
      <trkpt lat="46.62825" lon="5.44535">
        <ele>206.2</ele>
        <time>2022-04-10T12:05:47Z</time>
      </trkpt>
      <trkpt lat="46.62823" lon="5.44553">
        <ele>206</ele>
        <time>2022-04-10T12:05:49Z</time>
      </trkpt>
      <trkpt lat="46.62824" lon="5.4456">
        <ele>206</ele>
        <time>2022-04-10T12:05:50Z</time>
      </trkpt>
      <trkpt lat="46.62826" lon="5.44569">
        <ele>205.8</ele>
        <time>2022-04-10T12:05:51Z</time>
      </trkpt>
      <trkpt lat="46.62837" lon="5.44584">
        <ele>205.4</ele>
        <time>2022-04-10T12:05:53Z</time>
      </trkpt>
      <trkpt lat="46.62843" lon="5.44588">
        <ele>205.4</ele>
        <time>2022-04-10T12:05:54Z</time>
      </trkpt>
      <trkpt lat="46.62848" lon="5.4459">
        <ele>205.4</ele>
        <time>2022-04-10T12:05:55Z</time>
      </trkpt>
      <trkpt lat="46.62863" lon="5.44594">
        <ele>205.2</ele>
        <time>2022-04-10T12:05:57Z</time>
      </trkpt>
      <trkpt lat="46.62876" lon="5.44596">
        <ele>205.2</ele>
        <time>2022-04-10T12:05:59Z</time>
      </trkpt>
      <trkpt lat="46.62888" lon="5.44602">
        <ele>205</ele>
        <time>2022-04-10T12:06:01Z</time>
      </trkpt>
      <trkpt lat="46.62899" lon="5.44615">
        <ele>205</ele>
        <time>2022-04-10T12:06:03Z</time>
      </trkpt>
      <trkpt lat="46.62904" lon="5.44622">
        <ele>205</ele>
        <time>2022-04-10T12:06:04Z</time>
      </trkpt>
      <trkpt lat="46.62929" lon="5.44652">
        <ele>204.8</ele>
        <time>2022-04-10T12:06:09Z</time>
      </trkpt>
      <trkpt lat="46.62978" lon="5.44699">
        <ele>205</ele>
        <time>2022-04-10T12:06:18Z</time>
      </trkpt>
      <trkpt lat="46.62984" lon="5.44703">
        <ele>205</ele>
        <time>2022-04-10T12:06:19Z</time>
      </trkpt>
      <trkpt lat="46.62996" lon="5.44708">
        <ele>205</ele>
        <time>2022-04-10T12:06:21Z</time>
      </trkpt>
      <trkpt lat="46.63002" lon="5.4471">
        <ele>205</ele>
        <time>2022-04-10T12:06:22Z</time>
      </trkpt>
      <trkpt lat="46.63008" lon="5.4471">
        <ele>205</ele>
        <time>2022-04-10T12:06:23Z</time>
      </trkpt>
      <trkpt lat="46.6304" lon="5.44711">
        <ele>204.8</ele>
        <time>2022-04-10T12:06:28Z</time>
      </trkpt>
      <trkpt lat="46.63082" lon="5.44729">
        <ele>204.6</ele>
        <time>2022-04-10T12:06:35Z</time>
      </trkpt>
      <trkpt lat="46.63134" lon="5.4476">
        <ele>204.6</ele>
        <time>2022-04-10T12:06:44Z</time>
      </trkpt>
      <trkpt lat="46.63144" lon="5.44771">
        <ele>204.6</ele>
        <time>2022-04-10T12:06:46Z</time>
      </trkpt>
      <trkpt lat="46.63152" lon="5.44784">
        <ele>204.4</ele>
        <time>2022-04-10T12:06:48Z</time>
      </trkpt>
      <trkpt lat="46.63155" lon="5.44792">
        <ele>204.4</ele>
        <time>2022-04-10T12:06:49Z</time>
      </trkpt>
      <trkpt lat="46.63165" lon="5.44814">
        <ele>204.4</ele>
        <time>2022-04-10T12:06:52Z</time>
      </trkpt>
      <trkpt lat="46.6317" lon="5.4482">
        <ele>204.4</ele>
        <time>2022-04-10T12:06:53Z</time>
      </trkpt>
      <trkpt lat="46.63178" lon="5.44831">
        <ele>204.4</ele>
        <time>2022-04-10T12:06:55Z</time>
      </trkpt>
      <trkpt lat="46.63211" lon="5.44855">
        <ele>204.6</ele>
        <time>2022-04-10T12:07:01Z</time>
      </trkpt>
      <trkpt lat="46.63241" lon="5.44885">
        <ele>205</ele>
        <time>2022-04-10T12:07:07Z</time>
      </trkpt>
      <trkpt lat="46.63268" lon="5.44917">
        <ele>205.4</ele>
        <time>2022-04-10T12:07:13Z</time>
      </trkpt>
      <trkpt lat="46.63282" lon="5.44931">
        <ele>205.4</ele>
        <time>2022-04-10T12:07:16Z</time>
      </trkpt>
      <trkpt lat="46.63287" lon="5.44934">
        <ele>205.6</ele>
        <time>2022-04-10T12:07:17Z</time>
      </trkpt>
      <trkpt lat="46.63306" lon="5.44945">
        <ele>206</ele>
        <time>2022-04-10T12:07:21Z</time>
      </trkpt>
      <trkpt lat="46.63315" lon="5.44951">
        <ele>206.4</ele>
        <time>2022-04-10T12:07:23Z</time>
      </trkpt>
      <trkpt lat="46.63338" lon="5.44965">
        <ele>207.4</ele>
        <time>2022-04-10T12:07:28Z</time>
      </trkpt>
      <trkpt lat="46.63342" lon="5.44968">
        <ele>207.6</ele>
        <time>2022-04-10T12:07:29Z</time>
      </trkpt>
      <trkpt lat="46.63357" lon="5.44974">
        <ele>208.6</ele>
        <time>2022-04-10T12:07:32Z</time>
      </trkpt>
      <trkpt lat="46.63367" lon="5.44976">
        <ele>209</ele>
        <time>2022-04-10T12:07:34Z</time>
      </trkpt>
      <trkpt lat="46.63371" lon="5.44976">
        <ele>209.2</ele>
        <time>2022-04-10T12:07:35Z</time>
      </trkpt>
      <trkpt lat="46.63396" lon="5.44974">
        <ele>210.2</ele>
        <time>2022-04-10T12:07:40Z</time>
      </trkpt>
      <trkpt lat="46.63402" lon="5.44973">
        <ele>210.4</ele>
        <time>2022-04-10T12:07:41Z</time>
      </trkpt>
      <trkpt lat="46.63411" lon="5.44974">
        <ele>210.8</ele>
        <time>2022-04-10T12:07:43Z</time>
      </trkpt>
      <trkpt lat="46.63416" lon="5.44975">
        <ele>211</ele>
        <time>2022-04-10T12:07:44Z</time>
      </trkpt>
      <trkpt lat="46.63426" lon="5.44978">
        <ele>211.4</ele>
        <time>2022-04-10T12:07:46Z</time>
      </trkpt>
      <trkpt lat="46.63435" lon="5.44982">
        <ele>211.8</ele>
        <time>2022-04-10T12:07:48Z</time>
      </trkpt>
      <trkpt lat="46.63457" lon="5.44995">
        <ele>212.4</ele>
        <time>2022-04-10T12:07:53Z</time>
      </trkpt>
      <trkpt lat="46.63471" lon="5.45005">
        <ele>213.2</ele>
        <time>2022-04-10T12:07:56Z</time>
      </trkpt>
      <trkpt lat="46.6348" lon="5.45011">
        <ele>213.6</ele>
        <time>2022-04-10T12:07:58Z</time>
      </trkpt>
      <trkpt lat="46.63498" lon="5.45026">
        <ele>214.6</ele>
        <time>2022-04-10T12:08:02Z</time>
      </trkpt>
      <trkpt lat="46.63509" lon="5.45039">
        <ele>215.6</ele>
        <time>2022-04-10T12:08:05Z</time>
      </trkpt>
      <trkpt lat="46.63513" lon="5.45043">
        <ele>215.8</ele>
        <time>2022-04-10T12:08:06Z</time>
      </trkpt>
      <trkpt lat="46.63546" lon="5.45087">
        <ele>216.6</ele>
        <time>2022-04-10T12:08:15Z</time>
      </trkpt>
      <trkpt lat="46.63549" lon="5.45093">
        <ele>216.8</ele>
        <time>2022-04-10T12:08:16Z</time>
      </trkpt>
      <trkpt lat="46.63579" lon="5.45133">
        <ele>216.8</ele>
        <time>2022-04-10T12:08:23Z</time>
      </trkpt>
      <trkpt lat="46.636" lon="5.45174">
        <ele>216</ele>
        <time>2022-04-10T12:08:28Z</time>
      </trkpt>
      <trkpt lat="46.63604" lon="5.45184">
        <ele>215.8</ele>
        <time>2022-04-10T12:08:29Z</time>
      </trkpt>
      <trkpt lat="46.63614" lon="5.45213">
        <ele>214.4</ele>
        <time>2022-04-10T12:08:32Z</time>
      </trkpt>
      <trkpt lat="46.63626" lon="5.45248">
        <ele>213.4</ele>
        <time>2022-04-10T12:08:35Z</time>
      </trkpt>
      <trkpt lat="46.63647" lon="5.45289">
        <ele>212</ele>
        <time>2022-04-10T12:08:39Z</time>
      </trkpt>
      <trkpt lat="46.63655" lon="5.453">
        <ele>211.8</ele>
        <time>2022-04-10T12:08:40Z</time>
      </trkpt>
      <trkpt lat="46.6367" lon="5.4532">
        <ele>210.8</ele>
        <time>2022-04-10T12:08:42Z</time>
      </trkpt>
      <trkpt lat="46.63676" lon="5.45331">
        <ele>210.6</ele>
        <time>2022-04-10T12:08:43Z</time>
      </trkpt>
      <trkpt lat="46.63686" lon="5.45355">
        <ele>209.6</ele>
        <time>2022-04-10T12:08:45Z</time>
      </trkpt>
      <trkpt lat="46.63692" lon="5.45381">
        <ele>208.6</ele>
        <time>2022-04-10T12:08:47Z</time>
      </trkpt>
      <trkpt lat="46.63701" lon="5.45419">
        <ele>207.2</ele>
        <time>2022-04-10T12:08:50Z</time>
      </trkpt>
      <trkpt lat="46.63709" lon="5.45456">
        <ele>206.2</ele>
        <time>2022-04-10T12:08:53Z</time>
      </trkpt>
      <trkpt lat="46.63725" lon="5.45523">
        <ele>205.6</ele>
        <time>2022-04-10T12:08:59Z</time>
      </trkpt>
      <trkpt lat="46.63742" lon="5.45593">
        <ele>205.4</ele>
        <time>2022-04-10T12:09:06Z</time>
      </trkpt>
      <trkpt lat="46.63758" lon="5.45638">
        <ele>205.4</ele>
        <time>2022-04-10T12:09:11Z</time>
      </trkpt>
      <trkpt lat="46.63788" lon="5.45687">
        <ele>205.6</ele>
        <time>2022-04-10T12:09:17Z</time>
      </trkpt>
      <trkpt lat="46.63821" lon="5.45753">
        <ele>205.2</ele>
        <time>2022-04-10T12:09:25Z</time>
      </trkpt>
      <trkpt lat="46.63826" lon="5.45763">
        <ele>205.2</ele>
        <time>2022-04-10T12:09:26Z</time>
      </trkpt>
      <trkpt lat="46.63849" lon="5.45803">
        <ele>205.2</ele>
        <time>2022-04-10T12:09:31Z</time>
      </trkpt>
      <trkpt lat="46.63857" lon="5.45821">
        <ele>205</ele>
        <time>2022-04-10T12:09:33Z</time>
      </trkpt>
      <trkpt lat="46.6386" lon="5.45831">
        <ele>205.2</ele>
        <time>2022-04-10T12:09:34Z</time>
      </trkpt>
      <trkpt lat="46.63861" lon="5.45841">
        <ele>205.2</ele>
        <time>2022-04-10T12:09:35Z</time>
      </trkpt>
      <trkpt lat="46.63862" lon="5.45872">
        <ele>205.2</ele>
        <time>2022-04-10T12:09:38Z</time>
      </trkpt>
      <trkpt lat="46.63867" lon="5.45933">
        <ele>205.4</ele>
        <time>2022-04-10T12:09:44Z</time>
      </trkpt>
      <trkpt lat="46.63879" lon="5.46009">
        <ele>206.2</ele>
        <time>2022-04-10T12:09:52Z</time>
      </trkpt>
      <trkpt lat="46.63881" lon="5.46018">
        <ele>206.2</ele>
        <time>2022-04-10T12:09:53Z</time>
      </trkpt>
      <trkpt lat="46.6389" lon="5.4607">
        <ele>206.6</ele>
        <time>2022-04-10T12:09:59Z</time>
      </trkpt>
      <trkpt lat="46.63893" lon="5.46078">
        <ele>206.6</ele>
        <time>2022-04-10T12:10:00Z</time>
      </trkpt>
      <trkpt lat="46.63903" lon="5.46119">
        <ele>207</ele>
        <time>2022-04-10T12:10:05Z</time>
      </trkpt>
      <trkpt lat="46.63906" lon="5.46134">
        <ele>207.2</ele>
        <time>2022-04-10T12:10:07Z</time>
      </trkpt>
      <trkpt lat="46.63912" lon="5.46176">
        <ele>207.8</ele>
        <time>2022-04-10T12:10:12Z</time>
      </trkpt>
      <trkpt lat="46.63917" lon="5.46211">
        <ele>208.2</ele>
        <time>2022-04-10T12:10:16Z</time>
      </trkpt>
      <trkpt lat="46.63921" lon="5.46243">
        <ele>208.8</ele>
        <time>2022-04-10T12:10:20Z</time>
      </trkpt>
      <trkpt lat="46.63923" lon="5.46277">
        <ele>209.4</ele>
        <time>2022-04-10T12:10:24Z</time>
      </trkpt>
      <trkpt lat="46.63928" lon="5.46316">
        <ele>210</ele>
        <time>2022-04-10T12:10:29Z</time>
      </trkpt>
      <trkpt lat="46.63929" lon="5.46323">
        <ele>210.2</ele>
        <time>2022-04-10T12:10:30Z</time>
      </trkpt>
      <trkpt lat="46.63934" lon="5.46337">
        <ele>210.2</ele>
        <time>2022-04-10T12:10:32Z</time>
      </trkpt>
      <trkpt lat="46.63938" lon="5.46344">
        <ele>210.4</ele>
        <time>2022-04-10T12:10:33Z</time>
      </trkpt>
      <trkpt lat="46.63949" lon="5.46361">
        <ele>210.8</ele>
        <time>2022-04-10T12:10:36Z</time>
      </trkpt>
      <trkpt lat="46.63961" lon="5.46376">
        <ele>211</ele>
        <time>2022-04-10T12:10:39Z</time>
      </trkpt>
      <trkpt lat="46.63966" lon="5.46383">
        <ele>211</ele>
        <time>2022-04-10T12:10:40Z</time>
      </trkpt>
      <trkpt lat="46.6398" lon="5.46399">
        <ele>211.4</ele>
        <time>2022-04-10T12:10:43Z</time>
      </trkpt>
      <trkpt lat="46.63993" lon="5.46412">
        <ele>211.8</ele>
        <time>2022-04-10T12:10:46Z</time>
      </trkpt>
      <trkpt lat="46.64005" lon="5.4642">
        <ele>212</ele>
        <time>2022-04-10T12:10:48Z</time>
      </trkpt>
      <trkpt lat="46.64055" lon="5.46442">
        <ele>212.2</ele>
        <time>2022-04-10T12:10:56Z</time>
      </trkpt>
      <trkpt lat="46.64106" lon="5.46464">
        <ele>212</ele>
        <time>2022-04-10T12:11:04Z</time>
      </trkpt>
      <trkpt lat="46.64125" lon="5.46472">
        <ele>211.6</ele>
        <time>2022-04-10T12:11:07Z</time>
      </trkpt>
      <trkpt lat="46.64136" lon="5.46481">
        <ele>211.4</ele>
        <time>2022-04-10T12:11:09Z</time>
      </trkpt>
      <trkpt lat="46.64147" lon="5.46492">
        <ele>211.4</ele>
        <time>2022-04-10T12:11:11Z</time>
      </trkpt>
      <trkpt lat="46.64154" lon="5.46507">
        <ele>211.4</ele>
        <time>2022-04-10T12:11:13Z</time>
      </trkpt>
      <trkpt lat="46.64182" lon="5.46567">
        <ele>211.2</ele>
        <time>2022-04-10T12:11:21Z</time>
      </trkpt>
      <trkpt lat="46.64195" lon="5.46583">
        <ele>211</ele>
        <time>2022-04-10T12:11:24Z</time>
      </trkpt>
      <trkpt lat="46.64201" lon="5.46588">
        <ele>211</ele>
        <time>2022-04-10T12:11:25Z</time>
      </trkpt>
      <trkpt lat="46.64205" lon="5.46591">
        <ele>211.2</ele>
        <time>2022-04-10T12:11:26Z</time>
      </trkpt>
      <trkpt lat="46.64217" lon="5.46594">
        <ele>211.2</ele>
        <time>2022-04-10T12:11:28Z</time>
      </trkpt>
      <trkpt lat="46.64228" lon="5.46596">
        <ele>211.2</ele>
        <time>2022-04-10T12:11:30Z</time>
      </trkpt>
      <trkpt lat="46.64268" lon="5.46602">
        <ele>211.6</ele>
        <time>2022-04-10T12:11:37Z</time>
      </trkpt>
      <trkpt lat="46.64309" lon="5.46613">
        <ele>211.8</ele>
        <time>2022-04-10T12:11:45Z</time>
      </trkpt>
      <trkpt lat="46.64341" lon="5.46622">
        <ele>212.6</ele>
        <time>2022-04-10T12:11:51Z</time>
      </trkpt>
      <trkpt lat="46.64346" lon="5.46622">
        <ele>212.8</ele>
        <time>2022-04-10T12:11:52Z</time>
      </trkpt>
      <trkpt lat="46.64351" lon="5.46622">
        <ele>213</ele>
        <time>2022-04-10T12:11:53Z</time>
      </trkpt>
      <trkpt lat="46.64378" lon="5.46618">
        <ele>213.6</ele>
        <time>2022-04-10T12:11:58Z</time>
      </trkpt>
      <trkpt lat="46.64389" lon="5.46616">
        <ele>213.6</ele>
        <time>2022-04-10T12:12:00Z</time>
      </trkpt>
      <trkpt lat="46.64412" lon="5.46612">
        <ele>213.4</ele>
        <time>2022-04-10T12:12:04Z</time>
      </trkpt>
      <trkpt lat="46.64417" lon="5.46612">
        <ele>213.4</ele>
        <time>2022-04-10T12:12:05Z</time>
      </trkpt>
      <trkpt lat="46.64421" lon="5.46613">
        <ele>213.2</ele>
        <time>2022-04-10T12:12:06Z</time>
      </trkpt>
      <trkpt lat="46.64427" lon="5.46617">
        <ele>213</ele>
        <time>2022-04-10T12:12:08Z</time>
      </trkpt>
      <trkpt lat="46.6443" lon="5.46627">
        <ele>212.8</ele>
        <time>2022-04-10T12:12:10Z</time>
      </trkpt>
      <trkpt lat="46.6443" lon="5.46631">
        <ele>212.6</ele>
        <time>2022-04-10T12:12:11Z</time>
      </trkpt>
      <trkpt lat="46.64429" lon="5.46637">
        <ele>212.6</ele>
        <time>2022-04-10T12:12:12Z</time>
      </trkpt>
      <trkpt lat="46.64429" lon="5.46682">
        <ele>212.6</ele>
        <time>2022-04-10T12:12:19Z</time>
      </trkpt>
      <trkpt lat="46.64428" lon="5.46721">
        <ele>213.6</ele>
        <time>2022-04-10T12:12:25Z</time>
      </trkpt>
      <trkpt lat="46.64428" lon="5.46741">
        <ele>214.4</ele>
        <time>2022-04-10T12:12:28Z</time>
      </trkpt>
      <trkpt lat="46.64428" lon="5.46761">
        <ele>214.8</ele>
        <time>2022-04-10T12:12:31Z</time>
      </trkpt>
      <trkpt lat="46.64428" lon="5.46784">
        <ele>215.6</ele>
        <time>2022-04-10T12:12:35Z</time>
      </trkpt>
      <trkpt lat="46.64428" lon="5.46789">
        <ele>215.8</ele>
        <time>2022-04-10T12:12:36Z</time>
      </trkpt>
      <trkpt lat="46.64428" lon="5.46813">
        <ele>216.8</ele>
        <time>2022-04-10T12:12:40Z</time>
      </trkpt>
      <trkpt lat="46.64427" lon="5.46819">
        <ele>217</ele>
        <time>2022-04-10T12:12:41Z</time>
      </trkpt>
      <trkpt lat="46.64427" lon="5.46831">
        <ele>217.6</ele>
        <time>2022-04-10T12:12:43Z</time>
      </trkpt>
      <trkpt lat="46.64426" lon="5.46843">
        <ele>218</ele>
        <time>2022-04-10T12:12:45Z</time>
      </trkpt>
      <trkpt lat="46.64422" lon="5.46874">
        <ele>219.4</ele>
        <time>2022-04-10T12:12:50Z</time>
      </trkpt>
      <trkpt lat="46.6442" lon="5.4688">
        <ele>219.4</ele>
        <time>2022-04-10T12:12:51Z</time>
      </trkpt>
      <trkpt lat="46.64416" lon="5.46892">
        <ele>219.8</ele>
        <time>2022-04-10T12:12:53Z</time>
      </trkpt>
      <trkpt lat="46.6441" lon="5.46902">
        <ele>220.4</ele>
        <time>2022-04-10T12:12:55Z</time>
      </trkpt>
      <trkpt lat="46.64406" lon="5.4691">
        <ele>221</ele>
        <time>2022-04-10T12:12:57Z</time>
      </trkpt>
      <trkpt lat="46.644" lon="5.46918">
        <ele>221.6</ele>
        <time>2022-04-10T12:12:59Z</time>
      </trkpt>
      <trkpt lat="46.64392" lon="5.4693">
        <ele>222.6</ele>
        <time>2022-04-10T12:13:02Z</time>
      </trkpt>
      <trkpt lat="46.64387" lon="5.46938">
        <ele>223</ele>
        <time>2022-04-10T12:13:04Z</time>
      </trkpt>
      <trkpt lat="46.64379" lon="5.4695">
        <ele>223.6</ele>
        <time>2022-04-10T12:13:07Z</time>
      </trkpt>
      <trkpt lat="46.64369" lon="5.46968">
        <ele>224.6</ele>
        <time>2022-04-10T12:13:11Z</time>
      </trkpt>
      <trkpt lat="46.64366" lon="5.46972">
        <ele>224.8</ele>
        <time>2022-04-10T12:13:12Z</time>
      </trkpt>
      <trkpt lat="46.64358" lon="5.47">
        <ele>225.8</ele>
        <time>2022-04-10T12:13:17Z</time>
      </trkpt>
      <trkpt lat="46.64356" lon="5.47012">
        <ele>226</ele>
        <time>2022-04-10T12:13:19Z</time>
      </trkpt>
      <trkpt lat="46.64353" lon="5.47044">
        <ele>226.4</ele>
        <time>2022-04-10T12:13:24Z</time>
      </trkpt>
      <trkpt lat="46.64349" lon="5.47064">
        <ele>226.8</ele>
        <time>2022-04-10T12:13:27Z</time>
      </trkpt>
      <trkpt lat="46.6435" lon="5.47078">
        <ele>227</ele>
        <time>2022-04-10T12:13:29Z</time>
      </trkpt>
      <trkpt lat="46.64352" lon="5.47083">
        <ele>227</ele>
        <time>2022-04-10T12:13:30Z</time>
      </trkpt>
      <trkpt lat="46.64362" lon="5.471">
        <ele>227.2</ele>
        <time>2022-04-10T12:13:33Z</time>
      </trkpt>
      <trkpt lat="46.64367" lon="5.47114">
        <ele>227.2</ele>
        <time>2022-04-10T12:13:35Z</time>
      </trkpt>
      <trkpt lat="46.64384" lon="5.4717">
        <ele>227.8</ele>
        <time>2022-04-10T12:13:43Z</time>
      </trkpt>
      <trkpt lat="46.64386" lon="5.47177">
        <ele>228</ele>
        <time>2022-04-10T12:13:44Z</time>
      </trkpt>
      <trkpt lat="46.6441" lon="5.4725">
        <ele>228.4</ele>
        <time>2022-04-10T12:13:54Z</time>
      </trkpt>
      <trkpt lat="46.6442" lon="5.47279">
        <ele>228.6</ele>
        <time>2022-04-10T12:13:58Z</time>
      </trkpt>
      <trkpt lat="46.6443" lon="5.47309">
        <ele>228.6</ele>
        <time>2022-04-10T12:14:02Z</time>
      </trkpt>
      <trkpt lat="46.6445" lon="5.47367">
        <ele>228.8</ele>
        <time>2022-04-10T12:14:09Z</time>
      </trkpt>
      <trkpt lat="46.64469" lon="5.47419">
        <ele>229</ele>
        <time>2022-04-10T12:14:16Z</time>
      </trkpt>
      <trkpt lat="46.64471" lon="5.47426">
        <ele>229.2</ele>
        <time>2022-04-10T12:14:17Z</time>
      </trkpt>
      <trkpt lat="46.64489" lon="5.47476">
        <ele>229.6</ele>
        <time>2022-04-10T12:14:24Z</time>
      </trkpt>
      <trkpt lat="46.64492" lon="5.47483">
        <ele>229.6</ele>
        <time>2022-04-10T12:14:25Z</time>
      </trkpt>
      <trkpt lat="46.64508" lon="5.4753">
        <ele>230</ele>
        <time>2022-04-10T12:14:31Z</time>
      </trkpt>
      <trkpt lat="46.64516" lon="5.47554">
        <ele>230.2</ele>
        <time>2022-04-10T12:14:34Z</time>
      </trkpt>
      <trkpt lat="46.64537" lon="5.47614">
        <ele>231.2</ele>
        <time>2022-04-10T12:14:42Z</time>
      </trkpt>
      <trkpt lat="46.64544" lon="5.47636">
        <ele>232</ele>
        <time>2022-04-10T12:14:45Z</time>
      </trkpt>
      <trkpt lat="46.64547" lon="5.47644">
        <ele>232.4</ele>
        <time>2022-04-10T12:14:46Z</time>
      </trkpt>
      <trkpt lat="46.64555" lon="5.47666">
        <ele>233</ele>
        <time>2022-04-10T12:14:49Z</time>
      </trkpt>
      <trkpt lat="46.64568" lon="5.47704">
        <ele>233.4</ele>
        <time>2022-04-10T12:14:54Z</time>
      </trkpt>
      <trkpt lat="46.64571" lon="5.47712">
        <ele>233.4</ele>
        <time>2022-04-10T12:14:55Z</time>
      </trkpt>
      <trkpt lat="46.64592" lon="5.47773">
        <ele>234.4</ele>
        <time>2022-04-10T12:15:03Z</time>
      </trkpt>
      <trkpt lat="46.64594" lon="5.47781">
        <ele>234.4</ele>
        <time>2022-04-10T12:15:04Z</time>
      </trkpt>
      <trkpt lat="46.64619" lon="5.47857">
        <ele>234.4</ele>
        <time>2022-04-10T12:15:13Z</time>
      </trkpt>
      <trkpt lat="46.64622" lon="5.47866">
        <ele>234.4</ele>
        <time>2022-04-10T12:15:14Z</time>
      </trkpt>
      <trkpt lat="46.64633" lon="5.47918">
        <ele>234.4</ele>
        <time>2022-04-10T12:15:20Z</time>
      </trkpt>
      <trkpt lat="46.64643" lon="5.47981">
        <ele>234.6</ele>
        <time>2022-04-10T12:15:27Z</time>
      </trkpt>
      <trkpt lat="46.64655" lon="5.48062">
        <ele>235.4</ele>
        <time>2022-04-10T12:15:36Z</time>
      </trkpt>
      <trkpt lat="46.64657" lon="5.48079">
        <ele>235.6</ele>
        <time>2022-04-10T12:15:38Z</time>
      </trkpt>
      <trkpt lat="46.64659" lon="5.48094">
        <ele>235.6</ele>
        <time>2022-04-10T12:15:40Z</time>
      </trkpt>
      <trkpt lat="46.6466" lon="5.48103">
        <ele>235.6</ele>
        <time>2022-04-10T12:15:41Z</time>
      </trkpt>
      <trkpt lat="46.64666" lon="5.48145">
        <ele>236.6</ele>
        <time>2022-04-10T12:15:46Z</time>
      </trkpt>
      <trkpt lat="46.64668" lon="5.48162">
        <ele>236.8</ele>
        <time>2022-04-10T12:15:48Z</time>
      </trkpt>
      <trkpt lat="46.6467" lon="5.4817">
        <ele>236.8</ele>
        <time>2022-04-10T12:15:49Z</time>
      </trkpt>
      <trkpt lat="46.64681" lon="5.48223">
        <ele>237.8</ele>
        <time>2022-04-10T12:15:55Z</time>
      </trkpt>
      <trkpt lat="46.64685" lon="5.4824">
        <ele>238</ele>
        <time>2022-04-10T12:15:57Z</time>
      </trkpt>
      <trkpt lat="46.64689" lon="5.48246">
        <ele>238.2</ele>
        <time>2022-04-10T12:15:58Z</time>
      </trkpt>
      <trkpt lat="46.64694" lon="5.4825">
        <ele>238.2</ele>
        <time>2022-04-10T12:15:59Z</time>
      </trkpt>
      <trkpt lat="46.64705" lon="5.48254">
        <ele>238.4</ele>
        <time>2022-04-10T12:16:01Z</time>
      </trkpt>
      <trkpt lat="46.64722" lon="5.48258">
        <ele>238.6</ele>
        <time>2022-04-10T12:16:04Z</time>
      </trkpt>
      <trkpt lat="46.64731" lon="5.48264">
        <ele>238.8</ele>
        <time>2022-04-10T12:16:06Z</time>
      </trkpt>
      <trkpt lat="46.64736" lon="5.48268">
        <ele>239</ele>
        <time>2022-04-10T12:16:07Z</time>
      </trkpt>
      <trkpt lat="46.64783" lon="5.48303">
        <ele>240</ele>
        <time>2022-04-10T12:16:16Z</time>
      </trkpt>
      <trkpt lat="46.64789" lon="5.48308">
        <ele>240</ele>
        <time>2022-04-10T12:16:17Z</time>
      </trkpt>
      <trkpt lat="46.6482" lon="5.4833">
        <ele>241</ele>
        <time>2022-04-10T12:16:23Z</time>
      </trkpt>
      <trkpt lat="46.64865" lon="5.48363">
        <ele>241.2</ele>
        <time>2022-04-10T12:16:31Z</time>
      </trkpt>
      <trkpt lat="46.64916" lon="5.48406">
        <ele>241</ele>
        <time>2022-04-10T12:16:40Z</time>
      </trkpt>
      <trkpt lat="46.64926" lon="5.48416">
        <ele>240.8</ele>
        <time>2022-04-10T12:16:42Z</time>
      </trkpt>
      <trkpt lat="46.64978" lon="5.48461">
        <ele>241</ele>
        <time>2022-04-10T12:16:51Z</time>
      </trkpt>
      <trkpt lat="46.65031" lon="5.485">
        <ele>241</ele>
        <time>2022-04-10T12:16:59Z</time>
      </trkpt>
      <trkpt lat="46.65037" lon="5.48505">
        <ele>241</ele>
        <time>2022-04-10T12:17:00Z</time>
      </trkpt>
      <trkpt lat="46.65086" lon="5.48534">
        <ele>240</ele>
        <time>2022-04-10T12:17:07Z</time>
      </trkpt>
      <trkpt lat="46.65106" lon="5.48546">
        <ele>240</ele>
        <time>2022-04-10T12:17:10Z</time>
      </trkpt>
      <trkpt lat="46.65159" lon="5.48576">
        <ele>239.6</ele>
        <time>2022-04-10T12:17:18Z</time>
      </trkpt>
      <trkpt lat="46.65205" lon="5.48594">
        <ele>239.2</ele>
        <time>2022-04-10T12:17:25Z</time>
      </trkpt>
      <trkpt lat="46.65243" lon="5.48618">
        <ele>239.2</ele>
        <time>2022-04-10T12:17:31Z</time>
      </trkpt>
      <trkpt lat="46.65288" lon="5.48647">
        <ele>239.2</ele>
        <time>2022-04-10T12:17:38Z</time>
      </trkpt>
      <trkpt lat="46.65294" lon="5.4865">
        <ele>239.2</ele>
        <time>2022-04-10T12:17:39Z</time>
      </trkpt>
      <trkpt lat="46.6532" lon="5.48654">
        <ele>238.8</ele>
        <time>2022-04-10T12:17:43Z</time>
      </trkpt>
      <trkpt lat="46.65357" lon="5.48661">
        <ele>237.8</ele>
        <time>2022-04-10T12:17:48Z</time>
      </trkpt>
      <trkpt lat="46.65365" lon="5.48664">
        <ele>237.8</ele>
        <time>2022-04-10T12:17:49Z</time>
      </trkpt>
      <trkpt lat="46.65373" lon="5.48668">
        <ele>237.2</ele>
        <time>2022-04-10T12:17:50Z</time>
      </trkpt>
      <trkpt lat="46.65381" lon="5.48673">
        <ele>236.8</ele>
        <time>2022-04-10T12:17:51Z</time>
      </trkpt>
      <trkpt lat="46.65397" lon="5.48685">
        <ele>235.6</ele>
        <time>2022-04-10T12:17:53Z</time>
      </trkpt>
      <trkpt lat="46.65424" lon="5.48703">
        <ele>234.4</ele>
        <time>2022-04-10T12:17:56Z</time>
      </trkpt>
      <trkpt lat="46.65433" lon="5.48707">
        <ele>234</ele>
        <time>2022-04-10T12:17:57Z</time>
      </trkpt>
      <trkpt lat="46.65443" lon="5.4871">
        <ele>233.4</ele>
        <time>2022-04-10T12:17:58Z</time>
      </trkpt>
      <trkpt lat="46.65452" lon="5.48711">
        <ele>232.8</ele>
        <time>2022-04-10T12:17:59Z</time>
      </trkpt>
      <trkpt lat="46.65462" lon="5.4871">
        <ele>232</ele>
        <time>2022-04-10T12:18:00Z</time>
      </trkpt>
      <trkpt lat="46.65481" lon="5.48707">
        <ele>231</ele>
        <time>2022-04-10T12:18:02Z</time>
      </trkpt>
      <trkpt lat="46.65509" lon="5.48703">
        <ele>229.8</ele>
        <time>2022-04-10T12:18:05Z</time>
      </trkpt>
      <trkpt lat="46.65526" lon="5.48701">
        <ele>228.2</ele>
        <time>2022-04-10T12:18:07Z</time>
      </trkpt>
      <trkpt lat="46.65552" lon="5.487">
        <ele>227.2</ele>
        <time>2022-04-10T12:18:10Z</time>
      </trkpt>
      <trkpt lat="46.65566" lon="5.48705">
        <ele>226.8</ele>
        <time>2022-04-10T12:18:12Z</time>
      </trkpt>
      <trkpt lat="46.65575" lon="5.48711">
        <ele>226.4</ele>
        <time>2022-04-10T12:18:13Z</time>
      </trkpt>
      <trkpt lat="46.65582" lon="5.48717">
        <ele>226</ele>
        <time>2022-04-10T12:18:14Z</time>
      </trkpt>
      <trkpt lat="46.65588" lon="5.48723">
        <ele>225.8</ele>
        <time>2022-04-10T12:18:15Z</time>
      </trkpt>
      <trkpt lat="46.65598" lon="5.48737">
        <ele>225.8</ele>
        <time>2022-04-10T12:18:17Z</time>
      </trkpt>
      <trkpt lat="46.65627" lon="5.48774">
        <ele>226.2</ele>
        <time>2022-04-10T12:18:23Z</time>
      </trkpt>
      <trkpt lat="46.65647" lon="5.48804">
        <ele>227.2</ele>
        <time>2022-04-10T12:18:28Z</time>
      </trkpt>
      <trkpt lat="46.6565" lon="5.4881">
        <ele>227.4</ele>
        <time>2022-04-10T12:18:29Z</time>
      </trkpt>
      <trkpt lat="46.65654" lon="5.48816">
        <ele>227.6</ele>
        <time>2022-04-10T12:18:30Z</time>
      </trkpt>
      <trkpt lat="46.65663" lon="5.48837">
        <ele>228.4</ele>
        <time>2022-04-10T12:18:34Z</time>
      </trkpt>
      <trkpt lat="46.65665" lon="5.48843">
        <ele>228.4</ele>
        <time>2022-04-10T12:18:35Z</time>
      </trkpt>
      <trkpt lat="46.65671" lon="5.48861">
        <ele>229.4</ele>
        <time>2022-04-10T12:18:38Z</time>
      </trkpt>
      <trkpt lat="46.65672" lon="5.48866">
        <ele>229.6</ele>
        <time>2022-04-10T12:18:39Z</time>
      </trkpt>
      <trkpt lat="46.65675" lon="5.48878">
        <ele>229.8</ele>
        <time>2022-04-10T12:18:41Z</time>
      </trkpt>
      <trkpt lat="46.65677" lon="5.4889">
        <ele>230.6</ele>
        <time>2022-04-10T12:18:43Z</time>
      </trkpt>
      <trkpt lat="46.65679" lon="5.48902">
        <ele>231.4</ele>
        <time>2022-04-10T12:18:45Z</time>
      </trkpt>
      <trkpt lat="46.65679" lon="5.48908">
        <ele>232</ele>
        <time>2022-04-10T12:18:46Z</time>
      </trkpt>
      <trkpt lat="46.65679" lon="5.48919">
        <ele>232.6</ele>
        <time>2022-04-10T12:18:48Z</time>
      </trkpt>
      <trkpt lat="46.6568" lon="5.48931">
        <ele>233.2</ele>
        <time>2022-04-10T12:18:50Z</time>
      </trkpt>
      <trkpt lat="46.65681" lon="5.4895">
        <ele>234.2</ele>
        <time>2022-04-10T12:18:53Z</time>
      </trkpt>
      <trkpt lat="46.65681" lon="5.48963">
        <ele>234.8</ele>
        <time>2022-04-10T12:18:55Z</time>
      </trkpt>
      <trkpt lat="46.65684" lon="5.48991">
        <ele>235.4</ele>
        <time>2022-04-10T12:18:59Z</time>
      </trkpt>
      <trkpt lat="46.65687" lon="5.49011">
        <ele>236.2</ele>
        <time>2022-04-10T12:19:02Z</time>
      </trkpt>
      <trkpt lat="46.65689" lon="5.49024">
        <ele>236.6</ele>
        <time>2022-04-10T12:19:04Z</time>
      </trkpt>
      <trkpt lat="46.65696" lon="5.49057">
        <ele>237.4</ele>
        <time>2022-04-10T12:19:09Z</time>
      </trkpt>
      <trkpt lat="46.65699" lon="5.49071">
        <ele>237.8</ele>
        <time>2022-04-10T12:19:11Z</time>
      </trkpt>
      <trkpt lat="46.6571" lon="5.49122">
        <ele>238.4</ele>
        <time>2022-04-10T12:19:19Z</time>
      </trkpt>
      <trkpt lat="46.65716" lon="5.49143">
        <ele>238.8</ele>
        <time>2022-04-10T12:19:22Z</time>
      </trkpt>
      <trkpt lat="46.65725" lon="5.49179">
        <ele>239</ele>
        <time>2022-04-10T12:19:27Z</time>
      </trkpt>
      <trkpt lat="46.65744" lon="5.49246">
        <ele>239</ele>
        <time>2022-04-10T12:19:36Z</time>
      </trkpt>
      <trkpt lat="46.65763" lon="5.49313">
        <ele>239.4</ele>
        <time>2022-04-10T12:19:45Z</time>
      </trkpt>
      <trkpt lat="46.65773" lon="5.49352">
        <ele>239.8</ele>
        <time>2022-04-10T12:19:50Z</time>
      </trkpt>
      <trkpt lat="46.65786" lon="5.494">
        <ele>240</ele>
        <time>2022-04-10T12:19:56Z</time>
      </trkpt>
      <trkpt lat="46.6581" lon="5.49476">
        <ele>240.6</ele>
        <time>2022-04-10T12:20:06Z</time>
      </trkpt>
      <trkpt lat="46.65812" lon="5.49483">
        <ele>240.6</ele>
        <time>2022-04-10T12:20:07Z</time>
      </trkpt>
      <trkpt lat="46.65818" lon="5.49498">
        <ele>240.8</ele>
        <time>2022-04-10T12:20:09Z</time>
      </trkpt>
      <trkpt lat="46.65831" lon="5.49543">
        <ele>241.2</ele>
        <time>2022-04-10T12:20:15Z</time>
      </trkpt>
      <trkpt lat="46.65844" lon="5.4961">
        <ele>241.6</ele>
        <time>2022-04-10T12:20:23Z</time>
      </trkpt>
      <trkpt lat="46.65854" lon="5.49661">
        <ele>242</ele>
        <time>2022-04-10T12:20:29Z</time>
      </trkpt>
      <trkpt lat="46.65864" lon="5.49711">
        <ele>242.6</ele>
        <time>2022-04-10T12:20:35Z</time>
      </trkpt>
      <trkpt lat="46.65877" lon="5.49777">
        <ele>242.8</ele>
        <time>2022-04-10T12:20:43Z</time>
      </trkpt>
      <trkpt lat="46.65885" lon="5.49811">
        <ele>243</ele>
        <time>2022-04-10T12:20:47Z</time>
      </trkpt>
      <trkpt lat="46.65889" lon="5.49832">
        <ele>243.4</ele>
        <time>2022-04-10T12:20:50Z</time>
      </trkpt>
      <trkpt lat="46.6589" lon="5.4984">
        <ele>243.4</ele>
        <time>2022-04-10T12:20:51Z</time>
      </trkpt>
      <trkpt lat="46.65902" lon="5.49892">
        <ele>243.8</ele>
        <time>2022-04-10T12:20:58Z</time>
      </trkpt>
      <trkpt lat="46.65899" lon="5.49906">
        <ele>243.8</ele>
        <time>2022-04-10T12:21:00Z</time>
      </trkpt>
      <trkpt lat="46.65877" lon="5.49918">
        <ele>244</ele>
        <time>2022-04-10T12:21:04Z</time>
      </trkpt>
      <trkpt lat="46.65833" lon="5.49943">
        <ele>243.8</ele>
        <time>2022-04-10T12:21:11Z</time>
      </trkpt>
      <trkpt lat="46.65798" lon="5.49963">
        <ele>244.2</ele>
        <time>2022-04-10T12:21:17Z</time>
      </trkpt>
      <trkpt lat="46.65741" lon="5.49998">
        <ele>244</ele>
        <time>2022-04-10T12:21:26Z</time>
      </trkpt>
      <trkpt lat="46.65734" lon="5.50003">
        <ele>243.8</ele>
        <time>2022-04-10T12:21:27Z</time>
      </trkpt>
      <trkpt lat="46.65706" lon="5.50025">
        <ele>243.2</ele>
        <time>2022-04-10T12:21:31Z</time>
      </trkpt>
      <trkpt lat="46.65692" lon="5.50038">
        <ele>242.6</ele>
        <time>2022-04-10T12:21:33Z</time>
      </trkpt>
      <trkpt lat="46.6568" lon="5.50059">
        <ele>241.8</ele>
        <time>2022-04-10T12:21:35Z</time>
      </trkpt>
      <trkpt lat="46.65669" lon="5.50095">
        <ele>240.2</ele>
        <time>2022-04-10T12:21:38Z</time>
      </trkpt>
      <trkpt lat="46.65665" lon="5.50108">
        <ele>239.8</ele>
        <time>2022-04-10T12:21:39Z</time>
      </trkpt>
      <trkpt lat="46.65659" lon="5.5013">
        <ele>239.4</ele>
        <time>2022-04-10T12:21:41Z</time>
      </trkpt>
      <trkpt lat="46.65659" lon="5.50141">
        <ele>239.2</ele>
        <time>2022-04-10T12:21:42Z</time>
      </trkpt>
      <trkpt lat="46.65661" lon="5.50153">
        <ele>239.2</ele>
        <time>2022-04-10T12:21:43Z</time>
      </trkpt>
      <trkpt lat="46.65667" lon="5.50175">
        <ele>238.6</ele>
        <time>2022-04-10T12:21:45Z</time>
      </trkpt>
      <trkpt lat="46.65679" lon="5.50219">
        <ele>238</ele>
        <time>2022-04-10T12:21:49Z</time>
      </trkpt>
      <trkpt lat="46.65687" lon="5.50262">
        <ele>237.4</ele>
        <time>2022-04-10T12:21:53Z</time>
      </trkpt>
      <trkpt lat="46.6569" lon="5.50282">
        <ele>236.8</ele>
        <time>2022-04-10T12:21:55Z</time>
      </trkpt>
      <trkpt lat="46.65696" lon="5.50336">
        <ele>236.4</ele>
        <time>2022-04-10T12:22:00Z</time>
      </trkpt>
      <trkpt lat="46.65698" lon="5.50356">
        <ele>235.8</ele>
        <time>2022-04-10T12:22:02Z</time>
      </trkpt>
      <trkpt lat="46.657" lon="5.50415">
        <ele>235.4</ele>
        <time>2022-04-10T12:22:08Z</time>
      </trkpt>
      <trkpt lat="46.65701" lon="5.50489">
        <ele>235.4</ele>
        <time>2022-04-10T12:22:16Z</time>
      </trkpt>
      <trkpt lat="46.65708" lon="5.50541">
        <ele>235.8</ele>
        <time>2022-04-10T12:22:22Z</time>
      </trkpt>
      <trkpt lat="46.65721" lon="5.50585">
        <ele>236.2</ele>
        <time>2022-04-10T12:22:27Z</time>
      </trkpt>
      <trkpt lat="46.65723" lon="5.50594">
        <ele>236.4</ele>
        <time>2022-04-10T12:22:28Z</time>
      </trkpt>
      <trkpt lat="46.65723" lon="5.50604">
        <ele>236.4</ele>
        <time>2022-04-10T12:22:29Z</time>
      </trkpt>
      <trkpt lat="46.65722" lon="5.50632">
        <ele>236.6</ele>
        <time>2022-04-10T12:22:32Z</time>
      </trkpt>
      <trkpt lat="46.65717" lon="5.50649">
        <ele>236.8</ele>
        <time>2022-04-10T12:22:34Z</time>
      </trkpt>
      <trkpt lat="46.65712" lon="5.50663">
        <ele>236.8</ele>
        <time>2022-04-10T12:22:36Z</time>
      </trkpt>
      <trkpt lat="46.65693" lon="5.50731">
        <ele>237.4</ele>
        <time>2022-04-10T12:22:44Z</time>
      </trkpt>
      <trkpt lat="46.65693" lon="5.50742">
        <ele>237.6</ele>
        <time>2022-04-10T12:22:45Z</time>
      </trkpt>
      <trkpt lat="46.65692" lon="5.50761">
        <ele>237.6</ele>
        <time>2022-04-10T12:22:47Z</time>
      </trkpt>
      <trkpt lat="46.65691" lon="5.50769">
        <ele>237.8</ele>
        <time>2022-04-10T12:22:48Z</time>
      </trkpt>
      <trkpt lat="46.6569" lon="5.50778">
        <ele>237.8</ele>
        <time>2022-04-10T12:22:49Z</time>
      </trkpt>
      <trkpt lat="46.65691" lon="5.50801">
        <ele>238.4</ele>
        <time>2022-04-10T12:22:52Z</time>
      </trkpt>
      <trkpt lat="46.65691" lon="5.50809">
        <ele>238.6</ele>
        <time>2022-04-10T12:22:53Z</time>
      </trkpt>
      <trkpt lat="46.65693" lon="5.50816">
        <ele>238.8</ele>
        <time>2022-04-10T12:22:54Z</time>
      </trkpt>
      <trkpt lat="46.65695" lon="5.50823">
        <ele>239</ele>
        <time>2022-04-10T12:22:55Z</time>
      </trkpt>
      <trkpt lat="46.65697" lon="5.50829">
        <ele>239.2</ele>
        <time>2022-04-10T12:22:56Z</time>
      </trkpt>
      <trkpt lat="46.65703" lon="5.50839">
        <ele>239.8</ele>
        <time>2022-04-10T12:22:58Z</time>
      </trkpt>
      <trkpt lat="46.65714" lon="5.50852">
        <ele>241</ele>
        <time>2022-04-10T12:23:01Z</time>
      </trkpt>
      <trkpt lat="46.65726" lon="5.50861">
        <ele>241.6</ele>
        <time>2022-04-10T12:23:04Z</time>
      </trkpt>
      <trkpt lat="46.65731" lon="5.50863">
        <ele>242.2</ele>
        <time>2022-04-10T12:23:05Z</time>
      </trkpt>
      <trkpt lat="46.65739" lon="5.50867">
        <ele>243</ele>
        <time>2022-04-10T12:23:07Z</time>
      </trkpt>
      <trkpt lat="46.65743" lon="5.5087">
        <ele>243.6</ele>
        <time>2022-04-10T12:23:08Z</time>
      </trkpt>
      <trkpt lat="46.65751" lon="5.50875">
        <ele>244</ele>
        <time>2022-04-10T12:23:10Z</time>
      </trkpt>
      <trkpt lat="46.65758" lon="5.50882">
        <ele>244.6</ele>
        <time>2022-04-10T12:23:12Z</time>
      </trkpt>
      <trkpt lat="46.65761" lon="5.50886">
        <ele>244.6</ele>
        <time>2022-04-10T12:23:13Z</time>
      </trkpt>
      <trkpt lat="46.65764" lon="5.5089">
        <ele>245.2</ele>
        <time>2022-04-10T12:23:14Z</time>
      </trkpt>
      <trkpt lat="46.65767" lon="5.50895">
        <ele>245.4</ele>
        <time>2022-04-10T12:23:15Z</time>
      </trkpt>
      <trkpt lat="46.65769" lon="5.509">
        <ele>245.6</ele>
        <time>2022-04-10T12:23:16Z</time>
      </trkpt>
      <trkpt lat="46.65773" lon="5.50912">
        <ele>246.2</ele>
        <time>2022-04-10T12:23:18Z</time>
      </trkpt>
      <trkpt lat="46.65774" lon="5.50919">
        <ele>246.8</ele>
        <time>2022-04-10T12:23:19Z</time>
      </trkpt>
      <trkpt lat="46.65774" lon="5.50926">
        <ele>247</ele>
        <time>2022-04-10T12:23:20Z</time>
      </trkpt>
      <trkpt lat="46.65774" lon="5.50946">
        <ele>247.8</ele>
        <time>2022-04-10T12:23:23Z</time>
      </trkpt>
      <trkpt lat="46.65775" lon="5.50969">
        <ele>249</ele>
        <time>2022-04-10T12:23:27Z</time>
      </trkpt>
      <trkpt lat="46.65774" lon="5.50981">
        <ele>249.8</ele>
        <time>2022-04-10T12:23:29Z</time>
      </trkpt>
      <trkpt lat="46.65774" lon="5.50995">
        <ele>250.2</ele>
        <time>2022-04-10T12:23:31Z</time>
      </trkpt>
      <trkpt lat="46.65774" lon="5.51008">
        <ele>250.8</ele>
        <time>2022-04-10T12:23:33Z</time>
      </trkpt>
      <trkpt lat="46.65774" lon="5.51028">
        <ele>251.2</ele>
        <time>2022-04-10T12:23:36Z</time>
      </trkpt>
      <trkpt lat="46.65775" lon="5.5105">
        <ele>252.2</ele>
        <time>2022-04-10T12:23:39Z</time>
      </trkpt>
      <trkpt lat="46.65775" lon="5.51057">
        <ele>252.4</ele>
        <time>2022-04-10T12:23:40Z</time>
      </trkpt>
      <trkpt lat="46.65776" lon="5.51093">
        <ele>253.6</ele>
        <time>2022-04-10T12:23:45Z</time>
      </trkpt>
      <trkpt lat="46.65776" lon="5.51123">
        <ele>254.2</ele>
        <time>2022-04-10T12:23:49Z</time>
      </trkpt>
      <trkpt lat="46.65776" lon="5.51139">
        <ele>254.6</ele>
        <time>2022-04-10T12:23:51Z</time>
      </trkpt>
      <trkpt lat="46.65779" lon="5.51204">
        <ele>255.8</ele>
        <time>2022-04-10T12:23:59Z</time>
      </trkpt>
      <trkpt lat="46.65779" lon="5.51212">
        <ele>256</ele>
        <time>2022-04-10T12:24:00Z</time>
      </trkpt>
      <trkpt lat="46.65781" lon="5.51286">
        <ele>256.8</ele>
        <time>2022-04-10T12:24:09Z</time>
      </trkpt>
      <trkpt lat="46.65781" lon="5.51295">
        <ele>256.8</ele>
        <time>2022-04-10T12:24:10Z</time>
      </trkpt>
      <trkpt lat="46.65783" lon="5.51379">
        <ele>257.4</ele>
        <time>2022-04-10T12:24:20Z</time>
      </trkpt>
      <trkpt lat="46.65784" lon="5.51428">
        <ele>258</ele>
        <time>2022-04-10T12:24:26Z</time>
      </trkpt>
      <trkpt lat="46.65785" lon="5.51444">
        <ele>258.2</ele>
        <time>2022-04-10T12:24:28Z</time>
      </trkpt>
      <trkpt lat="46.65785" lon="5.51461">
        <ele>258.4</ele>
        <time>2022-04-10T12:24:30Z</time>
      </trkpt>
      <trkpt lat="46.65781" lon="5.51476">
        <ele>258.6</ele>
        <time>2022-04-10T12:24:32Z</time>
      </trkpt>
      <trkpt lat="46.65771" lon="5.51495">
        <ele>258.8</ele>
        <time>2022-04-10T12:24:35Z</time>
      </trkpt>
      <trkpt lat="46.6577" lon="5.51501">
        <ele>258.8</ele>
        <time>2022-04-10T12:24:36Z</time>
      </trkpt>
      <trkpt lat="46.65772" lon="5.51512">
        <ele>258.8</ele>
        <time>2022-04-10T12:24:37Z</time>
      </trkpt>
      <trkpt lat="46.65778" lon="5.51524">
        <ele>259</ele>
        <time>2022-04-10T12:24:39Z</time>
      </trkpt>
      <trkpt lat="46.65786" lon="5.5154">
        <ele>259.2</ele>
        <time>2022-04-10T12:24:41Z</time>
      </trkpt>
      <trkpt lat="46.65787" lon="5.51547">
        <ele>259.2</ele>
        <time>2022-04-10T12:24:42Z</time>
      </trkpt>
      <trkpt lat="46.6579" lon="5.51565">
        <ele>259.4</ele>
        <time>2022-04-10T12:24:44Z</time>
      </trkpt>
      <trkpt lat="46.65792" lon="5.51576">
        <ele>259.4</ele>
        <time>2022-04-10T12:24:45Z</time>
      </trkpt>
      <trkpt lat="46.65798" lon="5.516">
        <ele>259.4</ele>
        <time>2022-04-10T12:24:48Z</time>
      </trkpt>
      <trkpt lat="46.6581" lon="5.51662">
        <ele>260</ele>
        <time>2022-04-10T12:24:55Z</time>
      </trkpt>
      <trkpt lat="46.6582" lon="5.51734">
        <ele>260.2</ele>
        <time>2022-04-10T12:25:03Z</time>
      </trkpt>
      <trkpt lat="46.65821" lon="5.51743">
        <ele>260.2</ele>
        <time>2022-04-10T12:25:04Z</time>
      </trkpt>
      <trkpt lat="46.65832" lon="5.51821">
        <ele>260.6</ele>
        <time>2022-04-10T12:25:13Z</time>
      </trkpt>
      <trkpt lat="46.65836" lon="5.51847">
        <ele>261</ele>
        <time>2022-04-10T12:25:16Z</time>
      </trkpt>
      <trkpt lat="46.65839" lon="5.51864">
        <ele>261.2</ele>
        <time>2022-04-10T12:25:18Z</time>
      </trkpt>
      <trkpt lat="46.65852" lon="5.51943">
        <ele>261.8</ele>
        <time>2022-04-10T12:25:27Z</time>
      </trkpt>
      <trkpt lat="46.65868" lon="5.52023">
        <ele>262.2</ele>
        <time>2022-04-10T12:25:36Z</time>
      </trkpt>
      <trkpt lat="46.65869" lon="5.52043">
        <ele>262.2</ele>
        <time>2022-04-10T12:25:38Z</time>
      </trkpt>
      <trkpt lat="46.65864" lon="5.52063">
        <ele>262</ele>
        <time>2022-04-10T12:25:40Z</time>
      </trkpt>
      <trkpt lat="46.65848" lon="5.52083">
        <ele>261.8</ele>
        <time>2022-04-10T12:25:43Z</time>
      </trkpt>
      <trkpt lat="46.65807" lon="5.52132">
        <ele>261</ele>
        <time>2022-04-10T12:25:50Z</time>
      </trkpt>
      <trkpt lat="46.65772" lon="5.52188">
        <ele>261</ele>
        <time>2022-04-10T12:25:57Z</time>
      </trkpt>
      <trkpt lat="46.65745" lon="5.52237">
        <ele>260.8</ele>
        <time>2022-04-10T12:26:02Z</time>
      </trkpt>
      <trkpt lat="46.65738" lon="5.52246">
        <ele>260.6</ele>
        <time>2022-04-10T12:26:03Z</time>
      </trkpt>
      <trkpt lat="46.65715" lon="5.52269">
        <ele>259.8</ele>
        <time>2022-04-10T12:26:06Z</time>
      </trkpt>
      <trkpt lat="46.65691" lon="5.52289">
        <ele>258.4</ele>
        <time>2022-04-10T12:26:09Z</time>
      </trkpt>
      <trkpt lat="46.65659" lon="5.52312">
        <ele>257.6</ele>
        <time>2022-04-10T12:26:13Z</time>
      </trkpt>
      <trkpt lat="46.65651" lon="5.52317">
        <ele>257.2</ele>
        <time>2022-04-10T12:26:14Z</time>
      </trkpt>
      <trkpt lat="46.6562" lon="5.52337">
        <ele>256</ele>
        <time>2022-04-10T12:26:18Z</time>
      </trkpt>
      <trkpt lat="46.65597" lon="5.52351">
        <ele>255.6</ele>
        <time>2022-04-10T12:26:21Z</time>
      </trkpt>
      <trkpt lat="46.65548" lon="5.52388">
        <ele>255.4</ele>
        <time>2022-04-10T12:26:28Z</time>
      </trkpt>
      <trkpt lat="46.65534" lon="5.52399">
        <ele>255</ele>
        <time>2022-04-10T12:26:30Z</time>
      </trkpt>
      <trkpt lat="46.65483" lon="5.52444">
        <ele>255.2</ele>
        <time>2022-04-10T12:26:38Z</time>
      </trkpt>
      <trkpt lat="46.65471" lon="5.52455">
        <ele>255.2</ele>
        <time>2022-04-10T12:26:40Z</time>
      </trkpt>
      <trkpt lat="46.65425" lon="5.52499">
        <ele>255.4</ele>
        <time>2022-04-10T12:26:48Z</time>
      </trkpt>
      <trkpt lat="46.65415" lon="5.52511">
        <ele>255.6</ele>
        <time>2022-04-10T12:26:50Z</time>
      </trkpt>
      <trkpt lat="46.65406" lon="5.52526">
        <ele>255.8</ele>
        <time>2022-04-10T12:26:52Z</time>
      </trkpt>
      <trkpt lat="46.65392" lon="5.52569">
        <ele>256</ele>
        <time>2022-04-10T12:26:57Z</time>
      </trkpt>
      <trkpt lat="46.6539" lon="5.52578">
        <ele>256</ele>
        <time>2022-04-10T12:26:58Z</time>
      </trkpt>
      <trkpt lat="46.65375" lon="5.52628">
        <ele>256.6</ele>
        <time>2022-04-10T12:27:04Z</time>
      </trkpt>
      <trkpt lat="46.65353" lon="5.52671">
        <ele>257</ele>
        <time>2022-04-10T12:27:10Z</time>
      </trkpt>
      <trkpt lat="46.6533" lon="5.52701">
        <ele>257.4</ele>
        <time>2022-04-10T12:27:15Z</time>
      </trkpt>
      <trkpt lat="46.65325" lon="5.52706">
        <ele>257.4</ele>
        <time>2022-04-10T12:27:16Z</time>
      </trkpt>
      <trkpt lat="46.65306" lon="5.52724">
        <ele>257.8</ele>
        <time>2022-04-10T12:27:20Z</time>
      </trkpt>
      <trkpt lat="46.65298" lon="5.52734">
        <ele>257.8</ele>
        <time>2022-04-10T12:27:22Z</time>
      </trkpt>
      <trkpt lat="46.65282" lon="5.52749">
        <ele>258.6</ele>
        <time>2022-04-10T12:27:25Z</time>
      </trkpt>
      <trkpt lat="46.65263" lon="5.52766">
        <ele>259.2</ele>
        <time>2022-04-10T12:27:29Z</time>
      </trkpt>
      <trkpt lat="46.65251" lon="5.52776">
        <ele>259.6</ele>
        <time>2022-04-10T12:27:32Z</time>
      </trkpt>
      <trkpt lat="46.65244" lon="5.52781">
        <ele>260</ele>
        <time>2022-04-10T12:27:34Z</time>
      </trkpt>
      <trkpt lat="46.65232" lon="5.52784">
        <ele>260.4</ele>
        <time>2022-04-10T12:27:37Z</time>
      </trkpt>
      <trkpt lat="46.65224" lon="5.52784">
        <ele>260.8</ele>
        <time>2022-04-10T12:27:39Z</time>
      </trkpt>
      <trkpt lat="46.65211" lon="5.52788">
        <ele>261.2</ele>
        <time>2022-04-10T12:27:42Z</time>
      </trkpt>
      <trkpt lat="46.65204" lon="5.52794">
        <ele>261.6</ele>
        <time>2022-04-10T12:27:44Z</time>
      </trkpt>
      <trkpt lat="46.65199" lon="5.52806">
        <ele>261.8</ele>
        <time>2022-04-10T12:27:46Z</time>
      </trkpt>
      <trkpt lat="46.65198" lon="5.52813">
        <ele>262</ele>
        <time>2022-04-10T12:27:47Z</time>
      </trkpt>
      <trkpt lat="46.65197" lon="5.5282">
        <ele>262.2</ele>
        <time>2022-04-10T12:27:48Z</time>
      </trkpt>
      <trkpt lat="46.6519" lon="5.52857">
        <ele>263</ele>
        <time>2022-04-10T12:27:53Z</time>
      </trkpt>
      <trkpt lat="46.65187" lon="5.52865">
        <ele>263</ele>
        <time>2022-04-10T12:27:54Z</time>
      </trkpt>
      <trkpt lat="46.65173" lon="5.52898">
        <ele>263.2</ele>
        <time>2022-04-10T12:27:58Z</time>
      </trkpt>
      <trkpt lat="46.65168" lon="5.52907">
        <ele>263.2</ele>
        <time>2022-04-10T12:27:59Z</time>
      </trkpt>
      <trkpt lat="46.65134" lon="5.5297">
        <ele>262.8</ele>
        <time>2022-04-10T12:28:07Z</time>
      </trkpt>
      <trkpt lat="46.65113" lon="5.53016">
        <ele>262.8</ele>
        <time>2022-04-10T12:28:13Z</time>
      </trkpt>
      <trkpt lat="46.65083" lon="5.53088">
        <ele>263.6</ele>
        <time>2022-04-10T12:28:22Z</time>
      </trkpt>
      <trkpt lat="46.65059" lon="5.53129">
        <ele>264</ele>
        <time>2022-04-10T12:28:28Z</time>
      </trkpt>
      <trkpt lat="46.65051" lon="5.53144">
        <ele>264</ele>
        <time>2022-04-10T12:28:30Z</time>
      </trkpt>
      <trkpt lat="46.65028" lon="5.53195">
        <ele>264.4</ele>
        <time>2022-04-10T12:28:37Z</time>
      </trkpt>
      <trkpt lat="46.65013" lon="5.53231">
        <ele>264.8</ele>
        <time>2022-04-10T12:28:42Z</time>
      </trkpt>
      <trkpt lat="46.6501" lon="5.53238">
        <ele>265</ele>
        <time>2022-04-10T12:28:43Z</time>
      </trkpt>
      <trkpt lat="46.65007" lon="5.53245">
        <ele>265.2</ele>
        <time>2022-04-10T12:28:44Z</time>
      </trkpt>
      <trkpt lat="46.64983" lon="5.53292">
        <ele>265.6</ele>
        <time>2022-04-10T12:28:51Z</time>
      </trkpt>
      <trkpt lat="46.64964" lon="5.53329">
        <ele>266.2</ele>
        <time>2022-04-10T12:28:57Z</time>
      </trkpt>
      <trkpt lat="46.64953" lon="5.53358">
        <ele>266.8</ele>
        <time>2022-04-10T12:29:01Z</time>
      </trkpt>
      <trkpt lat="46.64942" lon="5.53384">
        <ele>267.2</ele>
        <time>2022-04-10T12:29:05Z</time>
      </trkpt>
      <trkpt lat="46.64927" lon="5.53418">
        <ele>267.6</ele>
        <time>2022-04-10T12:29:10Z</time>
      </trkpt>
      <trkpt lat="46.64909" lon="5.53461">
        <ele>268</ele>
        <time>2022-04-10T12:29:16Z</time>
      </trkpt>
      <trkpt lat="46.64883" lon="5.53526">
        <ele>268.2</ele>
        <time>2022-04-10T12:29:25Z</time>
      </trkpt>
      <trkpt lat="46.6488" lon="5.53533">
        <ele>268.4</ele>
        <time>2022-04-10T12:29:26Z</time>
      </trkpt>
      <trkpt lat="46.64856" lon="5.53597">
        <ele>269.4</ele>
        <time>2022-04-10T12:29:35Z</time>
      </trkpt>
      <trkpt lat="46.64834" lon="5.53653">
        <ele>269.8</ele>
        <time>2022-04-10T12:29:43Z</time>
      </trkpt>
      <trkpt lat="46.6482" lon="5.53689">
        <ele>270.8</ele>
        <time>2022-04-10T12:29:48Z</time>
      </trkpt>
      <trkpt lat="46.64812" lon="5.5371">
        <ele>270.8</ele>
        <time>2022-04-10T12:29:51Z</time>
      </trkpt>
      <trkpt lat="46.64784" lon="5.53786">
        <ele>271.6</ele>
        <time>2022-04-10T12:30:01Z</time>
      </trkpt>
      <trkpt lat="46.64778" lon="5.53801">
        <ele>271.8</ele>
        <time>2022-04-10T12:30:03Z</time>
      </trkpt>
      <trkpt lat="46.64759" lon="5.53837">
        <ele>272.2</ele>
        <time>2022-04-10T12:30:08Z</time>
      </trkpt>
      <trkpt lat="46.64746" lon="5.53854">
        <ele>272.2</ele>
        <time>2022-04-10T12:30:11Z</time>
      </trkpt>
      <trkpt lat="46.64736" lon="5.53862">
        <ele>272.2</ele>
        <time>2022-04-10T12:30:13Z</time>
      </trkpt>
      <trkpt lat="46.64704" lon="5.53878">
        <ele>272.8</ele>
        <time>2022-04-10T12:30:19Z</time>
      </trkpt>
      <trkpt lat="46.64699" lon="5.53879">
        <ele>272.8</ele>
        <time>2022-04-10T12:30:20Z</time>
      </trkpt>
      <trkpt lat="46.64672" lon="5.53882">
        <ele>273.6</ele>
        <time>2022-04-10T12:30:25Z</time>
      </trkpt>
      <trkpt lat="46.64667" lon="5.53884">
        <ele>273.6</ele>
        <time>2022-04-10T12:30:26Z</time>
      </trkpt>
      <trkpt lat="46.64663" lon="5.53889">
        <ele>273.8</ele>
        <time>2022-04-10T12:30:27Z</time>
      </trkpt>
      <trkpt lat="46.64653" lon="5.53898">
        <ele>274.2</ele>
        <time>2022-04-10T12:30:29Z</time>
      </trkpt>
      <trkpt lat="46.64648" lon="5.539">
        <ele>274.2</ele>
        <time>2022-04-10T12:30:30Z</time>
      </trkpt>
      <trkpt lat="46.64636" lon="5.53905">
        <ele>274.2</ele>
        <time>2022-04-10T12:30:32Z</time>
      </trkpt>
      <trkpt lat="46.64621" lon="5.53914">
        <ele>274.4</ele>
        <time>2022-04-10T12:30:35Z</time>
      </trkpt>
      <trkpt lat="46.64598" lon="5.53929">
        <ele>275</ele>
        <time>2022-04-10T12:30:39Z</time>
      </trkpt>
      <trkpt lat="46.64573" lon="5.53947">
        <ele>275.4</ele>
        <time>2022-04-10T12:30:44Z</time>
      </trkpt>
      <trkpt lat="46.64531" lon="5.5398">
        <ele>275.6</ele>
        <time>2022-04-10T12:30:52Z</time>
      </trkpt>
      <trkpt lat="46.64503" lon="5.53992">
        <ele>276</ele>
        <time>2022-04-10T12:30:57Z</time>
      </trkpt>
      <trkpt lat="46.64497" lon="5.53993">
        <ele>276.2</ele>
        <time>2022-04-10T12:30:58Z</time>
      </trkpt>
      <trkpt lat="46.64492" lon="5.53994">
        <ele>276.2</ele>
        <time>2022-04-10T12:30:59Z</time>
      </trkpt>
      <trkpt lat="46.64458" lon="5.53998">
        <ele>276.8</ele>
        <time>2022-04-10T12:31:05Z</time>
      </trkpt>
      <trkpt lat="46.64453" lon="5.54001">
        <ele>276.8</ele>
        <time>2022-04-10T12:31:06Z</time>
      </trkpt>
      <trkpt lat="46.64444" lon="5.54007">
        <ele>277</ele>
        <time>2022-04-10T12:31:08Z</time>
      </trkpt>
      <trkpt lat="46.64439" lon="5.5401">
        <ele>277.2</ele>
        <time>2022-04-10T12:31:09Z</time>
      </trkpt>
      <trkpt lat="46.64432" lon="5.54019">
        <ele>277.4</ele>
        <time>2022-04-10T12:31:11Z</time>
      </trkpt>
      <trkpt lat="46.64423" lon="5.54025">
        <ele>278</ele>
        <time>2022-04-10T12:31:14Z</time>
      </trkpt>
      <trkpt lat="46.6442" lon="5.54025">
        <ele>278.2</ele>
        <time>2022-04-10T12:31:15Z</time>
      </trkpt>
      <trkpt lat="46.64419" lon="5.54026">
        <ele>278.4</ele>
        <time>2022-04-10T12:31:16Z</time>
      </trkpt>
      <trkpt lat="46.64418" lon="5.5403">
        <ele>278.6</ele>
        <time>2022-04-10T12:31:17Z</time>
      </trkpt>
      <trkpt lat="46.64422" lon="5.54056">
        <ele>279</ele>
        <time>2022-04-10T12:31:21Z</time>
      </trkpt>
      <trkpt lat="46.64419" lon="5.54073">
        <ele>279.2</ele>
        <time>2022-04-10T12:31:23Z</time>
      </trkpt>
      <trkpt lat="46.64417" lon="5.5408">
        <ele>279.2</ele>
        <time>2022-04-10T12:31:24Z</time>
      </trkpt>
      <trkpt lat="46.64413" lon="5.54087">
        <ele>279.2</ele>
        <time>2022-04-10T12:31:25Z</time>
      </trkpt>
      <trkpt lat="46.64399" lon="5.54104">
        <ele>279.2</ele>
        <time>2022-04-10T12:31:28Z</time>
      </trkpt>
      <trkpt lat="46.64378" lon="5.54132">
        <ele>279.2</ele>
        <time>2022-04-10T12:31:33Z</time>
      </trkpt>
      <trkpt lat="46.64369" lon="5.54138">
        <ele>279.2</ele>
        <time>2022-04-10T12:31:35Z</time>
      </trkpt>
      <trkpt lat="46.64344" lon="5.54146">
        <ele>280.4</ele>
        <time>2022-04-10T12:31:40Z</time>
      </trkpt>
      <trkpt lat="46.64328" lon="5.54147">
        <ele>280.8</ele>
        <time>2022-04-10T12:31:43Z</time>
      </trkpt>
      <trkpt lat="46.64305" lon="5.54146">
        <ele>281.4</ele>
        <time>2022-04-10T12:31:47Z</time>
      </trkpt>
      <trkpt lat="46.64294" lon="5.54146">
        <ele>281.8</ele>
        <time>2022-04-10T12:31:49Z</time>
      </trkpt>
      <trkpt lat="46.64289" lon="5.54148">
        <ele>282</ele>
        <time>2022-04-10T12:31:50Z</time>
      </trkpt>
      <trkpt lat="46.64283" lon="5.54151">
        <ele>282.2</ele>
        <time>2022-04-10T12:31:51Z</time>
      </trkpt>
      <trkpt lat="46.64273" lon="5.54159">
        <ele>282.4</ele>
        <time>2022-04-10T12:31:53Z</time>
      </trkpt>
      <trkpt lat="46.64269" lon="5.54164">
        <ele>282.4</ele>
        <time>2022-04-10T12:31:54Z</time>
      </trkpt>
      <trkpt lat="46.64261" lon="5.54174">
        <ele>282.6</ele>
        <time>2022-04-10T12:31:56Z</time>
      </trkpt>
      <trkpt lat="46.64251" lon="5.54181">
        <ele>282.8</ele>
        <time>2022-04-10T12:31:58Z</time>
      </trkpt>
      <trkpt lat="46.64246" lon="5.54184">
        <ele>283</ele>
        <time>2022-04-10T12:31:59Z</time>
      </trkpt>
      <trkpt lat="46.64241" lon="5.54185">
        <ele>283.2</ele>
        <time>2022-04-10T12:32:00Z</time>
      </trkpt>
      <trkpt lat="46.6423" lon="5.54187">
        <ele>283.4</ele>
        <time>2022-04-10T12:32:02Z</time>
      </trkpt>
      <trkpt lat="46.64214" lon="5.54188">
        <ele>283.8</ele>
        <time>2022-04-10T12:32:05Z</time>
      </trkpt>
      <trkpt lat="46.64167" lon="5.54195">
        <ele>284.6</ele>
        <time>2022-04-10T12:32:13Z</time>
      </trkpt>
      <trkpt lat="46.64162" lon="5.54197">
        <ele>284.6</ele>
        <time>2022-04-10T12:32:14Z</time>
      </trkpt>
      <trkpt lat="46.64146" lon="5.54209">
        <ele>284.6</ele>
        <time>2022-04-10T12:32:17Z</time>
      </trkpt>
      <trkpt lat="46.64122" lon="5.54233">
        <ele>285.4</ele>
        <time>2022-04-10T12:32:23Z</time>
      </trkpt>
      <trkpt lat="46.64115" lon="5.5424">
        <ele>285.8</ele>
        <time>2022-04-10T12:32:25Z</time>
      </trkpt>
      <trkpt lat="46.64103" lon="5.54253">
        <ele>286.8</ele>
        <time>2022-04-10T12:32:29Z</time>
      </trkpt>
      <trkpt lat="46.64097" lon="5.54259">
        <ele>287.2</ele>
        <time>2022-04-10T12:32:31Z</time>
      </trkpt>
      <trkpt lat="46.64084" lon="5.5427">
        <ele>288.2</ele>
        <time>2022-04-10T12:32:35Z</time>
      </trkpt>
      <trkpt lat="46.64072" lon="5.54282">
        <ele>289.4</ele>
        <time>2022-04-10T12:32:39Z</time>
      </trkpt>
      <trkpt lat="46.64069" lon="5.54284">
        <ele>289.6</ele>
        <time>2022-04-10T12:32:40Z</time>
      </trkpt>
      <trkpt lat="46.64059" lon="5.54292">
        <ele>290.4</ele>
        <time>2022-04-10T12:32:43Z</time>
      </trkpt>
      <trkpt lat="46.64043" lon="5.54298">
        <ele>291.4</ele>
        <time>2022-04-10T12:32:48Z</time>
      </trkpt>
      <trkpt lat="46.6404" lon="5.54299">
        <ele>291.4</ele>
        <time>2022-04-10T12:32:49Z</time>
      </trkpt>
      <trkpt lat="46.64023" lon="5.54303">
        <ele>292.8</ele>
        <time>2022-04-10T12:32:54Z</time>
      </trkpt>
      <trkpt lat="46.64016" lon="5.54305">
        <ele>293.4</ele>
        <time>2022-04-10T12:32:56Z</time>
      </trkpt>
      <trkpt lat="46.64005" lon="5.54307">
        <ele>294</ele>
        <time>2022-04-10T12:32:59Z</time>
      </trkpt>
      <trkpt lat="46.63988" lon="5.54311">
        <ele>295.2</ele>
        <time>2022-04-10T12:33:04Z</time>
      </trkpt>
      <trkpt lat="46.63981" lon="5.54313">
        <ele>295.6</ele>
        <time>2022-04-10T12:33:06Z</time>
      </trkpt>
      <trkpt lat="46.63972" lon="5.54317">
        <ele>296.4</ele>
        <time>2022-04-10T12:33:09Z</time>
      </trkpt>
      <trkpt lat="46.63952" lon="5.54326">
        <ele>297.4</ele>
        <time>2022-04-10T12:33:15Z</time>
      </trkpt>
      <trkpt lat="46.63949" lon="5.54327">
        <ele>297.4</ele>
        <time>2022-04-10T12:33:16Z</time>
      </trkpt>
      <trkpt lat="46.63933" lon="5.54337">
        <ele>298.6</ele>
        <time>2022-04-10T12:33:21Z</time>
      </trkpt>
      <trkpt lat="46.6392" lon="5.54345">
        <ele>299.8</ele>
        <time>2022-04-10T12:33:25Z</time>
      </trkpt>
      <trkpt lat="46.63917" lon="5.54348">
        <ele>299.8</ele>
        <time>2022-04-10T12:33:26Z</time>
      </trkpt>
      <trkpt lat="46.63902" lon="5.54359">
        <ele>301</ele>
        <time>2022-04-10T12:33:31Z</time>
      </trkpt>
      <trkpt lat="46.63885" lon="5.54374">
        <ele>301.8</ele>
        <time>2022-04-10T12:33:37Z</time>
      </trkpt>
      <trkpt lat="46.63883" lon="5.54376">
        <ele>302.2</ele>
        <time>2022-04-10T12:33:38Z</time>
      </trkpt>
      <trkpt lat="46.63872" lon="5.54388">
        <ele>303.4</ele>
        <time>2022-04-10T12:33:42Z</time>
      </trkpt>
      <trkpt lat="46.63861" lon="5.544">
        <ele>304.4</ele>
        <time>2022-04-10T12:33:46Z</time>
      </trkpt>
      <trkpt lat="46.63859" lon="5.54403">
        <ele>304.4</ele>
        <time>2022-04-10T12:33:47Z</time>
      </trkpt>
      <trkpt lat="46.63843" lon="5.5442">
        <ele>305.6</ele>
        <time>2022-04-10T12:33:53Z</time>
      </trkpt>
      <trkpt lat="46.63827" lon="5.54438">
        <ele>307.2</ele>
        <time>2022-04-10T12:33:59Z</time>
      </trkpt>
      <trkpt lat="46.63814" lon="5.54453">
        <ele>308.6</ele>
        <time>2022-04-10T12:34:04Z</time>
      </trkpt>
      <trkpt lat="46.63806" lon="5.5446">
        <ele>309.6</ele>
        <time>2022-04-10T12:34:07Z</time>
      </trkpt>
      <trkpt lat="46.63803" lon="5.54462">
        <ele>309.8</ele>
        <time>2022-04-10T12:34:08Z</time>
      </trkpt>
      <trkpt lat="46.63788" lon="5.54472">
        <ele>310.8</ele>
        <time>2022-04-10T12:34:13Z</time>
      </trkpt>
      <trkpt lat="46.63775" lon="5.54479">
        <ele>311.6</ele>
        <time>2022-04-10T12:34:17Z</time>
      </trkpt>
      <trkpt lat="46.63772" lon="5.5448">
        <ele>311.8</ele>
        <time>2022-04-10T12:34:18Z</time>
      </trkpt>
      <trkpt lat="46.63752" lon="5.54489">
        <ele>313</ele>
        <time>2022-04-10T12:34:24Z</time>
      </trkpt>
      <trkpt lat="46.63743" lon="5.54494">
        <ele>313.6</ele>
        <time>2022-04-10T12:34:27Z</time>
      </trkpt>
      <trkpt lat="46.63737" lon="5.54499">
        <ele>314</ele>
        <time>2022-04-10T12:34:29Z</time>
      </trkpt>
      <trkpt lat="46.63728" lon="5.54508">
        <ele>315.2</ele>
        <time>2022-04-10T12:34:32Z</time>
      </trkpt>
      <trkpt lat="46.63726" lon="5.54512">
        <ele>315.2</ele>
        <time>2022-04-10T12:34:33Z</time>
      </trkpt>
      <trkpt lat="46.6372" lon="5.54529">
        <ele>316.4</ele>
        <time>2022-04-10T12:34:37Z</time>
      </trkpt>
      <trkpt lat="46.63717" lon="5.54539">
        <ele>317</ele>
        <time>2022-04-10T12:34:39Z</time>
      </trkpt>
      <trkpt lat="46.63712" lon="5.54558">
        <ele>317.4</ele>
        <time>2022-04-10T12:34:43Z</time>
      </trkpt>
      <trkpt lat="46.63711" lon="5.54563">
        <ele>317.6</ele>
        <time>2022-04-10T12:34:44Z</time>
      </trkpt>
      <trkpt lat="46.63703" lon="5.54584">
        <ele>318.6</ele>
        <time>2022-04-10T12:34:49Z</time>
      </trkpt>
      <trkpt lat="46.63698" lon="5.54594">
        <ele>319.6</ele>
        <time>2022-04-10T12:34:52Z</time>
      </trkpt>
      <trkpt lat="46.63697" lon="5.54597">
        <ele>320.2</ele>
        <time>2022-04-10T12:34:53Z</time>
      </trkpt>
      <trkpt lat="46.63689" lon="5.54611">
        <ele>321.2</ele>
        <time>2022-04-10T12:34:57Z</time>
      </trkpt>
      <trkpt lat="46.63684" lon="5.54618">
        <ele>321.6</ele>
        <time>2022-04-10T12:34:59Z</time>
      </trkpt>
      <trkpt lat="46.63677" lon="5.54628">
        <ele>322.2</ele>
        <time>2022-04-10T12:35:02Z</time>
      </trkpt>
      <trkpt lat="46.63674" lon="5.54629">
        <ele>322.4</ele>
        <time>2022-04-10T12:35:03Z</time>
      </trkpt>
      <trkpt lat="46.63658" lon="5.5464">
        <ele>323.2</ele>
        <time>2022-04-10T12:35:08Z</time>
      </trkpt>
      <trkpt lat="46.63655" lon="5.54642">
        <ele>323.6</ele>
        <time>2022-04-10T12:35:09Z</time>
      </trkpt>
      <trkpt lat="46.63642" lon="5.54647">
        <ele>324.6</ele>
        <time>2022-04-10T12:35:13Z</time>
      </trkpt>
      <trkpt lat="46.63639" lon="5.54647">
        <ele>324.8</ele>
        <time>2022-04-10T12:35:14Z</time>
      </trkpt>
      <trkpt lat="46.63616" lon="5.54654">
        <ele>325.8</ele>
        <time>2022-04-10T12:35:20Z</time>
      </trkpt>
      <trkpt lat="46.63611" lon="5.54655">
        <ele>326</ele>
        <time>2022-04-10T12:35:21Z</time>
      </trkpt>
      <trkpt lat="46.63594" lon="5.54659">
        <ele>327</ele>
        <time>2022-04-10T12:35:26Z</time>
      </trkpt>
      <trkpt lat="46.63583" lon="5.54661">
        <ele>327.6</ele>
        <time>2022-04-10T12:35:29Z</time>
      </trkpt>
      <trkpt lat="46.63577" lon="5.54662">
        <ele>328</ele>
        <time>2022-04-10T12:35:31Z</time>
      </trkpt>
      <trkpt lat="46.63564" lon="5.54665">
        <ele>329.2</ele>
        <time>2022-04-10T12:35:35Z</time>
      </trkpt>
      <trkpt lat="46.6356" lon="5.54667">
        <ele>329.4</ele>
        <time>2022-04-10T12:35:36Z</time>
      </trkpt>
      <trkpt lat="46.63546" lon="5.54673">
        <ele>330.2</ele>
        <time>2022-04-10T12:35:40Z</time>
      </trkpt>
      <trkpt lat="46.63534" lon="5.54678">
        <ele>331.4</ele>
        <time>2022-04-10T12:35:44Z</time>
      </trkpt>
      <trkpt lat="46.63521" lon="5.54683">
        <ele>332.4</ele>
        <time>2022-04-10T12:35:48Z</time>
      </trkpt>
      <trkpt lat="46.63512" lon="5.54687">
        <ele>333.4</ele>
        <time>2022-04-10T12:35:51Z</time>
      </trkpt>
      <trkpt lat="46.63506" lon="5.5469">
        <ele>334</ele>
        <time>2022-04-10T12:35:53Z</time>
      </trkpt>
      <trkpt lat="46.635" lon="5.54692">
        <ele>334.6</ele>
        <time>2022-04-10T12:35:55Z</time>
      </trkpt>
      <trkpt lat="46.63484" lon="5.54699">
        <ele>335.6</ele>
        <time>2022-04-10T12:36:00Z</time>
      </trkpt>
      <trkpt lat="46.63478" lon="5.54702">
        <ele>336</ele>
        <time>2022-04-10T12:36:02Z</time>
      </trkpt>
      <trkpt lat="46.63468" lon="5.54709">
        <ele>336.8</ele>
        <time>2022-04-10T12:36:05Z</time>
      </trkpt>
      <trkpt lat="46.63449" lon="5.54721">
        <ele>337.8</ele>
        <time>2022-04-10T12:36:11Z</time>
      </trkpt>
      <trkpt lat="46.63425" lon="5.54737">
        <ele>339.2</ele>
        <time>2022-04-10T12:36:18Z</time>
      </trkpt>
      <trkpt lat="46.63419" lon="5.54741">
        <ele>339.4</ele>
        <time>2022-04-10T12:36:20Z</time>
      </trkpt>
      <trkpt lat="46.63401" lon="5.54747">
        <ele>340.2</ele>
        <time>2022-04-10T12:36:25Z</time>
      </trkpt>
      <trkpt lat="46.63398" lon="5.54747">
        <ele>340.6</ele>
        <time>2022-04-10T12:36:26Z</time>
      </trkpt>
      <trkpt lat="46.63383" lon="5.54746">
        <ele>341.4</ele>
        <time>2022-04-10T12:36:30Z</time>
      </trkpt>
      <trkpt lat="46.63356" lon="5.54747">
        <ele>342.4</ele>
        <time>2022-04-10T12:36:37Z</time>
      </trkpt>
      <trkpt lat="46.63333" lon="5.54753">
        <ele>343.6</ele>
        <time>2022-04-10T12:36:43Z</time>
      </trkpt>
      <trkpt lat="46.63322" lon="5.54756">
        <ele>344.4</ele>
        <time>2022-04-10T12:36:46Z</time>
      </trkpt>
      <trkpt lat="46.63318" lon="5.54757">
        <ele>344.6</ele>
        <time>2022-04-10T12:36:47Z</time>
      </trkpt>
      <trkpt lat="46.63298" lon="5.54762">
        <ele>345.6</ele>
        <time>2022-04-10T12:36:52Z</time>
      </trkpt>
      <trkpt lat="46.63286" lon="5.54763">
        <ele>346</ele>
        <time>2022-04-10T12:36:55Z</time>
      </trkpt>
      <trkpt lat="46.63274" lon="5.54764">
        <ele>346.8</ele>
        <time>2022-04-10T12:36:58Z</time>
      </trkpt>
      <trkpt lat="46.63252" lon="5.54766">
        <ele>348</ele>
        <time>2022-04-10T12:37:04Z</time>
      </trkpt>
      <trkpt lat="46.63244" lon="5.54767">
        <ele>348.4</ele>
        <time>2022-04-10T12:37:06Z</time>
      </trkpt>
      <trkpt lat="46.63233" lon="5.54769">
        <ele>349.4</ele>
        <time>2022-04-10T12:37:09Z</time>
      </trkpt>
      <trkpt lat="46.63204" lon="5.54772">
        <ele>350.4</ele>
        <time>2022-04-10T12:37:16Z</time>
      </trkpt>
      <trkpt lat="46.632" lon="5.54772">
        <ele>350.4</ele>
        <time>2022-04-10T12:37:17Z</time>
      </trkpt>
      <trkpt lat="46.63172" lon="5.54764">
        <ele>351.6</ele>
        <time>2022-04-10T12:37:24Z</time>
      </trkpt>
      <trkpt lat="46.63168" lon="5.54763">
        <ele>352</ele>
        <time>2022-04-10T12:37:25Z</time>
      </trkpt>
      <trkpt lat="46.63153" lon="5.54759">
        <ele>352.6</ele>
        <time>2022-04-10T12:37:29Z</time>
      </trkpt>
      <trkpt lat="46.63134" lon="5.54753">
        <ele>353.6</ele>
        <time>2022-04-10T12:37:34Z</time>
      </trkpt>
      <trkpt lat="46.6313" lon="5.54753">
        <ele>353.8</ele>
        <time>2022-04-10T12:37:35Z</time>
      </trkpt>
      <trkpt lat="46.63106" lon="5.54748">
        <ele>354.8</ele>
        <time>2022-04-10T12:37:41Z</time>
      </trkpt>
      <trkpt lat="46.63092" lon="5.54747">
        <ele>355.6</ele>
        <time>2022-04-10T12:37:44Z</time>
      </trkpt>
      <trkpt lat="46.63088" lon="5.54747">
        <ele>355.8</ele>
        <time>2022-04-10T12:37:45Z</time>
      </trkpt>
      <trkpt lat="46.63083" lon="5.54746">
        <ele>356</ele>
        <time>2022-04-10T12:37:46Z</time>
      </trkpt>
      <trkpt lat="46.63065" lon="5.54747">
        <ele>356.4</ele>
        <time>2022-04-10T12:37:50Z</time>
      </trkpt>
      <trkpt lat="46.63047" lon="5.5475">
        <ele>357</ele>
        <time>2022-04-10T12:37:54Z</time>
      </trkpt>
      <trkpt lat="46.63034" lon="5.54753">
        <ele>357.6</ele>
        <time>2022-04-10T12:37:57Z</time>
      </trkpt>
      <trkpt lat="46.63026" lon="5.54755">
        <ele>358.2</ele>
        <time>2022-04-10T12:37:59Z</time>
      </trkpt>
      <trkpt lat="46.63003" lon="5.54763">
        <ele>359.4</ele>
        <time>2022-04-10T12:38:05Z</time>
      </trkpt>
      <trkpt lat="46.62999" lon="5.54764">
        <ele>359.6</ele>
        <time>2022-04-10T12:38:06Z</time>
      </trkpt>
      <trkpt lat="46.62981" lon="5.54773">
        <ele>360.4</ele>
        <time>2022-04-10T12:38:11Z</time>
      </trkpt>
      <trkpt lat="46.62965" lon="5.54782">
        <ele>361.4</ele>
        <time>2022-04-10T12:38:16Z</time>
      </trkpt>
      <trkpt lat="46.62958" lon="5.54786">
        <ele>361.8</ele>
        <time>2022-04-10T12:38:18Z</time>
      </trkpt>
      <trkpt lat="46.62943" lon="5.54796">
        <ele>363</ele>
        <time>2022-04-10T12:38:23Z</time>
      </trkpt>
      <trkpt lat="46.62939" lon="5.54798">
        <ele>363.2</ele>
        <time>2022-04-10T12:38:24Z</time>
      </trkpt>
      <trkpt lat="46.62927" lon="5.54806">
        <ele>364.2</ele>
        <time>2022-04-10T12:38:28Z</time>
      </trkpt>
      <trkpt lat="46.62911" lon="5.54815">
        <ele>365.4</ele>
        <time>2022-04-10T12:38:33Z</time>
      </trkpt>
      <trkpt lat="46.62899" lon="5.54824">
        <ele>366.4</ele>
        <time>2022-04-10T12:38:37Z</time>
      </trkpt>
      <trkpt lat="46.62896" lon="5.54826">
        <ele>366.4</ele>
        <time>2022-04-10T12:38:38Z</time>
      </trkpt>
      <trkpt lat="46.62884" lon="5.54836">
        <ele>367.4</ele>
        <time>2022-04-10T12:38:42Z</time>
      </trkpt>
      <trkpt lat="46.6287" lon="5.54848">
        <ele>368.6</ele>
        <time>2022-04-10T12:38:47Z</time>
      </trkpt>
      <trkpt lat="46.62867" lon="5.54851">
        <ele>368.8</ele>
        <time>2022-04-10T12:38:48Z</time>
      </trkpt>
      <trkpt lat="46.62859" lon="5.54858">
        <ele>369.6</ele>
        <time>2022-04-10T12:38:51Z</time>
      </trkpt>
      <trkpt lat="46.62843" lon="5.54875">
        <ele>371</ele>
        <time>2022-04-10T12:38:57Z</time>
      </trkpt>
      <trkpt lat="46.62835" lon="5.54884">
        <ele>371.8</ele>
        <time>2022-04-10T12:39:00Z</time>
      </trkpt>
      <trkpt lat="46.6283" lon="5.5489">
        <ele>372.2</ele>
        <time>2022-04-10T12:39:02Z</time>
      </trkpt>
      <trkpt lat="46.62817" lon="5.54905">
        <ele>373.4</ele>
        <time>2022-04-10T12:39:07Z</time>
      </trkpt>
      <trkpt lat="46.62809" lon="5.54914">
        <ele>373.6</ele>
        <time>2022-04-10T12:39:10Z</time>
      </trkpt>
      <trkpt lat="46.62804" lon="5.5492">
        <ele>374.4</ele>
        <time>2022-04-10T12:39:12Z</time>
      </trkpt>
      <trkpt lat="46.62782" lon="5.54939">
        <ele>375.6</ele>
        <time>2022-04-10T12:39:19Z</time>
      </trkpt>
      <trkpt lat="46.62776" lon="5.54944">
        <ele>376.2</ele>
        <time>2022-04-10T12:39:21Z</time>
      </trkpt>
      <trkpt lat="46.62764" lon="5.54951">
        <ele>376.8</ele>
        <time>2022-04-10T12:39:25Z</time>
      </trkpt>
      <trkpt lat="46.62755" lon="5.54957">
        <ele>378</ele>
        <time>2022-04-10T12:39:28Z</time>
      </trkpt>
      <trkpt lat="46.62749" lon="5.5496">
        <ele>378.6</ele>
        <time>2022-04-10T12:39:30Z</time>
      </trkpt>
      <trkpt lat="46.62743" lon="5.54963">
        <ele>379.2</ele>
        <time>2022-04-10T12:39:32Z</time>
      </trkpt>
      <trkpt lat="46.62723" lon="5.5497">
        <ele>380.2</ele>
        <time>2022-04-10T12:39:38Z</time>
      </trkpt>
      <trkpt lat="46.6272" lon="5.54971">
        <ele>380.2</ele>
        <time>2022-04-10T12:39:39Z</time>
      </trkpt>
      <trkpt lat="46.62713" lon="5.54973">
        <ele>380.8</ele>
        <time>2022-04-10T12:39:41Z</time>
      </trkpt>
      <trkpt lat="46.62705" lon="5.54976">
        <ele>381.4</ele>
        <time>2022-04-10T12:39:43Z</time>
      </trkpt>
      <trkpt lat="46.6269" lon="5.5498">
        <ele>382</ele>
        <time>2022-04-10T12:39:47Z</time>
      </trkpt>
      <trkpt lat="46.62683" lon="5.54981">
        <ele>382.6</ele>
        <time>2022-04-10T12:39:49Z</time>
      </trkpt>
      <trkpt lat="46.62662" lon="5.54981">
        <ele>383.2</ele>
        <time>2022-04-10T12:39:55Z</time>
      </trkpt>
      <trkpt lat="46.62659" lon="5.54981">
        <ele>383.6</ele>
        <time>2022-04-10T12:39:56Z</time>
      </trkpt>
      <trkpt lat="46.62644" lon="5.5498">
        <ele>385.2</ele>
        <time>2022-04-10T12:40:00Z</time>
      </trkpt>
      <trkpt lat="46.62629" lon="5.5498">
        <ele>386</ele>
        <time>2022-04-10T12:40:04Z</time>
      </trkpt>
      <trkpt lat="46.62625" lon="5.5498">
        <ele>386.6</ele>
        <time>2022-04-10T12:40:05Z</time>
      </trkpt>
      <trkpt lat="46.6261" lon="5.54987">
        <ele>387.6</ele>
        <time>2022-04-10T12:40:09Z</time>
      </trkpt>
      <trkpt lat="46.62606" lon="5.54989">
        <ele>387.8</ele>
        <time>2022-04-10T12:40:10Z</time>
      </trkpt>
      <trkpt lat="46.62598" lon="5.54992">
        <ele>388.6</ele>
        <time>2022-04-10T12:40:12Z</time>
      </trkpt>
      <trkpt lat="46.62585" lon="5.55001">
        <ele>390</ele>
        <time>2022-04-10T12:40:16Z</time>
      </trkpt>
      <trkpt lat="46.62576" lon="5.55011">
        <ele>391</ele>
        <time>2022-04-10T12:40:19Z</time>
      </trkpt>
      <trkpt lat="46.62565" lon="5.55024">
        <ele>392.2</ele>
        <time>2022-04-10T12:40:23Z</time>
      </trkpt>
      <trkpt lat="46.6256" lon="5.5503">
        <ele>392.6</ele>
        <time>2022-04-10T12:40:25Z</time>
      </trkpt>
      <trkpt lat="46.62548" lon="5.55041">
        <ele>393.2</ele>
        <time>2022-04-10T12:40:29Z</time>
      </trkpt>
      <trkpt lat="46.62539" lon="5.55048">
        <ele>394</ele>
        <time>2022-04-10T12:40:32Z</time>
      </trkpt>
      <trkpt lat="46.62533" lon="5.55052">
        <ele>394.4</ele>
        <time>2022-04-10T12:40:34Z</time>
      </trkpt>
      <trkpt lat="46.62513" lon="5.55061">
        <ele>395.4</ele>
        <time>2022-04-10T12:40:40Z</time>
      </trkpt>
      <trkpt lat="46.62499" lon="5.55067">
        <ele>396.6</ele>
        <time>2022-04-10T12:40:44Z</time>
      </trkpt>
      <trkpt lat="46.62486" lon="5.55075">
        <ele>397.8</ele>
        <time>2022-04-10T12:40:48Z</time>
      </trkpt>
      <trkpt lat="46.62483" lon="5.55078">
        <ele>398.2</ele>
        <time>2022-04-10T12:40:49Z</time>
      </trkpt>
      <trkpt lat="46.62471" lon="5.55093">
        <ele>399</ele>
        <time>2022-04-10T12:40:53Z</time>
      </trkpt>
      <trkpt lat="46.62462" lon="5.55108">
        <ele>399.6</ele>
        <time>2022-04-10T12:40:57Z</time>
      </trkpt>
      <trkpt lat="46.62457" lon="5.55116">
        <ele>400.2</ele>
        <time>2022-04-10T12:40:59Z</time>
      </trkpt>
      <trkpt lat="46.62442" lon="5.5513">
        <ele>401.2</ele>
        <time>2022-04-10T12:41:04Z</time>
      </trkpt>
      <trkpt lat="46.62438" lon="5.55133">
        <ele>401.6</ele>
        <time>2022-04-10T12:41:05Z</time>
      </trkpt>
      <trkpt lat="46.62422" lon="5.55142">
        <ele>402.8</ele>
        <time>2022-04-10T12:41:10Z</time>
      </trkpt>
      <trkpt lat="46.62412" lon="5.55146">
        <ele>403.4</ele>
        <time>2022-04-10T12:41:13Z</time>
      </trkpt>
      <trkpt lat="46.62405" lon="5.55147">
        <ele>404</ele>
        <time>2022-04-10T12:41:15Z</time>
      </trkpt>
      <trkpt lat="46.62391" lon="5.55147">
        <ele>404.8</ele>
        <time>2022-04-10T12:41:19Z</time>
      </trkpt>
      <trkpt lat="46.62388" lon="5.55146">
        <ele>404.8</ele>
        <time>2022-04-10T12:41:20Z</time>
      </trkpt>
      <trkpt lat="46.62374" lon="5.55141">
        <ele>405.8</ele>
        <time>2022-04-10T12:41:24Z</time>
      </trkpt>
      <trkpt lat="46.62364" lon="5.55135">
        <ele>406.6</ele>
        <time>2022-04-10T12:41:27Z</time>
      </trkpt>
      <trkpt lat="46.62361" lon="5.55133">
        <ele>406.8</ele>
        <time>2022-04-10T12:41:28Z</time>
      </trkpt>
      <trkpt lat="46.62345" lon="5.5512">
        <ele>408</ele>
        <time>2022-04-10T12:41:33Z</time>
      </trkpt>
      <trkpt lat="46.62339" lon="5.55114">
        <ele>408.4</ele>
        <time>2022-04-10T12:41:35Z</time>
      </trkpt>
      <trkpt lat="46.62333" lon="5.55101">
        <ele>409.2</ele>
        <time>2022-04-10T12:41:38Z</time>
      </trkpt>
      <trkpt lat="46.62329" lon="5.55093">
        <ele>409.6</ele>
        <time>2022-04-10T12:41:40Z</time>
      </trkpt>
      <trkpt lat="46.62325" lon="5.55085">
        <ele>410.4</ele>
        <time>2022-04-10T12:41:42Z</time>
      </trkpt>
      <trkpt lat="46.62314" lon="5.55073">
        <ele>411.2</ele>
        <time>2022-04-10T12:41:46Z</time>
      </trkpt>
      <trkpt lat="46.62308" lon="5.5507">
        <ele>411.6</ele>
        <time>2022-04-10T12:41:48Z</time>
      </trkpt>
      <trkpt lat="46.62298" lon="5.55071">
        <ele>412.2</ele>
        <time>2022-04-10T12:41:51Z</time>
      </trkpt>
      <trkpt lat="46.62291" lon="5.55073">
        <ele>412.6</ele>
        <time>2022-04-10T12:41:53Z</time>
      </trkpt>
      <trkpt lat="46.62276" lon="5.55086">
        <ele>413.8</ele>
        <time>2022-04-10T12:41:58Z</time>
      </trkpt>
      <trkpt lat="46.62261" lon="5.551">
        <ele>415.2</ele>
        <time>2022-04-10T12:42:03Z</time>
      </trkpt>
      <trkpt lat="46.62253" lon="5.55107">
        <ele>415.8</ele>
        <time>2022-04-10T12:42:06Z</time>
      </trkpt>
      <trkpt lat="46.62236" lon="5.55116">
        <ele>416.6</ele>
        <time>2022-04-10T12:42:11Z</time>
      </trkpt>
      <trkpt lat="46.6223" lon="5.55117">
        <ele>417</ele>
        <time>2022-04-10T12:42:13Z</time>
      </trkpt>
      <trkpt lat="46.62223" lon="5.55118">
        <ele>417.6</ele>
        <time>2022-04-10T12:42:15Z</time>
      </trkpt>
      <trkpt lat="46.6221" lon="5.55121">
        <ele>418.8</ele>
        <time>2022-04-10T12:42:19Z</time>
      </trkpt>
      <trkpt lat="46.62206" lon="5.55121">
        <ele>419</ele>
        <time>2022-04-10T12:42:20Z</time>
      </trkpt>
      <trkpt lat="46.62197" lon="5.55122">
        <ele>419.8</ele>
        <time>2022-04-10T12:42:23Z</time>
      </trkpt>
      <trkpt lat="46.62179" lon="5.55122">
        <ele>421</ele>
        <time>2022-04-10T12:42:29Z</time>
      </trkpt>
      <trkpt lat="46.6217" lon="5.55123">
        <ele>422.2</ele>
        <time>2022-04-10T12:42:32Z</time>
      </trkpt>
      <trkpt lat="46.62153" lon="5.55125">
        <ele>422.8</ele>
        <time>2022-04-10T12:42:38Z</time>
      </trkpt>
      <trkpt lat="46.6215" lon="5.55126">
        <ele>423.2</ele>
        <time>2022-04-10T12:42:39Z</time>
      </trkpt>
      <trkpt lat="46.62137" lon="5.5513">
        <ele>424.4</ele>
        <time>2022-04-10T12:42:43Z</time>
      </trkpt>
      <trkpt lat="46.62122" lon="5.55137">
        <ele>425.4</ele>
        <time>2022-04-10T12:42:48Z</time>
      </trkpt>
      <trkpt lat="46.62117" lon="5.55139">
        <ele>425.8</ele>
        <time>2022-04-10T12:42:50Z</time>
      </trkpt>
      <trkpt lat="46.62108" lon="5.55141">
        <ele>426.6</ele>
        <time>2022-04-10T12:42:53Z</time>
      </trkpt>
      <trkpt lat="46.62093" lon="5.55142">
        <ele>427.6</ele>
        <time>2022-04-10T12:42:58Z</time>
      </trkpt>
      <trkpt lat="46.62089" lon="5.55142">
        <ele>427.6</ele>
        <time>2022-04-10T12:42:59Z</time>
      </trkpt>
      <trkpt lat="46.62077" lon="5.55142">
        <ele>428.6</ele>
        <time>2022-04-10T12:43:03Z</time>
      </trkpt>
      <trkpt lat="46.62066" lon="5.55144">
        <ele>429.6</ele>
        <time>2022-04-10T12:43:07Z</time>
      </trkpt>
      <trkpt lat="46.62063" lon="5.55144">
        <ele>429.8</ele>
        <time>2022-04-10T12:43:08Z</time>
      </trkpt>
      <trkpt lat="46.62043" lon="5.5515">
        <ele>430.8</ele>
        <time>2022-04-10T12:43:14Z</time>
      </trkpt>
      <trkpt lat="46.62037" lon="5.55152">
        <ele>431</ele>
        <time>2022-04-10T12:43:16Z</time>
      </trkpt>
      <trkpt lat="46.62027" lon="5.55154">
        <ele>431.8</ele>
        <time>2022-04-10T12:43:20Z</time>
      </trkpt>
      <trkpt lat="46.62021" lon="5.55156">
        <ele>432.4</ele>
        <time>2022-04-10T12:43:22Z</time>
      </trkpt>
      <trkpt lat="46.62012" lon="5.55159">
        <ele>433</ele>
        <time>2022-04-10T12:43:25Z</time>
      </trkpt>
      <trkpt lat="46.62003" lon="5.55162">
        <ele>434</ele>
        <time>2022-04-10T12:43:28Z</time>
      </trkpt>
      <trkpt lat="46.6199" lon="5.55166">
        <ele>435.6</ele>
        <time>2022-04-10T12:43:32Z</time>
      </trkpt>
      <trkpt lat="46.61981" lon="5.55176">
        <ele>436.4</ele>
        <time>2022-04-10T12:43:36Z</time>
      </trkpt>
      <trkpt lat="46.61981" lon="5.5518">
        <ele>436.6</ele>
        <time>2022-04-10T12:43:37Z</time>
      </trkpt>
      <trkpt lat="46.61982" lon="5.55191">
        <ele>437.6</ele>
        <time>2022-04-10T12:43:40Z</time>
      </trkpt>
      <trkpt lat="46.61984" lon="5.55193">
        <ele>437.8</ele>
        <time>2022-04-10T12:43:41Z</time>
      </trkpt>
      <trkpt lat="46.61995" lon="5.55194">
        <ele>438.8</ele>
        <time>2022-04-10T12:43:44Z</time>
      </trkpt>
      <trkpt lat="46.61998" lon="5.55194">
        <ele>439</ele>
        <time>2022-04-10T12:43:45Z</time>
      </trkpt>
      <trkpt lat="46.62023" lon="5.55189">
        <ele>439.8</ele>
        <time>2022-04-10T12:43:52Z</time>
      </trkpt>
      <trkpt lat="46.62027" lon="5.55189">
        <ele>440</ele>
        <time>2022-04-10T12:43:53Z</time>
      </trkpt>
      <trkpt lat="46.62051" lon="5.55186">
        <ele>441</ele>
        <time>2022-04-10T12:44:01Z</time>
      </trkpt>
      <trkpt lat="46.62054" lon="5.55186">
        <ele>441.2</ele>
        <time>2022-04-10T12:44:02Z</time>
      </trkpt>
      <trkpt lat="46.62063" lon="5.55185">
        <ele>442.2</ele>
        <time>2022-04-10T12:44:05Z</time>
      </trkpt>
      <trkpt lat="46.62077" lon="5.55182">
        <ele>443.2</ele>
        <time>2022-04-10T12:44:10Z</time>
      </trkpt>
      <trkpt lat="46.6209" lon="5.55179">
        <ele>444.2</ele>
        <time>2022-04-10T12:44:14Z</time>
      </trkpt>
      <trkpt lat="46.62101" lon="5.55178">
        <ele>445.6</ele>
        <time>2022-04-10T12:44:18Z</time>
      </trkpt>
      <trkpt lat="46.62111" lon="5.55178">
        <ele>446.2</ele>
        <time>2022-04-10T12:44:21Z</time>
      </trkpt>
      <trkpt lat="46.6212" lon="5.5518">
        <ele>446.6</ele>
        <time>2022-04-10T12:44:24Z</time>
      </trkpt>
      <trkpt lat="46.62129" lon="5.55182">
        <ele>447.6</ele>
        <time>2022-04-10T12:44:27Z</time>
      </trkpt>
      <trkpt lat="46.62131" lon="5.55184">
        <ele>448</ele>
        <time>2022-04-10T12:44:28Z</time>
      </trkpt>
      <trkpt lat="46.62137" lon="5.55187">
        <ele>448.4</ele>
        <time>2022-04-10T12:44:30Z</time>
      </trkpt>
      <trkpt lat="46.62143" lon="5.55189">
        <ele>448.8</ele>
        <time>2022-04-10T12:44:32Z</time>
      </trkpt>
      <trkpt lat="46.62162" lon="5.55199">
        <ele>450</ele>
        <time>2022-04-10T12:44:38Z</time>
      </trkpt>
      <trkpt lat="46.62168" lon="5.55202">
        <ele>450.4</ele>
        <time>2022-04-10T12:44:40Z</time>
      </trkpt>
      <trkpt lat="46.62181" lon="5.55206">
        <ele>451</ele>
        <time>2022-04-10T12:44:44Z</time>
      </trkpt>
      <trkpt lat="46.62197" lon="5.55209">
        <ele>451.6</ele>
        <time>2022-04-10T12:44:49Z</time>
      </trkpt>
      <trkpt lat="46.62203" lon="5.55209">
        <ele>452.2</ele>
        <time>2022-04-10T12:44:51Z</time>
      </trkpt>
      <trkpt lat="46.62218" lon="5.55211">
        <ele>453.2</ele>
        <time>2022-04-10T12:44:56Z</time>
      </trkpt>
      <trkpt lat="46.62232" lon="5.55215">
        <ele>454</ele>
        <time>2022-04-10T12:45:01Z</time>
      </trkpt>
      <trkpt lat="46.62235" lon="5.55216">
        <ele>454.4</ele>
        <time>2022-04-10T12:45:02Z</time>
      </trkpt>
      <trkpt lat="46.62246" lon="5.55218">
        <ele>455.4</ele>
        <time>2022-04-10T12:45:06Z</time>
      </trkpt>
      <trkpt lat="46.62252" lon="5.55219">
        <ele>456.2</ele>
        <time>2022-04-10T12:45:08Z</time>
      </trkpt>
      <trkpt lat="46.62258" lon="5.55219">
        <ele>456.6</ele>
        <time>2022-04-10T12:45:10Z</time>
      </trkpt>
      <trkpt lat="46.62264" lon="5.5522">
        <ele>457</ele>
        <time>2022-04-10T12:45:12Z</time>
      </trkpt>
      <trkpt lat="46.62278" lon="5.55219">
        <ele>458</ele>
        <time>2022-04-10T12:45:16Z</time>
      </trkpt>
      <trkpt lat="46.62289" lon="5.5522">
        <ele>458.6</ele>
        <time>2022-04-10T12:45:19Z</time>
      </trkpt>
      <trkpt lat="46.62296" lon="5.55223">
        <ele>459</ele>
        <time>2022-04-10T12:45:21Z</time>
      </trkpt>
      <trkpt lat="46.62304" lon="5.5523">
        <ele>459.6</ele>
        <time>2022-04-10T12:45:24Z</time>
      </trkpt>
      <trkpt lat="46.62309" lon="5.55236">
        <ele>460</ele>
        <time>2022-04-10T12:45:26Z</time>
      </trkpt>
      <trkpt lat="46.62326" lon="5.5526">
        <ele>461.2</ele>
        <time>2022-04-10T12:45:33Z</time>
      </trkpt>
      <trkpt lat="46.62328" lon="5.55264">
        <ele>461.4</ele>
        <time>2022-04-10T12:45:34Z</time>
      </trkpt>
      <trkpt lat="46.6234" lon="5.55285">
        <ele>462.4</ele>
        <time>2022-04-10T12:45:39Z</time>
      </trkpt>
      <trkpt lat="46.62342" lon="5.55289">
        <ele>462.8</ele>
        <time>2022-04-10T12:45:40Z</time>
      </trkpt>
      <trkpt lat="46.62347" lon="5.55299">
        <ele>463</ele>
        <time>2022-04-10T12:45:42Z</time>
      </trkpt>
      <trkpt lat="46.62356" lon="5.55326">
        <ele>463.6</ele>
        <time>2022-04-10T12:45:47Z</time>
      </trkpt>
      <trkpt lat="46.62356" lon="5.55332">
        <ele>463.6</ele>
        <time>2022-04-10T12:45:48Z</time>
      </trkpt>
      <trkpt lat="46.62354" lon="5.55344">
        <ele>463.8</ele>
        <time>2022-04-10T12:45:50Z</time>
      </trkpt>
      <trkpt lat="46.62348" lon="5.55353">
        <ele>463.8</ele>
        <time>2022-04-10T12:45:52Z</time>
      </trkpt>
      <trkpt lat="46.62324" lon="5.55365">
        <ele>464.6</ele>
        <time>2022-04-10T12:45:58Z</time>
      </trkpt>
      <trkpt lat="46.6232" lon="5.55367">
        <ele>464.6</ele>
        <time>2022-04-10T12:45:59Z</time>
      </trkpt>
      <trkpt lat="46.62317" lon="5.55368">
        <ele>464.6</ele>
        <time>2022-04-10T12:46:00Z</time>
      </trkpt>
      <trkpt lat="46.62296" lon="5.55372">
        <ele>465</ele>
        <time>2022-04-10T12:46:05Z</time>
      </trkpt>
      <trkpt lat="46.62279" lon="5.55378">
        <ele>465.6</ele>
        <time>2022-04-10T12:46:10Z</time>
      </trkpt>
      <trkpt lat="46.62276" lon="5.55379">
        <ele>465.8</ele>
        <time>2022-04-10T12:46:11Z</time>
      </trkpt>
      <trkpt lat="46.62268" lon="5.55381">
        <ele>466.2</ele>
        <time>2022-04-10T12:46:13Z</time>
      </trkpt>
      <trkpt lat="46.62261" lon="5.55381">
        <ele>466.6</ele>
        <time>2022-04-10T12:46:15Z</time>
      </trkpt>
      <trkpt lat="46.62247" lon="5.55381">
        <ele>467.8</ele>
        <time>2022-04-10T12:46:19Z</time>
      </trkpt>
      <trkpt lat="46.62236" lon="5.55381">
        <ele>468.8</ele>
        <time>2022-04-10T12:46:22Z</time>
      </trkpt>
      <trkpt lat="46.62221" lon="5.5538">
        <ele>470</ele>
        <time>2022-04-10T12:46:26Z</time>
      </trkpt>
      <trkpt lat="46.6221" lon="5.55379">
        <ele>471</ele>
        <time>2022-04-10T12:46:29Z</time>
      </trkpt>
      <trkpt lat="46.62207" lon="5.55379">
        <ele>471.2</ele>
        <time>2022-04-10T12:46:30Z</time>
      </trkpt>
      <trkpt lat="46.62194" lon="5.55379">
        <ele>472.4</ele>
        <time>2022-04-10T12:46:34Z</time>
      </trkpt>
      <trkpt lat="46.62182" lon="5.55378">
        <ele>473.4</ele>
        <time>2022-04-10T12:46:38Z</time>
      </trkpt>
      <trkpt lat="46.62179" lon="5.55378">
        <ele>473.6</ele>
        <time>2022-04-10T12:46:39Z</time>
      </trkpt>
      <trkpt lat="46.62167" lon="5.55377">
        <ele>474.6</ele>
        <time>2022-04-10T12:46:43Z</time>
      </trkpt>
      <trkpt lat="46.62158" lon="5.55375">
        <ele>475.2</ele>
        <time>2022-04-10T12:46:46Z</time>
      </trkpt>
      <trkpt lat="46.62152" lon="5.55374">
        <ele>476</ele>
        <time>2022-04-10T12:46:48Z</time>
      </trkpt>
      <trkpt lat="46.62128" lon="5.55367">
        <ele>477.4</ele>
        <time>2022-04-10T12:46:56Z</time>
      </trkpt>
      <trkpt lat="46.62125" lon="5.55366">
        <ele>477.6</ele>
        <time>2022-04-10T12:46:57Z</time>
      </trkpt>
      <trkpt lat="46.62104" lon="5.55358">
        <ele>478.6</ele>
        <time>2022-04-10T12:47:04Z</time>
      </trkpt>
      <trkpt lat="46.62098" lon="5.55355">
        <ele>479</ele>
        <time>2022-04-10T12:47:06Z</time>
      </trkpt>
      <trkpt lat="46.6209" lon="5.55351">
        <ele>479.8</ele>
        <time>2022-04-10T12:47:09Z</time>
      </trkpt>
      <trkpt lat="46.62072" lon="5.55345">
        <ele>480.8</ele>
        <time>2022-04-10T12:47:15Z</time>
      </trkpt>
      <trkpt lat="46.62065" lon="5.55345">
        <ele>481</ele>
        <time>2022-04-10T12:47:17Z</time>
      </trkpt>
      <trkpt lat="46.6205" lon="5.55344">
        <ele>482.2</ele>
        <time>2022-04-10T12:47:21Z</time>
      </trkpt>
      <trkpt lat="46.62038" lon="5.55348">
        <ele>482.6</ele>
        <time>2022-04-10T12:47:24Z</time>
      </trkpt>
      <trkpt lat="46.62024" lon="5.55353">
        <ele>483.2</ele>
        <time>2022-04-10T12:47:28Z</time>
      </trkpt>
      <trkpt lat="46.62008" lon="5.55361">
        <ele>483.8</ele>
        <time>2022-04-10T12:47:33Z</time>
      </trkpt>
      <trkpt lat="46.61998" lon="5.55366">
        <ele>484.4</ele>
        <time>2022-04-10T12:47:36Z</time>
      </trkpt>
      <trkpt lat="46.6198" lon="5.55377">
        <ele>485.4</ele>
        <time>2022-04-10T12:47:42Z</time>
      </trkpt>
      <trkpt lat="46.61977" lon="5.55379">
        <ele>485.6</ele>
        <time>2022-04-10T12:47:43Z</time>
      </trkpt>
      <trkpt lat="46.61963" lon="5.55386">
        <ele>486.6</ele>
        <time>2022-04-10T12:47:48Z</time>
      </trkpt>
      <trkpt lat="46.61955" lon="5.5539">
        <ele>487.6</ele>
        <time>2022-04-10T12:47:51Z</time>
      </trkpt>
      <trkpt lat="46.61952" lon="5.55392">
        <ele>487.8</ele>
        <time>2022-04-10T12:47:52Z</time>
      </trkpt>
      <trkpt lat="46.61937" lon="5.554">
        <ele>489.2</ele>
        <time>2022-04-10T12:47:57Z</time>
      </trkpt>
      <trkpt lat="46.61929" lon="5.55404">
        <ele>490.2</ele>
        <time>2022-04-10T12:48:00Z</time>
      </trkpt>
      <trkpt lat="46.61926" lon="5.55405">
        <ele>490.4</ele>
        <time>2022-04-10T12:48:01Z</time>
      </trkpt>
      <trkpt lat="46.61905" lon="5.55415">
        <ele>491.4</ele>
        <time>2022-04-10T12:48:08Z</time>
      </trkpt>
      <trkpt lat="46.61902" lon="5.55416">
        <ele>491.8</ele>
        <time>2022-04-10T12:48:09Z</time>
      </trkpt>
      <trkpt lat="46.61893" lon="5.55419">
        <ele>492.4</ele>
        <time>2022-04-10T12:48:12Z</time>
      </trkpt>
      <trkpt lat="46.61876" lon="5.55423">
        <ele>493.2</ele>
        <time>2022-04-10T12:48:17Z</time>
      </trkpt>
      <trkpt lat="46.61869" lon="5.55424">
        <ele>493.6</ele>
        <time>2022-04-10T12:48:19Z</time>
      </trkpt>
      <trkpt lat="46.61856" lon="5.55427">
        <ele>494.6</ele>
        <time>2022-04-10T12:48:23Z</time>
      </trkpt>
      <trkpt lat="46.61845" lon="5.55429">
        <ele>495</ele>
        <time>2022-04-10T12:48:26Z</time>
      </trkpt>
      <trkpt lat="46.61822" lon="5.55433">
        <ele>495.8</ele>
        <time>2022-04-10T12:48:32Z</time>
      </trkpt>
      <trkpt lat="46.6181" lon="5.55435">
        <ele>495.8</ele>
        <time>2022-04-10T12:48:35Z</time>
      </trkpt>
      <trkpt lat="46.61777" lon="5.55442">
        <ele>497</ele>
        <time>2022-04-10T12:48:43Z</time>
      </trkpt>
      <trkpt lat="46.61773" lon="5.55442">
        <ele>497.2</ele>
        <time>2022-04-10T12:48:44Z</time>
      </trkpt>
      <trkpt lat="46.61745" lon="5.55449">
        <ele>498.2</ele>
        <time>2022-04-10T12:48:51Z</time>
      </trkpt>
      <trkpt lat="46.61741" lon="5.5545">
        <ele>498.4</ele>
        <time>2022-04-10T12:48:52Z</time>
      </trkpt>
      <trkpt lat="46.61734" lon="5.55451">
        <ele>499</ele>
        <time>2022-04-10T12:48:54Z</time>
      </trkpt>
      <trkpt lat="46.61726" lon="5.55452">
        <ele>499.4</ele>
        <time>2022-04-10T12:48:56Z</time>
      </trkpt>
      <trkpt lat="46.617" lon="5.55455">
        <ele>500.6</ele>
        <time>2022-04-10T12:49:03Z</time>
      </trkpt>
      <trkpt lat="46.61689" lon="5.55454">
        <ele>501.6</ele>
        <time>2022-04-10T12:49:06Z</time>
      </trkpt>
      <trkpt lat="46.61678" lon="5.55449">
        <ele>502.2</ele>
        <time>2022-04-10T12:49:09Z</time>
      </trkpt>
      <trkpt lat="46.61671" lon="5.55443">
        <ele>502.8</ele>
        <time>2022-04-10T12:49:11Z</time>
      </trkpt>
      <trkpt lat="46.61649" lon="5.55425">
        <ele>503.6</ele>
        <time>2022-04-10T12:49:17Z</time>
      </trkpt>
      <trkpt lat="46.61615" lon="5.55407">
        <ele>504.2</ele>
        <time>2022-04-10T12:49:25Z</time>
      </trkpt>
      <trkpt lat="46.61594" lon="5.55409">
        <ele>504</ele>
        <time>2022-04-10T12:49:29Z</time>
      </trkpt>
      <trkpt lat="46.61562" lon="5.55418">
        <ele>503.6</ele>
        <time>2022-04-10T12:49:35Z</time>
      </trkpt>
      <trkpt lat="46.61557" lon="5.55421">
        <ele>503.4</ele>
        <time>2022-04-10T12:49:36Z</time>
      </trkpt>
      <trkpt lat="46.6155" lon="5.5543">
        <ele>503.4</ele>
        <time>2022-04-10T12:49:38Z</time>
      </trkpt>
      <trkpt lat="46.61539" lon="5.55459">
        <ele>504.2</ele>
        <time>2022-04-10T12:49:43Z</time>
      </trkpt>
      <trkpt lat="46.61537" lon="5.55465">
        <ele>504.4</ele>
        <time>2022-04-10T12:49:44Z</time>
      </trkpt>
      <trkpt lat="46.61534" lon="5.55477">
        <ele>504.8</ele>
        <time>2022-04-10T12:49:46Z</time>
      </trkpt>
      <trkpt lat="46.61529" lon="5.55494">
        <ele>505.2</ele>
        <time>2022-04-10T12:49:49Z</time>
      </trkpt>
      <trkpt lat="46.61526" lon="5.55513">
        <ele>505.8</ele>
        <time>2022-04-10T12:49:52Z</time>
      </trkpt>
      <trkpt lat="46.61525" lon="5.55534">
        <ele>506.6</ele>
        <time>2022-04-10T12:49:55Z</time>
      </trkpt>
      <trkpt lat="46.61525" lon="5.55548">
        <ele>507</ele>
        <time>2022-04-10T12:49:57Z</time>
      </trkpt>
      <trkpt lat="46.61525" lon="5.55583">
        <ele>508.2</ele>
        <time>2022-04-10T12:50:02Z</time>
      </trkpt>
      <trkpt lat="46.61522" lon="5.55641">
        <ele>508.8</ele>
        <time>2022-04-10T12:50:10Z</time>
      </trkpt>
      <trkpt lat="46.61516" lon="5.55668">
        <ele>509</ele>
        <time>2022-04-10T12:50:14Z</time>
      </trkpt>
      <trkpt lat="46.61512" lon="5.55686">
        <ele>509.4</ele>
        <time>2022-04-10T12:50:17Z</time>
      </trkpt>
      <trkpt lat="46.61511" lon="5.55691">
        <ele>509.6</ele>
        <time>2022-04-10T12:50:18Z</time>
      </trkpt>
      <trkpt lat="46.61509" lon="5.55704">
        <ele>509.8</ele>
        <time>2022-04-10T12:50:21Z</time>
      </trkpt>
      <trkpt lat="46.61506" lon="5.55715">
        <ele>511</ele>
        <time>2022-04-10T12:50:23Z</time>
      </trkpt>
      <trkpt lat="46.61504" lon="5.55735">
        <ele>512.4</ele>
        <time>2022-04-10T12:50:27Z</time>
      </trkpt>
      <trkpt lat="46.61508" lon="5.55755">
        <ele>513.4</ele>
        <time>2022-04-10T12:50:31Z</time>
      </trkpt>
      <trkpt lat="46.61511" lon="5.55764">
        <ele>513.8</ele>
        <time>2022-04-10T12:50:33Z</time>
      </trkpt>
      <trkpt lat="46.61515" lon="5.55773">
        <ele>514.4</ele>
        <time>2022-04-10T12:50:35Z</time>
      </trkpt>
      <trkpt lat="46.61523" lon="5.55784">
        <ele>515.4</ele>
        <time>2022-04-10T12:50:38Z</time>
      </trkpt>
      <trkpt lat="46.6154" lon="5.558">
        <ele>516.6</ele>
        <time>2022-04-10T12:50:43Z</time>
      </trkpt>
      <trkpt lat="46.61554" lon="5.55813">
        <ele>517</ele>
        <time>2022-04-10T12:50:47Z</time>
      </trkpt>
      <trkpt lat="46.61579" lon="5.55845">
        <ele>517.6</ele>
        <time>2022-04-10T12:50:54Z</time>
      </trkpt>
      <trkpt lat="46.61597" lon="5.55878">
        <ele>517.8</ele>
        <time>2022-04-10T12:51:00Z</time>
      </trkpt>
      <trkpt lat="46.61599" lon="5.55884">
        <ele>518</ele>
        <time>2022-04-10T12:51:01Z</time>
      </trkpt>
      <trkpt lat="46.61603" lon="5.55903">
        <ele>518.2</ele>
        <time>2022-04-10T12:51:04Z</time>
      </trkpt>
      <trkpt lat="46.61603" lon="5.5591">
        <ele>518.4</ele>
        <time>2022-04-10T12:51:05Z</time>
      </trkpt>
      <trkpt lat="46.61602" lon="5.55958">
        <ele>518.8</ele>
        <time>2022-04-10T12:51:12Z</time>
      </trkpt>
      <trkpt lat="46.61602" lon="5.55964">
        <ele>519</ele>
        <time>2022-04-10T12:51:13Z</time>
      </trkpt>
      <trkpt lat="46.61602" lon="5.55991">
        <ele>519.4</ele>
        <time>2022-04-10T12:51:17Z</time>
      </trkpt>
      <trkpt lat="46.61602" lon="5.56009">
        <ele>520</ele>
        <time>2022-04-10T12:51:20Z</time>
      </trkpt>
      <trkpt lat="46.61602" lon="5.56016">
        <ele>520</ele>
        <time>2022-04-10T12:51:21Z</time>
      </trkpt>
      <trkpt lat="46.61602" lon="5.56052">
        <ele>521.2</ele>
        <time>2022-04-10T12:51:27Z</time>
      </trkpt>
      <trkpt lat="46.61602" lon="5.56063">
        <ele>521.6</ele>
        <time>2022-04-10T12:51:29Z</time>
      </trkpt>
      <trkpt lat="46.61603" lon="5.56108">
        <ele>522.4</ele>
        <time>2022-04-10T12:51:36Z</time>
      </trkpt>
      <trkpt lat="46.61603" lon="5.56125">
        <ele>523.2</ele>
        <time>2022-04-10T12:51:39Z</time>
      </trkpt>
      <trkpt lat="46.61603" lon="5.56131">
        <ele>523.6</ele>
        <time>2022-04-10T12:51:41Z</time>
      </trkpt>
      <trkpt lat="46.61608" lon="5.56175">
        <ele>524.4</ele>
        <time>2022-04-10T12:51:47Z</time>
      </trkpt>
      <trkpt lat="46.61609" lon="5.56181">
        <ele>524.6</ele>
        <time>2022-04-10T12:51:48Z</time>
      </trkpt>
      <trkpt lat="46.6161" lon="5.56187">
        <ele>524.6</ele>
        <time>2022-04-10T12:51:49Z</time>
      </trkpt>
      <trkpt lat="46.61611" lon="5.56193">
        <ele>525</ele>
        <time>2022-04-10T12:51:50Z</time>
      </trkpt>
      <trkpt lat="46.61616" lon="5.5621">
        <ele>525.6</ele>
        <time>2022-04-10T12:51:53Z</time>
      </trkpt>
      <trkpt lat="46.61618" lon="5.5622">
        <ele>525.8</ele>
        <time>2022-04-10T12:51:55Z</time>
      </trkpt>
      <trkpt lat="46.6162" lon="5.56225">
        <ele>526</ele>
        <time>2022-04-10T12:51:56Z</time>
      </trkpt>
      <trkpt lat="46.61625" lon="5.56239">
        <ele>527</ele>
        <time>2022-04-10T12:51:59Z</time>
      </trkpt>
      <trkpt lat="46.6163" lon="5.56254">
        <ele>527.8</ele>
        <time>2022-04-10T12:52:03Z</time>
      </trkpt>
      <trkpt lat="46.61634" lon="5.56269">
        <ele>528.2</ele>
        <time>2022-04-10T12:52:05Z</time>
      </trkpt>
      <trkpt lat="46.61641" lon="5.56307">
        <ele>529.2</ele>
        <time>2022-04-10T12:52:12Z</time>
      </trkpt>
      <trkpt lat="46.61641" lon="5.56312">
        <ele>529.4</ele>
        <time>2022-04-10T12:52:13Z</time>
      </trkpt>
      <trkpt lat="46.61644" lon="5.56361">
        <ele>530</ele>
        <time>2022-04-10T12:52:22Z</time>
      </trkpt>
      <trkpt lat="46.61644" lon="5.56395">
        <ele>529.8</ele>
        <time>2022-04-10T12:52:29Z</time>
      </trkpt>
      <trkpt lat="46.61644" lon="5.56398">
        <ele>529.2</ele>
        <time>2022-04-10T12:52:33Z</time>
      </trkpt>
      <trkpt lat="46.61644" lon="5.56403">
        <ele>528.6</ele>
        <time>2022-04-10T12:55:06Z</time>
      </trkpt>
      <trkpt lat="46.61644" lon="5.56434">
        <ele>528.4</ele>
        <time>2022-04-10T12:55:11Z</time>
      </trkpt>
      <trkpt lat="46.61646" lon="5.56453">
        <ele>528.6</ele>
        <time>2022-04-10T12:55:14Z</time>
      </trkpt>
      <trkpt lat="46.61651" lon="5.56474">
        <ele>528.4</ele>
        <time>2022-04-10T12:55:17Z</time>
      </trkpt>
      <trkpt lat="46.61663" lon="5.56524">
        <ele>527.8</ele>
        <time>2022-04-10T12:55:22Z</time>
      </trkpt>
      <trkpt lat="46.61665" lon="5.56535">
        <ele>527.6</ele>
        <time>2022-04-10T12:55:23Z</time>
      </trkpt>
      <trkpt lat="46.61665" lon="5.56548">
        <ele>527.6</ele>
        <time>2022-04-10T12:55:24Z</time>
      </trkpt>
      <trkpt lat="46.61665" lon="5.5656">
        <ele>527.4</ele>
        <time>2022-04-10T12:55:25Z</time>
      </trkpt>
      <trkpt lat="46.61659" lon="5.56584">
        <ele>527</ele>
        <time>2022-04-10T12:55:27Z</time>
      </trkpt>
      <trkpt lat="46.61655" lon="5.56595">
        <ele>526.6</ele>
        <time>2022-04-10T12:55:28Z</time>
      </trkpt>
      <trkpt lat="46.61651" lon="5.56605">
        <ele>526.2</ele>
        <time>2022-04-10T12:55:29Z</time>
      </trkpt>
      <trkpt lat="46.61631" lon="5.56642">
        <ele>525.2</ele>
        <time>2022-04-10T12:55:33Z</time>
      </trkpt>
      <trkpt lat="46.61626" lon="5.56652">
        <ele>525.2</ele>
        <time>2022-04-10T12:55:34Z</time>
      </trkpt>
      <trkpt lat="46.616" lon="5.56706">
        <ele>524</ele>
        <time>2022-04-10T12:55:40Z</time>
      </trkpt>
      <trkpt lat="46.61596" lon="5.56715">
        <ele>524</ele>
        <time>2022-04-10T12:55:41Z</time>
      </trkpt>
      <trkpt lat="46.61589" lon="5.56735">
        <ele>523.8</ele>
        <time>2022-04-10T12:55:43Z</time>
      </trkpt>
      <trkpt lat="46.61583" lon="5.56769">
        <ele>523.8</ele>
        <time>2022-04-10T12:55:46Z</time>
      </trkpt>
      <trkpt lat="46.61578" lon="5.56844">
        <ele>523</ele>
        <time>2022-04-10T12:55:53Z</time>
      </trkpt>
      <trkpt lat="46.61576" lon="5.56906">
        <ele>522.6</ele>
        <time>2022-04-10T12:55:59Z</time>
      </trkpt>
      <trkpt lat="46.61576" lon="5.56936">
        <ele>522.4</ele>
        <time>2022-04-10T12:56:02Z</time>
      </trkpt>
      <trkpt lat="46.6158" lon="5.56976">
        <ele>522</ele>
        <time>2022-04-10T12:56:06Z</time>
      </trkpt>
      <trkpt lat="46.61581" lon="5.56986">
        <ele>521.8</ele>
        <time>2022-04-10T12:56:07Z</time>
      </trkpt>
      <trkpt lat="46.61583" lon="5.57043">
        <ele>520.8</ele>
        <time>2022-04-10T12:56:13Z</time>
      </trkpt>
      <trkpt lat="46.61578" lon="5.57104">
        <ele>520</ele>
        <time>2022-04-10T12:56:20Z</time>
      </trkpt>
      <trkpt lat="46.61564" lon="5.57186">
        <ele>520</ele>
        <time>2022-04-10T12:56:30Z</time>
      </trkpt>
      <trkpt lat="46.61558" lon="5.57229">
        <ele>519.8</ele>
        <time>2022-04-10T12:56:35Z</time>
      </trkpt>
      <trkpt lat="46.61556" lon="5.57254">
        <ele>519.6</ele>
        <time>2022-04-10T12:56:38Z</time>
      </trkpt>
      <trkpt lat="46.61553" lon="5.57278">
        <ele>519.8</ele>
        <time>2022-04-10T12:56:41Z</time>
      </trkpt>
      <trkpt lat="46.61549" lon="5.57285">
        <ele>519.8</ele>
        <time>2022-04-10T12:56:42Z</time>
      </trkpt>
      <trkpt lat="46.61545" lon="5.57291">
        <ele>519.6</ele>
        <time>2022-04-10T12:56:43Z</time>
      </trkpt>
      <trkpt lat="46.61534" lon="5.57294">
        <ele>519.8</ele>
        <time>2022-04-10T12:56:45Z</time>
      </trkpt>
      <trkpt lat="46.61498" lon="5.57281">
        <ele>520.2</ele>
        <time>2022-04-10T12:56:51Z</time>
      </trkpt>
      <trkpt lat="46.61442" lon="5.57261">
        <ele>520.2</ele>
        <time>2022-04-10T12:57:00Z</time>
      </trkpt>
      <trkpt lat="46.61386" lon="5.57241">
        <ele>519.8</ele>
        <time>2022-04-10T12:57:09Z</time>
      </trkpt>
      <trkpt lat="46.61381" lon="5.57239">
        <ele>519.8</ele>
        <time>2022-04-10T12:57:10Z</time>
      </trkpt>
      <trkpt lat="46.61348" lon="5.57229">
        <ele>521</ele>
        <time>2022-04-10T12:57:16Z</time>
      </trkpt>
      <trkpt lat="46.61343" lon="5.57228">
        <ele>522.2</ele>
        <time>2022-04-10T12:57:17Z</time>
      </trkpt>
      <trkpt lat="46.61302" lon="5.57218">
        <ele>522.8</ele>
        <time>2022-04-10T12:57:24Z</time>
      </trkpt>
      <trkpt lat="46.61276" lon="5.57211">
        <ele>522.4</ele>
        <time>2022-04-10T12:57:28Z</time>
      </trkpt>
      <trkpt lat="46.61251" lon="5.57202">
        <ele>522.2</ele>
        <time>2022-04-10T12:57:32Z</time>
      </trkpt>
      <trkpt lat="46.612" lon="5.57183">
        <ele>523</ele>
        <time>2022-04-10T12:57:41Z</time>
      </trkpt>
      <trkpt lat="46.61178" lon="5.57176">
        <ele>523.4</ele>
        <time>2022-04-10T12:57:45Z</time>
      </trkpt>
      <trkpt lat="46.61157" lon="5.57169">
        <ele>524</ele>
        <time>2022-04-10T12:57:49Z</time>
      </trkpt>
      <trkpt lat="46.61147" lon="5.57165">
        <ele>524.4</ele>
        <time>2022-04-10T12:57:51Z</time>
      </trkpt>
      <trkpt lat="46.61114" lon="5.57148">
        <ele>525.4</ele>
        <time>2022-04-10T12:57:57Z</time>
      </trkpt>
      <trkpt lat="46.61109" lon="5.57145">
        <ele>525.4</ele>
        <time>2022-04-10T12:57:58Z</time>
      </trkpt>
      <trkpt lat="46.61063" lon="5.57109">
        <ele>525.2</ele>
        <time>2022-04-10T12:58:07Z</time>
      </trkpt>
      <trkpt lat="46.61011" lon="5.57073">
        <ele>525.6</ele>
        <time>2022-04-10T12:58:17Z</time>
      </trkpt>
      <trkpt lat="46.61006" lon="5.5707">
        <ele>525.6</ele>
        <time>2022-04-10T12:58:18Z</time>
      </trkpt>
      <trkpt lat="46.6096" lon="5.57043">
        <ele>526.6</ele>
        <time>2022-04-10T12:58:27Z</time>
      </trkpt>
      <trkpt lat="46.6095" lon="5.57038">
        <ele>526.6</ele>
        <time>2022-04-10T12:58:29Z</time>
      </trkpt>
      <trkpt lat="46.60914" lon="5.57022">
        <ele>527.6</ele>
        <time>2022-04-10T12:58:36Z</time>
      </trkpt>
      <trkpt lat="46.60909" lon="5.5702">
        <ele>527.6</ele>
        <time>2022-04-10T12:58:37Z</time>
      </trkpt>
      <trkpt lat="46.60864" lon="5.57002">
        <ele>528.4</ele>
        <time>2022-04-10T12:58:45Z</time>
      </trkpt>
      <trkpt lat="46.60814" lon="5.56982">
        <ele>528.2</ele>
        <time>2022-04-10T12:58:53Z</time>
      </trkpt>
      <trkpt lat="46.60774" lon="5.56968">
        <ele>528.2</ele>
        <time>2022-04-10T12:58:59Z</time>
      </trkpt>
      <trkpt lat="46.60733" lon="5.56955">
        <ele>528.8</ele>
        <time>2022-04-10T12:59:06Z</time>
      </trkpt>
      <trkpt lat="46.60727" lon="5.56953">
        <ele>528.8</ele>
        <time>2022-04-10T12:59:07Z</time>
      </trkpt>
      <trkpt lat="46.60701" lon="5.5694">
        <ele>530</ele>
        <time>2022-04-10T12:59:12Z</time>
      </trkpt>
      <trkpt lat="46.60658" lon="5.5692">
        <ele>531.2</ele>
        <time>2022-04-10T12:59:20Z</time>
      </trkpt>
      <trkpt lat="46.60652" lon="5.56919">
        <ele>531.2</ele>
        <time>2022-04-10T12:59:21Z</time>
      </trkpt>
      <trkpt lat="46.6061" lon="5.5691">
        <ele>531.8</ele>
        <time>2022-04-10T12:59:28Z</time>
      </trkpt>
      <trkpt lat="46.60587" lon="5.56908">
        <ele>532.2</ele>
        <time>2022-04-10T12:59:32Z</time>
      </trkpt>
      <trkpt lat="46.60567" lon="5.56909">
        <ele>532.6</ele>
        <time>2022-04-10T12:59:36Z</time>
      </trkpt>
      <trkpt lat="46.60548" lon="5.56913">
        <ele>533.2</ele>
        <time>2022-04-10T12:59:40Z</time>
      </trkpt>
      <trkpt lat="46.60534" lon="5.56915">
        <ele>534.2</ele>
        <time>2022-04-10T12:59:43Z</time>
      </trkpt>
      <trkpt lat="46.60529" lon="5.56916">
        <ele>534.4</ele>
        <time>2022-04-10T12:59:44Z</time>
      </trkpt>
      <trkpt lat="46.60507" lon="5.5692">
        <ele>535.6</ele>
        <time>2022-04-10T12:59:49Z</time>
      </trkpt>
      <trkpt lat="46.60499" lon="5.56921">
        <ele>536</ele>
        <time>2022-04-10T12:59:51Z</time>
      </trkpt>
      <trkpt lat="46.60487" lon="5.56924">
        <ele>537</ele>
        <time>2022-04-10T12:59:54Z</time>
      </trkpt>
      <trkpt lat="46.6047" lon="5.56925">
        <ele>538.4</ele>
        <time>2022-04-10T12:59:58Z</time>
      </trkpt>
      <trkpt lat="46.60465" lon="5.56926">
        <ele>538.6</ele>
        <time>2022-04-10T12:59:59Z</time>
      </trkpt>
      <trkpt lat="46.60447" lon="5.56923">
        <ele>539.4</ele>
        <time>2022-04-10T13:00:03Z</time>
      </trkpt>
      <trkpt lat="46.60442" lon="5.56922">
        <ele>539.6</ele>
        <time>2022-04-10T13:00:04Z</time>
      </trkpt>
      <trkpt lat="46.60432" lon="5.56918">
        <ele>540</ele>
        <time>2022-04-10T13:00:06Z</time>
      </trkpt>
      <trkpt lat="46.60417" lon="5.56911">
        <ele>540.4</ele>
        <time>2022-04-10T13:00:09Z</time>
      </trkpt>
      <trkpt lat="46.60403" lon="5.56901">
        <ele>540.8</ele>
        <time>2022-04-10T13:00:12Z</time>
      </trkpt>
      <trkpt lat="46.60381" lon="5.56887">
        <ele>541.6</ele>
        <time>2022-04-10T13:00:17Z</time>
      </trkpt>
      <trkpt lat="46.60365" lon="5.56875">
        <ele>542</ele>
        <time>2022-04-10T13:00:21Z</time>
      </trkpt>
      <trkpt lat="46.60354" lon="5.56864">
        <ele>543</ele>
        <time>2022-04-10T13:00:24Z</time>
      </trkpt>
      <trkpt lat="46.60339" lon="5.56855">
        <ele>543.4</ele>
        <time>2022-04-10T13:00:28Z</time>
      </trkpt>
      <trkpt lat="46.60327" lon="5.56851">
        <ele>544.2</ele>
        <time>2022-04-10T13:00:31Z</time>
      </trkpt>
      <trkpt lat="46.60309" lon="5.56847">
        <ele>545.4</ele>
        <time>2022-04-10T13:00:35Z</time>
      </trkpt>
      <trkpt lat="46.60275" lon="5.56839">
        <ele>546.6</ele>
        <time>2022-04-10T13:00:42Z</time>
      </trkpt>
      <trkpt lat="46.60265" lon="5.56837">
        <ele>546.8</ele>
        <time>2022-04-10T13:00:44Z</time>
      </trkpt>
      <trkpt lat="46.60239" lon="5.56831">
        <ele>547.6</ele>
        <time>2022-04-10T13:00:49Z</time>
      </trkpt>
      <trkpt lat="46.60217" lon="5.56826">
        <ele>548.2</ele>
        <time>2022-04-10T13:00:53Z</time>
      </trkpt>
      <trkpt lat="46.60177" lon="5.56808">
        <ele>548.6</ele>
        <time>2022-04-10T13:01:00Z</time>
      </trkpt>
      <trkpt lat="46.60149" lon="5.56798">
        <ele>549.2</ele>
        <time>2022-04-10T13:01:05Z</time>
      </trkpt>
      <trkpt lat="46.60143" lon="5.56797">
        <ele>549.4</ele>
        <time>2022-04-10T13:01:06Z</time>
      </trkpt>
      <trkpt lat="46.60131" lon="5.56798">
        <ele>549.6</ele>
        <time>2022-04-10T13:01:08Z</time>
      </trkpt>
      <trkpt lat="46.60104" lon="5.56803">
        <ele>550.2</ele>
        <time>2022-04-10T13:01:13Z</time>
      </trkpt>
      <trkpt lat="46.60061" lon="5.56804">
        <ele>550.4</ele>
        <time>2022-04-10T13:01:21Z</time>
      </trkpt>
      <trkpt lat="46.60034" lon="5.56801">
        <ele>550.8</ele>
        <time>2022-04-10T13:01:26Z</time>
      </trkpt>
      <trkpt lat="46.60016" lon="5.56799">
        <ele>551.4</ele>
        <time>2022-04-10T13:01:30Z</time>
      </trkpt>
      <trkpt lat="46.59992" lon="5.56799">
        <ele>552.2</ele>
        <time>2022-04-10T13:01:35Z</time>
      </trkpt>
      <trkpt lat="46.59982" lon="5.56799">
        <ele>552.4</ele>
        <time>2022-04-10T13:01:37Z</time>
      </trkpt>
      <trkpt lat="46.59964" lon="5.568">
        <ele>553.2</ele>
        <time>2022-04-10T13:01:41Z</time>
      </trkpt>
      <trkpt lat="46.59944" lon="5.56803">
        <ele>554.4</ele>
        <time>2022-04-10T13:01:45Z</time>
      </trkpt>
      <trkpt lat="46.59916" lon="5.56814">
        <ele>555.4</ele>
        <time>2022-04-10T13:01:51Z</time>
      </trkpt>
      <trkpt lat="46.59912" lon="5.56817">
        <ele>555.4</ele>
        <time>2022-04-10T13:01:52Z</time>
      </trkpt>
      <trkpt lat="46.59876" lon="5.5684">
        <ele>556.4</ele>
        <time>2022-04-10T13:02:00Z</time>
      </trkpt>
      <trkpt lat="46.59872" lon="5.56844">
        <ele>557</ele>
        <time>2022-04-10T13:02:01Z</time>
      </trkpt>
      <trkpt lat="46.5986" lon="5.56855">
        <ele>557.4</ele>
        <time>2022-04-10T13:02:04Z</time>
      </trkpt>
      <trkpt lat="46.59856" lon="5.56859">
        <ele>557.6</ele>
        <time>2022-04-10T13:02:05Z</time>
      </trkpt>
      <trkpt lat="46.59847" lon="5.56865">
        <ele>558</ele>
        <time>2022-04-10T13:02:07Z</time>
      </trkpt>
      <trkpt lat="46.59823" lon="5.56876">
        <ele>558.8</ele>
        <time>2022-04-10T13:02:12Z</time>
      </trkpt>
      <trkpt lat="46.59812" lon="5.56879">
        <ele>558.8</ele>
        <time>2022-04-10T13:02:14Z</time>
      </trkpt>
      <trkpt lat="46.59773" lon="5.56882">
        <ele>558.8</ele>
        <time>2022-04-10T13:02:20Z</time>
      </trkpt>
      <trkpt lat="46.59759" lon="5.5688">
        <ele>558.2</ele>
        <time>2022-04-10T13:02:22Z</time>
      </trkpt>
      <trkpt lat="46.59747" lon="5.5687">
        <ele>558</ele>
        <time>2022-04-10T13:02:24Z</time>
      </trkpt>
      <trkpt lat="46.5974" lon="5.56849">
        <ele>557.6</ele>
        <time>2022-04-10T13:02:26Z</time>
      </trkpt>
      <trkpt lat="46.59736" lon="5.56838">
        <ele>557.6</ele>
        <time>2022-04-10T13:02:27Z</time>
      </trkpt>
      <trkpt lat="46.59726" lon="5.5682">
        <ele>556.4</ele>
        <time>2022-04-10T13:02:29Z</time>
      </trkpt>
      <trkpt lat="46.59719" lon="5.56813">
        <ele>556</ele>
        <time>2022-04-10T13:02:30Z</time>
      </trkpt>
      <trkpt lat="46.59697" lon="5.56796">
        <ele>555.4</ele>
        <time>2022-04-10T13:02:33Z</time>
      </trkpt>
      <trkpt lat="46.59681" lon="5.56788">
        <ele>555.2</ele>
        <time>2022-04-10T13:02:35Z</time>
      </trkpt>
      <trkpt lat="46.59664" lon="5.56786">
        <ele>555</ele>
        <time>2022-04-10T13:02:37Z</time>
      </trkpt>
      <trkpt lat="46.59655" lon="5.56787">
        <ele>555</ele>
        <time>2022-04-10T13:02:38Z</time>
      </trkpt>
      <trkpt lat="46.59646" lon="5.56789">
        <ele>554.6</ele>
        <time>2022-04-10T13:02:39Z</time>
      </trkpt>
      <trkpt lat="46.59629" lon="5.56798">
        <ele>554.4</ele>
        <time>2022-04-10T13:02:41Z</time>
      </trkpt>
      <trkpt lat="46.5962" lon="5.56805">
        <ele>554.4</ele>
        <time>2022-04-10T13:02:42Z</time>
      </trkpt>
      <trkpt lat="46.59584" lon="5.5683">
        <ele>553.2</ele>
        <time>2022-04-10T13:02:46Z</time>
      </trkpt>
      <trkpt lat="46.59564" lon="5.56835">
        <ele>552.6</ele>
        <time>2022-04-10T13:02:48Z</time>
      </trkpt>
      <trkpt lat="46.59554" lon="5.56834">
        <ele>552.4</ele>
        <time>2022-04-10T13:02:49Z</time>
      </trkpt>
      <trkpt lat="46.59544" lon="5.56832">
        <ele>552.2</ele>
        <time>2022-04-10T13:02:50Z</time>
      </trkpt>
      <trkpt lat="46.59525" lon="5.56828">
        <ele>551</ele>
        <time>2022-04-10T13:02:52Z</time>
      </trkpt>
      <trkpt lat="46.59507" lon="5.56825">
        <ele>550.2</ele>
        <time>2022-04-10T13:02:54Z</time>
      </trkpt>
      <trkpt lat="46.5949" lon="5.56826">
        <ele>549.8</ele>
        <time>2022-04-10T13:02:56Z</time>
      </trkpt>
      <trkpt lat="46.59463" lon="5.5683">
        <ele>549.8</ele>
        <time>2022-04-10T13:02:59Z</time>
      </trkpt>
      <trkpt lat="46.59426" lon="5.56832">
        <ele>549.6</ele>
        <time>2022-04-10T13:03:03Z</time>
      </trkpt>
      <trkpt lat="46.59417" lon="5.56829">
        <ele>549.2</ele>
        <time>2022-04-10T13:03:04Z</time>
      </trkpt>
      <trkpt lat="46.59399" lon="5.56823">
        <ele>548.8</ele>
        <time>2022-04-10T13:03:06Z</time>
      </trkpt>
      <trkpt lat="46.59367" lon="5.56809">
        <ele>548.6</ele>
        <time>2022-04-10T13:03:10Z</time>
      </trkpt>
      <trkpt lat="46.59334" lon="5.56794">
        <ele>549.4</ele>
        <time>2022-04-10T13:03:15Z</time>
      </trkpt>
      <trkpt lat="46.59322" lon="5.56788">
        <ele>550.2</ele>
        <time>2022-04-10T13:03:17Z</time>
      </trkpt>
      <trkpt lat="46.59303" lon="5.56781">
        <ele>551.2</ele>
        <time>2022-04-10T13:03:20Z</time>
      </trkpt>
      <trkpt lat="46.59297" lon="5.56779">
        <ele>551.6</ele>
        <time>2022-04-10T13:03:21Z</time>
      </trkpt>
      <trkpt lat="46.59291" lon="5.56777">
        <ele>552.4</ele>
        <time>2022-04-10T13:03:22Z</time>
      </trkpt>
      <trkpt lat="46.59285" lon="5.56774">
        <ele>552.6</ele>
        <time>2022-04-10T13:03:23Z</time>
      </trkpt>
      <trkpt lat="46.59274" lon="5.56766">
        <ele>553.2</ele>
        <time>2022-04-10T13:03:25Z</time>
      </trkpt>
      <trkpt lat="46.5927" lon="5.56761">
        <ele>553.6</ele>
        <time>2022-04-10T13:03:26Z</time>
      </trkpt>
      <trkpt lat="46.59258" lon="5.56745">
        <ele>554.4</ele>
        <time>2022-04-10T13:03:29Z</time>
      </trkpt>
      <trkpt lat="46.59255" lon="5.56739">
        <ele>554.6</ele>
        <time>2022-04-10T13:03:30Z</time>
      </trkpt>
      <trkpt lat="46.59252" lon="5.56732">
        <ele>555.2</ele>
        <time>2022-04-10T13:03:31Z</time>
      </trkpt>
      <trkpt lat="46.59242" lon="5.56704">
        <ele>556.2</ele>
        <time>2022-04-10T13:03:35Z</time>
      </trkpt>
      <trkpt lat="46.5924" lon="5.56698">
        <ele>556.6</ele>
        <time>2022-04-10T13:03:36Z</time>
      </trkpt>
      <trkpt lat="46.59234" lon="5.56685">
        <ele>557.4</ele>
        <time>2022-04-10T13:03:38Z</time>
      </trkpt>
      <trkpt lat="46.5923" lon="5.5668">
        <ele>557.6</ele>
        <time>2022-04-10T13:03:39Z</time>
      </trkpt>
      <trkpt lat="46.59221" lon="5.5667">
        <ele>558</ele>
        <time>2022-04-10T13:03:41Z</time>
      </trkpt>
      <trkpt lat="46.59215" lon="5.56666">
        <ele>558.4</ele>
        <time>2022-04-10T13:03:42Z</time>
      </trkpt>
      <trkpt lat="46.59209" lon="5.56664">
        <ele>558.6</ele>
        <time>2022-04-10T13:03:43Z</time>
      </trkpt>
      <trkpt lat="46.59196" lon="5.56661">
        <ele>558.8</ele>
        <time>2022-04-10T13:03:45Z</time>
      </trkpt>
      <trkpt lat="46.59156" lon="5.56663">
        <ele>558.6</ele>
        <time>2022-04-10T13:03:51Z</time>
      </trkpt>
      <trkpt lat="46.59102" lon="5.56658">
        <ele>559.4</ele>
        <time>2022-04-10T13:04:00Z</time>
      </trkpt>
      <trkpt lat="46.59096" lon="5.56657">
        <ele>559.6</ele>
        <time>2022-04-10T13:04:01Z</time>
      </trkpt>
      <trkpt lat="46.59058" lon="5.56647">
        <ele>559.8</ele>
        <time>2022-04-10T13:04:07Z</time>
      </trkpt>
      <trkpt lat="46.5901" lon="5.56629">
        <ele>559.8</ele>
        <time>2022-04-10T13:04:14Z</time>
      </trkpt>
      <trkpt lat="46.58964" lon="5.56617">
        <ele>559.6</ele>
        <time>2022-04-10T13:04:20Z</time>
      </trkpt>
      <trkpt lat="46.58913" lon="5.56615">
        <ele>558.6</ele>
        <time>2022-04-10T13:04:26Z</time>
      </trkpt>
      <trkpt lat="46.58904" lon="5.56615">
        <ele>558.4</ele>
        <time>2022-04-10T13:04:27Z</time>
      </trkpt>
      <trkpt lat="46.58845" lon="5.56619">
        <ele>557.6</ele>
        <time>2022-04-10T13:04:34Z</time>
      </trkpt>
      <trkpt lat="46.58837" lon="5.5662">
        <ele>557.4</ele>
        <time>2022-04-10T13:04:35Z</time>
      </trkpt>
      <trkpt lat="46.58828" lon="5.56619">
        <ele>557.4</ele>
        <time>2022-04-10T13:04:36Z</time>
      </trkpt>
      <trkpt lat="46.58802" lon="5.56611">
        <ele>557</ele>
        <time>2022-04-10T13:04:39Z</time>
      </trkpt>
      <trkpt lat="46.58776" lon="5.56601">
        <ele>556.2</ele>
        <time>2022-04-10T13:04:42Z</time>
      </trkpt>
      <trkpt lat="46.58721" lon="5.5658">
        <ele>555.6</ele>
        <time>2022-04-10T13:04:48Z</time>
      </trkpt>
      <trkpt lat="46.58712" lon="5.56576">
        <ele>555.2</ele>
        <time>2022-04-10T13:04:49Z</time>
      </trkpt>
      <trkpt lat="46.58657" lon="5.56556">
        <ele>554.2</ele>
        <time>2022-04-10T13:04:55Z</time>
      </trkpt>
      <trkpt lat="46.58648" lon="5.56552">
        <ele>554.2</ele>
        <time>2022-04-10T13:04:56Z</time>
      </trkpt>
      <trkpt lat="46.58622" lon="5.56542">
        <ele>553.8</ele>
        <time>2022-04-10T13:04:59Z</time>
      </trkpt>
      <trkpt lat="46.58569" lon="5.56523">
        <ele>553.4</ele>
        <time>2022-04-10T13:05:05Z</time>
      </trkpt>
      <trkpt lat="46.58543" lon="5.56516">
        <ele>553.2</ele>
        <time>2022-04-10T13:05:08Z</time>
      </trkpt>
      <trkpt lat="46.58516" lon="5.56513">
        <ele>553</ele>
        <time>2022-04-10T13:05:11Z</time>
      </trkpt>
      <trkpt lat="46.58488" lon="5.56513">
        <ele>552.8</ele>
        <time>2022-04-10T13:05:14Z</time>
      </trkpt>
      <trkpt lat="46.58458" lon="5.56513">
        <ele>551.6</ele>
        <time>2022-04-10T13:05:17Z</time>
      </trkpt>
      <trkpt lat="46.58427" lon="5.56513">
        <ele>551</ele>
        <time>2022-04-10T13:05:20Z</time>
      </trkpt>
      <trkpt lat="46.58417" lon="5.56512">
        <ele>550.6</ele>
        <time>2022-04-10T13:05:21Z</time>
      </trkpt>
      <trkpt lat="46.58388" lon="5.56508">
        <ele>549.6</ele>
        <time>2022-04-10T13:05:24Z</time>
      </trkpt>
      <trkpt lat="46.5837" lon="5.56504">
        <ele>549.6</ele>
        <time>2022-04-10T13:05:26Z</time>
      </trkpt>
      <trkpt lat="46.58352" lon="5.56498">
        <ele>549.6</ele>
        <time>2022-04-10T13:05:28Z</time>
      </trkpt>
      <trkpt lat="46.58315" lon="5.56482">
        <ele>550.2</ele>
        <time>2022-04-10T13:05:32Z</time>
      </trkpt>
      <trkpt lat="46.58257" lon="5.56467">
        <ele>550.6</ele>
        <time>2022-04-10T13:05:38Z</time>
      </trkpt>
      <trkpt lat="46.58248" lon="5.56465">
        <ele>550.4</ele>
        <time>2022-04-10T13:05:39Z</time>
      </trkpt>
      <trkpt lat="46.58192" lon="5.56455">
        <ele>549.4</ele>
        <time>2022-04-10T13:05:45Z</time>
      </trkpt>
      <trkpt lat="46.58166" lon="5.56449">
        <ele>549.2</ele>
        <time>2022-04-10T13:05:48Z</time>
      </trkpt>
      <trkpt lat="46.58109" lon="5.5643">
        <ele>549.2</ele>
        <time>2022-04-10T13:05:55Z</time>
      </trkpt>
      <trkpt lat="46.58055" lon="5.564">
        <ele>549.2</ele>
        <time>2022-04-10T13:06:02Z</time>
      </trkpt>
      <trkpt lat="46.58047" lon="5.56396">
        <ele>549</ele>
        <time>2022-04-10T13:06:03Z</time>
      </trkpt>
      <trkpt lat="46.57995" lon="5.56377">
        <ele>549</ele>
        <time>2022-04-10T13:06:10Z</time>
      </trkpt>
      <trkpt lat="46.57936" lon="5.56361">
        <ele>549.4</ele>
        <time>2022-04-10T13:06:18Z</time>
      </trkpt>
      <trkpt lat="46.57928" lon="5.56359">
        <ele>549.4</ele>
        <time>2022-04-10T13:06:19Z</time>
      </trkpt>
      <trkpt lat="46.57871" lon="5.56348">
        <ele>548.8</ele>
        <time>2022-04-10T13:06:26Z</time>
      </trkpt>
      <trkpt lat="46.57863" lon="5.56347">
        <ele>548.6</ele>
        <time>2022-04-10T13:06:27Z</time>
      </trkpt>
      <trkpt lat="46.57847" lon="5.56346">
        <ele>548.6</ele>
        <time>2022-04-10T13:06:29Z</time>
      </trkpt>
      <trkpt lat="46.57787" lon="5.56338">
        <ele>548</ele>
        <time>2022-04-10T13:06:37Z</time>
      </trkpt>
      <trkpt lat="46.5778" lon="5.56336">
        <ele>548</ele>
        <time>2022-04-10T13:06:38Z</time>
      </trkpt>
      <trkpt lat="46.57739" lon="5.56319">
        <ele>548</ele>
        <time>2022-04-10T13:06:44Z</time>
      </trkpt>
      <trkpt lat="46.57725" lon="5.56314">
        <ele>548.2</ele>
        <time>2022-04-10T13:06:46Z</time>
      </trkpt>
      <trkpt lat="46.57702" lon="5.56306">
        <ele>548.4</ele>
        <time>2022-04-10T13:06:49Z</time>
      </trkpt>
      <trkpt lat="46.57646" lon="5.56286">
        <ele>547.8</ele>
        <time>2022-04-10T13:06:56Z</time>
      </trkpt>
      <trkpt lat="46.57637" lon="5.56283">
        <ele>547.6</ele>
        <time>2022-04-10T13:06:57Z</time>
      </trkpt>
      <trkpt lat="46.57619" lon="5.56277">
        <ele>547.2</ele>
        <time>2022-04-10T13:06:59Z</time>
      </trkpt>
      <trkpt lat="46.57602" lon="5.5627">
        <ele>546.6</ele>
        <time>2022-04-10T13:07:01Z</time>
      </trkpt>
      <trkpt lat="46.57593" lon="5.56267">
        <ele>546.4</ele>
        <time>2022-04-10T13:07:02Z</time>
      </trkpt>
      <trkpt lat="46.57532" lon="5.56243">
        <ele>545.4</ele>
        <time>2022-04-10T13:07:09Z</time>
      </trkpt>
      <trkpt lat="46.57514" lon="5.56237">
        <ele>545.2</ele>
        <time>2022-04-10T13:07:11Z</time>
      </trkpt>
      <trkpt lat="46.5747" lon="5.56222">
        <ele>544.4</ele>
        <time>2022-04-10T13:07:16Z</time>
      </trkpt>
      <trkpt lat="46.57436" lon="5.56216">
        <ele>544</ele>
        <time>2022-04-10T13:07:20Z</time>
      </trkpt>
      <trkpt lat="46.57388" lon="5.56212">
        <ele>543.6</ele>
        <time>2022-04-10T13:07:26Z</time>
      </trkpt>
      <trkpt lat="46.57332" lon="5.56204">
        <ele>544</ele>
        <time>2022-04-10T13:07:33Z</time>
      </trkpt>
      <trkpt lat="46.57276" lon="5.56199">
        <ele>544.2</ele>
        <time>2022-04-10T13:07:40Z</time>
      </trkpt>
      <trkpt lat="46.57269" lon="5.56199">
        <ele>544.2</ele>
        <time>2022-04-10T13:07:41Z</time>
      </trkpt>
      <trkpt lat="46.57212" lon="5.56194">
        <ele>543.8</ele>
        <time>2022-04-10T13:07:48Z</time>
      </trkpt>
      <trkpt lat="46.57204" lon="5.56193">
        <ele>543.8</ele>
        <time>2022-04-10T13:07:49Z</time>
      </trkpt>
      <trkpt lat="46.57147" lon="5.56186">
        <ele>543.4</ele>
        <time>2022-04-10T13:07:56Z</time>
      </trkpt>
      <trkpt lat="46.57131" lon="5.5618">
        <ele>543.4</ele>
        <time>2022-04-10T13:07:58Z</time>
      </trkpt>
      <trkpt lat="46.57077" lon="5.56155">
        <ele>543</ele>
        <time>2022-04-10T13:08:05Z</time>
      </trkpt>
      <trkpt lat="46.5706" lon="5.56147">
        <ele>543</ele>
        <time>2022-04-10T13:08:07Z</time>
      </trkpt>
      <trkpt lat="46.57044" lon="5.5614">
        <ele>542.6</ele>
        <time>2022-04-10T13:08:09Z</time>
      </trkpt>
      <trkpt lat="46.57011" lon="5.56128">
        <ele>541.6</ele>
        <time>2022-04-10T13:08:13Z</time>
      </trkpt>
      <trkpt lat="46.57004" lon="5.56125">
        <ele>541.2</ele>
        <time>2022-04-10T13:08:14Z</time>
      </trkpt>
      <trkpt lat="46.56971" lon="5.56115">
        <ele>540.6</ele>
        <time>2022-04-10T13:08:18Z</time>
      </trkpt>
      <trkpt lat="46.56927" lon="5.56101">
        <ele>539.4</ele>
        <time>2022-04-10T13:08:23Z</time>
      </trkpt>
      <trkpt lat="46.56909" lon="5.56094">
        <ele>539</ele>
        <time>2022-04-10T13:08:25Z</time>
      </trkpt>
      <trkpt lat="46.56883" lon="5.5608">
        <ele>538.4</ele>
        <time>2022-04-10T13:08:28Z</time>
      </trkpt>
      <trkpt lat="46.56866" lon="5.56066">
        <ele>537.8</ele>
        <time>2022-04-10T13:08:30Z</time>
      </trkpt>
      <trkpt lat="46.5685" lon="5.5605">
        <ele>537.2</ele>
        <time>2022-04-10T13:08:32Z</time>
      </trkpt>
      <trkpt lat="46.56825" lon="5.56024">
        <ele>536.2</ele>
        <time>2022-04-10T13:08:35Z</time>
      </trkpt>
      <trkpt lat="46.56817" lon="5.56015">
        <ele>535.8</ele>
        <time>2022-04-10T13:08:36Z</time>
      </trkpt>
      <trkpt lat="46.56799" lon="5.55999">
        <ele>535</ele>
        <time>2022-04-10T13:08:38Z</time>
      </trkpt>
      <trkpt lat="46.5679" lon="5.55992">
        <ele>534.4</ele>
        <time>2022-04-10T13:08:39Z</time>
      </trkpt>
      <trkpt lat="46.5678" lon="5.55986">
        <ele>534.2</ele>
        <time>2022-04-10T13:08:40Z</time>
      </trkpt>
      <trkpt lat="46.5677" lon="5.55982">
        <ele>534</ele>
        <time>2022-04-10T13:08:41Z</time>
      </trkpt>
      <trkpt lat="46.56719" lon="5.55966">
        <ele>533</ele>
        <time>2022-04-10T13:08:46Z</time>
      </trkpt>
      <trkpt lat="46.56658" lon="5.55946">
        <ele>531.6</ele>
        <time>2022-04-10T13:08:52Z</time>
      </trkpt>
      <trkpt lat="46.56609" lon="5.55929">
        <ele>530.8</ele>
        <time>2022-04-10T13:08:57Z</time>
      </trkpt>
      <trkpt lat="46.56598" lon="5.55926">
        <ele>530.6</ele>
        <time>2022-04-10T13:08:58Z</time>
      </trkpt>
      <trkpt lat="46.56549" lon="5.55909">
        <ele>529.6</ele>
        <time>2022-04-10T13:09:03Z</time>
      </trkpt>
      <trkpt lat="46.56499" lon="5.55892">
        <ele>528.6</ele>
        <time>2022-04-10T13:09:08Z</time>
      </trkpt>
      <trkpt lat="46.56489" lon="5.55889">
        <ele>528</ele>
        <time>2022-04-10T13:09:09Z</time>
      </trkpt>
      <trkpt lat="46.56469" lon="5.55884">
        <ele>527.4</ele>
        <time>2022-04-10T13:09:11Z</time>
      </trkpt>
      <trkpt lat="46.56447" lon="5.55886">
        <ele>527</ele>
        <time>2022-04-10T13:09:13Z</time>
      </trkpt>
      <trkpt lat="46.56425" lon="5.55892">
        <ele>526.4</ele>
        <time>2022-04-10T13:09:15Z</time>
      </trkpt>
      <trkpt lat="46.56391" lon="5.55899">
        <ele>525</ele>
        <time>2022-04-10T13:09:18Z</time>
      </trkpt>
      <trkpt lat="46.56369" lon="5.55901">
        <ele>524</ele>
        <time>2022-04-10T13:09:20Z</time>
      </trkpt>
      <trkpt lat="46.56358" lon="5.55901">
        <ele>523.4</ele>
        <time>2022-04-10T13:09:21Z</time>
      </trkpt>
      <trkpt lat="46.56347" lon="5.559">
        <ele>523</ele>
        <time>2022-04-10T13:09:22Z</time>
      </trkpt>
      <trkpt lat="46.56336" lon="5.55898">
        <ele>522.8</ele>
        <time>2022-04-10T13:09:23Z</time>
      </trkpt>
      <trkpt lat="46.56326" lon="5.55895">
        <ele>522.2</ele>
        <time>2022-04-10T13:09:24Z</time>
      </trkpt>
      <trkpt lat="46.56316" lon="5.55889">
        <ele>521.4</ele>
        <time>2022-04-10T13:09:25Z</time>
      </trkpt>
      <trkpt lat="46.56298" lon="5.55873">
        <ele>521</ele>
        <time>2022-04-10T13:09:27Z</time>
      </trkpt>
      <trkpt lat="46.56291" lon="5.55862">
        <ele>521</ele>
        <time>2022-04-10T13:09:28Z</time>
      </trkpt>
      <trkpt lat="46.56251" lon="5.55815">
        <ele>520.2</ele>
        <time>2022-04-10T13:09:33Z</time>
      </trkpt>
      <trkpt lat="46.56217" lon="5.55783">
        <ele>519.2</ele>
        <time>2022-04-10T13:09:37Z</time>
      </trkpt>
      <trkpt lat="46.56191" lon="5.5576">
        <ele>518.4</ele>
        <time>2022-04-10T13:09:40Z</time>
      </trkpt>
      <trkpt lat="46.56182" lon="5.55754">
        <ele>518</ele>
        <time>2022-04-10T13:09:41Z</time>
      </trkpt>
      <trkpt lat="46.56135" lon="5.55726">
        <ele>516.8</ele>
        <time>2022-04-10T13:09:46Z</time>
      </trkpt>
      <trkpt lat="46.56089" lon="5.55708">
        <ele>515.6</ele>
        <time>2022-04-10T13:09:51Z</time>
      </trkpt>
      <trkpt lat="46.5608" lon="5.55707">
        <ele>515.6</ele>
        <time>2022-04-10T13:09:52Z</time>
      </trkpt>
      <trkpt lat="46.56033" lon="5.55707">
        <ele>514.2</ele>
        <time>2022-04-10T13:09:57Z</time>
      </trkpt>
      <trkpt lat="46.56015" lon="5.55707">
        <ele>513.8</ele>
        <time>2022-04-10T13:09:59Z</time>
      </trkpt>
      <trkpt lat="46.55971" lon="5.55707">
        <ele>513.2</ele>
        <time>2022-04-10T13:10:04Z</time>
      </trkpt>
      <trkpt lat="46.55963" lon="5.55706">
        <ele>513</ele>
        <time>2022-04-10T13:10:05Z</time>
      </trkpt>
      <trkpt lat="46.55954" lon="5.55704">
        <ele>513</ele>
        <time>2022-04-10T13:10:06Z</time>
      </trkpt>
      <trkpt lat="46.55946" lon="5.557">
        <ele>513</ele>
        <time>2022-04-10T13:10:07Z</time>
      </trkpt>
      <trkpt lat="46.55932" lon="5.55686">
        <ele>512.6</ele>
        <time>2022-04-10T13:10:09Z</time>
      </trkpt>
      <trkpt lat="46.5591" lon="5.55665">
        <ele>512</ele>
        <time>2022-04-10T13:10:12Z</time>
      </trkpt>
      <trkpt lat="46.55895" lon="5.55652">
        <ele>511.4</ele>
        <time>2022-04-10T13:10:14Z</time>
      </trkpt>
      <trkpt lat="46.55871" lon="5.55629">
        <ele>511.2</ele>
        <time>2022-04-10T13:10:17Z</time>
      </trkpt>
      <trkpt lat="46.5585" lon="5.55605">
        <ele>509.8</ele>
        <time>2022-04-10T13:10:20Z</time>
      </trkpt>
      <trkpt lat="46.55842" lon="5.55598">
        <ele>509.2</ele>
        <time>2022-04-10T13:10:21Z</time>
      </trkpt>
      <trkpt lat="46.55819" lon="5.55584">
        <ele>508.6</ele>
        <time>2022-04-10T13:10:24Z</time>
      </trkpt>
      <trkpt lat="46.55773" lon="5.55558">
        <ele>507.8</ele>
        <time>2022-04-10T13:10:30Z</time>
      </trkpt>
      <trkpt lat="46.55723" lon="5.55535">
        <ele>507.6</ele>
        <time>2022-04-10T13:10:37Z</time>
      </trkpt>
      <trkpt lat="46.55716" lon="5.55533">
        <ele>507.6</ele>
        <time>2022-04-10T13:10:38Z</time>
      </trkpt>
      <trkpt lat="46.5568" lon="5.55532">
        <ele>507.4</ele>
        <time>2022-04-10T13:10:43Z</time>
      </trkpt>
      <trkpt lat="46.55632" lon="5.55532">
        <ele>507.2</ele>
        <time>2022-04-10T13:10:50Z</time>
      </trkpt>
      <trkpt lat="46.55582" lon="5.55523">
        <ele>507.8</ele>
        <time>2022-04-10T13:10:58Z</time>
      </trkpt>
      <trkpt lat="46.55544" lon="5.55505">
        <ele>508</ele>
        <time>2022-04-10T13:11:04Z</time>
      </trkpt>
      <trkpt lat="46.55501" lon="5.5547">
        <ele>508</ele>
        <time>2022-04-10T13:11:11Z</time>
      </trkpt>
      <trkpt lat="46.55447" lon="5.55438">
        <ele>507.6</ele>
        <time>2022-04-10T13:11:19Z</time>
      </trkpt>
      <trkpt lat="46.5539" lon="5.55414">
        <ele>506.8</ele>
        <time>2022-04-10T13:11:27Z</time>
      </trkpt>
      <trkpt lat="46.55375" lon="5.55408">
        <ele>506.8</ele>
        <time>2022-04-10T13:11:29Z</time>
      </trkpt>
      <trkpt lat="46.55352" lon="5.55399">
        <ele>506.6</ele>
        <time>2022-04-10T13:11:32Z</time>
      </trkpt>
      <trkpt lat="46.55322" lon="5.55386">
        <ele>505.6</ele>
        <time>2022-04-10T13:11:36Z</time>
      </trkpt>
      <trkpt lat="46.55314" lon="5.55383">
        <ele>505.4</ele>
        <time>2022-04-10T13:11:37Z</time>
      </trkpt>
      <trkpt lat="46.55261" lon="5.55362">
        <ele>504.4</ele>
        <time>2022-04-10T13:11:44Z</time>
      </trkpt>
      <trkpt lat="46.55254" lon="5.55359">
        <ele>504.4</ele>
        <time>2022-04-10T13:11:45Z</time>
      </trkpt>
      <trkpt lat="46.55203" lon="5.55339">
        <ele>504.2</ele>
        <time>2022-04-10T13:11:52Z</time>
      </trkpt>
      <trkpt lat="46.55167" lon="5.55336">
        <ele>504.2</ele>
        <time>2022-04-10T13:11:57Z</time>
      </trkpt>
      <trkpt lat="46.55107" lon="5.55337">
        <ele>504.4</ele>
        <time>2022-04-10T13:12:05Z</time>
      </trkpt>
      <trkpt lat="46.55052" lon="5.55339">
        <ele>505</ele>
        <time>2022-04-10T13:12:13Z</time>
      </trkpt>
      <trkpt lat="46.55037" lon="5.55339">
        <ele>505.4</ele>
        <time>2022-04-10T13:12:15Z</time>
      </trkpt>
      <trkpt lat="46.55016" lon="5.55342">
        <ele>505.8</ele>
        <time>2022-04-10T13:12:18Z</time>
      </trkpt>
      <trkpt lat="46.54978" lon="5.55352">
        <ele>505.8</ele>
        <time>2022-04-10T13:12:23Z</time>
      </trkpt>
      <trkpt lat="46.54936" lon="5.55376">
        <ele>505.6</ele>
        <time>2022-04-10T13:12:29Z</time>
      </trkpt>
      <trkpt lat="46.54898" lon="5.55398">
        <ele>505.8</ele>
        <time>2022-04-10T13:12:35Z</time>
      </trkpt>
      <trkpt lat="46.54849" lon="5.55426">
        <ele>507</ele>
        <time>2022-04-10T13:12:43Z</time>
      </trkpt>
      <trkpt lat="46.54796" lon="5.55455">
        <ele>508.2</ele>
        <time>2022-04-10T13:12:51Z</time>
      </trkpt>
      <trkpt lat="46.54789" lon="5.55458">
        <ele>508.2</ele>
        <time>2022-04-10T13:12:52Z</time>
      </trkpt>
      <trkpt lat="46.54781" lon="5.5546">
        <ele>508.2</ele>
        <time>2022-04-10T13:12:53Z</time>
      </trkpt>
      <trkpt lat="46.54756" lon="5.5546">
        <ele>508.2</ele>
        <time>2022-04-10T13:12:56Z</time>
      </trkpt>
      <trkpt lat="46.54695" lon="5.55445">
        <ele>507.4</ele>
        <time>2022-04-10T13:13:03Z</time>
      </trkpt>
      <trkpt lat="46.54686" lon="5.55443">
        <ele>507</ele>
        <time>2022-04-10T13:13:04Z</time>
      </trkpt>
      <trkpt lat="46.54639" lon="5.55432">
        <ele>505.8</ele>
        <time>2022-04-10T13:13:09Z</time>
      </trkpt>
      <trkpt lat="46.54612" lon="5.55425">
        <ele>505.2</ele>
        <time>2022-04-10T13:13:12Z</time>
      </trkpt>
      <trkpt lat="46.54593" lon="5.5542">
        <ele>504.8</ele>
        <time>2022-04-10T13:13:14Z</time>
      </trkpt>
      <trkpt lat="46.54532" lon="5.55405">
        <ele>504</ele>
        <time>2022-04-10T13:13:21Z</time>
      </trkpt>
      <trkpt lat="46.54493" lon="5.55406">
        <ele>503.8</ele>
        <time>2022-04-10T13:13:26Z</time>
      </trkpt>
      <trkpt lat="46.54433" lon="5.55419">
        <ele>505</ele>
        <time>2022-04-10T13:13:34Z</time>
      </trkpt>
      <trkpt lat="46.54425" lon="5.55421">
        <ele>505</ele>
        <time>2022-04-10T13:13:35Z</time>
      </trkpt>
      <trkpt lat="46.54367" lon="5.55444">
        <ele>505.6</ele>
        <time>2022-04-10T13:13:43Z</time>
      </trkpt>
      <trkpt lat="46.54353" lon="5.55452">
        <ele>505.8</ele>
        <time>2022-04-10T13:13:45Z</time>
      </trkpt>
      <trkpt lat="46.54299" lon="5.55481">
        <ele>505.6</ele>
        <time>2022-04-10T13:13:52Z</time>
      </trkpt>
      <trkpt lat="46.54244" lon="5.55513">
        <ele>505</ele>
        <time>2022-04-10T13:13:59Z</time>
      </trkpt>
      <trkpt lat="46.54228" lon="5.55521">
        <ele>504.8</ele>
        <time>2022-04-10T13:14:01Z</time>
      </trkpt>
      <trkpt lat="46.5422" lon="5.55524">
        <ele>504.6</ele>
        <time>2022-04-10T13:14:02Z</time>
      </trkpt>
      <trkpt lat="46.5418" lon="5.55534">
        <ele>504.4</ele>
        <time>2022-04-10T13:14:07Z</time>
      </trkpt>
      <trkpt lat="46.54124" lon="5.55534">
        <ele>503.8</ele>
        <time>2022-04-10T13:14:14Z</time>
      </trkpt>
      <trkpt lat="46.54092" lon="5.55524">
        <ele>503.6</ele>
        <time>2022-04-10T13:14:18Z</time>
      </trkpt>
      <trkpt lat="46.54075" lon="5.55519">
        <ele>503.4</ele>
        <time>2022-04-10T13:14:20Z</time>
      </trkpt>
      <trkpt lat="46.54018" lon="5.55503">
        <ele>502.8</ele>
        <time>2022-04-10T13:14:27Z</time>
      </trkpt>
      <trkpt lat="46.54001" lon="5.55503">
        <ele>502.6</ele>
        <time>2022-04-10T13:14:29Z</time>
      </trkpt>
      <trkpt lat="46.53976" lon="5.55507">
        <ele>502.4</ele>
        <time>2022-04-10T13:14:32Z</time>
      </trkpt>
      <trkpt lat="46.53929" lon="5.55524">
        <ele>502</ele>
        <time>2022-04-10T13:14:38Z</time>
      </trkpt>
      <trkpt lat="46.53898" lon="5.55536">
        <ele>501.8</ele>
        <time>2022-04-10T13:14:42Z</time>
      </trkpt>
      <trkpt lat="46.53883" lon="5.55537">
        <ele>501.6</ele>
        <time>2022-04-10T13:14:44Z</time>
      </trkpt>
      <trkpt lat="46.53828" lon="5.5554">
        <ele>501.4</ele>
        <time>2022-04-10T13:14:51Z</time>
      </trkpt>
      <trkpt lat="46.53804" lon="5.55537">
        <ele>501.4</ele>
        <time>2022-04-10T13:14:54Z</time>
      </trkpt>
      <trkpt lat="46.53759" lon="5.55522">
        <ele>501</ele>
        <time>2022-04-10T13:15:00Z</time>
      </trkpt>
      <trkpt lat="46.53699" lon="5.55507">
        <ele>500.8</ele>
        <time>2022-04-10T13:15:08Z</time>
      </trkpt>
      <trkpt lat="46.53691" lon="5.55505">
        <ele>500.8</ele>
        <time>2022-04-10T13:15:09Z</time>
      </trkpt>
      <trkpt lat="46.53631" lon="5.5549">
        <ele>501</ele>
        <time>2022-04-10T13:15:17Z</time>
      </trkpt>
      <trkpt lat="46.53609" lon="5.55483">
        <ele>501.2</ele>
        <time>2022-04-10T13:15:20Z</time>
      </trkpt>
      <trkpt lat="46.53554" lon="5.55467">
        <ele>501.4</ele>
        <time>2022-04-10T13:15:27Z</time>
      </trkpt>
      <trkpt lat="46.5353" lon="5.55459">
        <ele>501.4</ele>
        <time>2022-04-10T13:15:30Z</time>
      </trkpt>
      <trkpt lat="46.53474" lon="5.55437">
        <ele>501</ele>
        <time>2022-04-10T13:15:37Z</time>
      </trkpt>
      <trkpt lat="46.53466" lon="5.55434">
        <ele>500.8</ele>
        <time>2022-04-10T13:15:38Z</time>
      </trkpt>
      <trkpt lat="46.53408" lon="5.5542">
        <ele>500</ele>
        <time>2022-04-10T13:15:45Z</time>
      </trkpt>
      <trkpt lat="46.53391" lon="5.55421">
        <ele>499.8</ele>
        <time>2022-04-10T13:15:47Z</time>
      </trkpt>
      <trkpt lat="46.53366" lon="5.55426">
        <ele>499.4</ele>
        <time>2022-04-10T13:15:50Z</time>
      </trkpt>
      <trkpt lat="46.53334" lon="5.55425">
        <ele>499.4</ele>
        <time>2022-04-10T13:15:54Z</time>
      </trkpt>
      <trkpt lat="46.53327" lon="5.55423">
        <ele>499.4</ele>
        <time>2022-04-10T13:15:55Z</time>
      </trkpt>
      <trkpt lat="46.5332" lon="5.5542">
        <ele>499.4</ele>
        <time>2022-04-10T13:15:56Z</time>
      </trkpt>
      <trkpt lat="46.533" lon="5.55405">
        <ele>499.4</ele>
        <time>2022-04-10T13:15:59Z</time>
      </trkpt>
      <trkpt lat="46.53257" lon="5.5536">
        <ele>499.4</ele>
        <time>2022-04-10T13:16:06Z</time>
      </trkpt>
      <trkpt lat="46.53218" lon="5.55324">
        <ele>499.4</ele>
        <time>2022-04-10T13:16:12Z</time>
      </trkpt>
      <trkpt lat="46.53212" lon="5.55317">
        <ele>499.2</ele>
        <time>2022-04-10T13:16:13Z</time>
      </trkpt>
      <trkpt lat="46.53179" lon="5.55275">
        <ele>499</ele>
        <time>2022-04-10T13:16:19Z</time>
      </trkpt>
      <trkpt lat="46.53125" lon="5.55239">
        <ele>499.2</ele>
        <time>2022-04-10T13:16:27Z</time>
      </trkpt>
      <trkpt lat="46.53074" lon="5.55209">
        <ele>498.8</ele>
        <time>2022-04-10T13:16:34Z</time>
      </trkpt>
      <trkpt lat="46.53059" lon="5.55201">
        <ele>498.6</ele>
        <time>2022-04-10T13:16:36Z</time>
      </trkpt>
      <trkpt lat="46.53007" lon="5.55177">
        <ele>498.4</ele>
        <time>2022-04-10T13:16:43Z</time>
      </trkpt>
      <trkpt lat="46.53" lon="5.55174">
        <ele>498.4</ele>
        <time>2022-04-10T13:16:44Z</time>
      </trkpt>
      <trkpt lat="46.5295" lon="5.55152">
        <ele>498.4</ele>
        <time>2022-04-10T13:16:51Z</time>
      </trkpt>
      <trkpt lat="46.52892" lon="5.55126">
        <ele>498.6</ele>
        <time>2022-04-10T13:16:59Z</time>
      </trkpt>
      <trkpt lat="46.52863" lon="5.55112">
        <ele>498.6</ele>
        <time>2022-04-10T13:17:03Z</time>
      </trkpt>
      <trkpt lat="46.52805" lon="5.55092">
        <ele>498.6</ele>
        <time>2022-04-10T13:17:11Z</time>
      </trkpt>
      <trkpt lat="46.52755" lon="5.55082">
        <ele>498.4</ele>
        <time>2022-04-10T13:17:18Z</time>
      </trkpt>
      <trkpt lat="46.52708" lon="5.55073">
        <ele>498.2</ele>
        <time>2022-04-10T13:17:25Z</time>
      </trkpt>
      <trkpt lat="46.52702" lon="5.55073">
        <ele>498.2</ele>
        <time>2022-04-10T13:17:26Z</time>
      </trkpt>
      <trkpt lat="46.52692" lon="5.55081">
        <ele>498</ele>
        <time>2022-04-10T13:17:28Z</time>
      </trkpt>
      <trkpt lat="46.52687" lon="5.55097">
        <ele>498</ele>
        <time>2022-04-10T13:17:30Z</time>
      </trkpt>
      <trkpt lat="46.52686" lon="5.55107">
        <ele>497.8</ele>
        <time>2022-04-10T13:17:31Z</time>
      </trkpt>
      <trkpt lat="46.52683" lon="5.55163">
        <ele>497.8</ele>
        <time>2022-04-10T13:17:36Z</time>
      </trkpt>
      <trkpt lat="46.52677" lon="5.55245">
        <ele>497.8</ele>
        <time>2022-04-10T13:17:43Z</time>
      </trkpt>
      <trkpt lat="46.52671" lon="5.55326">
        <ele>498</ele>
        <time>2022-04-10T13:17:50Z</time>
      </trkpt>
      <trkpt lat="46.5267" lon="5.55338">
        <ele>498</ele>
        <time>2022-04-10T13:17:51Z</time>
      </trkpt>
      <trkpt lat="46.52664" lon="5.55424">
        <ele>497.4</ele>
        <time>2022-04-10T13:17:58Z</time>
      </trkpt>
      <trkpt lat="46.52663" lon="5.55436">
        <ele>497</ele>
        <time>2022-04-10T13:17:59Z</time>
      </trkpt>
      <trkpt lat="46.52661" lon="5.5546">
        <ele>496.6</ele>
        <time>2022-04-10T13:18:01Z</time>
      </trkpt>
      <trkpt lat="46.52656" lon="5.55519">
        <ele>496</ele>
        <time>2022-04-10T13:18:06Z</time>
      </trkpt>
      <trkpt lat="46.52653" lon="5.55554">
        <ele>495.8</ele>
        <time>2022-04-10T13:18:09Z</time>
      </trkpt>
      <trkpt lat="46.52647" lon="5.55642">
        <ele>495</ele>
        <time>2022-04-10T13:18:17Z</time>
      </trkpt>
      <trkpt lat="46.52646" lon="5.55653">
        <ele>495</ele>
        <time>2022-04-10T13:18:18Z</time>
      </trkpt>
      <trkpt lat="46.52643" lon="5.55696">
        <ele>495</ele>
        <time>2022-04-10T13:18:22Z</time>
      </trkpt>
      <trkpt lat="46.52636" lon="5.55779">
        <ele>495</ele>
        <time>2022-04-10T13:18:30Z</time>
      </trkpt>
      <trkpt lat="46.5263" lon="5.55863">
        <ele>494.8</ele>
        <time>2022-04-10T13:18:38Z</time>
      </trkpt>
      <trkpt lat="46.52629" lon="5.55873">
        <ele>494.8</ele>
        <time>2022-04-10T13:18:39Z</time>
      </trkpt>
      <trkpt lat="46.52623" lon="5.55958">
        <ele>494.6</ele>
        <time>2022-04-10T13:18:47Z</time>
      </trkpt>
      <trkpt lat="46.5262" lon="5.55989">
        <ele>494.6</ele>
        <time>2022-04-10T13:18:50Z</time>
      </trkpt>
      <trkpt lat="46.52614" lon="5.5607">
        <ele>494.8</ele>
        <time>2022-04-10T13:18:58Z</time>
      </trkpt>
      <trkpt lat="46.52611" lon="5.56099">
        <ele>495.2</ele>
        <time>2022-04-10T13:19:01Z</time>
      </trkpt>
      <trkpt lat="46.52607" lon="5.56156">
        <ele>495.4</ele>
        <time>2022-04-10T13:19:07Z</time>
      </trkpt>
      <trkpt lat="46.52604" lon="5.56163">
        <ele>495.4</ele>
        <time>2022-04-10T13:19:08Z</time>
      </trkpt>
      <trkpt lat="46.526" lon="5.56169">
        <ele>495.6</ele>
        <time>2022-04-10T13:19:09Z</time>
      </trkpt>
      <trkpt lat="46.52589" lon="5.56175">
        <ele>495.6</ele>
        <time>2022-04-10T13:19:11Z</time>
      </trkpt>
      <trkpt lat="46.52553" lon="5.56177">
        <ele>495.6</ele>
        <time>2022-04-10T13:19:16Z</time>
      </trkpt>
      <trkpt lat="46.52516" lon="5.56179">
        <ele>495.6</ele>
        <time>2022-04-10T13:19:21Z</time>
      </trkpt>
      <trkpt lat="46.52509" lon="5.56178">
        <ele>495.6</ele>
        <time>2022-04-10T13:19:22Z</time>
      </trkpt>
      <trkpt lat="46.52459" lon="5.56156">
        <ele>495.4</ele>
        <time>2022-04-10T13:19:29Z</time>
      </trkpt>
      <trkpt lat="46.52401" lon="5.56138">
        <ele>495</ele>
        <time>2022-04-10T13:19:37Z</time>
      </trkpt>
      <trkpt lat="46.52387" lon="5.5614">
        <ele>495</ele>
        <time>2022-04-10T13:19:39Z</time>
      </trkpt>
      <trkpt lat="46.52374" lon="5.56147">
        <ele>495</ele>
        <time>2022-04-10T13:19:41Z</time>
      </trkpt>
      <trkpt lat="46.52349" lon="5.56163">
        <ele>495</ele>
        <time>2022-04-10T13:19:45Z</time>
      </trkpt>
      <trkpt lat="46.52342" lon="5.56166">
        <ele>495.2</ele>
        <time>2022-04-10T13:19:46Z</time>
      </trkpt>
      <trkpt lat="46.52328" lon="5.56168">
        <ele>495.4</ele>
        <time>2022-04-10T13:19:48Z</time>
      </trkpt>
      <trkpt lat="46.52315" lon="5.56164">
        <ele>495.6</ele>
        <time>2022-04-10T13:19:50Z</time>
      </trkpt>
      <trkpt lat="46.52262" lon="5.56143">
        <ele>496</ele>
        <time>2022-04-10T13:19:58Z</time>
      </trkpt>
      <trkpt lat="46.52256" lon="5.56142">
        <ele>496.2</ele>
        <time>2022-04-10T13:19:59Z</time>
      </trkpt>
      <trkpt lat="46.52203" lon="5.56135">
        <ele>496.8</ele>
        <time>2022-04-10T13:20:06Z</time>
      </trkpt>
      <trkpt lat="46.52172" lon="5.56126">
        <ele>496.2</ele>
        <time>2022-04-10T13:20:10Z</time>
      </trkpt>
      <trkpt lat="46.52156" lon="5.56126">
        <ele>495.8</ele>
        <time>2022-04-10T13:20:12Z</time>
      </trkpt>
      <trkpt lat="46.5214" lon="5.56134">
        <ele>495.8</ele>
        <time>2022-04-10T13:20:14Z</time>
      </trkpt>
      <trkpt lat="46.52134" lon="5.56141">
        <ele>495.4</ele>
        <time>2022-04-10T13:20:15Z</time>
      </trkpt>
      <trkpt lat="46.52122" lon="5.56158">
        <ele>495.2</ele>
        <time>2022-04-10T13:20:17Z</time>
      </trkpt>
      <trkpt lat="46.52098" lon="5.56189">
        <ele>494.8</ele>
        <time>2022-04-10T13:20:21Z</time>
      </trkpt>
      <trkpt lat="46.52065" lon="5.56216">
        <ele>494.6</ele>
        <time>2022-04-10T13:20:26Z</time>
      </trkpt>
      <trkpt lat="46.52012" lon="5.56255">
        <ele>495</ele>
        <time>2022-04-10T13:20:34Z</time>
      </trkpt>
      <trkpt lat="46.51998" lon="5.56266">
        <ele>495</ele>
        <time>2022-04-10T13:20:36Z</time>
      </trkpt>
      <trkpt lat="46.51944" lon="5.56309">
        <ele>494.8</ele>
        <time>2022-04-10T13:20:44Z</time>
      </trkpt>
      <trkpt lat="46.51905" lon="5.56337">
        <ele>494.4</ele>
        <time>2022-04-10T13:20:50Z</time>
      </trkpt>
      <trkpt lat="46.51898" lon="5.5634">
        <ele>494.4</ele>
        <time>2022-04-10T13:20:51Z</time>
      </trkpt>
      <trkpt lat="46.51884" lon="5.56344">
        <ele>494.4</ele>
        <time>2022-04-10T13:20:53Z</time>
      </trkpt>
      <trkpt lat="46.5187" lon="5.56347">
        <ele>494.2</ele>
        <time>2022-04-10T13:20:55Z</time>
      </trkpt>
      <trkpt lat="46.51817" lon="5.56358">
        <ele>494.4</ele>
        <time>2022-04-10T13:21:03Z</time>
      </trkpt>
      <trkpt lat="46.51761" lon="5.56371">
        <ele>494.4</ele>
        <time>2022-04-10T13:21:11Z</time>
      </trkpt>
      <trkpt lat="46.51753" lon="5.56372">
        <ele>494.4</ele>
        <time>2022-04-10T13:21:12Z</time>
      </trkpt>
      <trkpt lat="46.51695" lon="5.56378">
        <ele>494.4</ele>
        <time>2022-04-10T13:21:20Z</time>
      </trkpt>
      <trkpt lat="46.51673" lon="5.56382">
        <ele>494.4</ele>
        <time>2022-04-10T13:21:23Z</time>
      </trkpt>
      <trkpt lat="46.51615" lon="5.5639">
        <ele>494.6</ele>
        <time>2022-04-10T13:21:31Z</time>
      </trkpt>
      <trkpt lat="46.51608" lon="5.56391">
        <ele>494.6</ele>
        <time>2022-04-10T13:21:32Z</time>
      </trkpt>
      <trkpt lat="46.51553" lon="5.56401">
        <ele>494.8</ele>
        <time>2022-04-10T13:21:40Z</time>
      </trkpt>
      <trkpt lat="46.51497" lon="5.56421">
        <ele>494.8</ele>
        <time>2022-04-10T13:21:48Z</time>
      </trkpt>
      <trkpt lat="46.51482" lon="5.56423">
        <ele>495</ele>
        <time>2022-04-10T13:21:50Z</time>
      </trkpt>
      <trkpt lat="46.51461" lon="5.56423">
        <ele>495</ele>
        <time>2022-04-10T13:21:53Z</time>
      </trkpt>
      <trkpt lat="46.51447" lon="5.56423">
        <ele>495.2</ele>
        <time>2022-04-10T13:21:55Z</time>
      </trkpt>
      <trkpt lat="46.51433" lon="5.56431">
        <ele>495.2</ele>
        <time>2022-04-10T13:21:57Z</time>
      </trkpt>
      <trkpt lat="46.51425" lon="5.56449">
        <ele>495.2</ele>
        <time>2022-04-10T13:21:59Z</time>
      </trkpt>
      <trkpt lat="46.5142" lon="5.56494">
        <ele>495.4</ele>
        <time>2022-04-10T13:22:03Z</time>
      </trkpt>
      <trkpt lat="46.51418" lon="5.56538">
        <ele>495.4</ele>
        <time>2022-04-10T13:22:07Z</time>
      </trkpt>
      <trkpt lat="46.51414" lon="5.56548">
        <ele>495.4</ele>
        <time>2022-04-10T13:22:08Z</time>
      </trkpt>
      <trkpt lat="46.51409" lon="5.56556">
        <ele>495.4</ele>
        <time>2022-04-10T13:22:09Z</time>
      </trkpt>
      <trkpt lat="46.51396" lon="5.56565">
        <ele>495.2</ele>
        <time>2022-04-10T13:22:11Z</time>
      </trkpt>
      <trkpt lat="46.5135" lon="5.56568">
        <ele>495</ele>
        <time>2022-04-10T13:22:17Z</time>
      </trkpt>
      <trkpt lat="46.51301" lon="5.56581">
        <ele>495.2</ele>
        <time>2022-04-10T13:22:24Z</time>
      </trkpt>
      <trkpt lat="46.5126" lon="5.56593">
        <ele>495.6</ele>
        <time>2022-04-10T13:22:30Z</time>
      </trkpt>
      <trkpt lat="46.51252" lon="5.56595">
        <ele>495.6</ele>
        <time>2022-04-10T13:22:31Z</time>
      </trkpt>
      <trkpt lat="46.51196" lon="5.56612">
        <ele>496</ele>
        <time>2022-04-10T13:22:39Z</time>
      </trkpt>
      <trkpt lat="46.51189" lon="5.56612">
        <ele>496.2</ele>
        <time>2022-04-10T13:22:40Z</time>
      </trkpt>
      <trkpt lat="46.5115" lon="5.56608">
        <ele>496.6</ele>
        <time>2022-04-10T13:22:46Z</time>
      </trkpt>
      <trkpt lat="46.51138" lon="5.56605">
        <ele>496.8</ele>
        <time>2022-04-10T13:22:48Z</time>
      </trkpt>
      <trkpt lat="46.51096" lon="5.566">
        <ele>497.6</ele>
        <time>2022-04-10T13:22:54Z</time>
      </trkpt>
      <trkpt lat="46.51069" lon="5.56592">
        <ele>498</ele>
        <time>2022-04-10T13:22:58Z</time>
      </trkpt>
      <trkpt lat="46.51048" lon="5.56586">
        <ele>498</ele>
        <time>2022-04-10T13:23:01Z</time>
      </trkpt>
      <trkpt lat="46.51014" lon="5.56573">
        <ele>498.2</ele>
        <time>2022-04-10T13:23:07Z</time>
      </trkpt>
      <trkpt lat="46.51008" lon="5.56571">
        <ele>498.4</ele>
        <time>2022-04-10T13:23:08Z</time>
      </trkpt>
      <trkpt lat="46.50998" lon="5.56571">
        <ele>498.8</ele>
        <time>2022-04-10T13:23:10Z</time>
      </trkpt>
      <trkpt lat="46.50993" lon="5.56571">
        <ele>499</ele>
        <time>2022-04-10T13:23:11Z</time>
      </trkpt>
      <trkpt lat="46.50989" lon="5.56572">
        <ele>499.4</ele>
        <time>2022-04-10T13:23:12Z</time>
      </trkpt>
      <trkpt lat="46.50979" lon="5.56575">
        <ele>500</ele>
        <time>2022-04-10T13:23:14Z</time>
      </trkpt>
      <trkpt lat="46.50963" lon="5.56585">
        <ele>501</ele>
        <time>2022-04-10T13:23:18Z</time>
      </trkpt>
      <trkpt lat="46.50959" lon="5.56588">
        <ele>501.6</ele>
        <time>2022-04-10T13:23:19Z</time>
      </trkpt>
      <trkpt lat="46.50943" lon="5.56605">
        <ele>502.8</ele>
        <time>2022-04-10T13:23:23Z</time>
      </trkpt>
      <trkpt lat="46.50932" lon="5.56619">
        <ele>503.6</ele>
        <time>2022-04-10T13:23:26Z</time>
      </trkpt>
      <trkpt lat="46.50929" lon="5.56624">
        <ele>504</ele>
        <time>2022-04-10T13:23:27Z</time>
      </trkpt>
      <trkpt lat="46.50922" lon="5.56634">
        <ele>504.4</ele>
        <time>2022-04-10T13:23:29Z</time>
      </trkpt>
      <trkpt lat="46.50914" lon="5.56646">
        <ele>505</ele>
        <time>2022-04-10T13:23:32Z</time>
      </trkpt>
      <trkpt lat="46.5091" lon="5.5665">
        <ele>505.2</ele>
        <time>2022-04-10T13:23:33Z</time>
      </trkpt>
      <trkpt lat="46.50906" lon="5.56654">
        <ele>505.2</ele>
        <time>2022-04-10T13:23:34Z</time>
      </trkpt>
      <trkpt lat="46.50888" lon="5.56672">
        <ele>506.4</ele>
        <time>2022-04-10T13:23:39Z</time>
      </trkpt>
      <trkpt lat="46.50884" lon="5.56675">
        <ele>506.6</ele>
        <time>2022-04-10T13:23:40Z</time>
      </trkpt>
      <trkpt lat="46.50877" lon="5.56679">
        <ele>507.6</ele>
        <time>2022-04-10T13:23:42Z</time>
      </trkpt>
      <trkpt lat="46.50874" lon="5.56681">
        <ele>508</ele>
        <time>2022-04-10T13:23:43Z</time>
      </trkpt>
      <trkpt lat="46.50865" lon="5.56685">
        <ele>508.4</ele>
        <time>2022-04-10T13:23:45Z</time>
      </trkpt>
      <trkpt lat="46.5086" lon="5.56686">
        <ele>508.8</ele>
        <time>2022-04-10T13:23:46Z</time>
      </trkpt>
      <trkpt lat="46.50856" lon="5.56686">
        <ele>508.8</ele>
        <time>2022-04-10T13:23:47Z</time>
      </trkpt>
      <trkpt lat="46.50831" lon="5.56688">
        <ele>510</ele>
        <time>2022-04-10T13:23:53Z</time>
      </trkpt>
      <trkpt lat="46.50802" lon="5.56689">
        <ele>510.2</ele>
        <time>2022-04-10T13:24:00Z</time>
      </trkpt>
      <trkpt lat="46.50793" lon="5.56685">
        <ele>510.2</ele>
        <time>2022-04-10T13:24:02Z</time>
      </trkpt>
      <trkpt lat="46.50777" lon="5.56674">
        <ele>510.2</ele>
        <time>2022-04-10T13:24:05Z</time>
      </trkpt>
      <trkpt lat="46.50771" lon="5.56668">
        <ele>510.2</ele>
        <time>2022-04-10T13:24:06Z</time>
      </trkpt>
      <trkpt lat="46.50756" lon="5.56648">
        <ele>510</ele>
        <time>2022-04-10T13:24:09Z</time>
      </trkpt>
      <trkpt lat="46.50742" lon="5.56631">
        <ele>509.6</ele>
        <time>2022-04-10T13:24:12Z</time>
      </trkpt>
      <trkpt lat="46.50737" lon="5.56627">
        <ele>509.6</ele>
        <time>2022-04-10T13:24:13Z</time>
      </trkpt>
      <trkpt lat="46.50731" lon="5.56624">
        <ele>509.6</ele>
        <time>2022-04-10T13:24:14Z</time>
      </trkpt>
      <trkpt lat="46.50715" lon="5.56617">
        <ele>510.2</ele>
        <time>2022-04-10T13:24:17Z</time>
      </trkpt>
      <trkpt lat="46.50686" lon="5.56605">
        <ele>511</ele>
        <time>2022-04-10T13:24:23Z</time>
      </trkpt>
      <trkpt lat="46.50668" lon="5.56599">
        <ele>512</ele>
        <time>2022-04-10T13:24:27Z</time>
      </trkpt>
      <trkpt lat="46.50659" lon="5.56596">
        <ele>513</ele>
        <time>2022-04-10T13:24:29Z</time>
      </trkpt>
      <trkpt lat="46.50655" lon="5.56595">
        <ele>513.4</ele>
        <time>2022-04-10T13:24:30Z</time>
      </trkpt>
      <trkpt lat="46.50632" lon="5.56588">
        <ele>514.6</ele>
        <time>2022-04-10T13:24:35Z</time>
      </trkpt>
      <trkpt lat="46.50628" lon="5.56586">
        <ele>514.8</ele>
        <time>2022-04-10T13:24:36Z</time>
      </trkpt>
      <trkpt lat="46.50619" lon="5.56583">
        <ele>515.4</ele>
        <time>2022-04-10T13:24:38Z</time>
      </trkpt>
      <trkpt lat="46.50611" lon="5.5658">
        <ele>515.8</ele>
        <time>2022-04-10T13:24:40Z</time>
      </trkpt>
      <trkpt lat="46.50598" lon="5.56573">
        <ele>516.6</ele>
        <time>2022-04-10T13:24:43Z</time>
      </trkpt>
      <trkpt lat="46.50594" lon="5.5657">
        <ele>517</ele>
        <time>2022-04-10T13:24:44Z</time>
      </trkpt>
      <trkpt lat="46.50582" lon="5.56561">
        <ele>518</ele>
        <time>2022-04-10T13:24:47Z</time>
      </trkpt>
      <trkpt lat="46.50564" lon="5.56548">
        <ele>519.2</ele>
        <time>2022-04-10T13:24:51Z</time>
      </trkpt>
      <trkpt lat="46.50555" lon="5.56544">
        <ele>519.6</ele>
        <time>2022-04-10T13:24:53Z</time>
      </trkpt>
      <trkpt lat="46.50545" lon="5.56541">
        <ele>520.4</ele>
        <time>2022-04-10T13:24:55Z</time>
      </trkpt>
      <trkpt lat="46.50518" lon="5.56533">
        <ele>521.4</ele>
        <time>2022-04-10T13:25:01Z</time>
      </trkpt>
      <trkpt lat="46.50513" lon="5.56532">
        <ele>521.8</ele>
        <time>2022-04-10T13:25:02Z</time>
      </trkpt>
      <trkpt lat="46.50499" lon="5.5653">
        <ele>522.6</ele>
        <time>2022-04-10T13:25:05Z</time>
      </trkpt>
      <trkpt lat="46.5049" lon="5.56529">
        <ele>523</ele>
        <time>2022-04-10T13:25:07Z</time>
      </trkpt>
      <trkpt lat="46.50474" lon="5.56528">
        <ele>523.4</ele>
        <time>2022-04-10T13:25:10Z</time>
      </trkpt>
      <trkpt lat="46.50469" lon="5.56527">
        <ele>523.8</ele>
        <time>2022-04-10T13:25:11Z</time>
      </trkpt>
      <trkpt lat="46.50431" lon="5.56516">
        <ele>524.8</ele>
        <time>2022-04-10T13:25:18Z</time>
      </trkpt>
      <trkpt lat="46.50425" lon="5.56514">
        <ele>524.8</ele>
        <time>2022-04-10T13:25:19Z</time>
      </trkpt>
      <trkpt lat="46.50384" lon="5.565">
        <ele>525</ele>
        <time>2022-04-10T13:25:26Z</time>
      </trkpt>
      <trkpt lat="46.50342" lon="5.56486">
        <ele>526.2</ele>
        <time>2022-04-10T13:25:34Z</time>
      </trkpt>
      <trkpt lat="46.50337" lon="5.56485">
        <ele>526.4</ele>
        <time>2022-04-10T13:25:35Z</time>
      </trkpt>
      <trkpt lat="46.50312" lon="5.56477">
        <ele>527.2</ele>
        <time>2022-04-10T13:25:40Z</time>
      </trkpt>
      <trkpt lat="46.50281" lon="5.56462">
        <ele>528.2</ele>
        <time>2022-04-10T13:25:46Z</time>
      </trkpt>
      <trkpt lat="46.50276" lon="5.56459">
        <ele>528.4</ele>
        <time>2022-04-10T13:25:47Z</time>
      </trkpt>
      <trkpt lat="46.50254" lon="5.56434">
        <ele>529.2</ele>
        <time>2022-04-10T13:25:52Z</time>
      </trkpt>
      <trkpt lat="46.5025" lon="5.5643">
        <ele>529.4</ele>
        <time>2022-04-10T13:25:53Z</time>
      </trkpt>
      <trkpt lat="46.50237" lon="5.56416">
        <ele>529.8</ele>
        <time>2022-04-10T13:25:56Z</time>
      </trkpt>
      <trkpt lat="46.50229" lon="5.56407">
        <ele>530.4</ele>
        <time>2022-04-10T13:25:58Z</time>
      </trkpt>
      <trkpt lat="46.5022" lon="5.56398">
        <ele>530.8</ele>
        <time>2022-04-10T13:26:00Z</time>
      </trkpt>
      <trkpt lat="46.50191" lon="5.56369">
        <ele>531.4</ele>
        <time>2022-04-10T13:26:06Z</time>
      </trkpt>
      <trkpt lat="46.50186" lon="5.56363">
        <ele>531.6</ele>
        <time>2022-04-10T13:26:07Z</time>
      </trkpt>
      <trkpt lat="46.50156" lon="5.56318">
        <ele>531.6</ele>
        <time>2022-04-10T13:26:13Z</time>
      </trkpt>
      <trkpt lat="46.50136" lon="5.56263">
        <ele>531.4</ele>
        <time>2022-04-10T13:26:19Z</time>
      </trkpt>
      <trkpt lat="46.50132" lon="5.56254">
        <ele>531.4</ele>
        <time>2022-04-10T13:26:20Z</time>
      </trkpt>
      <trkpt lat="46.50122" lon="5.56238">
        <ele>531.4</ele>
        <time>2022-04-10T13:26:22Z</time>
      </trkpt>
      <trkpt lat="46.50116" lon="5.56231">
        <ele>531.2</ele>
        <time>2022-04-10T13:26:23Z</time>
      </trkpt>
      <trkpt lat="46.5011" lon="5.56225">
        <ele>531.2</ele>
        <time>2022-04-10T13:26:24Z</time>
      </trkpt>
      <trkpt lat="46.50089" lon="5.56211">
        <ele>531</ele>
        <time>2022-04-10T13:26:27Z</time>
      </trkpt>
      <trkpt lat="46.50051" lon="5.56185">
        <ele>530.2</ele>
        <time>2022-04-10T13:26:32Z</time>
      </trkpt>
      <trkpt lat="46.50044" lon="5.56179">
        <ele>530.2</ele>
        <time>2022-04-10T13:26:33Z</time>
      </trkpt>
      <trkpt lat="46.49995" lon="5.56147">
        <ele>529.4</ele>
        <time>2022-04-10T13:26:39Z</time>
      </trkpt>
      <trkpt lat="46.49972" lon="5.56129">
        <ele>528.6</ele>
        <time>2022-04-10T13:26:42Z</time>
      </trkpt>
      <trkpt lat="46.49965" lon="5.5612">
        <ele>528.6</ele>
        <time>2022-04-10T13:26:43Z</time>
      </trkpt>
      <trkpt lat="46.49959" lon="5.56112">
        <ele>528.6</ele>
        <time>2022-04-10T13:26:44Z</time>
      </trkpt>
      <trkpt lat="46.49946" lon="5.56082">
        <ele>528.4</ele>
        <time>2022-04-10T13:26:47Z</time>
      </trkpt>
      <trkpt lat="46.49933" lon="5.56053">
        <ele>528.4</ele>
        <time>2022-04-10T13:26:50Z</time>
      </trkpt>
      <trkpt lat="46.49928" lon="5.56044">
        <ele>528.4</ele>
        <time>2022-04-10T13:26:51Z</time>
      </trkpt>
      <trkpt lat="46.49922" lon="5.56035">
        <ele>528.4</ele>
        <time>2022-04-10T13:26:52Z</time>
      </trkpt>
      <trkpt lat="46.49915" lon="5.56027">
        <ele>528.4</ele>
        <time>2022-04-10T13:26:53Z</time>
      </trkpt>
      <trkpt lat="46.499" lon="5.56014">
        <ele>528.2</ele>
        <time>2022-04-10T13:26:55Z</time>
      </trkpt>
      <trkpt lat="46.49851" lon="5.5598">
        <ele>527.2</ele>
        <time>2022-04-10T13:27:01Z</time>
      </trkpt>
      <trkpt lat="46.49819" lon="5.5595">
        <ele>526</ele>
        <time>2022-04-10T13:27:05Z</time>
      </trkpt>
      <trkpt lat="46.49812" lon="5.55941">
        <ele>525.6</ele>
        <time>2022-04-10T13:27:06Z</time>
      </trkpt>
      <trkpt lat="46.49798" lon="5.55923">
        <ele>524.8</ele>
        <time>2022-04-10T13:27:08Z</time>
      </trkpt>
      <trkpt lat="46.49791" lon="5.55915">
        <ele>524.4</ele>
        <time>2022-04-10T13:27:09Z</time>
      </trkpt>
      <trkpt lat="46.49775" lon="5.55901">
        <ele>524</ele>
        <time>2022-04-10T13:27:11Z</time>
      </trkpt>
      <trkpt lat="46.49758" lon="5.55888">
        <ele>523.6</ele>
        <time>2022-04-10T13:27:13Z</time>
      </trkpt>
      <trkpt lat="46.49725" lon="5.55867">
        <ele>522.8</ele>
        <time>2022-04-10T13:27:17Z</time>
      </trkpt>
      <trkpt lat="46.49714" lon="5.55861">
        <ele>522.6</ele>
        <time>2022-04-10T13:27:18Z</time>
      </trkpt>
      <trkpt lat="46.49679" lon="5.55838">
        <ele>521.6</ele>
        <time>2022-04-10T13:27:22Z</time>
      </trkpt>
      <trkpt lat="46.49635" lon="5.5581">
        <ele>520.4</ele>
        <time>2022-04-10T13:27:27Z</time>
      </trkpt>
      <trkpt lat="46.49591" lon="5.55776">
        <ele>519.2</ele>
        <time>2022-04-10T13:27:32Z</time>
      </trkpt>
      <trkpt lat="46.49574" lon="5.55761">
        <ele>518.4</ele>
        <time>2022-04-10T13:27:34Z</time>
      </trkpt>
      <trkpt lat="46.49558" lon="5.55746">
        <ele>518</ele>
        <time>2022-04-10T13:27:36Z</time>
      </trkpt>
      <trkpt lat="46.49524" lon="5.55716">
        <ele>517.4</ele>
        <time>2022-04-10T13:27:40Z</time>
      </trkpt>
      <trkpt lat="46.49515" lon="5.55709">
        <ele>517</ele>
        <time>2022-04-10T13:27:41Z</time>
      </trkpt>
      <trkpt lat="46.4948" lon="5.55678">
        <ele>515.8</ele>
        <time>2022-04-10T13:27:45Z</time>
      </trkpt>
      <trkpt lat="46.49472" lon="5.5567">
        <ele>515.4</ele>
        <time>2022-04-10T13:27:46Z</time>
      </trkpt>
      <trkpt lat="46.49454" lon="5.55656">
        <ele>514.6</ele>
        <time>2022-04-10T13:27:48Z</time>
      </trkpt>
      <trkpt lat="46.49437" lon="5.55638">
        <ele>514</ele>
        <time>2022-04-10T13:27:50Z</time>
      </trkpt>
      <trkpt lat="46.49427" lon="5.55615">
        <ele>513.4</ele>
        <time>2022-04-10T13:27:52Z</time>
      </trkpt>
      <trkpt lat="46.49422" lon="5.5557">
        <ele>512.2</ele>
        <time>2022-04-10T13:27:55Z</time>
      </trkpt>
      <trkpt lat="46.4942" lon="5.55539">
        <ele>511.8</ele>
        <time>2022-04-10T13:27:57Z</time>
      </trkpt>
      <trkpt lat="46.49414" lon="5.5551">
        <ele>511.4</ele>
        <time>2022-04-10T13:27:59Z</time>
      </trkpt>
      <trkpt lat="46.49408" lon="5.55499">
        <ele>511</ele>
        <time>2022-04-10T13:28:00Z</time>
      </trkpt>
      <trkpt lat="46.49402" lon="5.55488">
        <ele>510.4</ele>
        <time>2022-04-10T13:28:01Z</time>
      </trkpt>
      <trkpt lat="46.49395" lon="5.55479">
        <ele>509.8</ele>
        <time>2022-04-10T13:28:02Z</time>
      </trkpt>
      <trkpt lat="46.49386" lon="5.55471">
        <ele>509.8</ele>
        <time>2022-04-10T13:28:03Z</time>
      </trkpt>
      <trkpt lat="46.4936" lon="5.55453">
        <ele>509</ele>
        <time>2022-04-10T13:28:06Z</time>
      </trkpt>
      <trkpt lat="46.49343" lon="5.5544">
        <ele>508.8</ele>
        <time>2022-04-10T13:28:08Z</time>
      </trkpt>
      <trkpt lat="46.49312" lon="5.55414">
        <ele>508.4</ele>
        <time>2022-04-10T13:28:12Z</time>
      </trkpt>
      <trkpt lat="46.49268" lon="5.55388">
        <ele>507.8</ele>
        <time>2022-04-10T13:28:17Z</time>
      </trkpt>
      <trkpt lat="46.49259" lon="5.55384">
        <ele>507.6</ele>
        <time>2022-04-10T13:28:18Z</time>
      </trkpt>
      <trkpt lat="46.49251" lon="5.55379">
        <ele>507.6</ele>
        <time>2022-04-10T13:28:19Z</time>
      </trkpt>
      <trkpt lat="46.49238" lon="5.55364">
        <ele>507.4</ele>
        <time>2022-04-10T13:28:21Z</time>
      </trkpt>
      <trkpt lat="46.4921" lon="5.55317">
        <ele>507.4</ele>
        <time>2022-04-10T13:28:26Z</time>
      </trkpt>
      <trkpt lat="46.49197" lon="5.553">
        <ele>507.2</ele>
        <time>2022-04-10T13:28:28Z</time>
      </trkpt>
      <trkpt lat="46.49183" lon="5.55286">
        <ele>507.4</ele>
        <time>2022-04-10T13:28:30Z</time>
      </trkpt>
      <trkpt lat="46.49177" lon="5.55279">
        <ele>507.4</ele>
        <time>2022-04-10T13:28:31Z</time>
      </trkpt>
      <trkpt lat="46.49161" lon="5.55255">
        <ele>507.4</ele>
        <time>2022-04-10T13:28:34Z</time>
      </trkpt>
      <trkpt lat="46.49133" lon="5.5521">
        <ele>508</ele>
        <time>2022-04-10T13:28:40Z</time>
      </trkpt>
      <trkpt lat="46.4911" lon="5.55179">
        <ele>508.8</ele>
        <time>2022-04-10T13:28:45Z</time>
      </trkpt>
      <trkpt lat="46.49105" lon="5.55173">
        <ele>509</ele>
        <time>2022-04-10T13:28:46Z</time>
      </trkpt>
      <trkpt lat="46.49079" lon="5.55141">
        <ele>509.4</ele>
        <time>2022-04-10T13:28:51Z</time>
      </trkpt>
      <trkpt lat="46.49075" lon="5.55134">
        <ele>509.4</ele>
        <time>2022-04-10T13:28:52Z</time>
      </trkpt>
      <trkpt lat="46.49069" lon="5.55123">
        <ele>509.4</ele>
        <time>2022-04-10T13:28:53Z</time>
      </trkpt>
      <trkpt lat="46.49063" lon="5.55104">
        <ele>509.2</ele>
        <time>2022-04-10T13:28:55Z</time>
      </trkpt>
      <trkpt lat="46.49061" lon="5.55096">
        <ele>509</ele>
        <time>2022-04-10T13:28:56Z</time>
      </trkpt>
      <trkpt lat="46.4906" lon="5.55085">
        <ele>508.8</ele>
        <time>2022-04-10T13:28:57Z</time>
      </trkpt>
      <trkpt lat="46.49059" lon="5.55059">
        <ele>508.6</ele>
        <time>2022-04-10T13:29:00Z</time>
      </trkpt>
      <trkpt lat="46.49064" lon="5.54985">
        <ele>508.4</ele>
        <time>2022-04-10T13:29:07Z</time>
      </trkpt>
      <trkpt lat="46.49074" lon="5.54924">
        <ele>507.8</ele>
        <time>2022-04-10T13:29:13Z</time>
      </trkpt>
      <trkpt lat="46.49076" lon="5.54913">
        <ele>507.8</ele>
        <time>2022-04-10T13:29:14Z</time>
      </trkpt>
      <trkpt lat="46.49075" lon="5.54892">
        <ele>507.4</ele>
        <time>2022-04-10T13:29:16Z</time>
      </trkpt>
      <trkpt lat="46.4907" lon="5.5487">
        <ele>507.2</ele>
        <time>2022-04-10T13:29:18Z</time>
      </trkpt>
      <trkpt lat="46.49063" lon="5.54849">
        <ele>506.8</ele>
        <time>2022-04-10T13:29:20Z</time>
      </trkpt>
      <trkpt lat="46.49054" lon="5.54829">
        <ele>506.6</ele>
        <time>2022-04-10T13:29:22Z</time>
      </trkpt>
      <trkpt lat="46.49043" lon="5.54811">
        <ele>505.8</ele>
        <time>2022-04-10T13:29:24Z</time>
      </trkpt>
      <trkpt lat="46.49037" lon="5.54803">
        <ele>505.6</ele>
        <time>2022-04-10T13:29:25Z</time>
      </trkpt>
      <trkpt lat="46.4903" lon="5.54798">
        <ele>505.2</ele>
        <time>2022-04-10T13:29:26Z</time>
      </trkpt>
      <trkpt lat="46.49006" lon="5.54788">
        <ele>504.6</ele>
        <time>2022-04-10T13:29:29Z</time>
      </trkpt>
      <trkpt lat="46.48997" lon="5.54786">
        <ele>504.4</ele>
        <time>2022-04-10T13:29:30Z</time>
      </trkpt>
      <trkpt lat="46.48956" lon="5.54777">
        <ele>503.8</ele>
        <time>2022-04-10T13:29:35Z</time>
      </trkpt>
      <trkpt lat="46.48945" lon="5.54779">
        <ele>503.4</ele>
        <time>2022-04-10T13:29:36Z</time>
      </trkpt>
      <trkpt lat="46.48917" lon="5.54792">
        <ele>502.4</ele>
        <time>2022-04-10T13:29:39Z</time>
      </trkpt>
      <trkpt lat="46.48907" lon="5.54794">
        <ele>501.8</ele>
        <time>2022-04-10T13:29:40Z</time>
      </trkpt>
      <trkpt lat="46.48897" lon="5.54793">
        <ele>501.6</ele>
        <time>2022-04-10T13:29:41Z</time>
      </trkpt>
      <trkpt lat="46.48878" lon="5.54787">
        <ele>500.6</ele>
        <time>2022-04-10T13:29:43Z</time>
      </trkpt>
      <trkpt lat="46.48859" lon="5.54778">
        <ele>499.2</ele>
        <time>2022-04-10T13:29:45Z</time>
      </trkpt>
      <trkpt lat="46.48833" lon="5.5476">
        <ele>498.2</ele>
        <time>2022-04-10T13:29:48Z</time>
      </trkpt>
      <trkpt lat="46.48786" lon="5.54713">
        <ele>497.4</ele>
        <time>2022-04-10T13:29:54Z</time>
      </trkpt>
      <trkpt lat="46.48748" lon="5.54684">
        <ele>497.2</ele>
        <time>2022-04-10T13:29:59Z</time>
      </trkpt>
      <trkpt lat="46.48703" lon="5.5466">
        <ele>497.6</ele>
        <time>2022-04-10T13:30:05Z</time>
      </trkpt>
      <trkpt lat="46.48661" lon="5.54638">
        <ele>498.4</ele>
        <time>2022-04-10T13:30:11Z</time>
      </trkpt>
      <trkpt lat="46.48628" lon="5.54627">
        <ele>499.2</ele>
        <time>2022-04-10T13:30:16Z</time>
      </trkpt>
      <trkpt lat="46.48621" lon="5.54625">
        <ele>499.4</ele>
        <time>2022-04-10T13:30:17Z</time>
      </trkpt>
      <trkpt lat="46.48608" lon="5.54622">
        <ele>500</ele>
        <time>2022-04-10T13:30:19Z</time>
      </trkpt>
      <trkpt lat="46.48589" lon="5.54616">
        <ele>500.4</ele>
        <time>2022-04-10T13:30:22Z</time>
      </trkpt>
      <trkpt lat="46.48582" lon="5.54613">
        <ele>500.6</ele>
        <time>2022-04-10T13:30:23Z</time>
      </trkpt>
      <trkpt lat="46.48575" lon="5.5461">
        <ele>501</ele>
        <time>2022-04-10T13:30:24Z</time>
      </trkpt>
      <trkpt lat="46.48563" lon="5.54599">
        <ele>501.2</ele>
        <time>2022-04-10T13:30:26Z</time>
      </trkpt>
      <trkpt lat="46.48554" lon="5.54583">
        <ele>501.2</ele>
        <time>2022-04-10T13:30:28Z</time>
      </trkpt>
      <trkpt lat="46.48551" lon="5.54575">
        <ele>501.2</ele>
        <time>2022-04-10T13:30:29Z</time>
      </trkpt>
      <trkpt lat="46.48544" lon="5.5456">
        <ele>501.6</ele>
        <time>2022-04-10T13:30:31Z</time>
      </trkpt>
      <trkpt lat="46.4854" lon="5.54554">
        <ele>501.8</ele>
        <time>2022-04-10T13:30:32Z</time>
      </trkpt>
      <trkpt lat="46.48536" lon="5.5455">
        <ele>502.2</ele>
        <time>2022-04-10T13:30:33Z</time>
      </trkpt>
      <trkpt lat="46.48532" lon="5.54547">
        <ele>502.2</ele>
        <time>2022-04-10T13:30:34Z</time>
      </trkpt>
      <trkpt lat="46.48527" lon="5.54544">
        <ele>502.6</ele>
        <time>2022-04-10T13:30:35Z</time>
      </trkpt>
      <trkpt lat="46.48523" lon="5.54543">
        <ele>502.8</ele>
        <time>2022-04-10T13:30:36Z</time>
      </trkpt>
      <trkpt lat="46.48511" lon="5.5454">
        <ele>503.8</ele>
        <time>2022-04-10T13:30:38Z</time>
      </trkpt>
      <trkpt lat="46.48489" lon="5.54535">
        <ele>505</ele>
        <time>2022-04-10T13:30:42Z</time>
      </trkpt>
      <trkpt lat="46.48472" lon="5.5453">
        <ele>505.8</ele>
        <time>2022-04-10T13:30:45Z</time>
      </trkpt>
      <trkpt lat="46.48459" lon="5.54527">
        <ele>506.4</ele>
        <time>2022-04-10T13:30:47Z</time>
      </trkpt>
      <trkpt lat="46.48441" lon="5.54521">
        <ele>506.8</ele>
        <time>2022-04-10T13:30:50Z</time>
      </trkpt>
      <trkpt lat="46.48417" lon="5.54513">
        <ele>507.4</ele>
        <time>2022-04-10T13:30:54Z</time>
      </trkpt>
      <trkpt lat="46.48393" lon="5.54502">
        <ele>508</ele>
        <time>2022-04-10T13:30:58Z</time>
      </trkpt>
      <trkpt lat="46.48345" lon="5.54479">
        <ele>508</ele>
        <time>2022-04-10T13:31:05Z</time>
      </trkpt>
      <trkpt lat="46.48294" lon="5.54452">
        <ele>507.2</ele>
        <time>2022-04-10T13:31:12Z</time>
      </trkpt>
      <trkpt lat="46.48241" lon="5.54427">
        <ele>506.6</ele>
        <time>2022-04-10T13:31:19Z</time>
      </trkpt>
      <trkpt lat="46.48226" lon="5.5442">
        <ele>506.6</ele>
        <time>2022-04-10T13:31:21Z</time>
      </trkpt>
      <trkpt lat="46.48188" lon="5.544">
        <ele>507.2</ele>
        <time>2022-04-10T13:31:27Z</time>
      </trkpt>
      <trkpt lat="46.48164" lon="5.54384">
        <ele>508.4</ele>
        <time>2022-04-10T13:31:31Z</time>
      </trkpt>
      <trkpt lat="46.48153" lon="5.54374">
        <ele>509</ele>
        <time>2022-04-10T13:31:33Z</time>
      </trkpt>
      <trkpt lat="46.48143" lon="5.5436">
        <ele>509.4</ele>
        <time>2022-04-10T13:31:35Z</time>
      </trkpt>
      <trkpt lat="46.48136" lon="5.54345">
        <ele>510</ele>
        <time>2022-04-10T13:31:37Z</time>
      </trkpt>
      <trkpt lat="46.48121" lon="5.54315">
        <ele>510.8</ele>
        <time>2022-04-10T13:31:41Z</time>
      </trkpt>
      <trkpt lat="46.48113" lon="5.54303">
        <ele>511.2</ele>
        <time>2022-04-10T13:31:43Z</time>
      </trkpt>
      <trkpt lat="46.48103" lon="5.54294">
        <ele>511.4</ele>
        <time>2022-04-10T13:31:45Z</time>
      </trkpt>
      <trkpt lat="46.48092" lon="5.54288">
        <ele>511.8</ele>
        <time>2022-04-10T13:31:47Z</time>
      </trkpt>
      <trkpt lat="46.48087" lon="5.54286">
        <ele>511.8</ele>
        <time>2022-04-10T13:31:48Z</time>
      </trkpt>
      <trkpt lat="46.48064" lon="5.54282">
        <ele>512.4</ele>
        <time>2022-04-10T13:31:52Z</time>
      </trkpt>
      <trkpt lat="46.48034" lon="5.54273">
        <ele>513</ele>
        <time>2022-04-10T13:31:57Z</time>
      </trkpt>
      <trkpt lat="46.48002" lon="5.54263">
        <ele>512.6</ele>
        <time>2022-04-10T13:32:02Z</time>
      </trkpt>
      <trkpt lat="46.4797" lon="5.5425">
        <ele>511.6</ele>
        <time>2022-04-10T13:32:07Z</time>
      </trkpt>
      <trkpt lat="46.4795" lon="5.5424">
        <ele>511</ele>
        <time>2022-04-10T13:32:10Z</time>
      </trkpt>
      <trkpt lat="46.47943" lon="5.54236">
        <ele>510.6</ele>
        <time>2022-04-10T13:32:11Z</time>
      </trkpt>
      <trkpt lat="46.47912" lon="5.5422">
        <ele>510</ele>
        <time>2022-04-10T13:32:15Z</time>
      </trkpt>
      <trkpt lat="46.47887" lon="5.54205">
        <ele>509.2</ele>
        <time>2022-04-10T13:32:18Z</time>
      </trkpt>
      <trkpt lat="46.47861" lon="5.54188">
        <ele>508.2</ele>
        <time>2022-04-10T13:32:21Z</time>
      </trkpt>
      <trkpt lat="46.47852" lon="5.54182">
        <ele>508</ele>
        <time>2022-04-10T13:32:22Z</time>
      </trkpt>
      <trkpt lat="46.47843" lon="5.54176">
        <ele>507</ele>
        <time>2022-04-10T13:32:23Z</time>
      </trkpt>
      <trkpt lat="46.47825" lon="5.54166">
        <ele>505.6</ele>
        <time>2022-04-10T13:32:25Z</time>
      </trkpt>
      <trkpt lat="46.47807" lon="5.54155">
        <ele>504.4</ele>
        <time>2022-04-10T13:32:27Z</time>
      </trkpt>
      <trkpt lat="46.47799" lon="5.54149">
        <ele>503.8</ele>
        <time>2022-04-10T13:32:28Z</time>
      </trkpt>
      <trkpt lat="46.47783" lon="5.5414">
        <ele>503</ele>
        <time>2022-04-10T13:32:30Z</time>
      </trkpt>
      <trkpt lat="46.47759" lon="5.54124">
        <ele>502.2</ele>
        <time>2022-04-10T13:32:33Z</time>
      </trkpt>
      <trkpt lat="46.47743" lon="5.54114">
        <ele>502.2</ele>
        <time>2022-04-10T13:32:35Z</time>
      </trkpt>
      <trkpt lat="46.47689" lon="5.54081">
        <ele>501.4</ele>
        <time>2022-04-10T13:32:42Z</time>
      </trkpt>
      <trkpt lat="46.47681" lon="5.54076">
        <ele>501.2</ele>
        <time>2022-04-10T13:32:43Z</time>
      </trkpt>
      <trkpt lat="46.47673" lon="5.5407">
        <ele>501</ele>
        <time>2022-04-10T13:32:44Z</time>
      </trkpt>
      <trkpt lat="46.47656" lon="5.54056">
        <ele>500.6</ele>
        <time>2022-04-10T13:32:46Z</time>
      </trkpt>
      <trkpt lat="46.47649" lon="5.54046">
        <ele>500.4</ele>
        <time>2022-04-10T13:32:47Z</time>
      </trkpt>
      <trkpt lat="46.47643" lon="5.54034">
        <ele>500</ele>
        <time>2022-04-10T13:32:48Z</time>
      </trkpt>
      <trkpt lat="46.47639" lon="5.54021">
        <ele>499.8</ele>
        <time>2022-04-10T13:32:49Z</time>
      </trkpt>
      <trkpt lat="46.47634" lon="5.54007">
        <ele>499.2</ele>
        <time>2022-04-10T13:32:50Z</time>
      </trkpt>
      <trkpt lat="46.4763" lon="5.53994">
        <ele>498.4</ele>
        <time>2022-04-10T13:32:51Z</time>
      </trkpt>
      <trkpt lat="46.47625" lon="5.5398">
        <ele>497.8</ele>
        <time>2022-04-10T13:32:52Z</time>
      </trkpt>
      <trkpt lat="46.47613" lon="5.53958">
        <ele>497</ele>
        <time>2022-04-10T13:32:54Z</time>
      </trkpt>
      <trkpt lat="46.47597" lon="5.53932">
        <ele>496</ele>
        <time>2022-04-10T13:32:56Z</time>
      </trkpt>
      <trkpt lat="46.4758" lon="5.53912">
        <ele>495</ele>
        <time>2022-04-10T13:32:58Z</time>
      </trkpt>
      <trkpt lat="46.4757" lon="5.53902">
        <ele>494</ele>
        <time>2022-04-10T13:32:59Z</time>
      </trkpt>
      <trkpt lat="46.47551" lon="5.53885">
        <ele>492.6</ele>
        <time>2022-04-10T13:33:01Z</time>
      </trkpt>
      <trkpt lat="46.47531" lon="5.53869">
        <ele>491.6</ele>
        <time>2022-04-10T13:33:03Z</time>
      </trkpt>
      <trkpt lat="46.47501" lon="5.53847">
        <ele>490.4</ele>
        <time>2022-04-10T13:33:06Z</time>
      </trkpt>
      <trkpt lat="46.47479" lon="5.53833">
        <ele>489.4</ele>
        <time>2022-04-10T13:33:08Z</time>
      </trkpt>
      <trkpt lat="46.47457" lon="5.53819">
        <ele>488.2</ele>
        <time>2022-04-10T13:33:10Z</time>
      </trkpt>
      <trkpt lat="46.47435" lon="5.53804">
        <ele>487</ele>
        <time>2022-04-10T13:33:12Z</time>
      </trkpt>
      <trkpt lat="46.47424" lon="5.53797">
        <ele>486</ele>
        <time>2022-04-10T13:33:13Z</time>
      </trkpt>
      <trkpt lat="46.47413" lon="5.53791">
        <ele>484.8</ele>
        <time>2022-04-10T13:33:14Z</time>
      </trkpt>
      <trkpt lat="46.4739" lon="5.53779">
        <ele>483.8</ele>
        <time>2022-04-10T13:33:16Z</time>
      </trkpt>
      <trkpt lat="46.47368" lon="5.53766">
        <ele>482</ele>
        <time>2022-04-10T13:33:18Z</time>
      </trkpt>
      <trkpt lat="46.47346" lon="5.53753">
        <ele>481</ele>
        <time>2022-04-10T13:33:20Z</time>
      </trkpt>
      <trkpt lat="46.47312" lon="5.53734">
        <ele>479.4</ele>
        <time>2022-04-10T13:33:23Z</time>
      </trkpt>
      <trkpt lat="46.47289" lon="5.53724">
        <ele>478.2</ele>
        <time>2022-04-10T13:33:25Z</time>
      </trkpt>
      <trkpt lat="46.47277" lon="5.53719">
        <ele>477.6</ele>
        <time>2022-04-10T13:33:26Z</time>
      </trkpt>
      <trkpt lat="46.47266" lon="5.53714">
        <ele>476.4</ele>
        <time>2022-04-10T13:33:27Z</time>
      </trkpt>
      <trkpt lat="46.47243" lon="5.53705">
        <ele>475.2</ele>
        <time>2022-04-10T13:33:29Z</time>
      </trkpt>
      <trkpt lat="46.4722" lon="5.53695">
        <ele>474</ele>
        <time>2022-04-10T13:33:31Z</time>
      </trkpt>
      <trkpt lat="46.47196" lon="5.53685">
        <ele>472.2</ele>
        <time>2022-04-10T13:33:33Z</time>
      </trkpt>
      <trkpt lat="46.47184" lon="5.53681">
        <ele>471</ele>
        <time>2022-04-10T13:33:34Z</time>
      </trkpt>
      <trkpt lat="46.47161" lon="5.5367">
        <ele>469.4</ele>
        <time>2022-04-10T13:33:36Z</time>
      </trkpt>
      <trkpt lat="46.47136" lon="5.53658">
        <ele>468</ele>
        <time>2022-04-10T13:33:38Z</time>
      </trkpt>
      <trkpt lat="46.47125" lon="5.5365">
        <ele>467.4</ele>
        <time>2022-04-10T13:33:39Z</time>
      </trkpt>
      <trkpt lat="46.47102" lon="5.53633">
        <ele>466.4</ele>
        <time>2022-04-10T13:33:41Z</time>
      </trkpt>
      <trkpt lat="46.4708" lon="5.53615">
        <ele>465.4</ele>
        <time>2022-04-10T13:33:43Z</time>
      </trkpt>
      <trkpt lat="46.47069" lon="5.53606">
        <ele>465</ele>
        <time>2022-04-10T13:33:44Z</time>
      </trkpt>
      <trkpt lat="46.47059" lon="5.53597">
        <ele>464</ele>
        <time>2022-04-10T13:33:45Z</time>
      </trkpt>
      <trkpt lat="46.47037" lon="5.53579">
        <ele>462.8</ele>
        <time>2022-04-10T13:33:47Z</time>
      </trkpt>
      <trkpt lat="46.47027" lon="5.53569">
        <ele>461.8</ele>
        <time>2022-04-10T13:33:48Z</time>
      </trkpt>
      <trkpt lat="46.47006" lon="5.53551">
        <ele>460.4</ele>
        <time>2022-04-10T13:33:50Z</time>
      </trkpt>
      <trkpt lat="46.46973" lon="5.53525">
        <ele>459.2</ele>
        <time>2022-04-10T13:33:53Z</time>
      </trkpt>
      <trkpt lat="46.46951" lon="5.53508">
        <ele>457.2</ele>
        <time>2022-04-10T13:33:55Z</time>
      </trkpt>
      <trkpt lat="46.4693" lon="5.53489">
        <ele>455.8</ele>
        <time>2022-04-10T13:33:57Z</time>
      </trkpt>
      <trkpt lat="46.46909" lon="5.53471">
        <ele>454.4</ele>
        <time>2022-04-10T13:33:59Z</time>
      </trkpt>
      <trkpt lat="46.46888" lon="5.53452">
        <ele>452.8</ele>
        <time>2022-04-10T13:34:01Z</time>
      </trkpt>
      <trkpt lat="46.46878" lon="5.53443">
        <ele>451.6</ele>
        <time>2022-04-10T13:34:02Z</time>
      </trkpt>
      <trkpt lat="46.46858" lon="5.53422">
        <ele>450.2</ele>
        <time>2022-04-10T13:34:04Z</time>
      </trkpt>
      <trkpt lat="46.46849" lon="5.53411">
        <ele>450</ele>
        <time>2022-04-10T13:34:05Z</time>
      </trkpt>
      <trkpt lat="46.4684" lon="5.53399">
        <ele>449.2</ele>
        <time>2022-04-10T13:34:06Z</time>
      </trkpt>
      <trkpt lat="46.46825" lon="5.53376">
        <ele>447.4</ele>
        <time>2022-04-10T13:34:08Z</time>
      </trkpt>
      <trkpt lat="46.46819" lon="5.53364">
        <ele>446.4</ele>
        <time>2022-04-10T13:34:09Z</time>
      </trkpt>
      <trkpt lat="46.46814" lon="5.53352">
        <ele>446</ele>
        <time>2022-04-10T13:34:10Z</time>
      </trkpt>
      <trkpt lat="46.4681" lon="5.53339">
        <ele>445.2</ele>
        <time>2022-04-10T13:34:11Z</time>
      </trkpt>
      <trkpt lat="46.46808" lon="5.53328">
        <ele>444.6</ele>
        <time>2022-04-10T13:34:12Z</time>
      </trkpt>
      <trkpt lat="46.46808" lon="5.53317">
        <ele>443.6</ele>
        <time>2022-04-10T13:34:13Z</time>
      </trkpt>
      <trkpt lat="46.46809" lon="5.53306">
        <ele>443.2</ele>
        <time>2022-04-10T13:34:14Z</time>
      </trkpt>
      <trkpt lat="46.46813" lon="5.53297">
        <ele>442.4</ele>
        <time>2022-04-10T13:34:15Z</time>
      </trkpt>
      <trkpt lat="46.46823" lon="5.53278">
        <ele>441.6</ele>
        <time>2022-04-10T13:34:17Z</time>
      </trkpt>
      <trkpt lat="46.46826" lon="5.53268">
        <ele>441.2</ele>
        <time>2022-04-10T13:34:18Z</time>
      </trkpt>
      <trkpt lat="46.46835" lon="5.53236">
        <ele>440.6</ele>
        <time>2022-04-10T13:34:21Z</time>
      </trkpt>
      <trkpt lat="46.46839" lon="5.53226">
        <ele>440.4</ele>
        <time>2022-04-10T13:34:22Z</time>
      </trkpt>
      <trkpt lat="46.46859" lon="5.53194">
        <ele>440.2</ele>
        <time>2022-04-10T13:34:26Z</time>
      </trkpt>
      <trkpt lat="46.46863" lon="5.53186">
        <ele>440.2</ele>
        <time>2022-04-10T13:34:27Z</time>
      </trkpt>
      <trkpt lat="46.46874" lon="5.53164">
        <ele>440.4</ele>
        <time>2022-04-10T13:34:30Z</time>
      </trkpt>
      <trkpt lat="46.46884" lon="5.53147">
        <ele>441.6</ele>
        <time>2022-04-10T13:34:33Z</time>
      </trkpt>
      <trkpt lat="46.46886" lon="5.53142">
        <ele>442.2</ele>
        <time>2022-04-10T13:34:34Z</time>
      </trkpt>
      <trkpt lat="46.46889" lon="5.53136">
        <ele>442.4</ele>
        <time>2022-04-10T13:34:35Z</time>
      </trkpt>
      <trkpt lat="46.46891" lon="5.5313">
        <ele>443.2</ele>
        <time>2022-04-10T13:34:36Z</time>
      </trkpt>
      <trkpt lat="46.46896" lon="5.53119">
        <ele>443.8</ele>
        <time>2022-04-10T13:34:38Z</time>
      </trkpt>
      <trkpt lat="46.46902" lon="5.5311">
        <ele>444.4</ele>
        <time>2022-04-10T13:34:40Z</time>
      </trkpt>
      <trkpt lat="46.46911" lon="5.53097">
        <ele>445.4</ele>
        <time>2022-04-10T13:34:43Z</time>
      </trkpt>
      <trkpt lat="46.46921" lon="5.53085">
        <ele>446.2</ele>
        <time>2022-04-10T13:34:46Z</time>
      </trkpt>
      <trkpt lat="46.46924" lon="5.53081">
        <ele>446.4</ele>
        <time>2022-04-10T13:34:47Z</time>
      </trkpt>
      <trkpt lat="46.46928" lon="5.53078">
        <ele>446.6</ele>
        <time>2022-04-10T13:34:48Z</time>
      </trkpt>
      <trkpt lat="46.46931" lon="5.53075">
        <ele>446.6</ele>
        <time>2022-04-10T13:34:49Z</time>
      </trkpt>
      <trkpt lat="46.46937" lon="5.53067">
        <ele>447</ele>
        <time>2022-04-10T13:34:51Z</time>
      </trkpt>
      <trkpt lat="46.46947" lon="5.53051">
        <ele>447.8</ele>
        <time>2022-04-10T13:34:55Z</time>
      </trkpt>
      <trkpt lat="46.46949" lon="5.53047">
        <ele>448.2</ele>
        <time>2022-04-10T13:34:56Z</time>
      </trkpt>
      <trkpt lat="46.46962" lon="5.5303">
        <ele>449</ele>
        <time>2022-04-10T13:35:01Z</time>
      </trkpt>
      <trkpt lat="46.46973" lon="5.53017">
        <ele>450.2</ele>
        <time>2022-04-10T13:35:05Z</time>
      </trkpt>
      <trkpt lat="46.46975" lon="5.53013">
        <ele>450.6</ele>
        <time>2022-04-10T13:35:06Z</time>
      </trkpt>
      <trkpt lat="46.46986" lon="5.52997">
        <ele>451.4</ele>
        <time>2022-04-10T13:35:10Z</time>
      </trkpt>
      <trkpt lat="46.46989" lon="5.52993">
        <ele>451.6</ele>
        <time>2022-04-10T13:35:11Z</time>
      </trkpt>
      <trkpt lat="46.46998" lon="5.52982">
        <ele>452.2</ele>
        <time>2022-04-10T13:35:14Z</time>
      </trkpt>
      <trkpt lat="46.47008" lon="5.52969">
        <ele>453</ele>
        <time>2022-04-10T13:35:17Z</time>
      </trkpt>
      <trkpt lat="46.47016" lon="5.52957">
        <ele>453.4</ele>
        <time>2022-04-10T13:35:20Z</time>
      </trkpt>
      <trkpt lat="46.47025" lon="5.52941">
        <ele>454</ele>
        <time>2022-04-10T13:35:23Z</time>
      </trkpt>
      <trkpt lat="46.4703" lon="5.52932">
        <ele>454.4</ele>
        <time>2022-04-10T13:35:25Z</time>
      </trkpt>
      <trkpt lat="46.47041" lon="5.52917">
        <ele>455.4</ele>
        <time>2022-04-10T13:35:29Z</time>
      </trkpt>
      <trkpt lat="46.47044" lon="5.52913">
        <ele>455.4</ele>
        <time>2022-04-10T13:35:30Z</time>
      </trkpt>
      <trkpt lat="46.47054" lon="5.52889">
        <ele>456.2</ele>
        <time>2022-04-10T13:35:34Z</time>
      </trkpt>
      <trkpt lat="46.4706" lon="5.52884">
        <ele>456.6</ele>
        <time>2022-04-10T13:35:36Z</time>
      </trkpt>
      <trkpt lat="46.47072" lon="5.52874">
        <ele>457.8</ele>
        <time>2022-04-10T13:35:40Z</time>
      </trkpt>
      <trkpt lat="46.47087" lon="5.52859">
        <ele>458.8</ele>
        <time>2022-04-10T13:35:45Z</time>
      </trkpt>
      <trkpt lat="46.4709" lon="5.52857">
        <ele>458.8</ele>
        <time>2022-04-10T13:35:46Z</time>
      </trkpt>
      <trkpt lat="46.47103" lon="5.52845">
        <ele>459.6</ele>
        <time>2022-04-10T13:35:50Z</time>
      </trkpt>
      <trkpt lat="46.47106" lon="5.52841">
        <ele>459.8</ele>
        <time>2022-04-10T13:35:51Z</time>
      </trkpt>
      <trkpt lat="46.47121" lon="5.52824">
        <ele>461</ele>
        <time>2022-04-10T13:35:56Z</time>
      </trkpt>
      <trkpt lat="46.47133" lon="5.52813">
        <ele>462</ele>
        <time>2022-04-10T13:36:00Z</time>
      </trkpt>
      <trkpt lat="46.47138" lon="5.5281">
        <ele>462.2</ele>
        <time>2022-04-10T13:36:01Z</time>
      </trkpt>
      <trkpt lat="46.47159" lon="5.52802">
        <ele>463.6</ele>
        <time>2022-04-10T13:36:06Z</time>
      </trkpt>
      <trkpt lat="46.47162" lon="5.52796">
        <ele>463.8</ele>
        <time>2022-04-10T13:36:07Z</time>
      </trkpt>
      <trkpt lat="46.47173" lon="5.52781">
        <ele>464.6</ele>
        <time>2022-04-10T13:36:11Z</time>
      </trkpt>
      <trkpt lat="46.47177" lon="5.52779">
        <ele>464.8</ele>
        <time>2022-04-10T13:36:12Z</time>
      </trkpt>
      <trkpt lat="46.47191" lon="5.52766">
        <ele>466</ele>
        <time>2022-04-10T13:36:17Z</time>
      </trkpt>
      <trkpt lat="46.47208" lon="5.52747">
        <ele>467.2</ele>
        <time>2022-04-10T13:36:22Z</time>
      </trkpt>
      <trkpt lat="46.47225" lon="5.52734">
        <ele>467.8</ele>
        <time>2022-04-10T13:36:27Z</time>
      </trkpt>
      <trkpt lat="46.47233" lon="5.5273">
        <ele>468.2</ele>
        <time>2022-04-10T13:36:29Z</time>
      </trkpt>
      <trkpt lat="46.47252" lon="5.52719">
        <ele>469.2</ele>
        <time>2022-04-10T13:36:34Z</time>
      </trkpt>
      <trkpt lat="46.47255" lon="5.52718">
        <ele>469.4</ele>
        <time>2022-04-10T13:36:35Z</time>
      </trkpt>
      <trkpt lat="46.47276" lon="5.52713">
        <ele>470.4</ele>
        <time>2022-04-10T13:36:40Z</time>
      </trkpt>
      <trkpt lat="46.47279" lon="5.52712">
        <ele>470.6</ele>
        <time>2022-04-10T13:36:41Z</time>
      </trkpt>
      <trkpt lat="46.47287" lon="5.5271">
        <ele>470.8</ele>
        <time>2022-04-10T13:36:43Z</time>
      </trkpt>
      <trkpt lat="46.47294" lon="5.52708">
        <ele>471.6</ele>
        <time>2022-04-10T13:36:45Z</time>
      </trkpt>
      <trkpt lat="46.47303" lon="5.52705">
        <ele>472</ele>
        <time>2022-04-10T13:36:48Z</time>
      </trkpt>
      <trkpt lat="46.47311" lon="5.52704">
        <ele>472.6</ele>
        <time>2022-04-10T13:36:50Z</time>
      </trkpt>
      <trkpt lat="46.47317" lon="5.52701">
        <ele>473.6</ele>
        <time>2022-04-10T13:36:52Z</time>
      </trkpt>
      <trkpt lat="46.47321" lon="5.52696">
        <ele>473.6</ele>
        <time>2022-04-10T13:36:53Z</time>
      </trkpt>
      <trkpt lat="46.47335" lon="5.5269">
        <ele>474.2</ele>
        <time>2022-04-10T13:36:57Z</time>
      </trkpt>
      <trkpt lat="46.47344" lon="5.52687">
        <ele>474.6</ele>
        <time>2022-04-10T13:36:59Z</time>
      </trkpt>
      <trkpt lat="46.47358" lon="5.5268">
        <ele>475.8</ele>
        <time>2022-04-10T13:37:03Z</time>
      </trkpt>
      <trkpt lat="46.47379" lon="5.52669">
        <ele>477</ele>
        <time>2022-04-10T13:37:08Z</time>
      </trkpt>
      <trkpt lat="46.47398" lon="5.52664">
        <ele>478</ele>
        <time>2022-04-10T13:37:13Z</time>
      </trkpt>
      <trkpt lat="46.47408" lon="5.52656">
        <ele>478.8</ele>
        <time>2022-04-10T13:37:16Z</time>
      </trkpt>
      <trkpt lat="46.47412" lon="5.52653">
        <ele>479</ele>
        <time>2022-04-10T13:37:17Z</time>
      </trkpt>
      <trkpt lat="46.47437" lon="5.52638">
        <ele>480.2</ele>
        <time>2022-04-10T13:37:24Z</time>
      </trkpt>
      <trkpt lat="46.47444" lon="5.52635">
        <ele>480.6</ele>
        <time>2022-04-10T13:37:26Z</time>
      </trkpt>
      <trkpt lat="46.47459" lon="5.52629">
        <ele>481.4</ele>
        <time>2022-04-10T13:37:30Z</time>
      </trkpt>
      <trkpt lat="46.47478" lon="5.52622">
        <ele>482.6</ele>
        <time>2022-04-10T13:37:35Z</time>
      </trkpt>
      <trkpt lat="46.47501" lon="5.52614">
        <ele>483.8</ele>
        <time>2022-04-10T13:37:41Z</time>
      </trkpt>
      <trkpt lat="46.47509" lon="5.52613">
        <ele>484.2</ele>
        <time>2022-04-10T13:37:43Z</time>
      </trkpt>
      <trkpt lat="46.4752" lon="5.52609">
        <ele>484.8</ele>
        <time>2022-04-10T13:37:46Z</time>
      </trkpt>
      <trkpt lat="46.47524" lon="5.52608">
        <ele>485</ele>
        <time>2022-04-10T13:37:47Z</time>
      </trkpt>
      <trkpt lat="46.47535" lon="5.52602">
        <ele>485.6</ele>
        <time>2022-04-10T13:37:50Z</time>
      </trkpt>
      <trkpt lat="46.47546" lon="5.52596">
        <ele>486</ele>
        <time>2022-04-10T13:37:53Z</time>
      </trkpt>
      <trkpt lat="46.47562" lon="5.52584">
        <ele>487.4</ele>
        <time>2022-04-10T13:37:58Z</time>
      </trkpt>
      <trkpt lat="46.47566" lon="5.52581">
        <ele>487.6</ele>
        <time>2022-04-10T13:37:59Z</time>
      </trkpt>
      <trkpt lat="46.4758" lon="5.5257">
        <ele>488.4</ele>
        <time>2022-04-10T13:38:03Z</time>
      </trkpt>
      <trkpt lat="46.47587" lon="5.52565">
        <ele>489.2</ele>
        <time>2022-04-10T13:38:05Z</time>
      </trkpt>
      <trkpt lat="46.47595" lon="5.52561">
        <ele>489.6</ele>
        <time>2022-04-10T13:38:07Z</time>
      </trkpt>
      <trkpt lat="46.47615" lon="5.52554">
        <ele>490.6</ele>
        <time>2022-04-10T13:38:12Z</time>
      </trkpt>
      <trkpt lat="46.47619" lon="5.52554">
        <ele>490.6</ele>
        <time>2022-04-10T13:38:13Z</time>
      </trkpt>
      <trkpt lat="46.47638" lon="5.52554">
        <ele>492</ele>
        <time>2022-04-10T13:38:18Z</time>
      </trkpt>
      <trkpt lat="46.47649" lon="5.52552">
        <ele>493</ele>
        <time>2022-04-10T13:38:21Z</time>
      </trkpt>
      <trkpt lat="46.47653" lon="5.52551">
        <ele>493.2</ele>
        <time>2022-04-10T13:38:22Z</time>
      </trkpt>
      <trkpt lat="46.47676" lon="5.52545">
        <ele>494.6</ele>
        <time>2022-04-10T13:38:28Z</time>
      </trkpt>
      <trkpt lat="46.47693" lon="5.52538">
        <ele>495.2</ele>
        <time>2022-04-10T13:38:32Z</time>
      </trkpt>
      <trkpt lat="46.47708" lon="5.52534">
        <ele>495.6</ele>
        <time>2022-04-10T13:38:35Z</time>
      </trkpt>
      <trkpt lat="46.47713" lon="5.52533">
        <ele>495.6</ele>
        <time>2022-04-10T13:38:36Z</time>
      </trkpt>
      <trkpt lat="46.4774" lon="5.5252">
        <ele>496</ele>
        <time>2022-04-10T13:38:42Z</time>
      </trkpt>
      <trkpt lat="46.4775" lon="5.52512">
        <ele>496</ele>
        <time>2022-04-10T13:38:44Z</time>
      </trkpt>
      <trkpt lat="46.4776" lon="5.52501">
        <ele>496.2</ele>
        <time>2022-04-10T13:38:46Z</time>
      </trkpt>
      <trkpt lat="46.47764" lon="5.52494">
        <ele>496.2</ele>
        <time>2022-04-10T13:38:47Z</time>
      </trkpt>
      <trkpt lat="46.47769" lon="5.52487">
        <ele>496.2</ele>
        <time>2022-04-10T13:38:48Z</time>
      </trkpt>
      <trkpt lat="46.47779" lon="5.52457">
        <ele>496.2</ele>
        <time>2022-04-10T13:38:51Z</time>
      </trkpt>
      <trkpt lat="46.47798" lon="5.52403">
        <ele>495.8</ele>
        <time>2022-04-10T13:38:57Z</time>
      </trkpt>
      <trkpt lat="46.47802" lon="5.52396">
        <ele>495.6</ele>
        <time>2022-04-10T13:38:58Z</time>
      </trkpt>
      <trkpt lat="46.47815" lon="5.52366">
        <ele>495.6</ele>
        <time>2022-04-10T13:39:02Z</time>
      </trkpt>
      <trkpt lat="46.47833" lon="5.52323">
        <ele>495.8</ele>
        <time>2022-04-10T13:39:08Z</time>
      </trkpt>
      <trkpt lat="46.47836" lon="5.52316">
        <ele>495.8</ele>
        <time>2022-04-10T13:39:09Z</time>
      </trkpt>
      <trkpt lat="46.47844" lon="5.52302">
        <ele>495.8</ele>
        <time>2022-04-10T13:39:11Z</time>
      </trkpt>
      <trkpt lat="46.47854" lon="5.52291">
        <ele>495.8</ele>
        <time>2022-04-10T13:39:13Z</time>
      </trkpt>
      <trkpt lat="46.47877" lon="5.52276">
        <ele>496</ele>
        <time>2022-04-10T13:39:17Z</time>
      </trkpt>
      <trkpt lat="46.47882" lon="5.52273">
        <ele>496</ele>
        <time>2022-04-10T13:39:18Z</time>
      </trkpt>
      <trkpt lat="46.47887" lon="5.5227">
        <ele>496</ele>
        <time>2022-04-10T13:39:19Z</time>
      </trkpt>
      <trkpt lat="46.47903" lon="5.52261">
        <ele>496</ele>
        <time>2022-04-10T13:39:22Z</time>
      </trkpt>
      <trkpt lat="46.47908" lon="5.52258">
        <ele>496</ele>
        <time>2022-04-10T13:39:23Z</time>
      </trkpt>
      <trkpt lat="46.47931" lon="5.52246">
        <ele>496</ele>
        <time>2022-04-10T13:39:27Z</time>
      </trkpt>
      <trkpt lat="46.47942" lon="5.52228">
        <ele>495.8</ele>
        <time>2022-04-10T13:39:29Z</time>
      </trkpt>
      <trkpt lat="46.47944" lon="5.52219">
        <ele>495.4</ele>
        <time>2022-04-10T13:39:30Z</time>
      </trkpt>
      <trkpt lat="46.47943" lon="5.52208">
        <ele>495.4</ele>
        <time>2022-04-10T13:39:31Z</time>
      </trkpt>
      <trkpt lat="46.47937" lon="5.52189">
        <ele>495</ele>
        <time>2022-04-10T13:39:33Z</time>
      </trkpt>
      <trkpt lat="46.47924" lon="5.52166">
        <ele>494.6</ele>
        <time>2022-04-10T13:39:36Z</time>
      </trkpt>
      <trkpt lat="46.47918" lon="5.5216">
        <ele>494.4</ele>
        <time>2022-04-10T13:39:37Z</time>
      </trkpt>
      <trkpt lat="46.47886" lon="5.52128">
        <ele>494.4</ele>
        <time>2022-04-10T13:39:43Z</time>
      </trkpt>
      <trkpt lat="46.47859" lon="5.52108">
        <ele>494.8</ele>
        <time>2022-04-10T13:39:48Z</time>
      </trkpt>
      <trkpt lat="46.47844" lon="5.52099">
        <ele>495.4</ele>
        <time>2022-04-10T13:39:52Z</time>
      </trkpt>
      <trkpt lat="46.4784" lon="5.52098">
        <ele>495.8</ele>
        <time>2022-04-10T13:39:53Z</time>
      </trkpt>
      <trkpt lat="46.47835" lon="5.52098">
        <ele>495.8</ele>
        <time>2022-04-10T13:39:54Z</time>
      </trkpt>
      <trkpt lat="46.47818" lon="5.52096">
        <ele>496.4</ele>
        <time>2022-04-10T13:39:57Z</time>
      </trkpt>
      <trkpt lat="46.47809" lon="5.52094">
        <ele>496.8</ele>
        <time>2022-04-10T13:39:59Z</time>
      </trkpt>
      <trkpt lat="46.4779" lon="5.52091">
        <ele>497.6</ele>
        <time>2022-04-10T13:40:03Z</time>
      </trkpt>
      <trkpt lat="46.47785" lon="5.52089">
        <ele>497.8</ele>
        <time>2022-04-10T13:40:04Z</time>
      </trkpt>
      <trkpt lat="46.47761" lon="5.5208">
        <ele>499</ele>
        <time>2022-04-10T13:40:09Z</time>
      </trkpt>
      <trkpt lat="46.47738" lon="5.52076">
        <ele>500</ele>
        <time>2022-04-10T13:40:14Z</time>
      </trkpt>
      <trkpt lat="46.47716" lon="5.52073">
        <ele>501</ele>
        <time>2022-04-10T13:40:19Z</time>
      </trkpt>
      <trkpt lat="46.47711" lon="5.52072">
        <ele>501.2</ele>
        <time>2022-04-10T13:40:20Z</time>
      </trkpt>
      <trkpt lat="46.47695" lon="5.52065">
        <ele>501.8</ele>
        <time>2022-04-10T13:40:24Z</time>
      </trkpt>
      <trkpt lat="46.47692" lon="5.52062">
        <ele>502</ele>
        <time>2022-04-10T13:40:25Z</time>
      </trkpt>
      <trkpt lat="46.47685" lon="5.52055">
        <ele>502.2</ele>
        <time>2022-04-10T13:40:27Z</time>
      </trkpt>
      <trkpt lat="46.47674" lon="5.52045">
        <ele>502.6</ele>
        <time>2022-04-10T13:40:30Z</time>
      </trkpt>
      <trkpt lat="46.47656" lon="5.52035">
        <ele>503.4</ele>
        <time>2022-04-10T13:40:34Z</time>
      </trkpt>
      <trkpt lat="46.47648" lon="5.5203">
        <ele>504</ele>
        <time>2022-04-10T13:40:36Z</time>
      </trkpt>
      <trkpt lat="46.47644" lon="5.52028">
        <ele>504.4</ele>
        <time>2022-04-10T13:40:37Z</time>
      </trkpt>
      <trkpt lat="46.47626" lon="5.52023">
        <ele>505</ele>
        <time>2022-04-10T13:40:42Z</time>
      </trkpt>
      <trkpt lat="46.47614" lon="5.5202">
        <ele>505.4</ele>
        <time>2022-04-10T13:40:45Z</time>
      </trkpt>
      <trkpt lat="46.47603" lon="5.52017">
        <ele>506.2</ele>
        <time>2022-04-10T13:40:48Z</time>
      </trkpt>
      <trkpt lat="46.47595" lon="5.52015">
        <ele>506.6</ele>
        <time>2022-04-10T13:40:50Z</time>
      </trkpt>
      <trkpt lat="46.47579" lon="5.52014">
        <ele>507.4</ele>
        <time>2022-04-10T13:40:54Z</time>
      </trkpt>
      <trkpt lat="46.47575" lon="5.52013">
        <ele>507.6</ele>
        <time>2022-04-10T13:40:55Z</time>
      </trkpt>
      <trkpt lat="46.47552" lon="5.52013">
        <ele>508.4</ele>
        <time>2022-04-10T13:41:01Z</time>
      </trkpt>
      <trkpt lat="46.47533" lon="5.52016">
        <ele>509.2</ele>
        <time>2022-04-10T13:41:06Z</time>
      </trkpt>
      <trkpt lat="46.47524" lon="5.52017">
        <ele>509.6</ele>
        <time>2022-04-10T13:41:08Z</time>
      </trkpt>
      <trkpt lat="46.47505" lon="5.52017">
        <ele>510.2</ele>
        <time>2022-04-10T13:41:12Z</time>
      </trkpt>
      <trkpt lat="46.47492" lon="5.52022">
        <ele>510.6</ele>
        <time>2022-04-10T13:41:15Z</time>
      </trkpt>
      <trkpt lat="46.47483" lon="5.52027">
        <ele>511</ele>
        <time>2022-04-10T13:41:17Z</time>
      </trkpt>
      <trkpt lat="46.47479" lon="5.52028">
        <ele>511.4</ele>
        <time>2022-04-10T13:41:18Z</time>
      </trkpt>
      <trkpt lat="46.4747" lon="5.5203">
        <ele>511.8</ele>
        <time>2022-04-10T13:41:20Z</time>
      </trkpt>
      <trkpt lat="46.47466" lon="5.52031">
        <ele>511.8</ele>
        <time>2022-04-10T13:41:21Z</time>
      </trkpt>
      <trkpt lat="46.47462" lon="5.52033">
        <ele>512</ele>
        <time>2022-04-10T13:41:22Z</time>
      </trkpt>
      <trkpt lat="46.4745" lon="5.5204">
        <ele>512.6</ele>
        <time>2022-04-10T13:41:25Z</time>
      </trkpt>
      <trkpt lat="46.47443" lon="5.52046">
        <ele>512.8</ele>
        <time>2022-04-10T13:41:27Z</time>
      </trkpt>
      <trkpt lat="46.47439" lon="5.52049">
        <ele>513</ele>
        <time>2022-04-10T13:41:28Z</time>
      </trkpt>
      <trkpt lat="46.47428" lon="5.52059">
        <ele>513.6</ele>
        <time>2022-04-10T13:41:31Z</time>
      </trkpt>
      <trkpt lat="46.47424" lon="5.52063">
        <ele>514</ele>
        <time>2022-04-10T13:41:32Z</time>
      </trkpt>
      <trkpt lat="46.47421" lon="5.52066">
        <ele>514</ele>
        <time>2022-04-10T13:41:33Z</time>
      </trkpt>
      <trkpt lat="46.47413" lon="5.52074">
        <ele>514.4</ele>
        <time>2022-04-10T13:41:35Z</time>
      </trkpt>
      <trkpt lat="46.47399" lon="5.52086">
        <ele>515</ele>
        <time>2022-04-10T13:41:39Z</time>
      </trkpt>
      <trkpt lat="46.47392" lon="5.52093">
        <ele>515.2</ele>
        <time>2022-04-10T13:41:41Z</time>
      </trkpt>
      <trkpt lat="46.47378" lon="5.52098">
        <ele>515.8</ele>
        <time>2022-04-10T13:41:45Z</time>
      </trkpt>
      <trkpt lat="46.47374" lon="5.52099">
        <ele>516</ele>
        <time>2022-04-10T13:41:46Z</time>
      </trkpt>
      <trkpt lat="46.47371" lon="5.521">
        <ele>516.4</ele>
        <time>2022-04-10T13:41:47Z</time>
      </trkpt>
      <trkpt lat="46.47352" lon="5.52097">
        <ele>517</ele>
        <time>2022-04-10T13:41:52Z</time>
      </trkpt>
      <trkpt lat="46.47327" lon="5.52089">
        <ele>517.6</ele>
        <time>2022-04-10T13:41:57Z</time>
      </trkpt>
      <trkpt lat="46.47308" lon="5.52081">
        <ele>518.2</ele>
        <time>2022-04-10T13:42:01Z</time>
      </trkpt>
      <trkpt lat="46.47297" lon="5.52076">
        <ele>518.6</ele>
        <time>2022-04-10T13:42:03Z</time>
      </trkpt>
      <trkpt lat="46.47277" lon="5.52066">
        <ele>519.4</ele>
        <time>2022-04-10T13:42:07Z</time>
      </trkpt>
      <trkpt lat="46.47268" lon="5.52058">
        <ele>519.8</ele>
        <time>2022-04-10T13:42:09Z</time>
      </trkpt>
      <trkpt lat="46.47253" lon="5.52044">
        <ele>520.6</ele>
        <time>2022-04-10T13:42:13Z</time>
      </trkpt>
      <trkpt lat="46.47243" lon="5.52031">
        <ele>520.8</ele>
        <time>2022-04-10T13:42:16Z</time>
      </trkpt>
      <trkpt lat="46.47232" lon="5.52019">
        <ele>521.2</ele>
        <time>2022-04-10T13:42:19Z</time>
      </trkpt>
      <trkpt lat="46.47228" lon="5.52016">
        <ele>521.6</ele>
        <time>2022-04-10T13:42:20Z</time>
      </trkpt>
      <trkpt lat="46.47217" lon="5.52009">
        <ele>522</ele>
        <time>2022-04-10T13:42:23Z</time>
      </trkpt>
      <trkpt lat="46.47205" lon="5.52008">
        <ele>522.4</ele>
        <time>2022-04-10T13:42:26Z</time>
      </trkpt>
      <trkpt lat="46.47198" lon="5.52007">
        <ele>522.6</ele>
        <time>2022-04-10T13:42:28Z</time>
      </trkpt>
      <trkpt lat="46.47176" lon="5.52005">
        <ele>523.4</ele>
        <time>2022-04-10T13:42:34Z</time>
      </trkpt>
      <trkpt lat="46.47151" lon="5.51996">
        <ele>524.6</ele>
        <time>2022-04-10T13:42:41Z</time>
      </trkpt>
      <trkpt lat="46.47121" lon="5.51987">
        <ele>525.2</ele>
        <time>2022-04-10T13:42:47Z</time>
      </trkpt>
      <trkpt lat="46.47101" lon="5.51976">
        <ele>525.6</ele>
        <time>2022-04-10T13:42:52Z</time>
      </trkpt>
      <trkpt lat="46.47098" lon="5.51973">
        <ele>525.6</ele>
        <time>2022-04-10T13:42:53Z</time>
      </trkpt>
      <trkpt lat="46.47072" lon="5.5196">
        <ele>526.2</ele>
        <time>2022-04-10T13:42:58Z</time>
      </trkpt>
      <trkpt lat="46.47044" lon="5.51957">
        <ele>526.6</ele>
        <time>2022-04-10T13:43:03Z</time>
      </trkpt>
      <trkpt lat="46.47016" lon="5.51947">
        <ele>527</ele>
        <time>2022-04-10T13:43:09Z</time>
      </trkpt>
      <trkpt lat="46.47003" lon="5.5194">
        <ele>527.8</ele>
        <time>2022-04-10T13:43:12Z</time>
      </trkpt>
      <trkpt lat="46.46987" lon="5.51927">
        <ele>528.8</ele>
        <time>2022-04-10T13:43:17Z</time>
      </trkpt>
      <trkpt lat="46.46984" lon="5.51924">
        <ele>528.8</ele>
        <time>2022-04-10T13:43:18Z</time>
      </trkpt>
      <trkpt lat="46.46966" lon="5.519">
        <ele>530</ele>
        <time>2022-04-10T13:43:24Z</time>
      </trkpt>
      <trkpt lat="46.46963" lon="5.51895">
        <ele>530</ele>
        <time>2022-04-10T13:43:25Z</time>
      </trkpt>
      <trkpt lat="46.46942" lon="5.51881">
        <ele>530.8</ele>
        <time>2022-04-10T13:43:30Z</time>
      </trkpt>
      <trkpt lat="46.46938" lon="5.5188">
        <ele>531</ele>
        <time>2022-04-10T13:43:31Z</time>
      </trkpt>
      <trkpt lat="46.46933" lon="5.51881">
        <ele>531</ele>
        <time>2022-04-10T13:43:32Z</time>
      </trkpt>
      <trkpt lat="46.46921" lon="5.51884">
        <ele>531.4</ele>
        <time>2022-04-10T13:43:35Z</time>
      </trkpt>
      <trkpt lat="46.46918" lon="5.51886">
        <ele>531.8</ele>
        <time>2022-04-10T13:43:36Z</time>
      </trkpt>
      <trkpt lat="46.46911" lon="5.51891">
        <ele>532</ele>
        <time>2022-04-10T13:43:38Z</time>
      </trkpt>
      <trkpt lat="46.46898" lon="5.51898">
        <ele>532.6</ele>
        <time>2022-04-10T13:43:41Z</time>
      </trkpt>
      <trkpt lat="46.46893" lon="5.51899">
        <ele>533.2</ele>
        <time>2022-04-10T13:43:42Z</time>
      </trkpt>
      <trkpt lat="46.46867" lon="5.51909">
        <ele>533.8</ele>
        <time>2022-04-10T13:43:47Z</time>
      </trkpt>
      <trkpt lat="46.46858" lon="5.51915">
        <ele>534.2</ele>
        <time>2022-04-10T13:43:49Z</time>
      </trkpt>
      <trkpt lat="46.46841" lon="5.51928">
        <ele>535.2</ele>
        <time>2022-04-10T13:43:53Z</time>
      </trkpt>
      <trkpt lat="46.46836" lon="5.51932">
        <ele>535.4</ele>
        <time>2022-04-10T13:43:54Z</time>
      </trkpt>
      <trkpt lat="46.46829" lon="5.51931">
        <ele>535.6</ele>
        <time>2022-04-10T13:43:55Z</time>
      </trkpt>
      <trkpt lat="46.46808" lon="5.51927">
        <ele>536</ele>
        <time>2022-04-10T13:43:59Z</time>
      </trkpt>
      <trkpt lat="46.46799" lon="5.51927">
        <ele>536.4</ele>
        <time>2022-04-10T13:44:01Z</time>
      </trkpt>
      <trkpt lat="46.46791" lon="5.51926">
        <ele>536.8</ele>
        <time>2022-04-10T13:44:03Z</time>
      </trkpt>
      <trkpt lat="46.46774" lon="5.51927">
        <ele>537.6</ele>
        <time>2022-04-10T13:44:07Z</time>
      </trkpt>
      <trkpt lat="46.4677" lon="5.51927">
        <ele>537.8</ele>
        <time>2022-04-10T13:44:08Z</time>
      </trkpt>
      <trkpt lat="46.46756" lon="5.51924">
        <ele>538.2</ele>
        <time>2022-04-10T13:44:11Z</time>
      </trkpt>
      <trkpt lat="46.46748" lon="5.51918">
        <ele>538.2</ele>
        <time>2022-04-10T13:44:13Z</time>
      </trkpt>
      <trkpt lat="46.46739" lon="5.51911">
        <ele>538.6</ele>
        <time>2022-04-10T13:44:15Z</time>
      </trkpt>
      <trkpt lat="46.46734" lon="5.51907">
        <ele>538.6</ele>
        <time>2022-04-10T13:44:16Z</time>
      </trkpt>
      <trkpt lat="46.46716" lon="5.51895">
        <ele>539.2</ele>
        <time>2022-04-10T13:44:20Z</time>
      </trkpt>
      <trkpt lat="46.46702" lon="5.51893">
        <ele>540</ele>
        <time>2022-04-10T13:44:23Z</time>
      </trkpt>
      <trkpt lat="46.46691" lon="5.51895">
        <ele>540.4</ele>
        <time>2022-04-10T13:44:25Z</time>
      </trkpt>
      <trkpt lat="46.46681" lon="5.51901">
        <ele>540.8</ele>
        <time>2022-04-10T13:44:27Z</time>
      </trkpt>
      <trkpt lat="46.46675" lon="5.51909">
        <ele>541.2</ele>
        <time>2022-04-10T13:44:29Z</time>
      </trkpt>
      <trkpt lat="46.46671" lon="5.51914">
        <ele>541.4</ele>
        <time>2022-04-10T13:44:30Z</time>
      </trkpt>
      <trkpt lat="46.46659" lon="5.51938">
        <ele>542</ele>
        <time>2022-04-10T13:44:34Z</time>
      </trkpt>
      <trkpt lat="46.46657" lon="5.51944">
        <ele>542.2</ele>
        <time>2022-04-10T13:44:35Z</time>
      </trkpt>
      <trkpt lat="46.46652" lon="5.51953">
        <ele>542.4</ele>
        <time>2022-04-10T13:44:37Z</time>
      </trkpt>
      <trkpt lat="46.46646" lon="5.5196">
        <ele>543</ele>
        <time>2022-04-10T13:44:39Z</time>
      </trkpt>
      <trkpt lat="46.46642" lon="5.51963">
        <ele>543.2</ele>
        <time>2022-04-10T13:44:40Z</time>
      </trkpt>
      <trkpt lat="46.46626" lon="5.51975">
        <ele>544</ele>
        <time>2022-04-10T13:44:46Z</time>
      </trkpt>
      <trkpt lat="46.46623" lon="5.51974">
        <ele>544.4</ele>
        <time>2022-04-10T13:44:47Z</time>
      </trkpt>
      <trkpt lat="46.46607" lon="5.51969">
        <ele>545.2</ele>
        <time>2022-04-10T13:44:50Z</time>
      </trkpt>
      <trkpt lat="46.46602" lon="5.51965">
        <ele>545.4</ele>
        <time>2022-04-10T13:44:51Z</time>
      </trkpt>
      <trkpt lat="46.46598" lon="5.51963">
        <ele>545.4</ele>
        <time>2022-04-10T13:44:52Z</time>
      </trkpt>
      <trkpt lat="46.4659" lon="5.51958">
        <ele>545.8</ele>
        <time>2022-04-10T13:44:54Z</time>
      </trkpt>
      <trkpt lat="46.46585" lon="5.51955">
        <ele>546</ele>
        <time>2022-04-10T13:44:55Z</time>
      </trkpt>
      <trkpt lat="46.46576" lon="5.51952">
        <ele>546.4</ele>
        <time>2022-04-10T13:44:57Z</time>
      </trkpt>
      <trkpt lat="46.46571" lon="5.51952">
        <ele>546.6</ele>
        <time>2022-04-10T13:44:58Z</time>
      </trkpt>
      <trkpt lat="46.46564" lon="5.51953">
        <ele>546.6</ele>
        <time>2022-04-10T13:44:59Z</time>
      </trkpt>
      <trkpt lat="46.46553" lon="5.51959">
        <ele>547</ele>
        <time>2022-04-10T13:45:01Z</time>
      </trkpt>
      <trkpt lat="46.46539" lon="5.51967">
        <ele>547.6</ele>
        <time>2022-04-10T13:45:04Z</time>
      </trkpt>
      <trkpt lat="46.46531" lon="5.51971">
        <ele>548</ele>
        <time>2022-04-10T13:45:06Z</time>
      </trkpt>
      <trkpt lat="46.46514" lon="5.51974">
        <ele>548.8</ele>
        <time>2022-04-10T13:45:10Z</time>
      </trkpt>
      <trkpt lat="46.46507" lon="5.51975">
        <ele>549.2</ele>
        <time>2022-04-10T13:45:12Z</time>
      </trkpt>
      <trkpt lat="46.46489" lon="5.51979">
        <ele>550</ele>
        <time>2022-04-10T13:45:16Z</time>
      </trkpt>
      <trkpt lat="46.46477" lon="5.51983">
        <ele>550.4</ele>
        <time>2022-04-10T13:45:19Z</time>
      </trkpt>
      <trkpt lat="46.46461" lon="5.51989">
        <ele>551</ele>
        <time>2022-04-10T13:45:23Z</time>
      </trkpt>
      <trkpt lat="46.46447" lon="5.5199">
        <ele>551.4</ele>
        <time>2022-04-10T13:45:26Z</time>
      </trkpt>
      <trkpt lat="46.46425" lon="5.51982">
        <ele>552</ele>
        <time>2022-04-10T13:45:31Z</time>
      </trkpt>
      <trkpt lat="46.46421" lon="5.5198">
        <ele>552.2</ele>
        <time>2022-04-10T13:45:32Z</time>
      </trkpt>
      <trkpt lat="46.46417" lon="5.51979">
        <ele>552.4</ele>
        <time>2022-04-10T13:45:33Z</time>
      </trkpt>
      <trkpt lat="46.46407" lon="5.51981">
        <ele>552.6</ele>
        <time>2022-04-10T13:45:35Z</time>
      </trkpt>
      <trkpt lat="46.46402" lon="5.51983">
        <ele>552.8</ele>
        <time>2022-04-10T13:45:36Z</time>
      </trkpt>
      <trkpt lat="46.46398" lon="5.51986">
        <ele>553</ele>
        <time>2022-04-10T13:45:37Z</time>
      </trkpt>
      <trkpt lat="46.46394" lon="5.5199">
        <ele>553.2</ele>
        <time>2022-04-10T13:45:38Z</time>
      </trkpt>
      <trkpt lat="46.4639" lon="5.51997">
        <ele>553.4</ele>
        <time>2022-04-10T13:45:40Z</time>
      </trkpt>
      <trkpt lat="46.46383" lon="5.52007">
        <ele>554.6</ele>
        <time>2022-04-10T13:45:43Z</time>
      </trkpt>
      <trkpt lat="46.46374" lon="5.52023">
        <ele>555.2</ele>
        <time>2022-04-10T13:45:46Z</time>
      </trkpt>
      <trkpt lat="46.4636" lon="5.52041">
        <ele>555.4</ele>
        <time>2022-04-10T13:45:50Z</time>
      </trkpt>
      <trkpt lat="46.46349" lon="5.52061">
        <ele>555.8</ele>
        <time>2022-04-10T13:45:54Z</time>
      </trkpt>
      <trkpt lat="46.46342" lon="5.52076">
        <ele>556.6</ele>
        <time>2022-04-10T13:45:57Z</time>
      </trkpt>
      <trkpt lat="46.46336" lon="5.52095">
        <ele>557.2</ele>
        <time>2022-04-10T13:46:00Z</time>
      </trkpt>
      <trkpt lat="46.46327" lon="5.52109">
        <ele>557.6</ele>
        <time>2022-04-10T13:46:03Z</time>
      </trkpt>
      <trkpt lat="46.46321" lon="5.52107">
        <ele>558</ele>
        <time>2022-04-10T13:46:05Z</time>
      </trkpt>
      <trkpt lat="46.46307" lon="5.52107">
        <ele>558.8</ele>
        <time>2022-04-10T13:46:10Z</time>
      </trkpt>
      <trkpt lat="46.46305" lon="5.52107">
        <ele>559</ele>
        <time>2022-04-10T13:46:11Z</time>
      </trkpt>
      <trkpt lat="46.46287" lon="5.52101">
        <ele>559.8</ele>
        <time>2022-04-10T13:46:16Z</time>
      </trkpt>
      <trkpt lat="46.46266" lon="5.52094">
        <ele>561</ele>
        <time>2022-04-10T13:46:22Z</time>
      </trkpt>
      <trkpt lat="46.46262" lon="5.52095">
        <ele>561</ele>
        <time>2022-04-10T13:46:23Z</time>
      </trkpt>
      <trkpt lat="46.46248" lon="5.52097">
        <ele>562</ele>
        <time>2022-04-10T13:46:27Z</time>
      </trkpt>
      <trkpt lat="46.46241" lon="5.52099">
        <ele>562.2</ele>
        <time>2022-04-10T13:46:29Z</time>
      </trkpt>
      <trkpt lat="46.46212" lon="5.52099">
        <ele>563</ele>
        <time>2022-04-10T13:46:35Z</time>
      </trkpt>
      <trkpt lat="46.46208" lon="5.52097">
        <ele>563.2</ele>
        <time>2022-04-10T13:46:36Z</time>
      </trkpt>
      <trkpt lat="46.46183" lon="5.52084">
        <ele>564.2</ele>
        <time>2022-04-10T13:46:42Z</time>
      </trkpt>
      <trkpt lat="46.46179" lon="5.52081">
        <ele>564.2</ele>
        <time>2022-04-10T13:46:43Z</time>
      </trkpt>
      <trkpt lat="46.46157" lon="5.52065">
        <ele>565</ele>
        <time>2022-04-10T13:46:49Z</time>
      </trkpt>
      <trkpt lat="46.4615" lon="5.52061">
        <ele>565.4</ele>
        <time>2022-04-10T13:46:51Z</time>
      </trkpt>
      <trkpt lat="46.46133" lon="5.52053">
        <ele>566.2</ele>
        <time>2022-04-10T13:46:56Z</time>
      </trkpt>
      <trkpt lat="46.46129" lon="5.52053">
        <ele>566.6</ele>
        <time>2022-04-10T13:46:57Z</time>
      </trkpt>
      <trkpt lat="46.46109" lon="5.52048">
        <ele>567.6</ele>
        <time>2022-04-10T13:47:03Z</time>
      </trkpt>
      <trkpt lat="46.46089" lon="5.5204">
        <ele>568.8</ele>
        <time>2022-04-10T13:47:08Z</time>
      </trkpt>
      <trkpt lat="46.46079" lon="5.52034">
        <ele>569.2</ele>
        <time>2022-04-10T13:47:11Z</time>
      </trkpt>
      <trkpt lat="46.46065" lon="5.52023">
        <ele>570</ele>
        <time>2022-04-10T13:47:15Z</time>
      </trkpt>
      <trkpt lat="46.4605" lon="5.52015">
        <ele>570.4</ele>
        <time>2022-04-10T13:47:19Z</time>
      </trkpt>
      <trkpt lat="46.46035" lon="5.52012">
        <ele>570.8</ele>
        <time>2022-04-10T13:47:23Z</time>
      </trkpt>
      <trkpt lat="46.46032" lon="5.5201">
        <ele>571.2</ele>
        <time>2022-04-10T13:47:24Z</time>
      </trkpt>
      <trkpt lat="46.46006" lon="5.52006">
        <ele>571.8</ele>
        <time>2022-04-10T13:47:29Z</time>
      </trkpt>
      <trkpt lat="46.46002" lon="5.52004">
        <ele>572</ele>
        <time>2022-04-10T13:47:30Z</time>
      </trkpt>
      <trkpt lat="46.45985" lon="5.51991">
        <ele>573</ele>
        <time>2022-04-10T13:47:35Z</time>
      </trkpt>
      <trkpt lat="46.45963" lon="5.51979">
        <ele>574.2</ele>
        <time>2022-04-10T13:47:40Z</time>
      </trkpt>
      <trkpt lat="46.45959" lon="5.51976">
        <ele>574.6</ele>
        <time>2022-04-10T13:47:41Z</time>
      </trkpt>
      <trkpt lat="46.45949" lon="5.51968">
        <ele>575.4</ele>
        <time>2022-04-10T13:47:44Z</time>
      </trkpt>
      <trkpt lat="46.45941" lon="5.51963">
        <ele>575.8</ele>
        <time>2022-04-10T13:47:46Z</time>
      </trkpt>
      <trkpt lat="46.4593" lon="5.51951">
        <ele>576.6</ele>
        <time>2022-04-10T13:47:50Z</time>
      </trkpt>
      <trkpt lat="46.45924" lon="5.51945">
        <ele>577</ele>
        <time>2022-04-10T13:47:52Z</time>
      </trkpt>
      <trkpt lat="46.45914" lon="5.51935">
        <ele>577.8</ele>
        <time>2022-04-10T13:47:56Z</time>
      </trkpt>
      <trkpt lat="46.45907" lon="5.5193">
        <ele>578.2</ele>
        <time>2022-04-10T13:47:58Z</time>
      </trkpt>
      <trkpt lat="46.45896" lon="5.51924">
        <ele>579</ele>
        <time>2022-04-10T13:48:01Z</time>
      </trkpt>
      <trkpt lat="46.45872" lon="5.51908">
        <ele>579.8</ele>
        <time>2022-04-10T13:48:07Z</time>
      </trkpt>
      <trkpt lat="46.45868" lon="5.51905">
        <ele>580.2</ele>
        <time>2022-04-10T13:48:08Z</time>
      </trkpt>
      <trkpt lat="46.45858" lon="5.51895">
        <ele>580.4</ele>
        <time>2022-04-10T13:48:11Z</time>
      </trkpt>
      <trkpt lat="46.45851" lon="5.51888">
        <ele>580.4</ele>
        <time>2022-04-10T13:48:13Z</time>
      </trkpt>
      <trkpt lat="46.45844" lon="5.51883">
        <ele>580.8</ele>
        <time>2022-04-10T13:48:15Z</time>
      </trkpt>
      <trkpt lat="46.45837" lon="5.5188">
        <ele>581.4</ele>
        <time>2022-04-10T13:48:17Z</time>
      </trkpt>
      <trkpt lat="46.45833" lon="5.51879">
        <ele>581.4</ele>
        <time>2022-04-10T13:48:18Z</time>
      </trkpt>
      <trkpt lat="46.4581" lon="5.51867">
        <ele>582.6</ele>
        <time>2022-04-10T13:48:24Z</time>
      </trkpt>
      <trkpt lat="46.45799" lon="5.51863">
        <ele>583.6</ele>
        <time>2022-04-10T13:48:27Z</time>
      </trkpt>
      <trkpt lat="46.45788" lon="5.51857">
        <ele>584.4</ele>
        <time>2022-04-10T13:48:30Z</time>
      </trkpt>
      <trkpt lat="46.45776" lon="5.51851">
        <ele>585.2</ele>
        <time>2022-04-10T13:48:33Z</time>
      </trkpt>
      <trkpt lat="46.45757" lon="5.51843">
        <ele>586.2</ele>
        <time>2022-04-10T13:48:38Z</time>
      </trkpt>
      <trkpt lat="46.45736" lon="5.51831">
        <ele>587.2</ele>
        <time>2022-04-10T13:48:44Z</time>
      </trkpt>
      <trkpt lat="46.45726" lon="5.51824">
        <ele>587.6</ele>
        <time>2022-04-10T13:48:47Z</time>
      </trkpt>
      <trkpt lat="46.45713" lon="5.51814">
        <ele>588.2</ele>
        <time>2022-04-10T13:48:51Z</time>
      </trkpt>
      <trkpt lat="46.45697" lon="5.51801">
        <ele>589</ele>
        <time>2022-04-10T13:48:56Z</time>
      </trkpt>
      <trkpt lat="46.4569" lon="5.51796">
        <ele>589.4</ele>
        <time>2022-04-10T13:48:58Z</time>
      </trkpt>
      <trkpt lat="46.45669" lon="5.51782">
        <ele>590.4</ele>
        <time>2022-04-10T13:49:04Z</time>
      </trkpt>
      <trkpt lat="46.45666" lon="5.5178">
        <ele>590.6</ele>
        <time>2022-04-10T13:49:05Z</time>
      </trkpt>
      <trkpt lat="46.45648" lon="5.51766">
        <ele>591.4</ele>
        <time>2022-04-10T13:49:11Z</time>
      </trkpt>
      <trkpt lat="46.45639" lon="5.51758">
        <ele>592.2</ele>
        <time>2022-04-10T13:49:14Z</time>
      </trkpt>
      <trkpt lat="46.45634" lon="5.51752">
        <ele>592.6</ele>
        <time>2022-04-10T13:49:16Z</time>
      </trkpt>
      <trkpt lat="46.45618" lon="5.5174">
        <ele>593.2</ele>
        <time>2022-04-10T13:49:21Z</time>
      </trkpt>
      <trkpt lat="46.45609" lon="5.51733">
        <ele>593.6</ele>
        <time>2022-04-10T13:49:24Z</time>
      </trkpt>
      <trkpt lat="46.45596" lon="5.51724">
        <ele>594.8</ele>
        <time>2022-04-10T13:49:28Z</time>
      </trkpt>
      <trkpt lat="46.45588" lon="5.5172">
        <ele>595.4</ele>
        <time>2022-04-10T13:49:30Z</time>
      </trkpt>
      <trkpt lat="46.45578" lon="5.51712">
        <ele>595.8</ele>
        <time>2022-04-10T13:49:33Z</time>
      </trkpt>
      <trkpt lat="46.45557" lon="5.51699">
        <ele>596.6</ele>
        <time>2022-04-10T13:49:39Z</time>
      </trkpt>
      <trkpt lat="46.45554" lon="5.51697">
        <ele>596.8</ele>
        <time>2022-04-10T13:49:40Z</time>
      </trkpt>
      <trkpt lat="46.45539" lon="5.51685">
        <ele>598</ele>
        <time>2022-04-10T13:49:45Z</time>
      </trkpt>
      <trkpt lat="46.45533" lon="5.5168">
        <ele>598.6</ele>
        <time>2022-04-10T13:49:47Z</time>
      </trkpt>
      <trkpt lat="46.45524" lon="5.51673">
        <ele>599.2</ele>
        <time>2022-04-10T13:49:50Z</time>
      </trkpt>
      <trkpt lat="46.45505" lon="5.51659">
        <ele>600.2</ele>
        <time>2022-04-10T13:49:56Z</time>
      </trkpt>
      <trkpt lat="46.45493" lon="5.51648">
        <ele>601.2</ele>
        <time>2022-04-10T13:50:01Z</time>
      </trkpt>
      <trkpt lat="46.45491" lon="5.51648">
        <ele>601.4</ele>
        <time>2022-04-10T13:50:02Z</time>
      </trkpt>
      <trkpt lat="46.4549" lon="5.51648">
        <ele>601.6</ele>
        <time>2022-04-10T13:50:03Z</time>
      </trkpt>
      <trkpt lat="46.45487" lon="5.5165">
        <ele>602</ele>
        <time>2022-04-10T13:50:05Z</time>
      </trkpt>
      <trkpt lat="46.45486" lon="5.5165">
        <ele>602.6</ele>
        <time>2022-04-10T13:50:09Z</time>
      </trkpt>
      <trkpt lat="46.45485" lon="5.5165">
        <ele>602.8</ele>
        <time>2022-04-10T13:50:11Z</time>
      </trkpt>
      <trkpt lat="46.45485" lon="5.5165">
        <ele>602.8</ele>
        <time>2022-04-10T13:50:13Z</time>
      </trkpt>
      <trkpt lat="46.45486" lon="5.51637">
        <ele>603.2</ele>
        <time>2022-04-10T13:52:28Z</time>
      </trkpt>
      <trkpt lat="46.45484" lon="5.51635">
        <ele>603.2</ele>
        <time>2022-04-10T13:52:29Z</time>
      </trkpt>
      <trkpt lat="46.45476" lon="5.51619">
        <ele>603.2</ele>
        <time>2022-04-10T13:52:33Z</time>
      </trkpt>
      <trkpt lat="46.45463" lon="5.51593">
        <ele>603.2</ele>
        <time>2022-04-10T13:52:38Z</time>
      </trkpt>
      <trkpt lat="46.4546" lon="5.51587">
        <ele>603.2</ele>
        <time>2022-04-10T13:52:39Z</time>
      </trkpt>
      <trkpt lat="46.45446" lon="5.51559">
        <ele>603.6</ele>
        <time>2022-04-10T13:52:43Z</time>
      </trkpt>
      <trkpt lat="46.45425" lon="5.51536">
        <ele>603.6</ele>
        <time>2022-04-10T13:52:47Z</time>
      </trkpt>
      <trkpt lat="46.45373" lon="5.51499">
        <ele>602.6</ele>
        <time>2022-04-10T13:52:55Z</time>
      </trkpt>
      <trkpt lat="46.45367" lon="5.51493">
        <ele>602.4</ele>
        <time>2022-04-10T13:52:56Z</time>
      </trkpt>
      <trkpt lat="46.45356" lon="5.5148">
        <ele>602.2</ele>
        <time>2022-04-10T13:52:58Z</time>
      </trkpt>
      <trkpt lat="46.45352" lon="5.51473">
        <ele>602.2</ele>
        <time>2022-04-10T13:52:59Z</time>
      </trkpt>
      <trkpt lat="46.45332" lon="5.51445">
        <ele>602</ele>
        <time>2022-04-10T13:53:04Z</time>
      </trkpt>
      <trkpt lat="46.45313" lon="5.51425">
        <ele>603.4</ele>
        <time>2022-04-10T13:53:09Z</time>
      </trkpt>
      <trkpt lat="46.45309" lon="5.51419">
        <ele>603.4</ele>
        <time>2022-04-10T13:53:10Z</time>
      </trkpt>
      <trkpt lat="46.45306" lon="5.51414">
        <ele>604</ele>
        <time>2022-04-10T13:53:11Z</time>
      </trkpt>
      <trkpt lat="46.45303" lon="5.51407">
        <ele>604.6</ele>
        <time>2022-04-10T13:53:12Z</time>
      </trkpt>
      <trkpt lat="46.453" lon="5.51401">
        <ele>604.6</ele>
        <time>2022-04-10T13:53:13Z</time>
      </trkpt>
      <trkpt lat="46.45298" lon="5.51394">
        <ele>605</ele>
        <time>2022-04-10T13:53:14Z</time>
      </trkpt>
      <trkpt lat="46.45296" lon="5.51366">
        <ele>605.4</ele>
        <time>2022-04-10T13:53:18Z</time>
      </trkpt>
      <trkpt lat="46.45296" lon="5.51359">
        <ele>605.6</ele>
        <time>2022-04-10T13:53:19Z</time>
      </trkpt>
      <trkpt lat="46.45297" lon="5.51353">
        <ele>605.6</ele>
        <time>2022-04-10T13:53:20Z</time>
      </trkpt>
      <trkpt lat="46.453" lon="5.51318">
        <ele>605.8</ele>
        <time>2022-04-10T13:53:26Z</time>
      </trkpt>
      <trkpt lat="46.45299" lon="5.51312">
        <ele>605.8</ele>
        <time>2022-04-10T13:53:27Z</time>
      </trkpt>
      <trkpt lat="46.45296" lon="5.51306">
        <ele>605.8</ele>
        <time>2022-04-10T13:53:28Z</time>
      </trkpt>
      <trkpt lat="46.45287" lon="5.51299">
        <ele>605.8</ele>
        <time>2022-04-10T13:53:30Z</time>
      </trkpt>
      <trkpt lat="46.45271" lon="5.51291">
        <ele>605.4</ele>
        <time>2022-04-10T13:53:33Z</time>
      </trkpt>
      <trkpt lat="46.45266" lon="5.51286">
        <ele>605.2</ele>
        <time>2022-04-10T13:53:34Z</time>
      </trkpt>
      <trkpt lat="46.45264" lon="5.51279">
        <ele>605</ele>
        <time>2022-04-10T13:53:35Z</time>
      </trkpt>
      <trkpt lat="46.45264" lon="5.51262">
        <ele>604.8</ele>
        <time>2022-04-10T13:53:37Z</time>
      </trkpt>
      <trkpt lat="46.45267" lon="5.51253">
        <ele>604.6</ele>
        <time>2022-04-10T13:53:38Z</time>
      </trkpt>
      <trkpt lat="46.45272" lon="5.51245">
        <ele>604.4</ele>
        <time>2022-04-10T13:53:39Z</time>
      </trkpt>
      <trkpt lat="46.45278" lon="5.51237">
        <ele>604.4</ele>
        <time>2022-04-10T13:53:40Z</time>
      </trkpt>
      <trkpt lat="46.45293" lon="5.51209">
        <ele>603.4</ele>
        <time>2022-04-10T13:53:43Z</time>
      </trkpt>
      <trkpt lat="46.45303" lon="5.51188">
        <ele>602.6</ele>
        <time>2022-04-10T13:53:45Z</time>
      </trkpt>
      <trkpt lat="46.45305" lon="5.51176">
        <ele>601.8</ele>
        <time>2022-04-10T13:53:46Z</time>
      </trkpt>
      <trkpt lat="46.45307" lon="5.51163">
        <ele>601.4</ele>
        <time>2022-04-10T13:53:47Z</time>
      </trkpt>
      <trkpt lat="46.45307" lon="5.51149">
        <ele>601</ele>
        <time>2022-04-10T13:53:48Z</time>
      </trkpt>
      <trkpt lat="46.45307" lon="5.51136">
        <ele>600.8</ele>
        <time>2022-04-10T13:53:49Z</time>
      </trkpt>
      <trkpt lat="46.45307" lon="5.51108">
        <ele>599.4</ele>
        <time>2022-04-10T13:53:51Z</time>
      </trkpt>
      <trkpt lat="46.45306" lon="5.51062">
        <ele>598</ele>
        <time>2022-04-10T13:53:54Z</time>
      </trkpt>
      <trkpt lat="46.45313" lon="5.51034">
        <ele>597</ele>
        <time>2022-04-10T13:53:56Z</time>
      </trkpt>
      <trkpt lat="46.45319" lon="5.51022">
        <ele>596</ele>
        <time>2022-04-10T13:53:57Z</time>
      </trkpt>
      <trkpt lat="46.45327" lon="5.51012">
        <ele>595.6</ele>
        <time>2022-04-10T13:53:58Z</time>
      </trkpt>
      <trkpt lat="46.45336" lon="5.51005">
        <ele>594.4</ele>
        <time>2022-04-10T13:53:59Z</time>
      </trkpt>
      <trkpt lat="46.45344" lon="5.50999">
        <ele>593.2</ele>
        <time>2022-04-10T13:54:00Z</time>
      </trkpt>
      <trkpt lat="46.45351" lon="5.50992">
        <ele>593</ele>
        <time>2022-04-10T13:54:01Z</time>
      </trkpt>
      <trkpt lat="46.45356" lon="5.50983">
        <ele>592.2</ele>
        <time>2022-04-10T13:54:02Z</time>
      </trkpt>
      <trkpt lat="46.45357" lon="5.50973">
        <ele>591.8</ele>
        <time>2022-04-10T13:54:03Z</time>
      </trkpt>
      <trkpt lat="46.45351" lon="5.50963">
        <ele>590.4</ele>
        <time>2022-04-10T13:54:04Z</time>
      </trkpt>
      <trkpt lat="46.45334" lon="5.50952">
        <ele>589.2</ele>
        <time>2022-04-10T13:54:06Z</time>
      </trkpt>
      <trkpt lat="46.45325" lon="5.50948">
        <ele>588.2</ele>
        <time>2022-04-10T13:54:07Z</time>
      </trkpt>
      <trkpt lat="46.45308" lon="5.50942">
        <ele>587</ele>
        <time>2022-04-10T13:54:09Z</time>
      </trkpt>
      <trkpt lat="46.45288" lon="5.50941">
        <ele>586.2</ele>
        <time>2022-04-10T13:54:11Z</time>
      </trkpt>
      <trkpt lat="46.45269" lon="5.50947">
        <ele>585.6</ele>
        <time>2022-04-10T13:54:13Z</time>
      </trkpt>
      <trkpt lat="46.45248" lon="5.50953">
        <ele>585</ele>
        <time>2022-04-10T13:54:15Z</time>
      </trkpt>
      <trkpt lat="46.45238" lon="5.50954">
        <ele>584.2</ele>
        <time>2022-04-10T13:54:16Z</time>
      </trkpt>
      <trkpt lat="46.45215" lon="5.5095">
        <ele>583</ele>
        <time>2022-04-10T13:54:18Z</time>
      </trkpt>
      <trkpt lat="46.45192" lon="5.50944">
        <ele>582</ele>
        <time>2022-04-10T13:54:20Z</time>
      </trkpt>
      <trkpt lat="46.45169" lon="5.50938">
        <ele>580.8</ele>
        <time>2022-04-10T13:54:22Z</time>
      </trkpt>
      <trkpt lat="46.45158" lon="5.50932">
        <ele>579.4</ele>
        <time>2022-04-10T13:54:23Z</time>
      </trkpt>
      <trkpt lat="46.45136" lon="5.50916">
        <ele>577.8</ele>
        <time>2022-04-10T13:54:25Z</time>
      </trkpt>
      <trkpt lat="46.45126" lon="5.50906">
        <ele>577.2</ele>
        <time>2022-04-10T13:54:26Z</time>
      </trkpt>
      <trkpt lat="46.45116" lon="5.50894">
        <ele>576</ele>
        <time>2022-04-10T13:54:27Z</time>
      </trkpt>
      <trkpt lat="46.45098" lon="5.50869">
        <ele>574.6</ele>
        <time>2022-04-10T13:54:29Z</time>
      </trkpt>
      <trkpt lat="46.4509" lon="5.50855">
        <ele>573.8</ele>
        <time>2022-04-10T13:54:30Z</time>
      </trkpt>
      <trkpt lat="46.45082" lon="5.50841">
        <ele>572.6</ele>
        <time>2022-04-10T13:54:31Z</time>
      </trkpt>
      <trkpt lat="46.45065" lon="5.50812">
        <ele>571</ele>
        <time>2022-04-10T13:54:33Z</time>
      </trkpt>
      <trkpt lat="46.45058" lon="5.50796">
        <ele>569.6</ele>
        <time>2022-04-10T13:54:34Z</time>
      </trkpt>
      <trkpt lat="46.45051" lon="5.50779">
        <ele>568.8</ele>
        <time>2022-04-10T13:54:35Z</time>
      </trkpt>
      <trkpt lat="46.45045" lon="5.50761">
        <ele>567.4</ele>
        <time>2022-04-10T13:54:36Z</time>
      </trkpt>
      <trkpt lat="46.45035" lon="5.50726">
        <ele>565.4</ele>
        <time>2022-04-10T13:54:38Z</time>
      </trkpt>
      <trkpt lat="46.45029" lon="5.5071">
        <ele>564.2</ele>
        <time>2022-04-10T13:54:39Z</time>
      </trkpt>
      <trkpt lat="46.45021" lon="5.50696">
        <ele>563.6</ele>
        <time>2022-04-10T13:54:40Z</time>
      </trkpt>
      <trkpt lat="46.45011" lon="5.50684">
        <ele>562.4</ele>
        <time>2022-04-10T13:54:41Z</time>
      </trkpt>
      <trkpt lat="46.45001" lon="5.50673">
        <ele>561.4</ele>
        <time>2022-04-10T13:54:42Z</time>
      </trkpt>
      <trkpt lat="46.44991" lon="5.50662">
        <ele>560.2</ele>
        <time>2022-04-10T13:54:43Z</time>
      </trkpt>
      <trkpt lat="46.4498" lon="5.50652">
        <ele>559.6</ele>
        <time>2022-04-10T13:54:44Z</time>
      </trkpt>
      <trkpt lat="46.44969" lon="5.50643">
        <ele>558.4</ele>
        <time>2022-04-10T13:54:45Z</time>
      </trkpt>
      <trkpt lat="46.44949" lon="5.50626">
        <ele>556.2</ele>
        <time>2022-04-10T13:54:47Z</time>
      </trkpt>
      <trkpt lat="46.44938" lon="5.50623">
        <ele>555</ele>
        <time>2022-04-10T13:54:48Z</time>
      </trkpt>
      <trkpt lat="46.44926" lon="5.50623">
        <ele>554.4</ele>
        <time>2022-04-10T13:54:49Z</time>
      </trkpt>
      <trkpt lat="46.44915" lon="5.50626">
        <ele>553</ele>
        <time>2022-04-10T13:54:50Z</time>
      </trkpt>
      <trkpt lat="46.44904" lon="5.50631">
        <ele>552.2</ele>
        <time>2022-04-10T13:54:51Z</time>
      </trkpt>
      <trkpt lat="46.44891" lon="5.50635">
        <ele>550.6</ele>
        <time>2022-04-10T13:54:52Z</time>
      </trkpt>
      <trkpt lat="46.44879" lon="5.50633">
        <ele>550</ele>
        <time>2022-04-10T13:54:53Z</time>
      </trkpt>
      <trkpt lat="46.44867" lon="5.50627">
        <ele>548.8</ele>
        <time>2022-04-10T13:54:54Z</time>
      </trkpt>
      <trkpt lat="46.44856" lon="5.5062">
        <ele>547.6</ele>
        <time>2022-04-10T13:54:55Z</time>
      </trkpt>
      <trkpt lat="46.44832" lon="5.50603">
        <ele>545.6</ele>
        <time>2022-04-10T13:54:57Z</time>
      </trkpt>
      <trkpt lat="46.4482" lon="5.50595">
        <ele>545</ele>
        <time>2022-04-10T13:54:58Z</time>
      </trkpt>
      <trkpt lat="46.44808" lon="5.50587">
        <ele>543.4</ele>
        <time>2022-04-10T13:54:59Z</time>
      </trkpt>
      <trkpt lat="46.44783" lon="5.50574">
        <ele>540.8</ele>
        <time>2022-04-10T13:55:01Z</time>
      </trkpt>
      <trkpt lat="46.4477" lon="5.50569">
        <ele>540.2</ele>
        <time>2022-04-10T13:55:02Z</time>
      </trkpt>
      <trkpt lat="46.44757" lon="5.50565">
        <ele>538.4</ele>
        <time>2022-04-10T13:55:03Z</time>
      </trkpt>
      <trkpt lat="46.44744" lon="5.50561">
        <ele>537</ele>
        <time>2022-04-10T13:55:04Z</time>
      </trkpt>
      <trkpt lat="46.44723" lon="5.50554">
        <ele>534.6</ele>
        <time>2022-04-10T13:55:06Z</time>
      </trkpt>
      <trkpt lat="46.44713" lon="5.5055">
        <ele>534</ele>
        <time>2022-04-10T13:55:07Z</time>
      </trkpt>
      <trkpt lat="46.44705" lon="5.50546">
        <ele>533</ele>
        <time>2022-04-10T13:55:08Z</time>
      </trkpt>
      <trkpt lat="46.44691" lon="5.50541">
        <ele>530.8</ele>
        <time>2022-04-10T13:55:10Z</time>
      </trkpt>
      <trkpt lat="46.44685" lon="5.50543">
        <ele>529.4</ele>
        <time>2022-04-10T13:55:11Z</time>
      </trkpt>
      <trkpt lat="46.4468" lon="5.50547">
        <ele>528.8</ele>
        <time>2022-04-10T13:55:12Z</time>
      </trkpt>
      <trkpt lat="46.44679" lon="5.50556">
        <ele>527.4</ele>
        <time>2022-04-10T13:55:13Z</time>
      </trkpt>
      <trkpt lat="46.44688" lon="5.50575">
        <ele>525.4</ele>
        <time>2022-04-10T13:55:15Z</time>
      </trkpt>
      <trkpt lat="46.44702" lon="5.5059">
        <ele>523.6</ele>
        <time>2022-04-10T13:55:17Z</time>
      </trkpt>
      <trkpt lat="46.44717" lon="5.50607">
        <ele>522</ele>
        <time>2022-04-10T13:55:19Z</time>
      </trkpt>
      <trkpt lat="46.4474" lon="5.50631">
        <ele>520.6</ele>
        <time>2022-04-10T13:55:22Z</time>
      </trkpt>
      <trkpt lat="46.44765" lon="5.50656">
        <ele>519.2</ele>
        <time>2022-04-10T13:55:25Z</time>
      </trkpt>
      <trkpt lat="46.44774" lon="5.50664">
        <ele>518.6</ele>
        <time>2022-04-10T13:55:26Z</time>
      </trkpt>
      <trkpt lat="46.44781" lon="5.5067">
        <ele>518</ele>
        <time>2022-04-10T13:55:27Z</time>
      </trkpt>
      <trkpt lat="46.44795" lon="5.50678">
        <ele>516.8</ele>
        <time>2022-04-10T13:55:29Z</time>
      </trkpt>
      <trkpt lat="46.448" lon="5.50683">
        <ele>516.6</ele>
        <time>2022-04-10T13:55:30Z</time>
      </trkpt>
      <trkpt lat="46.44803" lon="5.5069">
        <ele>516</ele>
        <time>2022-04-10T13:55:31Z</time>
      </trkpt>
      <trkpt lat="46.44802" lon="5.50697">
        <ele>515.6</ele>
        <time>2022-04-10T13:55:32Z</time>
      </trkpt>
      <trkpt lat="46.44796" lon="5.50705">
        <ele>515</ele>
        <time>2022-04-10T13:55:33Z</time>
      </trkpt>
      <trkpt lat="46.4479" lon="5.50705">
        <ele>514.8</ele>
        <time>2022-04-10T13:55:34Z</time>
      </trkpt>
      <trkpt lat="46.44785" lon="5.507">
        <ele>514.2</ele>
        <time>2022-04-10T13:55:35Z</time>
      </trkpt>
      <trkpt lat="46.4477" lon="5.50687">
        <ele>513.2</ele>
        <time>2022-04-10T13:55:37Z</time>
      </trkpt>
      <trkpt lat="46.44761" lon="5.50681">
        <ele>512.4</ele>
        <time>2022-04-10T13:55:38Z</time>
      </trkpt>
      <trkpt lat="46.44741" lon="5.50671">
        <ele>510.6</ele>
        <time>2022-04-10T13:55:40Z</time>
      </trkpt>
      <trkpt lat="46.44718" lon="5.5066">
        <ele>509.2</ele>
        <time>2022-04-10T13:55:42Z</time>
      </trkpt>
      <trkpt lat="46.44694" lon="5.50648">
        <ele>508</ele>
        <time>2022-04-10T13:55:44Z</time>
      </trkpt>
      <trkpt lat="46.44671" lon="5.50635">
        <ele>506.8</ele>
        <time>2022-04-10T13:55:46Z</time>
      </trkpt>
      <trkpt lat="46.4466" lon="5.50627">
        <ele>505.4</ele>
        <time>2022-04-10T13:55:47Z</time>
      </trkpt>
      <trkpt lat="46.44637" lon="5.50612">
        <ele>504</ele>
        <time>2022-04-10T13:55:49Z</time>
      </trkpt>
      <trkpt lat="46.44612" lon="5.50597">
        <ele>502.4</ele>
        <time>2022-04-10T13:55:51Z</time>
      </trkpt>
      <trkpt lat="46.44598" lon="5.50589">
        <ele>501.2</ele>
        <time>2022-04-10T13:55:52Z</time>
      </trkpt>
      <trkpt lat="46.44584" lon="5.50582">
        <ele>500.4</ele>
        <time>2022-04-10T13:55:53Z</time>
      </trkpt>
      <trkpt lat="46.44571" lon="5.50575">
        <ele>498.8</ele>
        <time>2022-04-10T13:55:54Z</time>
      </trkpt>
      <trkpt lat="46.44559" lon="5.50569">
        <ele>497.8</ele>
        <time>2022-04-10T13:55:55Z</time>
      </trkpt>
      <trkpt lat="46.44546" lon="5.50561">
        <ele>496.2</ele>
        <time>2022-04-10T13:55:56Z</time>
      </trkpt>
      <trkpt lat="46.44522" lon="5.50543">
        <ele>493.4</ele>
        <time>2022-04-10T13:55:58Z</time>
      </trkpt>
      <trkpt lat="46.44512" lon="5.50533">
        <ele>491.2</ele>
        <time>2022-04-10T13:55:59Z</time>
      </trkpt>
      <trkpt lat="46.44503" lon="5.50521">
        <ele>490.6</ele>
        <time>2022-04-10T13:56:00Z</time>
      </trkpt>
      <trkpt lat="46.44495" lon="5.50507">
        <ele>489.2</ele>
        <time>2022-04-10T13:56:01Z</time>
      </trkpt>
      <trkpt lat="46.4449" lon="5.5049">
        <ele>488.4</ele>
        <time>2022-04-10T13:56:02Z</time>
      </trkpt>
      <trkpt lat="46.44486" lon="5.50472">
        <ele>487</ele>
        <time>2022-04-10T13:56:03Z</time>
      </trkpt>
      <trkpt lat="46.4448" lon="5.50437">
        <ele>484</ele>
        <time>2022-04-10T13:56:05Z</time>
      </trkpt>
      <trkpt lat="46.44475" lon="5.50421">
        <ele>482.8</ele>
        <time>2022-04-10T13:56:06Z</time>
      </trkpt>
      <trkpt lat="46.44468" lon="5.50405">
        <ele>481</ele>
        <time>2022-04-10T13:56:07Z</time>
      </trkpt>
      <trkpt lat="46.4446" lon="5.5039">
        <ele>479.2</ele>
        <time>2022-04-10T13:56:08Z</time>
      </trkpt>
      <trkpt lat="46.44442" lon="5.50361">
        <ele>477</ele>
        <time>2022-04-10T13:56:10Z</time>
      </trkpt>
      <trkpt lat="46.44433" lon="5.50349">
        <ele>476.2</ele>
        <time>2022-04-10T13:56:11Z</time>
      </trkpt>
      <trkpt lat="46.44425" lon="5.50337">
        <ele>474.4</ele>
        <time>2022-04-10T13:56:12Z</time>
      </trkpt>
      <trkpt lat="46.44419" lon="5.50325">
        <ele>473.8</ele>
        <time>2022-04-10T13:56:13Z</time>
      </trkpt>
      <trkpt lat="46.44414" lon="5.50312">
        <ele>471.4</ele>
        <time>2022-04-10T13:56:14Z</time>
      </trkpt>
      <trkpt lat="46.44412" lon="5.50298">
        <ele>469.4</ele>
        <time>2022-04-10T13:56:15Z</time>
      </trkpt>
      <trkpt lat="46.44412" lon="5.50282">
        <ele>468.8</ele>
        <time>2022-04-10T13:56:16Z</time>
      </trkpt>
      <trkpt lat="46.44415" lon="5.50266">
        <ele>466.4</ele>
        <time>2022-04-10T13:56:17Z</time>
      </trkpt>
      <trkpt lat="46.44419" lon="5.5025">
        <ele>465</ele>
        <time>2022-04-10T13:56:18Z</time>
      </trkpt>
      <trkpt lat="46.44423" lon="5.50234">
        <ele>463</ele>
        <time>2022-04-10T13:56:19Z</time>
      </trkpt>
      <trkpt lat="46.44426" lon="5.50217">
        <ele>462</ele>
        <time>2022-04-10T13:56:20Z</time>
      </trkpt>
      <trkpt lat="46.44427" lon="5.50198">
        <ele>460</ele>
        <time>2022-04-10T13:56:21Z</time>
      </trkpt>
      <trkpt lat="46.44428" lon="5.50179">
        <ele>459.2</ele>
        <time>2022-04-10T13:56:22Z</time>
      </trkpt>
      <trkpt lat="46.44431" lon="5.50162">
        <ele>457.8</ele>
        <time>2022-04-10T13:56:23Z</time>
      </trkpt>
      <trkpt lat="46.44437" lon="5.50145">
        <ele>455.2</ele>
        <time>2022-04-10T13:56:24Z</time>
      </trkpt>
      <trkpt lat="46.44445" lon="5.50131">
        <ele>454.2</ele>
        <time>2022-04-10T13:56:25Z</time>
      </trkpt>
      <trkpt lat="46.44454" lon="5.50118">
        <ele>452.6</ele>
        <time>2022-04-10T13:56:26Z</time>
      </trkpt>
      <trkpt lat="46.44464" lon="5.50106">
        <ele>452</ele>
        <time>2022-04-10T13:56:27Z</time>
      </trkpt>
      <trkpt lat="46.44474" lon="5.50094">
        <ele>451</ele>
        <time>2022-04-10T13:56:28Z</time>
      </trkpt>
      <trkpt lat="46.44493" lon="5.50072">
        <ele>448.6</ele>
        <time>2022-04-10T13:56:30Z</time>
      </trkpt>
      <trkpt lat="46.44499" lon="5.50059">
        <ele>447.4</ele>
        <time>2022-04-10T13:56:31Z</time>
      </trkpt>
      <trkpt lat="46.44504" lon="5.50046">
        <ele>446.8</ele>
        <time>2022-04-10T13:56:32Z</time>
      </trkpt>
      <trkpt lat="46.44504" lon="5.5003">
        <ele>445.6</ele>
        <time>2022-04-10T13:56:33Z</time>
      </trkpt>
      <trkpt lat="46.44501" lon="5.50014">
        <ele>444.6</ele>
        <time>2022-04-10T13:56:34Z</time>
      </trkpt>
      <trkpt lat="46.44494" lon="5.50004">
        <ele>442.8</ele>
        <time>2022-04-10T13:56:35Z</time>
      </trkpt>
      <trkpt lat="46.44482" lon="5.49985">
        <ele>440.6</ele>
        <time>2022-04-10T13:56:37Z</time>
      </trkpt>
      <trkpt lat="46.44474" lon="5.49964">
        <ele>438.6</ele>
        <time>2022-04-10T13:56:39Z</time>
      </trkpt>
      <trkpt lat="46.44472" lon="5.49951">
        <ele>437.4</ele>
        <time>2022-04-10T13:56:40Z</time>
      </trkpt>
      <trkpt lat="46.4447" lon="5.49923">
        <ele>436.4</ele>
        <time>2022-04-10T13:56:42Z</time>
      </trkpt>
      <trkpt lat="46.44472" lon="5.49895">
        <ele>435.2</ele>
        <time>2022-04-10T13:56:44Z</time>
      </trkpt>
      <trkpt lat="46.44472" lon="5.49881">
        <ele>434.8</ele>
        <time>2022-04-10T13:56:45Z</time>
      </trkpt>
      <trkpt lat="46.44471" lon="5.49869">
        <ele>434</ele>
        <time>2022-04-10T13:56:46Z</time>
      </trkpt>
      <trkpt lat="46.44469" lon="5.4986">
        <ele>432.6</ele>
        <time>2022-04-10T13:56:47Z</time>
      </trkpt>
      <trkpt lat="46.44462" lon="5.49855">
        <ele>432.2</ele>
        <time>2022-04-10T13:56:48Z</time>
      </trkpt>
      <trkpt lat="46.44456" lon="5.49849">
        <ele>431</ele>
        <time>2022-04-10T13:56:49Z</time>
      </trkpt>
      <trkpt lat="46.44442" lon="5.49841">
        <ele>429.2</ele>
        <time>2022-04-10T13:56:51Z</time>
      </trkpt>
      <trkpt lat="46.44402" lon="5.4985">
        <ele>426.6</ele>
        <time>2022-04-10T13:56:53Z</time>
      </trkpt>
      <trkpt lat="46.44387" lon="5.49853">
        <ele>425.6</ele>
        <time>2022-04-10T13:56:54Z</time>
      </trkpt>
      <trkpt lat="46.44375" lon="5.49853">
        <ele>423.6</ele>
        <time>2022-04-10T13:56:55Z</time>
      </trkpt>
      <trkpt lat="46.44364" lon="5.49848">
        <ele>422.2</ele>
        <time>2022-04-10T13:56:56Z</time>
      </trkpt>
      <trkpt lat="46.44349" lon="5.49828">
        <ele>420.2</ele>
        <time>2022-04-10T13:56:58Z</time>
      </trkpt>
      <trkpt lat="46.44345" lon="5.49818">
        <ele>419.8</ele>
        <time>2022-04-10T13:56:59Z</time>
      </trkpt>
      <trkpt lat="46.44339" lon="5.49808">
        <ele>419.2</ele>
        <time>2022-04-10T13:57:00Z</time>
      </trkpt>
      <trkpt lat="46.4433" lon="5.49798">
        <ele>419</ele>
        <time>2022-04-10T13:57:01Z</time>
      </trkpt>
      <trkpt lat="46.44306" lon="5.49776">
        <ele>418.2</ele>
        <time>2022-04-10T13:57:04Z</time>
      </trkpt>
      <trkpt lat="46.44298" lon="5.49771">
        <ele>418</ele>
        <time>2022-04-10T13:57:05Z</time>
      </trkpt>
      <trkpt lat="46.44282" lon="5.49762">
        <ele>417.6</ele>
        <time>2022-04-10T13:57:07Z</time>
      </trkpt>
      <trkpt lat="46.44268" lon="5.49748">
        <ele>417.4</ele>
        <time>2022-04-10T13:57:09Z</time>
      </trkpt>
      <trkpt lat="46.44251" lon="5.49723">
        <ele>417</ele>
        <time>2022-04-10T13:57:12Z</time>
      </trkpt>
      <trkpt lat="46.44238" lon="5.49707">
        <ele>416.6</ele>
        <time>2022-04-10T13:57:14Z</time>
      </trkpt>
      <trkpt lat="46.44205" lon="5.49669">
        <ele>415.8</ele>
        <time>2022-04-10T13:57:19Z</time>
      </trkpt>
      <trkpt lat="46.44199" lon="5.49662">
        <ele>415.6</ele>
        <time>2022-04-10T13:57:20Z</time>
      </trkpt>
      <trkpt lat="46.4418" lon="5.49642">
        <ele>414.8</ele>
        <time>2022-04-10T13:57:23Z</time>
      </trkpt>
      <trkpt lat="46.44156" lon="5.49609">
        <ele>414.2</ele>
        <time>2022-04-10T13:57:27Z</time>
      </trkpt>
      <trkpt lat="46.44126" lon="5.49569">
        <ele>413.4</ele>
        <time>2022-04-10T13:57:32Z</time>
      </trkpt>
      <trkpt lat="46.44119" lon="5.49562">
        <ele>413.2</ele>
        <time>2022-04-10T13:57:33Z</time>
      </trkpt>
      <trkpt lat="46.44079" lon="5.49508">
        <ele>412.8</ele>
        <time>2022-04-10T13:57:40Z</time>
      </trkpt>
      <trkpt lat="46.44066" lon="5.49493">
        <ele>412.6</ele>
        <time>2022-04-10T13:57:42Z</time>
      </trkpt>
      <trkpt lat="46.44048" lon="5.49472">
        <ele>412.4</ele>
        <time>2022-04-10T13:57:45Z</time>
      </trkpt>
      <trkpt lat="46.44021" lon="5.49443">
        <ele>411.6</ele>
        <time>2022-04-10T13:57:49Z</time>
      </trkpt>
      <trkpt lat="46.44003" lon="5.49417">
        <ele>411.2</ele>
        <time>2022-04-10T13:57:53Z</time>
      </trkpt>
      <trkpt lat="46.43993" lon="5.49398">
        <ele>410.8</ele>
        <time>2022-04-10T13:57:55Z</time>
      </trkpt>
      <trkpt lat="46.43971" lon="5.49349">
        <ele>410</ele>
        <time>2022-04-10T13:58:00Z</time>
      </trkpt>
      <trkpt lat="46.43963" lon="5.49328">
        <ele>409.8</ele>
        <time>2022-04-10T13:58:02Z</time>
      </trkpt>
      <trkpt lat="46.43941" lon="5.49266">
        <ele>409</ele>
        <time>2022-04-10T13:58:08Z</time>
      </trkpt>
      <trkpt lat="46.43936" lon="5.49255">
        <ele>408.8</ele>
        <time>2022-04-10T13:58:09Z</time>
      </trkpt>
      <trkpt lat="46.43931" lon="5.49245">
        <ele>408.6</ele>
        <time>2022-04-10T13:58:10Z</time>
      </trkpt>
      <trkpt lat="46.43914" lon="5.49218">
        <ele>408.2</ele>
        <time>2022-04-10T13:58:13Z</time>
      </trkpt>
      <trkpt lat="46.43901" lon="5.49202">
        <ele>407.8</ele>
        <time>2022-04-10T13:58:15Z</time>
      </trkpt>
      <trkpt lat="46.43871" lon="5.49159">
        <ele>407.4</ele>
        <time>2022-04-10T13:58:20Z</time>
      </trkpt>
      <trkpt lat="46.4386" lon="5.49142">
        <ele>407</ele>
        <time>2022-04-10T13:58:22Z</time>
      </trkpt>
      <trkpt lat="46.43846" lon="5.49129">
        <ele>406.6</ele>
        <time>2022-04-10T13:58:24Z</time>
      </trkpt>
      <trkpt lat="46.43805" lon="5.49085">
        <ele>406</ele>
        <time>2022-04-10T13:58:30Z</time>
      </trkpt>
      <trkpt lat="46.43788" lon="5.4906">
        <ele>405.8</ele>
        <time>2022-04-10T13:58:33Z</time>
      </trkpt>
      <trkpt lat="46.43773" lon="5.49032">
        <ele>405.6</ele>
        <time>2022-04-10T13:58:36Z</time>
      </trkpt>
      <trkpt lat="46.43761" lon="5.49003">
        <ele>404.8</ele>
        <time>2022-04-10T13:58:39Z</time>
      </trkpt>
      <trkpt lat="46.43758" lon="5.48993">
        <ele>404.6</ele>
        <time>2022-04-10T13:58:40Z</time>
      </trkpt>
      <trkpt lat="46.43756" lon="5.48982">
        <ele>404.6</ele>
        <time>2022-04-10T13:58:41Z</time>
      </trkpt>
      <trkpt lat="46.43743" lon="5.48909">
        <ele>404.4</ele>
        <time>2022-04-10T13:58:48Z</time>
      </trkpt>
      <trkpt lat="46.43723" lon="5.48841">
        <ele>404.2</ele>
        <time>2022-04-10T13:58:55Z</time>
      </trkpt>
      <trkpt lat="46.43716" lon="5.48821">
        <ele>404</ele>
        <time>2022-04-10T13:58:57Z</time>
      </trkpt>
      <trkpt lat="46.43704" lon="5.48782">
        <ele>404</ele>
        <time>2022-04-10T13:59:01Z</time>
      </trkpt>
      <trkpt lat="46.43702" lon="5.48771">
        <ele>403.6</ele>
        <time>2022-04-10T13:59:02Z</time>
      </trkpt>
      <trkpt lat="46.43702" lon="5.4876">
        <ele>403.6</ele>
        <time>2022-04-10T13:59:03Z</time>
      </trkpt>
      <trkpt lat="46.43706" lon="5.4874">
        <ele>403.4</ele>
        <time>2022-04-10T13:59:05Z</time>
      </trkpt>
      <trkpt lat="46.43709" lon="5.48731">
        <ele>403.4</ele>
        <time>2022-04-10T13:59:06Z</time>
      </trkpt>
      <trkpt lat="46.43713" lon="5.48723">
        <ele>403.4</ele>
        <time>2022-04-10T13:59:07Z</time>
      </trkpt>
      <trkpt lat="46.4372" lon="5.48707">
        <ele>403.4</ele>
        <time>2022-04-10T13:59:09Z</time>
      </trkpt>
      <trkpt lat="46.43723" lon="5.48696">
        <ele>403.4</ele>
        <time>2022-04-10T13:59:10Z</time>
      </trkpt>
      <trkpt lat="46.43723" lon="5.48687">
        <ele>403.6</ele>
        <time>2022-04-10T13:59:11Z</time>
      </trkpt>
      <trkpt lat="46.43719" lon="5.48669">
        <ele>403.8</ele>
        <time>2022-04-10T13:59:13Z</time>
      </trkpt>
      <trkpt lat="46.43706" lon="5.4865">
        <ele>404.2</ele>
        <time>2022-04-10T13:59:16Z</time>
      </trkpt>
      <trkpt lat="46.43694" lon="5.48634">
        <ele>404.6</ele>
        <time>2022-04-10T13:59:19Z</time>
      </trkpt>
      <trkpt lat="46.43683" lon="5.48619">
        <ele>405.2</ele>
        <time>2022-04-10T13:59:22Z</time>
      </trkpt>
      <trkpt lat="46.43668" lon="5.486">
        <ele>405.8</ele>
        <time>2022-04-10T13:59:26Z</time>
      </trkpt>
      <trkpt lat="46.43655" lon="5.48582">
        <ele>407</ele>
        <time>2022-04-10T13:59:30Z</time>
      </trkpt>
      <trkpt lat="46.43651" lon="5.48578">
        <ele>407.2</ele>
        <time>2022-04-10T13:59:31Z</time>
      </trkpt>
      <trkpt lat="46.43642" lon="5.48563">
        <ele>408.2</ele>
        <time>2022-04-10T13:59:34Z</time>
      </trkpt>
      <trkpt lat="46.43637" lon="5.48552">
        <ele>409</ele>
        <time>2022-04-10T13:59:36Z</time>
      </trkpt>
      <trkpt lat="46.43635" lon="5.48546">
        <ele>409.4</ele>
        <time>2022-04-10T13:59:37Z</time>
      </trkpt>
      <trkpt lat="46.43633" lon="5.4854">
        <ele>409.6</ele>
        <time>2022-04-10T13:59:38Z</time>
      </trkpt>
      <trkpt lat="46.43628" lon="5.48517">
        <ele>410.8</ele>
        <time>2022-04-10T13:59:42Z</time>
      </trkpt>
      <trkpt lat="46.43622" lon="5.48492">
        <ele>412</ele>
        <time>2022-04-10T13:59:46Z</time>
      </trkpt>
      <trkpt lat="46.43619" lon="5.48485">
        <ele>412</ele>
        <time>2022-04-10T13:59:47Z</time>
      </trkpt>
      <trkpt lat="46.43606" lon="5.48465">
        <ele>412</ele>
        <time>2022-04-10T13:59:50Z</time>
      </trkpt>
      <trkpt lat="46.43573" lon="5.48437">
        <ele>411</ele>
        <time>2022-04-10T13:59:55Z</time>
      </trkpt>
      <trkpt lat="46.43559" lon="5.48427">
        <ele>410</ele>
        <time>2022-04-10T13:59:57Z</time>
      </trkpt>
      <trkpt lat="46.43544" lon="5.48419">
        <ele>408.8</ele>
        <time>2022-04-10T13:59:59Z</time>
      </trkpt>
      <trkpt lat="46.43529" lon="5.48411">
        <ele>407.6</ele>
        <time>2022-04-10T14:00:01Z</time>
      </trkpt>
      <trkpt lat="46.43506" lon="5.484">
        <ele>406.8</ele>
        <time>2022-04-10T14:00:04Z</time>
      </trkpt>
      <trkpt lat="46.43499" lon="5.48395">
        <ele>406.6</ele>
        <time>2022-04-10T14:00:05Z</time>
      </trkpt>
      <trkpt lat="46.43486" lon="5.48383">
        <ele>406.2</ele>
        <time>2022-04-10T14:00:07Z</time>
      </trkpt>
      <trkpt lat="46.43467" lon="5.48352">
        <ele>405.8</ele>
        <time>2022-04-10T14:00:11Z</time>
      </trkpt>
      <trkpt lat="46.43436" lon="5.48297">
        <ele>406.4</ele>
        <time>2022-04-10T14:00:19Z</time>
      </trkpt>
      <trkpt lat="46.43421" lon="5.48271">
        <ele>407.6</ele>
        <time>2022-04-10T14:00:24Z</time>
      </trkpt>
      <trkpt lat="46.43418" lon="5.48267">
        <ele>407.8</ele>
        <time>2022-04-10T14:00:25Z</time>
      </trkpt>
      <trkpt lat="46.43407" lon="5.48247">
        <ele>409</ele>
        <time>2022-04-10T14:00:30Z</time>
      </trkpt>
      <trkpt lat="46.43398" lon="5.48229">
        <ele>410.2</ele>
        <time>2022-04-10T14:00:34Z</time>
      </trkpt>
      <trkpt lat="46.43389" lon="5.48212">
        <ele>411.4</ele>
        <time>2022-04-10T14:00:38Z</time>
      </trkpt>
      <trkpt lat="46.43379" lon="5.48197">
        <ele>412.6</ele>
        <time>2022-04-10T14:00:42Z</time>
      </trkpt>
      <trkpt lat="46.4337" lon="5.48185">
        <ele>413.6</ele>
        <time>2022-04-10T14:00:45Z</time>
      </trkpt>
      <trkpt lat="46.43366" lon="5.48177">
        <ele>414.2</ele>
        <time>2022-04-10T14:00:47Z</time>
      </trkpt>
      <trkpt lat="46.43363" lon="5.48174">
        <ele>414.6</ele>
        <time>2022-04-10T14:00:48Z</time>
      </trkpt>
      <trkpt lat="46.43355" lon="5.48163">
        <ele>415.6</ele>
        <time>2022-04-10T14:00:51Z</time>
      </trkpt>
      <trkpt lat="46.43343" lon="5.4815">
        <ele>416.6</ele>
        <time>2022-04-10T14:00:55Z</time>
      </trkpt>
      <trkpt lat="46.4334" lon="5.48147">
        <ele>416.8</ele>
        <time>2022-04-10T14:00:56Z</time>
      </trkpt>
      <trkpt lat="46.43325" lon="5.48136">
        <ele>418</ele>
        <time>2022-04-10T14:01:00Z</time>
      </trkpt>
      <trkpt lat="46.43314" lon="5.48133">
        <ele>418.8</ele>
        <time>2022-04-10T14:01:03Z</time>
      </trkpt>
      <trkpt lat="46.43307" lon="5.48133">
        <ele>419.2</ele>
        <time>2022-04-10T14:01:05Z</time>
      </trkpt>
      <trkpt lat="46.43291" lon="5.48133">
        <ele>420.8</ele>
        <time>2022-04-10T14:01:09Z</time>
      </trkpt>
      <trkpt lat="46.43287" lon="5.48133">
        <ele>421</ele>
        <time>2022-04-10T14:01:10Z</time>
      </trkpt>
      <trkpt lat="46.43278" lon="5.4813">
        <ele>421</ele>
        <time>2022-04-10T14:01:12Z</time>
      </trkpt>
      <trkpt lat="46.43264" lon="5.48122">
        <ele>421.4</ele>
        <time>2022-04-10T14:01:15Z</time>
      </trkpt>
      <trkpt lat="46.43246" lon="5.48111">
        <ele>421.8</ele>
        <time>2022-04-10T14:01:19Z</time>
      </trkpt>
      <trkpt lat="46.43234" lon="5.48104">
        <ele>422</ele>
        <time>2022-04-10T14:01:22Z</time>
      </trkpt>
      <trkpt lat="46.43211" lon="5.48091">
        <ele>423</ele>
        <time>2022-04-10T14:01:28Z</time>
      </trkpt>
      <trkpt lat="46.43203" lon="5.48086">
        <ele>423.6</ele>
        <time>2022-04-10T14:01:30Z</time>
      </trkpt>
      <trkpt lat="46.43189" lon="5.48077">
        <ele>424.6</ele>
        <time>2022-04-10T14:01:34Z</time>
      </trkpt>
      <trkpt lat="46.43174" lon="5.48066">
        <ele>425.6</ele>
        <time>2022-04-10T14:01:38Z</time>
      </trkpt>
      <trkpt lat="46.43167" lon="5.4806">
        <ele>426</ele>
        <time>2022-04-10T14:01:40Z</time>
      </trkpt>
      <trkpt lat="46.43156" lon="5.4805">
        <ele>426.8</ele>
        <time>2022-04-10T14:01:43Z</time>
      </trkpt>
      <trkpt lat="46.43146" lon="5.48038">
        <ele>427.2</ele>
        <time>2022-04-10T14:01:46Z</time>
      </trkpt>
      <trkpt lat="46.4314" lon="5.48029">
        <ele>427.6</ele>
        <time>2022-04-10T14:01:48Z</time>
      </trkpt>
      <trkpt lat="46.43132" lon="5.48013">
        <ele>428</ele>
        <time>2022-04-10T14:01:51Z</time>
      </trkpt>
      <trkpt lat="46.43116" lon="5.47983">
        <ele>429</ele>
        <time>2022-04-10T14:01:57Z</time>
      </trkpt>
      <trkpt lat="46.43097" lon="5.47943">
        <ele>429.8</ele>
        <time>2022-04-10T14:02:04Z</time>
      </trkpt>
      <trkpt lat="46.43094" lon="5.47938">
        <ele>429.8</ele>
        <time>2022-04-10T14:02:05Z</time>
      </trkpt>
      <trkpt lat="46.43067" lon="5.47901">
        <ele>430</ele>
        <time>2022-04-10T14:02:12Z</time>
      </trkpt>
      <trkpt lat="46.43052" lon="5.47881">
        <ele>430</ele>
        <time>2022-04-10T14:02:16Z</time>
      </trkpt>
      <trkpt lat="46.43048" lon="5.47867">
        <ele>430</ele>
        <time>2022-04-10T14:02:18Z</time>
      </trkpt>
      <trkpt lat="46.43049" lon="5.47851">
        <ele>430</ele>
        <time>2022-04-10T14:02:20Z</time>
      </trkpt>
      <trkpt lat="46.4305" lon="5.47842">
        <ele>430</ele>
        <time>2022-04-10T14:02:21Z</time>
      </trkpt>
      <trkpt lat="46.43063" lon="5.47789">
        <ele>429.8</ele>
        <time>2022-04-10T14:02:27Z</time>
      </trkpt>
      <trkpt lat="46.43067" lon="5.47752">
        <ele>429</ele>
        <time>2022-04-10T14:02:31Z</time>
      </trkpt>
      <trkpt lat="46.43069" lon="5.47726">
        <ele>429</ele>
        <time>2022-04-10T14:02:34Z</time>
      </trkpt>
      <trkpt lat="46.43069" lon="5.47717">
        <ele>429</ele>
        <time>2022-04-10T14:02:35Z</time>
      </trkpt>
      <trkpt lat="46.43065" lon="5.47699">
        <ele>429</ele>
        <time>2022-04-10T14:02:37Z</time>
      </trkpt>
      <trkpt lat="46.4306" lon="5.47691">
        <ele>429</ele>
        <time>2022-04-10T14:02:38Z</time>
      </trkpt>
      <trkpt lat="46.43055" lon="5.47684">
        <ele>429</ele>
        <time>2022-04-10T14:02:39Z</time>
      </trkpt>
      <trkpt lat="46.43037" lon="5.47663">
        <ele>428.8</ele>
        <time>2022-04-10T14:02:42Z</time>
      </trkpt>
      <trkpt lat="46.43031" lon="5.47654">
        <ele>428.6</ele>
        <time>2022-04-10T14:02:43Z</time>
      </trkpt>
      <trkpt lat="46.43018" lon="5.47625">
        <ele>428</ele>
        <time>2022-04-10T14:02:46Z</time>
      </trkpt>
      <trkpt lat="46.43009" lon="5.47605">
        <ele>427</ele>
        <time>2022-04-10T14:02:48Z</time>
      </trkpt>
      <trkpt lat="46.43004" lon="5.47595">
        <ele>426</ele>
        <time>2022-04-10T14:02:49Z</time>
      </trkpt>
      <trkpt lat="46.42997" lon="5.47587">
        <ele>425.6</ele>
        <time>2022-04-10T14:02:50Z</time>
      </trkpt>
      <trkpt lat="46.4299" lon="5.4758">
        <ele>424.8</ele>
        <time>2022-04-10T14:02:51Z</time>
      </trkpt>
      <trkpt lat="46.42965" lon="5.47563">
        <ele>423.4</ele>
        <time>2022-04-10T14:02:54Z</time>
      </trkpt>
      <trkpt lat="46.42929" lon="5.47542">
        <ele>422.2</ele>
        <time>2022-04-10T14:02:58Z</time>
      </trkpt>
      <trkpt lat="46.4292" lon="5.47539">
        <ele>421.6</ele>
        <time>2022-04-10T14:02:59Z</time>
      </trkpt>
      <trkpt lat="46.42902" lon="5.47535">
        <ele>420.6</ele>
        <time>2022-04-10T14:03:01Z</time>
      </trkpt>
      <trkpt lat="46.42887" lon="5.47534">
        <ele>419.6</ele>
        <time>2022-04-10T14:03:03Z</time>
      </trkpt>
      <trkpt lat="46.4288" lon="5.47531">
        <ele>419.4</ele>
        <time>2022-04-10T14:03:04Z</time>
      </trkpt>
      <trkpt lat="46.42875" lon="5.47524">
        <ele>418.2</ele>
        <time>2022-04-10T14:03:05Z</time>
      </trkpt>
      <trkpt lat="46.42871" lon="5.47517">
        <ele>417.6</ele>
        <time>2022-04-10T14:03:06Z</time>
      </trkpt>
      <trkpt lat="46.42872" lon="5.4751">
        <ele>416.8</ele>
        <time>2022-04-10T14:03:07Z</time>
      </trkpt>
      <trkpt lat="46.42874" lon="5.47505">
        <ele>416</ele>
        <time>2022-04-10T14:03:08Z</time>
      </trkpt>
      <trkpt lat="46.42878" lon="5.47498">
        <ele>415.6</ele>
        <time>2022-04-10T14:03:09Z</time>
      </trkpt>
      <trkpt lat="46.42884" lon="5.47484">
        <ele>414.8</ele>
        <time>2022-04-10T14:03:11Z</time>
      </trkpt>
      <trkpt lat="46.42889" lon="5.47477">
        <ele>414.4</ele>
        <time>2022-04-10T14:03:12Z</time>
      </trkpt>
      <trkpt lat="46.42898" lon="5.47474">
        <ele>414.2</ele>
        <time>2022-04-10T14:03:13Z</time>
      </trkpt>
      <trkpt lat="46.42912" lon="5.47477">
        <ele>414</ele>
        <time>2022-04-10T14:03:14Z</time>
      </trkpt>
      <trkpt lat="46.42948" lon="5.47482">
        <ele>413.2</ele>
        <time>2022-04-10T14:03:17Z</time>
      </trkpt>
      <trkpt lat="46.42972" lon="5.4748">
        <ele>412.4</ele>
        <time>2022-04-10T14:03:19Z</time>
      </trkpt>
      <trkpt lat="46.42983" lon="5.47478">
        <ele>412</ele>
        <time>2022-04-10T14:03:20Z</time>
      </trkpt>
      <trkpt lat="46.42995" lon="5.47476">
        <ele>411.2</ele>
        <time>2022-04-10T14:03:21Z</time>
      </trkpt>
      <trkpt lat="46.43005" lon="5.47475">
        <ele>410.8</ele>
        <time>2022-04-10T14:03:22Z</time>
      </trkpt>
      <trkpt lat="46.43027" lon="5.47469">
        <ele>409.8</ele>
        <time>2022-04-10T14:03:24Z</time>
      </trkpt>
      <trkpt lat="46.43048" lon="5.47458">
        <ele>409</ele>
        <time>2022-04-10T14:03:26Z</time>
      </trkpt>
      <trkpt lat="46.43058" lon="5.4745">
        <ele>408.8</ele>
        <time>2022-04-10T14:03:27Z</time>
      </trkpt>
      <trkpt lat="46.43067" lon="5.47442">
        <ele>408.2</ele>
        <time>2022-04-10T14:03:28Z</time>
      </trkpt>
      <trkpt lat="46.43085" lon="5.47424">
        <ele>407.6</ele>
        <time>2022-04-10T14:03:30Z</time>
      </trkpt>
      <trkpt lat="46.43111" lon="5.47399">
        <ele>405.8</ele>
        <time>2022-04-10T14:03:33Z</time>
      </trkpt>
      <trkpt lat="46.43121" lon="5.47392">
        <ele>405.4</ele>
        <time>2022-04-10T14:03:34Z</time>
      </trkpt>
      <trkpt lat="46.4313" lon="5.47386">
        <ele>404.6</ele>
        <time>2022-04-10T14:03:35Z</time>
      </trkpt>
      <trkpt lat="46.43159" lon="5.47367">
        <ele>403</ele>
        <time>2022-04-10T14:03:38Z</time>
      </trkpt>
      <trkpt lat="46.43178" lon="5.47353">
        <ele>401</ele>
        <time>2022-04-10T14:03:40Z</time>
      </trkpt>
      <trkpt lat="46.43205" lon="5.47329">
        <ele>400</ele>
        <time>2022-04-10T14:03:43Z</time>
      </trkpt>
      <trkpt lat="46.43213" lon="5.47319">
        <ele>399.4</ele>
        <time>2022-04-10T14:03:44Z</time>
      </trkpt>
      <trkpt lat="46.43226" lon="5.47293">
        <ele>398.4</ele>
        <time>2022-04-10T14:03:46Z</time>
      </trkpt>
      <trkpt lat="46.4323" lon="5.47263">
        <ele>397.2</ele>
        <time>2022-04-10T14:03:48Z</time>
      </trkpt>
      <trkpt lat="46.4323" lon="5.47247">
        <ele>395.8</ele>
        <time>2022-04-10T14:03:49Z</time>
      </trkpt>
      <trkpt lat="46.43228" lon="5.47232">
        <ele>395.6</ele>
        <time>2022-04-10T14:03:50Z</time>
      </trkpt>
      <trkpt lat="46.43224" lon="5.47217">
        <ele>394.8</ele>
        <time>2022-04-10T14:03:51Z</time>
      </trkpt>
      <trkpt lat="46.4322" lon="5.47202">
        <ele>394.8</ele>
        <time>2022-04-10T14:03:52Z</time>
      </trkpt>
      <trkpt lat="46.43211" lon="5.47174">
        <ele>393.6</ele>
        <time>2022-04-10T14:03:54Z</time>
      </trkpt>
      <trkpt lat="46.43199" lon="5.47147">
        <ele>392.8</ele>
        <time>2022-04-10T14:03:56Z</time>
      </trkpt>
      <trkpt lat="46.43192" lon="5.47135">
        <ele>392.6</ele>
        <time>2022-04-10T14:03:57Z</time>
      </trkpt>
      <trkpt lat="46.43184" lon="5.47125">
        <ele>391.8</ele>
        <time>2022-04-10T14:03:58Z</time>
      </trkpt>
      <trkpt lat="46.43176" lon="5.47115">
        <ele>391.2</ele>
        <time>2022-04-10T14:03:59Z</time>
      </trkpt>
      <trkpt lat="46.43167" lon="5.47107">
        <ele>390.2</ele>
        <time>2022-04-10T14:04:00Z</time>
      </trkpt>
      <trkpt lat="46.4314" lon="5.47083">
        <ele>388.8</ele>
        <time>2022-04-10T14:04:03Z</time>
      </trkpt>
      <trkpt lat="46.43123" lon="5.47067">
        <ele>388.4</ele>
        <time>2022-04-10T14:04:05Z</time>
      </trkpt>
      <trkpt lat="46.43116" lon="5.47058">
        <ele>388.2</ele>
        <time>2022-04-10T14:04:06Z</time>
      </trkpt>
      <trkpt lat="46.4311" lon="5.47047">
        <ele>387.8</ele>
        <time>2022-04-10T14:04:07Z</time>
      </trkpt>
      <trkpt lat="46.43106" lon="5.47035">
        <ele>387.6</ele>
        <time>2022-04-10T14:04:08Z</time>
      </trkpt>
      <trkpt lat="46.43105" lon="5.47022">
        <ele>386.6</ele>
        <time>2022-04-10T14:04:09Z</time>
      </trkpt>
      <trkpt lat="46.43105" lon="5.47008">
        <ele>386.2</ele>
        <time>2022-04-10T14:04:10Z</time>
      </trkpt>
      <trkpt lat="46.43106" lon="5.46995">
        <ele>386</ele>
        <time>2022-04-10T14:04:11Z</time>
      </trkpt>
      <trkpt lat="46.43109" lon="5.46982">
        <ele>385.8</ele>
        <time>2022-04-10T14:04:12Z</time>
      </trkpt>
      <trkpt lat="46.4312" lon="5.46945">
        <ele>385.8</ele>
        <time>2022-04-10T14:04:15Z</time>
      </trkpt>
      <trkpt lat="46.43123" lon="5.46934">
        <ele>385.4</ele>
        <time>2022-04-10T14:04:16Z</time>
      </trkpt>
      <trkpt lat="46.43149" lon="5.46855">
        <ele>384.6</ele>
        <time>2022-04-10T14:04:23Z</time>
      </trkpt>
      <trkpt lat="46.43155" lon="5.46833">
        <ele>384.4</ele>
        <time>2022-04-10T14:04:25Z</time>
      </trkpt>
      <trkpt lat="46.43165" lon="5.46791">
        <ele>384</ele>
        <time>2022-04-10T14:04:29Z</time>
      </trkpt>
      <trkpt lat="46.4317" lon="5.46747">
        <ele>384.2</ele>
        <time>2022-04-10T14:04:34Z</time>
      </trkpt>
      <trkpt lat="46.43178" lon="5.46694">
        <ele>385.4</ele>
        <time>2022-04-10T14:04:40Z</time>
      </trkpt>
      <trkpt lat="46.43179" lon="5.46684">
        <ele>385.4</ele>
        <time>2022-04-10T14:04:41Z</time>
      </trkpt>
      <trkpt lat="46.4319" lon="5.46628">
        <ele>386</ele>
        <time>2022-04-10T14:04:47Z</time>
      </trkpt>
      <trkpt lat="46.43193" lon="5.46619">
        <ele>386</ele>
        <time>2022-04-10T14:04:48Z</time>
      </trkpt>
      <trkpt lat="46.43209" lon="5.4659">
        <ele>386.2</ele>
        <time>2022-04-10T14:04:52Z</time>
      </trkpt>
      <trkpt lat="46.4322" lon="5.46571">
        <ele>386.6</ele>
        <time>2022-04-10T14:04:55Z</time>
      </trkpt>
      <trkpt lat="46.43227" lon="5.4656">
        <ele>386.8</ele>
        <time>2022-04-10T14:04:57Z</time>
      </trkpt>
      <trkpt lat="46.43242" lon="5.4654">
        <ele>387.6</ele>
        <time>2022-04-10T14:05:01Z</time>
      </trkpt>
      <trkpt lat="46.43261" lon="5.46515">
        <ele>388</ele>
        <time>2022-04-10T14:05:06Z</time>
      </trkpt>
      <trkpt lat="46.43283" lon="5.46475">
        <ele>388.4</ele>
        <time>2022-04-10T14:05:12Z</time>
      </trkpt>
      <trkpt lat="46.43294" lon="5.46432">
        <ele>388</ele>
        <time>2022-04-10T14:05:17Z</time>
      </trkpt>
      <trkpt lat="46.43312" lon="5.46351">
        <ele>387.2</ele>
        <time>2022-04-10T14:05:26Z</time>
      </trkpt>
      <trkpt lat="46.43341" lon="5.4628">
        <ele>387.4</ele>
        <time>2022-04-10T14:05:35Z</time>
      </trkpt>
      <trkpt lat="46.43369" lon="5.46226">
        <ele>387.2</ele>
        <time>2022-04-10T14:05:42Z</time>
      </trkpt>
      <trkpt lat="46.43403" lon="5.46193">
        <ele>386.8</ele>
        <time>2022-04-10T14:05:47Z</time>
      </trkpt>
      <trkpt lat="46.4341" lon="5.46188">
        <ele>386.4</ele>
        <time>2022-04-10T14:05:48Z</time>
      </trkpt>
      <trkpt lat="46.43433" lon="5.46169">
        <ele>385.4</ele>
        <time>2022-04-10T14:05:51Z</time>
      </trkpt>
      <trkpt lat="46.43454" lon="5.46151">
        <ele>384.4</ele>
        <time>2022-04-10T14:05:54Z</time>
      </trkpt>
      <trkpt lat="46.43461" lon="5.46144">
        <ele>384.2</ele>
        <time>2022-04-10T14:05:55Z</time>
      </trkpt>
      <trkpt lat="46.43509" lon="5.46104">
        <ele>383.6</ele>
        <time>2022-04-10T14:06:02Z</time>
      </trkpt>
      <trkpt lat="46.43516" lon="5.46099">
        <ele>383.4</ele>
        <time>2022-04-10T14:06:03Z</time>
      </trkpt>
      <trkpt lat="46.4356" lon="5.4608">
        <ele>383.2</ele>
        <time>2022-04-10T14:06:09Z</time>
      </trkpt>
      <trkpt lat="46.43597" lon="5.46072">
        <ele>383.2</ele>
        <time>2022-04-10T14:06:14Z</time>
      </trkpt>
      <trkpt lat="46.43642" lon="5.46062">
        <ele>383</ele>
        <time>2022-04-10T14:06:20Z</time>
      </trkpt>
      <trkpt lat="46.43664" lon="5.46053">
        <ele>383</ele>
        <time>2022-04-10T14:06:23Z</time>
      </trkpt>
      <trkpt lat="46.43672" lon="5.46049">
        <ele>383</ele>
        <time>2022-04-10T14:06:24Z</time>
      </trkpt>
      <trkpt lat="46.43679" lon="5.46043">
        <ele>382.8</ele>
        <time>2022-04-10T14:06:25Z</time>
      </trkpt>
      <trkpt lat="46.43691" lon="5.46029">
        <ele>382.4</ele>
        <time>2022-04-10T14:06:27Z</time>
      </trkpt>
      <trkpt lat="46.43696" lon="5.4602">
        <ele>382.2</ele>
        <time>2022-04-10T14:06:28Z</time>
      </trkpt>
      <trkpt lat="46.43701" lon="5.46011">
        <ele>382</ele>
        <time>2022-04-10T14:06:29Z</time>
      </trkpt>
      <trkpt lat="46.43729" lon="5.45971">
        <ele>381.4</ele>
        <time>2022-04-10T14:06:34Z</time>
      </trkpt>
      <trkpt lat="46.43736" lon="5.45965">
        <ele>381.4</ele>
        <time>2022-04-10T14:06:35Z</time>
      </trkpt>
      <trkpt lat="46.43758" lon="5.45941">
        <ele>381.4</ele>
        <time>2022-04-10T14:06:39Z</time>
      </trkpt>
      <trkpt lat="46.43763" lon="5.45934">
        <ele>381.2</ele>
        <time>2022-04-10T14:06:40Z</time>
      </trkpt>
      <trkpt lat="46.43789" lon="5.45908">
        <ele>381.2</ele>
        <time>2022-04-10T14:06:45Z</time>
      </trkpt>
      <trkpt lat="46.43795" lon="5.45905">
        <ele>381.4</ele>
        <time>2022-04-10T14:06:46Z</time>
      </trkpt>
      <trkpt lat="46.43812" lon="5.45895">
        <ele>381.6</ele>
        <time>2022-04-10T14:06:49Z</time>
      </trkpt>
      <trkpt lat="46.43853" lon="5.45874">
        <ele>382.4</ele>
        <time>2022-04-10T14:06:56Z</time>
      </trkpt>
      <trkpt lat="46.43872" lon="5.45864">
        <ele>382.4</ele>
        <time>2022-04-10T14:06:59Z</time>
      </trkpt>
      <trkpt lat="46.43879" lon="5.45859">
        <ele>382.4</ele>
        <time>2022-04-10T14:07:00Z</time>
      </trkpt>
      <trkpt lat="46.43891" lon="5.45847">
        <ele>382</ele>
        <time>2022-04-10T14:07:02Z</time>
      </trkpt>
      <trkpt lat="46.43896" lon="5.45839">
        <ele>382</ele>
        <time>2022-04-10T14:07:03Z</time>
      </trkpt>
      <trkpt lat="46.43899" lon="5.4583">
        <ele>381.8</ele>
        <time>2022-04-10T14:07:04Z</time>
      </trkpt>
      <trkpt lat="46.43899" lon="5.45809">
        <ele>381.4</ele>
        <time>2022-04-10T14:07:06Z</time>
      </trkpt>
      <trkpt lat="46.43897" lon="5.458">
        <ele>381.2</ele>
        <time>2022-04-10T14:07:07Z</time>
      </trkpt>
      <trkpt lat="46.43887" lon="5.45764">
        <ele>380.6</ele>
        <time>2022-04-10T14:07:11Z</time>
      </trkpt>
      <trkpt lat="46.43878" lon="5.45722">
        <ele>380.4</ele>
        <time>2022-04-10T14:07:16Z</time>
      </trkpt>
      <trkpt lat="46.4388" lon="5.45708">
        <ele>380.4</ele>
        <time>2022-04-10T14:07:18Z</time>
      </trkpt>
      <trkpt lat="46.43882" lon="5.45701">
        <ele>380.4</ele>
        <time>2022-04-10T14:07:19Z</time>
      </trkpt>
      <trkpt lat="46.43885" lon="5.45695">
        <ele>380.4</ele>
        <time>2022-04-10T14:07:20Z</time>
      </trkpt>
      <trkpt lat="46.43894" lon="5.4569">
        <ele>380.4</ele>
        <time>2022-04-10T14:07:22Z</time>
      </trkpt>
      <trkpt lat="46.43932" lon="5.45686">
        <ele>380.4</ele>
        <time>2022-04-10T14:07:28Z</time>
      </trkpt>
      <trkpt lat="46.4398" lon="5.45678">
        <ele>380.6</ele>
        <time>2022-04-10T14:07:35Z</time>
      </trkpt>
      <trkpt lat="46.44021" lon="5.45672">
        <ele>380.8</ele>
        <time>2022-04-10T14:07:41Z</time>
      </trkpt>
      <trkpt lat="46.44078" lon="5.45661">
        <ele>381.4</ele>
        <time>2022-04-10T14:07:50Z</time>
      </trkpt>
      <trkpt lat="46.4409" lon="5.45659">
        <ele>381.6</ele>
        <time>2022-04-10T14:07:52Z</time>
      </trkpt>
      <trkpt lat="46.44146" lon="5.45649">
        <ele>382.2</ele>
        <time>2022-04-10T14:08:01Z</time>
      </trkpt>
      <trkpt lat="46.44165" lon="5.45645">
        <ele>382.2</ele>
        <time>2022-04-10T14:08:04Z</time>
      </trkpt>
      <trkpt lat="46.44203" lon="5.45637">
        <ele>382.6</ele>
        <time>2022-04-10T14:08:10Z</time>
      </trkpt>
      <trkpt lat="46.44258" lon="5.45629">
        <ele>383.4</ele>
        <time>2022-04-10T14:08:19Z</time>
      </trkpt>
      <trkpt lat="46.44264" lon="5.45629">
        <ele>383.4</ele>
        <time>2022-04-10T14:08:20Z</time>
      </trkpt>
      <trkpt lat="46.44317" lon="5.45633">
        <ele>383.8</ele>
        <time>2022-04-10T14:08:29Z</time>
      </trkpt>
      <trkpt lat="46.44345" lon="5.45636">
        <ele>384.6</ele>
        <time>2022-04-10T14:08:34Z</time>
      </trkpt>
      <trkpt lat="46.44377" lon="5.4564">
        <ele>385.2</ele>
        <time>2022-04-10T14:08:40Z</time>
      </trkpt>
      <trkpt lat="46.44398" lon="5.45642">
        <ele>385.6</ele>
        <time>2022-04-10T14:08:44Z</time>
      </trkpt>
      <trkpt lat="46.44429" lon="5.45645">
        <ele>386.6</ele>
        <time>2022-04-10T14:08:50Z</time>
      </trkpt>
      <trkpt lat="46.44439" lon="5.45646">
        <ele>387</ele>
        <time>2022-04-10T14:08:52Z</time>
      </trkpt>
      <trkpt lat="46.44464" lon="5.45649">
        <ele>388</ele>
        <time>2022-04-10T14:08:57Z</time>
      </trkpt>
      <trkpt lat="46.44501" lon="5.45654">
        <ele>388.8</ele>
        <time>2022-04-10T14:09:04Z</time>
      </trkpt>
      <trkpt lat="46.44524" lon="5.45661">
        <ele>389</ele>
        <time>2022-04-10T14:09:08Z</time>
      </trkpt>
      <trkpt lat="46.44552" lon="5.45668">
        <ele>389</ele>
        <time>2022-04-10T14:09:13Z</time>
      </trkpt>
      <trkpt lat="46.44608" lon="5.45687">
        <ele>388.8</ele>
        <time>2022-04-10T14:09:22Z</time>
      </trkpt>
      <trkpt lat="46.44667" lon="5.45707">
        <ele>388.6</ele>
        <time>2022-04-10T14:09:31Z</time>
      </trkpt>
      <trkpt lat="46.4468" lon="5.45712">
        <ele>388.6</ele>
        <time>2022-04-10T14:09:33Z</time>
      </trkpt>
      <trkpt lat="46.44728" lon="5.45733">
        <ele>388.8</ele>
        <time>2022-04-10T14:09:41Z</time>
      </trkpt>
      <trkpt lat="46.44781" lon="5.4576">
        <ele>389.6</ele>
        <time>2022-04-10T14:09:50Z</time>
      </trkpt>
      <trkpt lat="46.44786" lon="5.45764">
        <ele>389.6</ele>
        <time>2022-04-10T14:09:51Z</time>
      </trkpt>
      <trkpt lat="46.44821" lon="5.45784">
        <ele>390.2</ele>
        <time>2022-04-10T14:09:57Z</time>
      </trkpt>
      <trkpt lat="46.44857" lon="5.45805">
        <ele>390.6</ele>
        <time>2022-04-10T14:10:03Z</time>
      </trkpt>
      <trkpt lat="46.44911" lon="5.45836">
        <ele>390.8</ele>
        <time>2022-04-10T14:10:12Z</time>
      </trkpt>
      <trkpt lat="46.44917" lon="5.4584">
        <ele>390.8</ele>
        <time>2022-04-10T14:10:13Z</time>
      </trkpt>
      <trkpt lat="46.44971" lon="5.45871">
        <ele>390.2</ele>
        <time>2022-04-10T14:10:21Z</time>
      </trkpt>
      <trkpt lat="46.45015" lon="5.45897">
        <ele>389</ele>
        <time>2022-04-10T14:10:27Z</time>
      </trkpt>
      <trkpt lat="46.4503" lon="5.45906">
        <ele>388.8</ele>
        <time>2022-04-10T14:10:29Z</time>
      </trkpt>
      <trkpt lat="46.45068" lon="5.45929">
        <ele>388</ele>
        <time>2022-04-10T14:10:34Z</time>
      </trkpt>
      <trkpt lat="46.4509" lon="5.45939">
        <ele>387.6</ele>
        <time>2022-04-10T14:10:37Z</time>
      </trkpt>
      <trkpt lat="46.45104" lon="5.45946">
        <ele>387.2</ele>
        <time>2022-04-10T14:10:39Z</time>
      </trkpt>
      <trkpt lat="46.4513" lon="5.45963">
        <ele>387</ele>
        <time>2022-04-10T14:10:43Z</time>
      </trkpt>
      <trkpt lat="46.45169" lon="5.45994">
        <ele>387.6</ele>
        <time>2022-04-10T14:10:50Z</time>
      </trkpt>
      <trkpt lat="46.45197" lon="5.46011">
        <ele>388.6</ele>
        <time>2022-04-10T14:10:55Z</time>
      </trkpt>
      <trkpt lat="46.45202" lon="5.46015">
        <ele>388.6</ele>
        <time>2022-04-10T14:10:56Z</time>
      </trkpt>
      <trkpt lat="46.45215" lon="5.4603">
        <ele>389</ele>
        <time>2022-04-10T14:10:59Z</time>
      </trkpt>
      <trkpt lat="46.4522" lon="5.46035">
        <ele>389.2</ele>
        <time>2022-04-10T14:11:00Z</time>
      </trkpt>
      <trkpt lat="46.45225" lon="5.46039">
        <ele>389.4</ele>
        <time>2022-04-10T14:11:01Z</time>
      </trkpt>
      <trkpt lat="46.45233" lon="5.46044">
        <ele>389.6</ele>
        <time>2022-04-10T14:11:03Z</time>
      </trkpt>
      <trkpt lat="46.45237" lon="5.46046">
        <ele>390.4</ele>
        <time>2022-04-10T14:11:04Z</time>
      </trkpt>
      <trkpt lat="46.45241" lon="5.46047">
        <ele>390.6</ele>
        <time>2022-04-10T14:11:05Z</time>
      </trkpt>
      <trkpt lat="46.45249" lon="5.46042">
        <ele>391.2</ele>
        <time>2022-04-10T14:11:07Z</time>
      </trkpt>
      <trkpt lat="46.45252" lon="5.46036">
        <ele>391.4</ele>
        <time>2022-04-10T14:11:08Z</time>
      </trkpt>
      <trkpt lat="46.45255" lon="5.46029">
        <ele>391.4</ele>
        <time>2022-04-10T14:11:09Z</time>
      </trkpt>
      <trkpt lat="46.45264" lon="5.46005">
        <ele>391.4</ele>
        <time>2022-04-10T14:11:12Z</time>
      </trkpt>
      <trkpt lat="46.45279" lon="5.45957">
        <ele>391</ele>
        <time>2022-04-10T14:11:17Z</time>
      </trkpt>
      <trkpt lat="46.45281" lon="5.45945">
        <ele>390.8</ele>
        <time>2022-04-10T14:11:18Z</time>
      </trkpt>
      <trkpt lat="46.45285" lon="5.45923">
        <ele>389.8</ele>
        <time>2022-04-10T14:11:20Z</time>
      </trkpt>
      <trkpt lat="46.45293" lon="5.45889">
        <ele>388.4</ele>
        <time>2022-04-10T14:11:23Z</time>
      </trkpt>
      <trkpt lat="46.453" lon="5.45866">
        <ele>387.2</ele>
        <time>2022-04-10T14:11:25Z</time>
      </trkpt>
      <trkpt lat="46.45311" lon="5.45833">
        <ele>386</ele>
        <time>2022-04-10T14:11:28Z</time>
      </trkpt>
      <trkpt lat="46.45317" lon="5.45813">
        <ele>385.4</ele>
        <time>2022-04-10T14:11:30Z</time>
      </trkpt>
      <trkpt lat="46.45321" lon="5.45794">
        <ele>385</ele>
        <time>2022-04-10T14:11:32Z</time>
      </trkpt>
      <trkpt lat="46.45325" lon="5.45765">
        <ele>384.4</ele>
        <time>2022-04-10T14:11:35Z</time>
      </trkpt>
      <trkpt lat="46.45336" lon="5.45693">
        <ele>384</ele>
        <time>2022-04-10T14:11:43Z</time>
      </trkpt>
      <trkpt lat="46.4534" lon="5.45665">
        <ele>384</ele>
        <time>2022-04-10T14:11:46Z</time>
      </trkpt>
      <trkpt lat="46.45345" lon="5.45637">
        <ele>384.2</ele>
        <time>2022-04-10T14:11:49Z</time>
      </trkpt>
      <trkpt lat="46.45348" lon="5.45629">
        <ele>384.2</ele>
        <time>2022-04-10T14:11:50Z</time>
      </trkpt>
      <trkpt lat="46.45352" lon="5.45621">
        <ele>384</ele>
        <time>2022-04-10T14:11:51Z</time>
      </trkpt>
      <trkpt lat="46.45361" lon="5.45608">
        <ele>383.8</ele>
        <time>2022-04-10T14:11:53Z</time>
      </trkpt>
      <trkpt lat="46.45378" lon="5.45598">
        <ele>383.8</ele>
        <time>2022-04-10T14:11:56Z</time>
      </trkpt>
      <trkpt lat="46.45384" lon="5.45596">
        <ele>383.8</ele>
        <time>2022-04-10T14:11:57Z</time>
      </trkpt>
      <trkpt lat="46.45391" lon="5.45595">
        <ele>384</ele>
        <time>2022-04-10T14:11:58Z</time>
      </trkpt>
      <trkpt lat="46.45403" lon="5.45597">
        <ele>384.2</ele>
        <time>2022-04-10T14:12:00Z</time>
      </trkpt>
      <trkpt lat="46.45409" lon="5.456">
        <ele>384.2</ele>
        <time>2022-04-10T14:12:01Z</time>
      </trkpt>
      <trkpt lat="46.45415" lon="5.45603">
        <ele>384.4</ele>
        <time>2022-04-10T14:12:02Z</time>
      </trkpt>
      <trkpt lat="46.4544" lon="5.45623">
        <ele>385.2</ele>
        <time>2022-04-10T14:12:07Z</time>
      </trkpt>
      <trkpt lat="46.45445" lon="5.45627">
        <ele>385.2</ele>
        <time>2022-04-10T14:12:08Z</time>
      </trkpt>
      <trkpt lat="46.45475" lon="5.4565">
        <ele>386.2</ele>
        <time>2022-04-10T14:12:14Z</time>
      </trkpt>
      <trkpt lat="46.45479" lon="5.45653">
        <ele>386.4</ele>
        <time>2022-04-10T14:12:15Z</time>
      </trkpt>
      <trkpt lat="46.45503" lon="5.45669">
        <ele>386.8</ele>
        <time>2022-04-10T14:12:20Z</time>
      </trkpt>
      <trkpt lat="46.45518" lon="5.45676">
        <ele>387.4</ele>
        <time>2022-04-10T14:12:23Z</time>
      </trkpt>
      <trkpt lat="46.4554" lon="5.45688">
        <ele>388.6</ele>
        <time>2022-04-10T14:12:28Z</time>
      </trkpt>
      <trkpt lat="46.45544" lon="5.45691">
        <ele>388.8</ele>
        <time>2022-04-10T14:12:29Z</time>
      </trkpt>
      <trkpt lat="46.4556" lon="5.45698">
        <ele>389.8</ele>
        <time>2022-04-10T14:12:33Z</time>
      </trkpt>
      <trkpt lat="46.45572" lon="5.45701">
        <ele>390.4</ele>
        <time>2022-04-10T14:12:36Z</time>
      </trkpt>
      <trkpt lat="46.4558" lon="5.45703">
        <ele>391</ele>
        <time>2022-04-10T14:12:38Z</time>
      </trkpt>
      <trkpt lat="46.45598" lon="5.45703">
        <ele>392.2</ele>
        <time>2022-04-10T14:12:42Z</time>
      </trkpt>
      <trkpt lat="46.45602" lon="5.45702">
        <ele>392.4</ele>
        <time>2022-04-10T14:12:43Z</time>
      </trkpt>
      <trkpt lat="46.45619" lon="5.45699">
        <ele>393.2</ele>
        <time>2022-04-10T14:12:47Z</time>
      </trkpt>
      <trkpt lat="46.45623" lon="5.45698">
        <ele>393.4</ele>
        <time>2022-04-10T14:12:48Z</time>
      </trkpt>
      <trkpt lat="46.45635" lon="5.45692">
        <ele>394.2</ele>
        <time>2022-04-10T14:12:51Z</time>
      </trkpt>
      <trkpt lat="46.45639" lon="5.4569">
        <ele>394.4</ele>
        <time>2022-04-10T14:12:52Z</time>
      </trkpt>
      <trkpt lat="46.45671" lon="5.45673">
        <ele>395.4</ele>
        <time>2022-04-10T14:13:00Z</time>
      </trkpt>
      <trkpt lat="46.45679" lon="5.45668">
        <ele>395.6</ele>
        <time>2022-04-10T14:13:02Z</time>
      </trkpt>
      <trkpt lat="46.45711" lon="5.45647">
        <ele>396.6</ele>
        <time>2022-04-10T14:13:10Z</time>
      </trkpt>
      <trkpt lat="46.4572" lon="5.45642">
        <ele>396.8</ele>
        <time>2022-04-10T14:13:12Z</time>
      </trkpt>
      <trkpt lat="46.45766" lon="5.45615">
        <ele>397.4</ele>
        <time>2022-04-10T14:13:22Z</time>
      </trkpt>
      <trkpt lat="46.45782" lon="5.45606">
        <ele>397.6</ele>
        <time>2022-04-10T14:13:25Z</time>
      </trkpt>
      <trkpt lat="46.4581" lon="5.45591">
        <ele>397.8</ele>
        <time>2022-04-10T14:13:30Z</time>
      </trkpt>
      <trkpt lat="46.45853" lon="5.45566">
        <ele>397.2</ele>
        <time>2022-04-10T14:13:37Z</time>
      </trkpt>
      <trkpt lat="46.4589" lon="5.45545">
        <ele>396.6</ele>
        <time>2022-04-10T14:13:42Z</time>
      </trkpt>
      <trkpt lat="46.45905" lon="5.45536">
        <ele>396.4</ele>
        <time>2022-04-10T14:13:44Z</time>
      </trkpt>
      <trkpt lat="46.45928" lon="5.45523">
        <ele>395.4</ele>
        <time>2022-04-10T14:13:47Z</time>
      </trkpt>
      <trkpt lat="46.45966" lon="5.45501">
        <ele>394.8</ele>
        <time>2022-04-10T14:13:52Z</time>
      </trkpt>
      <trkpt lat="46.46004" lon="5.4548">
        <ele>394.4</ele>
        <time>2022-04-10T14:13:57Z</time>
      </trkpt>
      <trkpt lat="46.46048" lon="5.45454">
        <ele>393.2</ele>
        <time>2022-04-10T14:14:03Z</time>
      </trkpt>
      <trkpt lat="46.4609" lon="5.45428">
        <ele>392</ele>
        <time>2022-04-10T14:14:09Z</time>
      </trkpt>
      <trkpt lat="46.46118" lon="5.4541">
        <ele>391</ele>
        <time>2022-04-10T14:14:13Z</time>
      </trkpt>
      <trkpt lat="46.46125" lon="5.45406">
        <ele>390.8</ele>
        <time>2022-04-10T14:14:14Z</time>
      </trkpt>
      <trkpt lat="46.46175" lon="5.45371">
        <ele>390.2</ele>
        <time>2022-04-10T14:14:21Z</time>
      </trkpt>
      <trkpt lat="46.46182" lon="5.45366">
        <ele>390</ele>
        <time>2022-04-10T14:14:22Z</time>
      </trkpt>
      <trkpt lat="46.46189" lon="5.45361">
        <ele>390</ele>
        <time>2022-04-10T14:14:23Z</time>
      </trkpt>
      <trkpt lat="46.46239" lon="5.45325">
        <ele>389.6</ele>
        <time>2022-04-10T14:14:31Z</time>
      </trkpt>
      <trkpt lat="46.46286" lon="5.45288">
        <ele>389</ele>
        <time>2022-04-10T14:14:39Z</time>
      </trkpt>
      <trkpt lat="46.46304" lon="5.45272">
        <ele>388.8</ele>
        <time>2022-04-10T14:14:42Z</time>
      </trkpt>
      <trkpt lat="46.4634" lon="5.45243">
        <ele>388.8</ele>
        <time>2022-04-10T14:14:48Z</time>
      </trkpt>
      <trkpt lat="46.46396" lon="5.45211">
        <ele>388.8</ele>
        <time>2022-04-10T14:14:57Z</time>
      </trkpt>
      <trkpt lat="46.46401" lon="5.45207">
        <ele>388.8</ele>
        <time>2022-04-10T14:14:58Z</time>
      </trkpt>
      <trkpt lat="46.46416" lon="5.4519">
        <ele>389</ele>
        <time>2022-04-10T14:15:01Z</time>
      </trkpt>
      <trkpt lat="46.46428" lon="5.45171">
        <ele>389</ele>
        <time>2022-04-10T14:15:04Z</time>
      </trkpt>
      <trkpt lat="46.46433" lon="5.45157">
        <ele>389.2</ele>
        <time>2022-04-10T14:15:06Z</time>
      </trkpt>
      <trkpt lat="46.46436" lon="5.45143">
        <ele>389.6</ele>
        <time>2022-04-10T14:15:08Z</time>
      </trkpt>
      <trkpt lat="46.46435" lon="5.45128">
        <ele>389.8</ele>
        <time>2022-04-10T14:15:10Z</time>
      </trkpt>
      <trkpt lat="46.46434" lon="5.45114">
        <ele>390</ele>
        <time>2022-04-10T14:15:12Z</time>
      </trkpt>
      <trkpt lat="46.46434" lon="5.45106">
        <ele>390</ele>
        <time>2022-04-10T14:15:13Z</time>
      </trkpt>
      <trkpt lat="46.46428" lon="5.45073">
        <ele>390.4</ele>
        <time>2022-04-10T14:15:17Z</time>
      </trkpt>
      <trkpt lat="46.46415" lon="5.45029">
        <ele>390.8</ele>
        <time>2022-04-10T14:15:22Z</time>
      </trkpt>
      <trkpt lat="46.46399" lon="5.44971">
        <ele>390.8</ele>
        <time>2022-04-10T14:15:28Z</time>
      </trkpt>
      <trkpt lat="46.46392" lon="5.44937">
        <ele>390.8</ele>
        <time>2022-04-10T14:15:32Z</time>
      </trkpt>
      <trkpt lat="46.46387" lon="5.44923">
        <ele>390.8</ele>
        <time>2022-04-10T14:15:34Z</time>
      </trkpt>
      <trkpt lat="46.46381" lon="5.44911">
        <ele>391</ele>
        <time>2022-04-10T14:15:36Z</time>
      </trkpt>
      <trkpt lat="46.4637" lon="5.44891">
        <ele>391.6</ele>
        <time>2022-04-10T14:15:39Z</time>
      </trkpt>
      <trkpt lat="46.46361" lon="5.44871">
        <ele>391.8</ele>
        <time>2022-04-10T14:15:42Z</time>
      </trkpt>
      <trkpt lat="46.46358" lon="5.44854">
        <ele>392</ele>
        <time>2022-04-10T14:15:44Z</time>
      </trkpt>
      <trkpt lat="46.46354" lon="5.44795">
        <ele>392</ele>
        <time>2022-04-10T14:15:51Z</time>
      </trkpt>
      <trkpt lat="46.46354" lon="5.44788">
        <ele>392</ele>
        <time>2022-04-10T14:15:52Z</time>
      </trkpt>
      <trkpt lat="46.46354" lon="5.44758">
        <ele>392.8</ele>
        <time>2022-04-10T14:15:57Z</time>
      </trkpt>
      <trkpt lat="46.46354" lon="5.44748">
        <ele>393.4</ele>
        <time>2022-04-10T14:15:59Z</time>
      </trkpt>
      <trkpt lat="46.46355" lon="5.44729">
        <ele>394.4</ele>
        <time>2022-04-10T14:16:03Z</time>
      </trkpt>
      <trkpt lat="46.46354" lon="5.44719">
        <ele>395.2</ele>
        <time>2022-04-10T14:16:05Z</time>
      </trkpt>
      <trkpt lat="46.46352" lon="5.44715">
        <ele>395.6</ele>
        <time>2022-04-10T14:16:06Z</time>
      </trkpt>
      <trkpt lat="46.46341" lon="5.44708">
        <ele>396.6</ele>
        <time>2022-04-10T14:16:09Z</time>
      </trkpt>
      <trkpt lat="46.46337" lon="5.44706">
        <ele>396.8</ele>
        <time>2022-04-10T14:16:10Z</time>
      </trkpt>
      <trkpt lat="46.46314" lon="5.44694">
        <ele>397.8</ele>
        <time>2022-04-10T14:16:16Z</time>
      </trkpt>
      <trkpt lat="46.46303" lon="5.44689">
        <ele>398.2</ele>
        <time>2022-04-10T14:16:19Z</time>
      </trkpt>
      <trkpt lat="46.46292" lon="5.44684">
        <ele>398.8</ele>
        <time>2022-04-10T14:16:22Z</time>
      </trkpt>
      <trkpt lat="46.46277" lon="5.44676">
        <ele>399.4</ele>
        <time>2022-04-10T14:16:26Z</time>
      </trkpt>
      <trkpt lat="46.46266" lon="5.44671">
        <ele>400</ele>
        <time>2022-04-10T14:16:29Z</time>
      </trkpt>
      <trkpt lat="46.46253" lon="5.44665">
        <ele>401</ele>
        <time>2022-04-10T14:16:33Z</time>
      </trkpt>
      <trkpt lat="46.4625" lon="5.44663">
        <ele>401.2</ele>
        <time>2022-04-10T14:16:34Z</time>
      </trkpt>
      <trkpt lat="46.46233" lon="5.44651">
        <ele>402.4</ele>
        <time>2022-04-10T14:16:39Z</time>
      </trkpt>
      <trkpt lat="46.4623" lon="5.44649">
        <ele>402.6</ele>
        <time>2022-04-10T14:16:40Z</time>
      </trkpt>
      <trkpt lat="46.46217" lon="5.44633">
        <ele>403.6</ele>
        <time>2022-04-10T14:16:45Z</time>
      </trkpt>
      <trkpt lat="46.46214" lon="5.4463">
        <ele>403.6</ele>
        <time>2022-04-10T14:16:46Z</time>
      </trkpt>
      <trkpt lat="46.46205" lon="5.4461">
        <ele>404.6</ele>
        <time>2022-04-10T14:16:51Z</time>
      </trkpt>
      <trkpt lat="46.46202" lon="5.446">
        <ele>405.4</ele>
        <time>2022-04-10T14:16:53Z</time>
      </trkpt>
      <trkpt lat="46.462" lon="5.4459">
        <ele>405.8</ele>
        <time>2022-04-10T14:16:55Z</time>
      </trkpt>
      <trkpt lat="46.46196" lon="5.44559">
        <ele>406.6</ele>
        <time>2022-04-10T14:17:01Z</time>
      </trkpt>
      <trkpt lat="46.46196" lon="5.44553">
        <ele>406.8</ele>
        <time>2022-04-10T14:17:02Z</time>
      </trkpt>
      <trkpt lat="46.46196" lon="5.44534">
        <ele>408</ele>
        <time>2022-04-10T14:17:06Z</time>
      </trkpt>
      <trkpt lat="46.46195" lon="5.44514">
        <ele>408.6</ele>
        <time>2022-04-10T14:17:10Z</time>
      </trkpt>
      <trkpt lat="46.46194" lon="5.44499">
        <ele>409.2</ele>
        <time>2022-04-10T14:17:13Z</time>
      </trkpt>
      <trkpt lat="46.46192" lon="5.44475">
        <ele>410.4</ele>
        <time>2022-04-10T14:17:18Z</time>
      </trkpt>
      <trkpt lat="46.46192" lon="5.44465">
        <ele>411</ele>
        <time>2022-04-10T14:17:20Z</time>
      </trkpt>
      <trkpt lat="46.46192" lon="5.44443">
        <ele>411.6</ele>
        <time>2022-04-10T14:17:24Z</time>
      </trkpt>
      <trkpt lat="46.46192" lon="5.44413">
        <ele>412.8</ele>
        <time>2022-04-10T14:17:30Z</time>
      </trkpt>
      <trkpt lat="46.46192" lon="5.44383">
        <ele>413.8</ele>
        <time>2022-04-10T14:17:36Z</time>
      </trkpt>
      <trkpt lat="46.46192" lon="5.44378">
        <ele>413.8</ele>
        <time>2022-04-10T14:17:37Z</time>
      </trkpt>
      <trkpt lat="46.46193" lon="5.44368">
        <ele>414.2</ele>
        <time>2022-04-10T14:17:39Z</time>
      </trkpt>
      <trkpt lat="46.46194" lon="5.44354">
        <ele>414.8</ele>
        <time>2022-04-10T14:17:42Z</time>
      </trkpt>
      <trkpt lat="46.46195" lon="5.44336">
        <ele>415.6</ele>
        <time>2022-04-10T14:17:46Z</time>
      </trkpt>
      <trkpt lat="46.46195" lon="5.44331">
        <ele>416</ele>
        <time>2022-04-10T14:17:47Z</time>
      </trkpt>
      <trkpt lat="46.46196" lon="5.44309">
        <ele>416.8</ele>
        <time>2022-04-10T14:17:51Z</time>
      </trkpt>
      <trkpt lat="46.46196" lon="5.44304">
        <ele>417</ele>
        <time>2022-04-10T14:17:52Z</time>
      </trkpt>
      <trkpt lat="46.46192" lon="5.44274">
        <ele>418</ele>
        <time>2022-04-10T14:17:57Z</time>
      </trkpt>
      <trkpt lat="46.4619" lon="5.44268">
        <ele>418</ele>
        <time>2022-04-10T14:17:58Z</time>
      </trkpt>
      <trkpt lat="46.46186" lon="5.4425">
        <ele>418.8</ele>
        <time>2022-04-10T14:18:01Z</time>
      </trkpt>
      <trkpt lat="46.46183" lon="5.44238">
        <ele>419.4</ele>
        <time>2022-04-10T14:18:03Z</time>
      </trkpt>
      <trkpt lat="46.46174" lon="5.44212">
        <ele>420.4</ele>
        <time>2022-04-10T14:18:10Z</time>
      </trkpt>
      <trkpt lat="46.46165" lon="5.44185">
        <ele>421.6</ele>
        <time>2022-04-10T14:18:16Z</time>
      </trkpt>
      <trkpt lat="46.46158" lon="5.44166">
        <ele>422.6</ele>
        <time>2022-04-10T14:18:20Z</time>
      </trkpt>
      <trkpt lat="46.4615" lon="5.4414">
        <ele>423.4</ele>
        <time>2022-04-10T14:18:25Z</time>
      </trkpt>
      <trkpt lat="46.46148" lon="5.44135">
        <ele>423.8</ele>
        <time>2022-04-10T14:18:26Z</time>
      </trkpt>
      <trkpt lat="46.4614" lon="5.44107">
        <ele>424.8</ele>
        <time>2022-04-10T14:18:32Z</time>
      </trkpt>
      <trkpt lat="46.46137" lon="5.44088">
        <ele>426.2</ele>
        <time>2022-04-10T14:18:36Z</time>
      </trkpt>
      <trkpt lat="46.46134" lon="5.4407">
        <ele>427.2</ele>
        <time>2022-04-10T14:18:40Z</time>
      </trkpt>
      <trkpt lat="46.4613" lon="5.44045">
        <ele>428.2</ele>
        <time>2022-04-10T14:18:45Z</time>
      </trkpt>
      <trkpt lat="46.46128" lon="5.44035">
        <ele>428.4</ele>
        <time>2022-04-10T14:18:47Z</time>
      </trkpt>
      <trkpt lat="46.46128" lon="5.44004">
        <ele>429.4</ele>
        <time>2022-04-10T14:18:53Z</time>
      </trkpt>
      <trkpt lat="46.46135" lon="5.43962">
        <ele>430.8</ele>
        <time>2022-04-10T14:19:01Z</time>
      </trkpt>
      <trkpt lat="46.46136" lon="5.43957">
        <ele>430.8</ele>
        <time>2022-04-10T14:19:02Z</time>
      </trkpt>
      <trkpt lat="46.4614" lon="5.43939">
        <ele>431.8</ele>
        <time>2022-04-10T14:19:06Z</time>
      </trkpt>
      <trkpt lat="46.46147" lon="5.43915">
        <ele>432.6</ele>
        <time>2022-04-10T14:19:11Z</time>
      </trkpt>
      <trkpt lat="46.46148" lon="5.4391">
        <ele>432.8</ele>
        <time>2022-04-10T14:19:12Z</time>
      </trkpt>
      <trkpt lat="46.46155" lon="5.43885">
        <ele>434.2</ele>
        <time>2022-04-10T14:19:17Z</time>
      </trkpt>
      <trkpt lat="46.46161" lon="5.43862">
        <ele>435.2</ele>
        <time>2022-04-10T14:19:22Z</time>
      </trkpt>
      <trkpt lat="46.46168" lon="5.43836">
        <ele>436.4</ele>
        <time>2022-04-10T14:19:28Z</time>
      </trkpt>
      <trkpt lat="46.46172" lon="5.43827">
        <ele>436.6</ele>
        <time>2022-04-10T14:19:30Z</time>
      </trkpt>
      <trkpt lat="46.46179" lon="5.43808">
        <ele>437.6</ele>
        <time>2022-04-10T14:19:35Z</time>
      </trkpt>
      <trkpt lat="46.46183" lon="5.43795">
        <ele>438.4</ele>
        <time>2022-04-10T14:19:38Z</time>
      </trkpt>
      <trkpt lat="46.46186" lon="5.43788">
        <ele>438.8</ele>
        <time>2022-04-10T14:19:40Z</time>
      </trkpt>
      <trkpt lat="46.46187" lon="5.43785">
        <ele>438.8</ele>
        <time>2022-04-10T14:19:41Z</time>
      </trkpt>
      <trkpt lat="46.46191" lon="5.43758">
        <ele>439.8</ele>
        <time>2022-04-10T14:19:46Z</time>
      </trkpt>
      <trkpt lat="46.46192" lon="5.43753">
        <ele>440</ele>
        <time>2022-04-10T14:19:47Z</time>
      </trkpt>
      <trkpt lat="46.46192" lon="5.43722">
        <ele>441</ele>
        <time>2022-04-10T14:19:52Z</time>
      </trkpt>
      <trkpt lat="46.46191" lon="5.43709">
        <ele>441.6</ele>
        <time>2022-04-10T14:19:54Z</time>
      </trkpt>
      <trkpt lat="46.46189" lon="5.43694">
        <ele>442</ele>
        <time>2022-04-10T14:19:57Z</time>
      </trkpt>
      <trkpt lat="46.46181" lon="5.43661">
        <ele>443</ele>
        <time>2022-04-10T14:20:03Z</time>
      </trkpt>
      <trkpt lat="46.46178" lon="5.43651">
        <ele>443.2</ele>
        <time>2022-04-10T14:20:05Z</time>
      </trkpt>
      <trkpt lat="46.46162" lon="5.43619">
        <ele>443.6</ele>
        <time>2022-04-10T14:20:11Z</time>
      </trkpt>
      <trkpt lat="46.46138" lon="5.43592">
        <ele>443.8</ele>
        <time>2022-04-10T14:20:17Z</time>
      </trkpt>
      <trkpt lat="46.46123" lon="5.43579">
        <ele>443.8</ele>
        <time>2022-04-10T14:20:20Z</time>
      </trkpt>
      <trkpt lat="46.46111" lon="5.43573">
        <ele>443.8</ele>
        <time>2022-04-10T14:20:22Z</time>
      </trkpt>
      <trkpt lat="46.46084" lon="5.43567">
        <ele>443.6</ele>
        <time>2022-04-10T14:20:26Z</time>
      </trkpt>
      <trkpt lat="46.4604" lon="5.43564">
        <ele>442.4</ele>
        <time>2022-04-10T14:20:32Z</time>
      </trkpt>
      <trkpt lat="46.46032" lon="5.43563">
        <ele>442.2</ele>
        <time>2022-04-10T14:20:33Z</time>
      </trkpt>
      <trkpt lat="46.46024" lon="5.4356">
        <ele>442</ele>
        <time>2022-04-10T14:20:34Z</time>
      </trkpt>
      <trkpt lat="46.45999" lon="5.43551">
        <ele>441.6</ele>
        <time>2022-04-10T14:20:37Z</time>
      </trkpt>
      <trkpt lat="46.45984" lon="5.43541">
        <ele>441.2</ele>
        <time>2022-04-10T14:20:39Z</time>
      </trkpt>
      <trkpt lat="46.4596" lon="5.43524">
        <ele>440</ele>
        <time>2022-04-10T14:20:42Z</time>
      </trkpt>
      <trkpt lat="46.45936" lon="5.43506">
        <ele>438.6</ele>
        <time>2022-04-10T14:20:45Z</time>
      </trkpt>
      <trkpt lat="46.45912" lon="5.43487">
        <ele>437.6</ele>
        <time>2022-04-10T14:20:48Z</time>
      </trkpt>
      <trkpt lat="46.45903" lon="5.4348">
        <ele>437.2</ele>
        <time>2022-04-10T14:20:49Z</time>
      </trkpt>
      <trkpt lat="46.45878" lon="5.43461">
        <ele>436.4</ele>
        <time>2022-04-10T14:20:52Z</time>
      </trkpt>
      <trkpt lat="46.45835" lon="5.43427">
        <ele>435</ele>
        <time>2022-04-10T14:20:57Z</time>
      </trkpt>
      <trkpt lat="46.45826" lon="5.4342">
        <ele>434.6</ele>
        <time>2022-04-10T14:20:58Z</time>
      </trkpt>
      <trkpt lat="46.45808" lon="5.43407">
        <ele>434</ele>
        <time>2022-04-10T14:21:00Z</time>
      </trkpt>
      <trkpt lat="46.45781" lon="5.43386">
        <ele>432.4</ele>
        <time>2022-04-10T14:21:03Z</time>
      </trkpt>
      <trkpt lat="46.45754" lon="5.43361">
        <ele>431.2</ele>
        <time>2022-04-10T14:21:06Z</time>
      </trkpt>
      <trkpt lat="46.45737" lon="5.43341">
        <ele>429.6</ele>
        <time>2022-04-10T14:21:08Z</time>
      </trkpt>
      <trkpt lat="46.45722" lon="5.43319">
        <ele>428.4</ele>
        <time>2022-04-10T14:21:10Z</time>
      </trkpt>
      <trkpt lat="46.45715" lon="5.43307">
        <ele>428.2</ele>
        <time>2022-04-10T14:21:11Z</time>
      </trkpt>
      <trkpt lat="46.45687" lon="5.43244">
        <ele>427.4</ele>
        <time>2022-04-10T14:21:16Z</time>
      </trkpt>
      <trkpt lat="46.4567" lon="5.43208">
        <ele>426.2</ele>
        <time>2022-04-10T14:21:19Z</time>
      </trkpt>
      <trkpt lat="46.45644" lon="5.43149">
        <ele>425</ele>
        <time>2022-04-10T14:21:24Z</time>
      </trkpt>
      <trkpt lat="46.45614" lon="5.43082">
        <ele>424</ele>
        <time>2022-04-10T14:21:30Z</time>
      </trkpt>
      <trkpt lat="46.45604" lon="5.4306">
        <ele>424</ele>
        <time>2022-04-10T14:21:32Z</time>
      </trkpt>
      <trkpt lat="46.45574" lon="5.43003">
        <ele>423.8</ele>
        <time>2022-04-10T14:21:38Z</time>
      </trkpt>
      <trkpt lat="46.45543" lon="5.42961">
        <ele>424.4</ele>
        <time>2022-04-10T14:21:44Z</time>
      </trkpt>
      <trkpt lat="46.45529" lon="5.42943">
        <ele>425</ele>
        <time>2022-04-10T14:21:47Z</time>
      </trkpt>
      <trkpt lat="46.45511" lon="5.4292">
        <ele>425.6</ele>
        <time>2022-04-10T14:21:51Z</time>
      </trkpt>
      <trkpt lat="46.45494" lon="5.42897">
        <ele>426</ele>
        <time>2022-04-10T14:21:55Z</time>
      </trkpt>
      <trkpt lat="46.45481" lon="5.4288">
        <ele>426.6</ele>
        <time>2022-04-10T14:21:58Z</time>
      </trkpt>
      <trkpt lat="46.45467" lon="5.42864">
        <ele>427</ele>
        <time>2022-04-10T14:22:01Z</time>
      </trkpt>
      <trkpt lat="46.45444" lon="5.42841">
        <ele>427.8</ele>
        <time>2022-04-10T14:22:06Z</time>
      </trkpt>
      <trkpt lat="46.45439" lon="5.42836">
        <ele>428.2</ele>
        <time>2022-04-10T14:22:07Z</time>
      </trkpt>
      <trkpt lat="46.45412" lon="5.4281">
        <ele>429.4</ele>
        <time>2022-04-10T14:22:13Z</time>
      </trkpt>
      <trkpt lat="46.45392" lon="5.42789">
        <ele>430.4</ele>
        <time>2022-04-10T14:22:18Z</time>
      </trkpt>
      <trkpt lat="46.45361" lon="5.42746">
        <ele>431.4</ele>
        <time>2022-04-10T14:22:27Z</time>
      </trkpt>
      <trkpt lat="46.45358" lon="5.42741">
        <ele>431.6</ele>
        <time>2022-04-10T14:22:28Z</time>
      </trkpt>
      <trkpt lat="46.45334" lon="5.42698">
        <ele>432.6</ele>
        <time>2022-04-10T14:22:36Z</time>
      </trkpt>
      <trkpt lat="46.45331" lon="5.42693">
        <ele>432.8</ele>
        <time>2022-04-10T14:22:37Z</time>
      </trkpt>
      <trkpt lat="46.45317" lon="5.42666">
        <ele>434</ele>
        <time>2022-04-10T14:22:42Z</time>
      </trkpt>
      <trkpt lat="46.45305" lon="5.42645">
        <ele>435</ele>
        <time>2022-04-10T14:22:46Z</time>
      </trkpt>
      <trkpt lat="46.45302" lon="5.42639">
        <ele>435.2</ele>
        <time>2022-04-10T14:22:47Z</time>
      </trkpt>
      <trkpt lat="46.45281" lon="5.42602">
        <ele>436.2</ele>
        <time>2022-04-10T14:22:54Z</time>
      </trkpt>
      <trkpt lat="46.45272" lon="5.42586">
        <ele>436.6</ele>
        <time>2022-04-10T14:22:57Z</time>
      </trkpt>
      <trkpt lat="46.45258" lon="5.42559">
        <ele>437.2</ele>
        <time>2022-04-10T14:23:02Z</time>
      </trkpt>
      <trkpt lat="46.45244" lon="5.42533">
        <ele>438.4</ele>
        <time>2022-04-10T14:23:07Z</time>
      </trkpt>
      <trkpt lat="46.45235" lon="5.42517">
        <ele>439</ele>
        <time>2022-04-10T14:23:10Z</time>
      </trkpt>
      <trkpt lat="46.45226" lon="5.42501">
        <ele>439.4</ele>
        <time>2022-04-10T14:23:13Z</time>
      </trkpt>
      <trkpt lat="46.45211" lon="5.42474">
        <ele>440.4</ele>
        <time>2022-04-10T14:23:18Z</time>
      </trkpt>
      <trkpt lat="46.45205" lon="5.42463">
        <ele>440.6</ele>
        <time>2022-04-10T14:23:20Z</time>
      </trkpt>
      <trkpt lat="46.45191" lon="5.42436">
        <ele>441.4</ele>
        <time>2022-04-10T14:23:25Z</time>
      </trkpt>
      <trkpt lat="46.45166" lon="5.42395">
        <ele>442.6</ele>
        <time>2022-04-10T14:23:33Z</time>
      </trkpt>
      <trkpt lat="46.45142" lon="5.42363">
        <ele>443.6</ele>
        <time>2022-04-10T14:23:40Z</time>
      </trkpt>
      <trkpt lat="46.45138" lon="5.42358">
        <ele>443.8</ele>
        <time>2022-04-10T14:23:41Z</time>
      </trkpt>
      <trkpt lat="46.45124" lon="5.4234">
        <ele>444.2</ele>
        <time>2022-04-10T14:23:45Z</time>
      </trkpt>
      <trkpt lat="46.45118" lon="5.4233">
        <ele>444.6</ele>
        <time>2022-04-10T14:23:47Z</time>
      </trkpt>
      <trkpt lat="46.45113" lon="5.42323">
        <ele>445.2</ele>
        <time>2022-04-10T14:23:49Z</time>
      </trkpt>
      <trkpt lat="46.45104" lon="5.42312">
        <ele>446.4</ele>
        <time>2022-04-10T14:23:52Z</time>
      </trkpt>
      <trkpt lat="46.45098" lon="5.42305">
        <ele>446.8</ele>
        <time>2022-04-10T14:23:54Z</time>
      </trkpt>
      <trkpt lat="46.45088" lon="5.42283">
        <ele>447.4</ele>
        <time>2022-04-10T14:23:59Z</time>
      </trkpt>
      <trkpt lat="46.45087" lon="5.42278">
        <ele>447.6</ele>
        <time>2022-04-10T14:24:00Z</time>
      </trkpt>
      <trkpt lat="46.45084" lon="5.42245">
        <ele>448.4</ele>
        <time>2022-04-10T14:24:06Z</time>
      </trkpt>
      <trkpt lat="46.45083" lon="5.4224">
        <ele>448.6</ele>
        <time>2022-04-10T14:24:07Z</time>
      </trkpt>
      <trkpt lat="46.45081" lon="5.42213">
        <ele>449.8</ele>
        <time>2022-04-10T14:24:12Z</time>
      </trkpt>
      <trkpt lat="46.45081" lon="5.42207">
        <ele>449.8</ele>
        <time>2022-04-10T14:24:13Z</time>
      </trkpt>
      <trkpt lat="46.45071" lon="5.42169">
        <ele>450.8</ele>
        <time>2022-04-10T14:24:20Z</time>
      </trkpt>
      <trkpt lat="46.45056" lon="5.42125">
        <ele>451.8</ele>
        <time>2022-04-10T14:24:27Z</time>
      </trkpt>
      <trkpt lat="46.45053" lon="5.42118">
        <ele>452</ele>
        <time>2022-04-10T14:24:28Z</time>
      </trkpt>
      <trkpt lat="46.45031" lon="5.42072">
        <ele>452.4</ele>
        <time>2022-04-10T14:24:35Z</time>
      </trkpt>
      <trkpt lat="46.45008" lon="5.42033">
        <ele>453</ele>
        <time>2022-04-10T14:24:42Z</time>
      </trkpt>
      <trkpt lat="46.45005" lon="5.42028">
        <ele>453</ele>
        <time>2022-04-10T14:24:43Z</time>
      </trkpt>
      <trkpt lat="46.44978" lon="5.41987">
        <ele>454</ele>
        <time>2022-04-10T14:24:51Z</time>
      </trkpt>
      <trkpt lat="46.44975" lon="5.41982">
        <ele>454</ele>
        <time>2022-04-10T14:24:52Z</time>
      </trkpt>
      <trkpt lat="46.44964" lon="5.41961">
        <ele>454.6</ele>
        <time>2022-04-10T14:24:56Z</time>
      </trkpt>
      <trkpt lat="46.44961" lon="5.41951">
        <ele>455</ele>
        <time>2022-04-10T14:24:58Z</time>
      </trkpt>
      <trkpt lat="46.44959" lon="5.41945">
        <ele>455.4</ele>
        <time>2022-04-10T14:24:59Z</time>
      </trkpt>
      <trkpt lat="46.44958" lon="5.41927">
        <ele>456.2</ele>
        <time>2022-04-10T14:25:02Z</time>
      </trkpt>
      <trkpt lat="46.44958" lon="5.4192">
        <ele>456.4</ele>
        <time>2022-04-10T14:25:03Z</time>
      </trkpt>
      <trkpt lat="46.44958" lon="5.41914">
        <ele>456.6</ele>
        <time>2022-04-10T14:25:04Z</time>
      </trkpt>
      <trkpt lat="46.44968" lon="5.41866">
        <ele>457.4</ele>
        <time>2022-04-10T14:25:11Z</time>
      </trkpt>
      <trkpt lat="46.44986" lon="5.4183">
        <ele>458</ele>
        <time>2022-04-10T14:25:18Z</time>
      </trkpt>
      <trkpt lat="46.44993" lon="5.41821">
        <ele>458.4</ele>
        <time>2022-04-10T14:25:20Z</time>
      </trkpt>
      <trkpt lat="46.44997" lon="5.41817">
        <ele>458.6</ele>
        <time>2022-04-10T14:25:21Z</time>
      </trkpt>
      <trkpt lat="46.4501" lon="5.41808">
        <ele>458.8</ele>
        <time>2022-04-10T14:25:24Z</time>
      </trkpt>
      <trkpt lat="46.45019" lon="5.41805">
        <ele>459</ele>
        <time>2022-04-10T14:25:26Z</time>
      </trkpt>
      <trkpt lat="46.45034" lon="5.41805">
        <ele>459.2</ele>
        <time>2022-04-10T14:25:29Z</time>
      </trkpt>
      <trkpt lat="46.45038" lon="5.41806">
        <ele>459.2</ele>
        <time>2022-04-10T14:25:30Z</time>
      </trkpt>
      <trkpt lat="46.45058" lon="5.41813">
        <ele>459.2</ele>
        <time>2022-04-10T14:25:34Z</time>
      </trkpt>
      <trkpt lat="46.45075" lon="5.41815">
        <ele>459.4</ele>
        <time>2022-04-10T14:25:37Z</time>
      </trkpt>
      <trkpt lat="46.45107" lon="5.41812">
        <ele>459.2</ele>
        <time>2022-04-10T14:25:42Z</time>
      </trkpt>
      <trkpt lat="46.45137" lon="5.41803">
        <ele>458.8</ele>
        <time>2022-04-10T14:25:47Z</time>
      </trkpt>
      <trkpt lat="46.45172" lon="5.41777">
        <ele>458.4</ele>
        <time>2022-04-10T14:25:54Z</time>
      </trkpt>
      <trkpt lat="46.45185" lon="5.4176">
        <ele>458.6</ele>
        <time>2022-04-10T14:25:57Z</time>
      </trkpt>
      <trkpt lat="46.45196" lon="5.4174">
        <ele>458.6</ele>
        <time>2022-04-10T14:26:00Z</time>
      </trkpt>
      <trkpt lat="46.45215" lon="5.41691">
        <ele>459</ele>
        <time>2022-04-10T14:26:07Z</time>
      </trkpt>
      <trkpt lat="46.45227" lon="5.4165">
        <ele>459.6</ele>
        <time>2022-04-10T14:26:13Z</time>
      </trkpt>
      <trkpt lat="46.45233" lon="5.4163">
        <ele>459.8</ele>
        <time>2022-04-10T14:26:16Z</time>
      </trkpt>
      <trkpt lat="46.45237" lon="5.41604">
        <ele>460.6</ele>
        <time>2022-04-10T14:26:20Z</time>
      </trkpt>
      <trkpt lat="46.45242" lon="5.41583">
        <ele>461.4</ele>
        <time>2022-04-10T14:26:23Z</time>
      </trkpt>
      <trkpt lat="46.45244" lon="5.41576">
        <ele>461.6</ele>
        <time>2022-04-10T14:26:24Z</time>
      </trkpt>
      <trkpt lat="46.45247" lon="5.41569">
        <ele>461.6</ele>
        <time>2022-04-10T14:26:25Z</time>
      </trkpt>
      <trkpt lat="46.4525" lon="5.41562">
        <ele>461.8</ele>
        <time>2022-04-10T14:26:26Z</time>
      </trkpt>
      <trkpt lat="46.45257" lon="5.4155">
        <ele>462</ele>
        <time>2022-04-10T14:26:28Z</time>
      </trkpt>
      <trkpt lat="46.45266" lon="5.41541">
        <ele>462.2</ele>
        <time>2022-04-10T14:26:30Z</time>
      </trkpt>
      <trkpt lat="46.45276" lon="5.41534">
        <ele>462.6</ele>
        <time>2022-04-10T14:26:32Z</time>
      </trkpt>
      <trkpt lat="46.45282" lon="5.41532">
        <ele>462.8</ele>
        <time>2022-04-10T14:26:33Z</time>
      </trkpt>
      <trkpt lat="46.45297" lon="5.4153">
        <ele>463</ele>
        <time>2022-04-10T14:26:36Z</time>
      </trkpt>
      <trkpt lat="46.45302" lon="5.4153">
        <ele>463.2</ele>
        <time>2022-04-10T14:26:37Z</time>
      </trkpt>
      <trkpt lat="46.4533" lon="5.41534">
        <ele>463.8</ele>
        <time>2022-04-10T14:26:43Z</time>
      </trkpt>
      <trkpt lat="46.45335" lon="5.41535">
        <ele>464</ele>
        <time>2022-04-10T14:26:44Z</time>
      </trkpt>
      <trkpt lat="46.45361" lon="5.41539">
        <ele>465</ele>
        <time>2022-04-10T14:26:50Z</time>
      </trkpt>
      <trkpt lat="46.45371" lon="5.41538">
        <ele>465</ele>
        <time>2022-04-10T14:26:52Z</time>
      </trkpt>
      <trkpt lat="46.45403" lon="5.4153">
        <ele>466</ele>
        <time>2022-04-10T14:26:59Z</time>
      </trkpt>
      <trkpt lat="46.45425" lon="5.41523">
        <ele>466.8</ele>
        <time>2022-04-10T14:27:04Z</time>
      </trkpt>
      <trkpt lat="46.45434" lon="5.4152">
        <ele>467</ele>
        <time>2022-04-10T14:27:06Z</time>
      </trkpt>
      <trkpt lat="46.45463" lon="5.41508">
        <ele>468.2</ele>
        <time>2022-04-10T14:27:13Z</time>
      </trkpt>
      <trkpt lat="46.45485" lon="5.41499">
        <ele>469.4</ele>
        <time>2022-04-10T14:27:18Z</time>
      </trkpt>
      <trkpt lat="46.45514" lon="5.41484">
        <ele>470.4</ele>
        <time>2022-04-10T14:27:25Z</time>
      </trkpt>
      <trkpt lat="46.45553" lon="5.41462">
        <ele>471</ele>
        <time>2022-04-10T14:27:34Z</time>
      </trkpt>
      <trkpt lat="46.45584" lon="5.41436">
        <ele>471.2</ele>
        <time>2022-04-10T14:27:41Z</time>
      </trkpt>
      <trkpt lat="46.45606" lon="5.41404">
        <ele>471.6</ele>
        <time>2022-04-10T14:27:47Z</time>
      </trkpt>
      <trkpt lat="46.45609" lon="5.41398">
        <ele>471.6</ele>
        <time>2022-04-10T14:27:48Z</time>
      </trkpt>
      <trkpt lat="46.45637" lon="5.41342">
        <ele>472.6</ele>
        <time>2022-04-10T14:27:58Z</time>
      </trkpt>
      <trkpt lat="46.45666" lon="5.41298">
        <ele>473</ele>
        <time>2022-04-10T14:28:06Z</time>
      </trkpt>
      <trkpt lat="46.45698" lon="5.4126">
        <ele>472.8</ele>
        <time>2022-04-10T14:28:13Z</time>
      </trkpt>
      <trkpt lat="46.45734" lon="5.4122">
        <ele>472.6</ele>
        <time>2022-04-10T14:28:21Z</time>
      </trkpt>
      <trkpt lat="46.45747" lon="5.41203">
        <ele>472.6</ele>
        <time>2022-04-10T14:28:24Z</time>
      </trkpt>
      <trkpt lat="46.45758" lon="5.41183">
        <ele>473</ele>
        <time>2022-04-10T14:28:27Z</time>
      </trkpt>
      <trkpt lat="46.45772" lon="5.41138">
        <ele>473.8</ele>
        <time>2022-04-10T14:28:33Z</time>
      </trkpt>
      <trkpt lat="46.45774" lon="5.41131">
        <ele>473.6</ele>
        <time>2022-04-10T14:28:34Z</time>
      </trkpt>
      <trkpt lat="46.45783" lon="5.41087">
        <ele>474.4</ele>
        <time>2022-04-10T14:28:40Z</time>
      </trkpt>
      <trkpt lat="46.45802" lon="5.41015">
        <ele>474.2</ele>
        <time>2022-04-10T14:28:50Z</time>
      </trkpt>
      <trkpt lat="46.45814" lon="5.40976">
        <ele>474.8</ele>
        <time>2022-04-10T14:28:56Z</time>
      </trkpt>
      <trkpt lat="46.45819" lon="5.40956">
        <ele>475.2</ele>
        <time>2022-04-10T14:28:59Z</time>
      </trkpt>
      <trkpt lat="46.45827" lon="5.4092">
        <ele>475.8</ele>
        <time>2022-04-10T14:29:04Z</time>
      </trkpt>
      <trkpt lat="46.45833" lon="5.40883">
        <ele>476</ele>
        <time>2022-04-10T14:29:09Z</time>
      </trkpt>
      <trkpt lat="46.45844" lon="5.40807">
        <ele>476.4</ele>
        <time>2022-04-10T14:29:19Z</time>
      </trkpt>
      <trkpt lat="46.45851" lon="5.40742">
        <ele>476.6</ele>
        <time>2022-04-10T14:29:27Z</time>
      </trkpt>
      <trkpt lat="46.4586" lon="5.40701">
        <ele>477</ele>
        <time>2022-04-10T14:29:33Z</time>
      </trkpt>
      <trkpt lat="46.45862" lon="5.40695">
        <ele>477</ele>
        <time>2022-04-10T14:29:34Z</time>
      </trkpt>
      <trkpt lat="46.45876" lon="5.4066">
        <ele>478</ele>
        <time>2022-04-10T14:29:41Z</time>
      </trkpt>
      <trkpt lat="46.45887" lon="5.40638">
        <ele>479</ele>
        <time>2022-04-10T14:29:47Z</time>
      </trkpt>
      <trkpt lat="46.45893" lon="5.40628">
        <ele>480.4</ele>
        <time>2022-04-10T14:29:50Z</time>
      </trkpt>
      <trkpt lat="46.45898" lon="5.40616">
        <ele>481.2</ele>
        <time>2022-04-10T14:29:53Z</time>
      </trkpt>
      <trkpt lat="46.459" lon="5.40612">
        <ele>481.6</ele>
        <time>2022-04-10T14:29:54Z</time>
      </trkpt>
      <trkpt lat="46.45906" lon="5.40591">
        <ele>482.6</ele>
        <time>2022-04-10T14:29:59Z</time>
      </trkpt>
      <trkpt lat="46.45908" lon="5.40586">
        <ele>482.8</ele>
        <time>2022-04-10T14:30:00Z</time>
      </trkpt>
      <trkpt lat="46.45913" lon="5.40574">
        <ele>483.8</ele>
        <time>2022-04-10T14:30:03Z</time>
      </trkpt>
      <trkpt lat="46.45921" lon="5.40557">
        <ele>484.8</ele>
        <time>2022-04-10T14:30:07Z</time>
      </trkpt>
      <trkpt lat="46.45922" lon="5.40553">
        <ele>485</ele>
        <time>2022-04-10T14:30:08Z</time>
      </trkpt>
      <trkpt lat="46.45931" lon="5.40533">
        <ele>486</ele>
        <time>2022-04-10T14:30:13Z</time>
      </trkpt>
      <trkpt lat="46.45937" lon="5.40523">
        <ele>486.6</ele>
        <time>2022-04-10T14:30:16Z</time>
      </trkpt>
      <trkpt lat="46.45943" lon="5.40515">
        <ele>487</ele>
        <time>2022-04-10T14:30:19Z</time>
      </trkpt>
      <trkpt lat="46.45952" lon="5.40506">
        <ele>488.2</ele>
        <time>2022-04-10T14:30:23Z</time>
      </trkpt>
      <trkpt lat="46.45957" lon="5.40498">
        <ele>489.2</ele>
        <time>2022-04-10T14:30:26Z</time>
      </trkpt>
      <trkpt lat="46.45968" lon="5.40483">
        <ele>490.2</ele>
        <time>2022-04-10T14:30:31Z</time>
      </trkpt>
      <trkpt lat="46.45971" lon="5.4048">
        <ele>490.4</ele>
        <time>2022-04-10T14:30:32Z</time>
      </trkpt>
      <trkpt lat="46.45981" lon="5.40461">
        <ele>491.4</ele>
        <time>2022-04-10T14:30:37Z</time>
      </trkpt>
      <trkpt lat="46.45983" lon="5.40458">
        <ele>491.6</ele>
        <time>2022-04-10T14:30:38Z</time>
      </trkpt>
      <trkpt lat="46.45989" lon="5.40447">
        <ele>492.8</ele>
        <time>2022-04-10T14:30:41Z</time>
      </trkpt>
      <trkpt lat="46.45994" lon="5.40436">
        <ele>493.2</ele>
        <time>2022-04-10T14:30:44Z</time>
      </trkpt>
      <trkpt lat="46.45998" lon="5.40428">
        <ele>493.8</ele>
        <time>2022-04-10T14:30:46Z</time>
      </trkpt>
      <trkpt lat="46.46005" lon="5.4041">
        <ele>495</ele>
        <time>2022-04-10T14:30:51Z</time>
      </trkpt>
      <trkpt lat="46.46006" lon="5.40406">
        <ele>495.4</ele>
        <time>2022-04-10T14:30:52Z</time>
      </trkpt>
      <trkpt lat="46.46012" lon="5.40393">
        <ele>496.2</ele>
        <time>2022-04-10T14:30:56Z</time>
      </trkpt>
      <trkpt lat="46.46017" lon="5.40383">
        <ele>497</ele>
        <time>2022-04-10T14:30:59Z</time>
      </trkpt>
      <trkpt lat="46.4602" lon="5.40376">
        <ele>497.4</ele>
        <time>2022-04-10T14:31:01Z</time>
      </trkpt>
      <trkpt lat="46.4603" lon="5.40359">
        <ele>498.6</ele>
        <time>2022-04-10T14:31:06Z</time>
      </trkpt>
      <trkpt lat="46.46035" lon="5.40348">
        <ele>499.4</ele>
        <time>2022-04-10T14:31:09Z</time>
      </trkpt>
      <trkpt lat="46.46038" lon="5.40345">
        <ele>499.6</ele>
        <time>2022-04-10T14:31:10Z</time>
      </trkpt>
      <trkpt lat="46.46045" lon="5.40336">
        <ele>500.6</ele>
        <time>2022-04-10T14:31:13Z</time>
      </trkpt>
      <trkpt lat="46.46056" lon="5.40328">
        <ele>501.6</ele>
        <time>2022-04-10T14:31:17Z</time>
      </trkpt>
      <trkpt lat="46.46059" lon="5.40327">
        <ele>501.8</ele>
        <time>2022-04-10T14:31:18Z</time>
      </trkpt>
      <trkpt lat="46.46071" lon="5.40321">
        <ele>502.6</ele>
        <time>2022-04-10T14:31:22Z</time>
      </trkpt>
      <trkpt lat="46.46082" lon="5.40316">
        <ele>503.6</ele>
        <time>2022-04-10T14:31:26Z</time>
      </trkpt>
      <trkpt lat="46.46097" lon="5.4031">
        <ele>504.6</ele>
        <time>2022-04-10T14:31:31Z</time>
      </trkpt>
      <trkpt lat="46.4611" lon="5.40302">
        <ele>505.8</ele>
        <time>2022-04-10T14:31:36Z</time>
      </trkpt>
      <trkpt lat="46.46115" lon="5.40298">
        <ele>506.4</ele>
        <time>2022-04-10T14:31:38Z</time>
      </trkpt>
      <trkpt lat="46.46126" lon="5.40286">
        <ele>507.2</ele>
        <time>2022-04-10T14:31:42Z</time>
      </trkpt>
      <trkpt lat="46.46134" lon="5.40274">
        <ele>507.6</ele>
        <time>2022-04-10T14:31:45Z</time>
      </trkpt>
      <trkpt lat="46.46144" lon="5.40256">
        <ele>508.2</ele>
        <time>2022-04-10T14:31:49Z</time>
      </trkpt>
      <trkpt lat="46.46154" lon="5.40239">
        <ele>508.6</ele>
        <time>2022-04-10T14:31:53Z</time>
      </trkpt>
      <trkpt lat="46.4617" lon="5.40209">
        <ele>509.2</ele>
        <time>2022-04-10T14:32:00Z</time>
      </trkpt>
      <trkpt lat="46.46177" lon="5.40198">
        <ele>509.8</ele>
        <time>2022-04-10T14:32:03Z</time>
      </trkpt>
      <trkpt lat="46.46188" lon="5.40176">
        <ele>510.6</ele>
        <time>2022-04-10T14:32:08Z</time>
      </trkpt>
      <trkpt lat="46.46195" lon="5.40163">
        <ele>510.8</ele>
        <time>2022-04-10T14:32:11Z</time>
      </trkpt>
      <trkpt lat="46.46201" lon="5.40154">
        <ele>511.2</ele>
        <time>2022-04-10T14:32:13Z</time>
      </trkpt>
      <trkpt lat="46.4621" lon="5.4014">
        <ele>511.4</ele>
        <time>2022-04-10T14:32:16Z</time>
      </trkpt>
      <trkpt lat="46.46221" lon="5.40126">
        <ele>511.4</ele>
        <time>2022-04-10T14:32:19Z</time>
      </trkpt>
      <trkpt lat="46.46245" lon="5.40101">
        <ele>512.2</ele>
        <time>2022-04-10T14:32:25Z</time>
      </trkpt>
      <trkpt lat="46.4625" lon="5.40098">
        <ele>512.6</ele>
        <time>2022-04-10T14:32:26Z</time>
      </trkpt>
      <trkpt lat="46.46267" lon="5.40091">
        <ele>512.8</ele>
        <time>2022-04-10T14:32:30Z</time>
      </trkpt>
      <trkpt lat="46.46271" lon="5.4009">
        <ele>513.2</ele>
        <time>2022-04-10T14:32:31Z</time>
      </trkpt>
      <trkpt lat="46.46283" lon="5.40091">
        <ele>513.4</ele>
        <time>2022-04-10T14:32:34Z</time>
      </trkpt>
      <trkpt lat="46.4629" lon="5.40092">
        <ele>514</ele>
        <time>2022-04-10T14:32:36Z</time>
      </trkpt>
      <trkpt lat="46.46303" lon="5.40093">
        <ele>515</ele>
        <time>2022-04-10T14:32:40Z</time>
      </trkpt>
      <trkpt lat="46.46313" lon="5.40093">
        <ele>515.8</ele>
        <time>2022-04-10T14:32:43Z</time>
      </trkpt>
      <trkpt lat="46.46316" lon="5.40093">
        <ele>516</ele>
        <time>2022-04-10T14:32:44Z</time>
      </trkpt>
      <trkpt lat="46.46328" lon="5.40092">
        <ele>517.2</ele>
        <time>2022-04-10T14:32:47Z</time>
      </trkpt>
      <trkpt lat="46.46332" lon="5.40092">
        <ele>517.4</ele>
        <time>2022-04-10T14:32:48Z</time>
      </trkpt>
      <trkpt lat="46.46336" lon="5.40092">
        <ele>517.6</ele>
        <time>2022-04-10T14:32:49Z</time>
      </trkpt>
      <trkpt lat="46.46353" lon="5.4009">
        <ele>518.2</ele>
        <time>2022-04-10T14:32:53Z</time>
      </trkpt>
      <trkpt lat="46.46362" lon="5.4009">
        <ele>518.4</ele>
        <time>2022-04-10T14:32:55Z</time>
      </trkpt>
      <trkpt lat="46.46391" lon="5.40085">
        <ele>519.4</ele>
        <time>2022-04-10T14:33:02Z</time>
      </trkpt>
      <trkpt lat="46.46399" lon="5.40084">
        <ele>519.6</ele>
        <time>2022-04-10T14:33:04Z</time>
      </trkpt>
      <trkpt lat="46.46422" lon="5.4008">
        <ele>520.4</ele>
        <time>2022-04-10T14:33:10Z</time>
      </trkpt>
      <trkpt lat="46.46445" lon="5.40076">
        <ele>521.2</ele>
        <time>2022-04-10T14:33:16Z</time>
      </trkpt>
      <trkpt lat="46.46458" lon="5.40074">
        <ele>521.4</ele>
        <time>2022-04-10T14:33:19Z</time>
      </trkpt>
      <trkpt lat="46.46482" lon="5.40071">
        <ele>522.4</ele>
        <time>2022-04-10T14:33:25Z</time>
      </trkpt>
      <trkpt lat="46.46486" lon="5.40071">
        <ele>522.6</ele>
        <time>2022-04-10T14:33:26Z</time>
      </trkpt>
      <trkpt lat="46.46516" lon="5.40077">
        <ele>523.6</ele>
        <time>2022-04-10T14:33:33Z</time>
      </trkpt>
      <trkpt lat="46.46527" lon="5.40083">
        <ele>524</ele>
        <time>2022-04-10T14:33:36Z</time>
      </trkpt>
      <trkpt lat="46.46555" lon="5.40097">
        <ele>525</ele>
        <time>2022-04-10T14:33:43Z</time>
      </trkpt>
      <trkpt lat="46.46559" lon="5.40099">
        <ele>525.2</ele>
        <time>2022-04-10T14:33:44Z</time>
      </trkpt>
      <trkpt lat="46.46587" lon="5.40113">
        <ele>526</ele>
        <time>2022-04-10T14:33:51Z</time>
      </trkpt>
      <trkpt lat="46.4659" lon="5.40115">
        <ele>526.6</ele>
        <time>2022-04-10T14:33:52Z</time>
      </trkpt>
      <trkpt lat="46.46601" lon="5.40121">
        <ele>527.2</ele>
        <time>2022-04-10T14:33:55Z</time>
      </trkpt>
      <trkpt lat="46.46618" lon="5.4013">
        <ele>527.8</ele>
        <time>2022-04-10T14:34:00Z</time>
      </trkpt>
      <trkpt lat="46.46622" lon="5.40132">
        <ele>528</ele>
        <time>2022-04-10T14:34:01Z</time>
      </trkpt>
      <trkpt lat="46.46625" lon="5.40133">
        <ele>528.2</ele>
        <time>2022-04-10T14:34:02Z</time>
      </trkpt>
      <trkpt lat="46.46637" lon="5.4014">
        <ele>529.4</ele>
        <time>2022-04-10T14:34:06Z</time>
      </trkpt>
      <trkpt lat="46.46647" lon="5.40145">
        <ele>529.8</ele>
        <time>2022-04-10T14:34:09Z</time>
      </trkpt>
      <trkpt lat="46.46656" lon="5.4015">
        <ele>530.4</ele>
        <time>2022-04-10T14:34:12Z</time>
      </trkpt>
      <trkpt lat="46.46671" lon="5.40158">
        <ele>531.4</ele>
        <time>2022-04-10T14:34:17Z</time>
      </trkpt>
      <trkpt lat="46.46687" lon="5.40167">
        <ele>532.2</ele>
        <time>2022-04-10T14:34:22Z</time>
      </trkpt>
      <trkpt lat="46.46693" lon="5.4017">
        <ele>532.6</ele>
        <time>2022-04-10T14:34:24Z</time>
      </trkpt>
      <trkpt lat="46.46709" lon="5.40178">
        <ele>533.6</ele>
        <time>2022-04-10T14:34:29Z</time>
      </trkpt>
      <trkpt lat="46.46721" lon="5.40183">
        <ele>534.6</ele>
        <time>2022-04-10T14:34:33Z</time>
      </trkpt>
      <trkpt lat="46.46724" lon="5.40184">
        <ele>534.8</ele>
        <time>2022-04-10T14:34:34Z</time>
      </trkpt>
      <trkpt lat="46.46743" lon="5.40194">
        <ele>535.8</ele>
        <time>2022-04-10T14:34:40Z</time>
      </trkpt>
      <trkpt lat="46.46756" lon="5.40201">
        <ele>536.6</ele>
        <time>2022-04-10T14:34:44Z</time>
      </trkpt>
      <trkpt lat="46.46763" lon="5.40204">
        <ele>536.8</ele>
        <time>2022-04-10T14:34:46Z</time>
      </trkpt>
      <trkpt lat="46.46782" lon="5.40215">
        <ele>538.6</ele>
        <time>2022-04-10T14:34:52Z</time>
      </trkpt>
      <trkpt lat="46.46785" lon="5.40217">
        <ele>538.6</ele>
        <time>2022-04-10T14:34:53Z</time>
      </trkpt>
      <trkpt lat="46.46801" lon="5.40224">
        <ele>540</ele>
        <time>2022-04-10T14:34:58Z</time>
      </trkpt>
      <trkpt lat="46.46808" lon="5.40228">
        <ele>540.4</ele>
        <time>2022-04-10T14:35:00Z</time>
      </trkpt>
      <trkpt lat="46.46825" lon="5.40235">
        <ele>541.2</ele>
        <time>2022-04-10T14:35:05Z</time>
      </trkpt>
      <trkpt lat="46.46841" lon="5.40243">
        <ele>542.4</ele>
        <time>2022-04-10T14:35:10Z</time>
      </trkpt>
      <trkpt lat="46.46864" lon="5.40253">
        <ele>543.4</ele>
        <time>2022-04-10T14:35:17Z</time>
      </trkpt>
      <trkpt lat="46.4687" lon="5.40256">
        <ele>543.6</ele>
        <time>2022-04-10T14:35:19Z</time>
      </trkpt>
      <trkpt lat="46.46887" lon="5.40265">
        <ele>544.6</ele>
        <time>2022-04-10T14:35:24Z</time>
      </trkpt>
      <trkpt lat="46.46894" lon="5.4027">
        <ele>545</ele>
        <time>2022-04-10T14:35:26Z</time>
      </trkpt>
      <trkpt lat="46.46913" lon="5.4028">
        <ele>545.6</ele>
        <time>2022-04-10T14:35:31Z</time>
      </trkpt>
      <trkpt lat="46.46921" lon="5.40284">
        <ele>546.2</ele>
        <time>2022-04-10T14:35:33Z</time>
      </trkpt>
      <trkpt lat="46.4695" lon="5.403">
        <ele>546.8</ele>
        <time>2022-04-10T14:35:40Z</time>
      </trkpt>
      <trkpt lat="46.46954" lon="5.40302">
        <ele>547</ele>
        <time>2022-04-10T14:35:41Z</time>
      </trkpt>
      <trkpt lat="46.46962" lon="5.40306">
        <ele>547.2</ele>
        <time>2022-04-10T14:35:43Z</time>
      </trkpt>
      <trkpt lat="46.46979" lon="5.40313">
        <ele>548</ele>
        <time>2022-04-10T14:35:47Z</time>
      </trkpt>
      <trkpt lat="46.46984" lon="5.40315">
        <ele>548.2</ele>
        <time>2022-04-10T14:35:48Z</time>
      </trkpt>
      <trkpt lat="46.46993" lon="5.40317">
        <ele>549</ele>
        <time>2022-04-10T14:35:50Z</time>
      </trkpt>
      <trkpt lat="46.46998" lon="5.40319">
        <ele>549.2</ele>
        <time>2022-04-10T14:35:51Z</time>
      </trkpt>
      <trkpt lat="46.47027" lon="5.40324">
        <ele>550</ele>
        <time>2022-04-10T14:35:57Z</time>
      </trkpt>
      <trkpt lat="46.47037" lon="5.40324">
        <ele>550.4</ele>
        <time>2022-04-10T14:35:59Z</time>
      </trkpt>
      <trkpt lat="46.47063" lon="5.40326">
        <ele>550.6</ele>
        <time>2022-04-10T14:36:03Z</time>
      </trkpt>
      <trkpt lat="46.47092" lon="5.4033">
        <ele>550.4</ele>
        <time>2022-04-10T14:36:07Z</time>
      </trkpt>
      <trkpt lat="46.4712" lon="5.40334">
        <ele>549</ele>
        <time>2022-04-10T14:36:10Z</time>
      </trkpt>
      <trkpt lat="46.47139" lon="5.40337">
        <ele>548.4</ele>
        <time>2022-04-10T14:36:12Z</time>
      </trkpt>
      <trkpt lat="46.47158" lon="5.40343">
        <ele>547.8</ele>
        <time>2022-04-10T14:36:14Z</time>
      </trkpt>
      <trkpt lat="46.47177" lon="5.40352">
        <ele>546.8</ele>
        <time>2022-04-10T14:36:16Z</time>
      </trkpt>
      <trkpt lat="46.47186" lon="5.40358">
        <ele>545.8</ele>
        <time>2022-04-10T14:36:17Z</time>
      </trkpt>
      <trkpt lat="46.47195" lon="5.40366">
        <ele>545.4</ele>
        <time>2022-04-10T14:36:18Z</time>
      </trkpt>
      <trkpt lat="46.47203" lon="5.40374">
        <ele>544.8</ele>
        <time>2022-04-10T14:36:19Z</time>
      </trkpt>
      <trkpt lat="46.47211" lon="5.40384">
        <ele>544.6</ele>
        <time>2022-04-10T14:36:20Z</time>
      </trkpt>
      <trkpt lat="46.47218" lon="5.40395">
        <ele>544.2</ele>
        <time>2022-04-10T14:36:21Z</time>
      </trkpt>
      <trkpt lat="46.47236" lon="5.40412">
        <ele>543.2</ele>
        <time>2022-04-10T14:36:23Z</time>
      </trkpt>
      <trkpt lat="46.47246" lon="5.4042">
        <ele>542.8</ele>
        <time>2022-04-10T14:36:24Z</time>
      </trkpt>
      <trkpt lat="46.47257" lon="5.40427">
        <ele>542.8</ele>
        <time>2022-04-10T14:36:25Z</time>
      </trkpt>
      <trkpt lat="46.47268" lon="5.40431">
        <ele>542</ele>
        <time>2022-04-10T14:36:26Z</time>
      </trkpt>
      <trkpt lat="46.47279" lon="5.40434">
        <ele>541.6</ele>
        <time>2022-04-10T14:36:27Z</time>
      </trkpt>
      <trkpt lat="46.4729" lon="5.40436">
        <ele>541.4</ele>
        <time>2022-04-10T14:36:28Z</time>
      </trkpt>
      <trkpt lat="46.47301" lon="5.40438">
        <ele>540.4</ele>
        <time>2022-04-10T14:36:29Z</time>
      </trkpt>
      <trkpt lat="46.47313" lon="5.40441">
        <ele>539.2</ele>
        <time>2022-04-10T14:36:30Z</time>
      </trkpt>
      <trkpt lat="46.47336" lon="5.40445">
        <ele>538.2</ele>
        <time>2022-04-10T14:36:32Z</time>
      </trkpt>
      <trkpt lat="46.47369" lon="5.40448">
        <ele>537</ele>
        <time>2022-04-10T14:36:35Z</time>
      </trkpt>
      <trkpt lat="46.47381" lon="5.40448">
        <ele>536.6</ele>
        <time>2022-04-10T14:36:36Z</time>
      </trkpt>
      <trkpt lat="46.47392" lon="5.40446">
        <ele>536</ele>
        <time>2022-04-10T14:36:37Z</time>
      </trkpt>
      <trkpt lat="46.47414" lon="5.40443">
        <ele>534.8</ele>
        <time>2022-04-10T14:36:39Z</time>
      </trkpt>
      <trkpt lat="46.47447" lon="5.40443">
        <ele>533.4</ele>
        <time>2022-04-10T14:36:42Z</time>
      </trkpt>
      <trkpt lat="46.4748" lon="5.40451">
        <ele>532.2</ele>
        <time>2022-04-10T14:36:45Z</time>
      </trkpt>
      <trkpt lat="46.4749" lon="5.40455">
        <ele>531</ele>
        <time>2022-04-10T14:36:46Z</time>
      </trkpt>
      <trkpt lat="46.47498" lon="5.40462">
        <ele>530.2</ele>
        <time>2022-04-10T14:36:47Z</time>
      </trkpt>
      <trkpt lat="46.47507" lon="5.40471">
        <ele>530</ele>
        <time>2022-04-10T14:36:48Z</time>
      </trkpt>
      <trkpt lat="46.47514" lon="5.40478">
        <ele>529.6</ele>
        <time>2022-04-10T14:36:49Z</time>
      </trkpt>
      <trkpt lat="46.47532" lon="5.40486">
        <ele>529</ele>
        <time>2022-04-10T14:36:51Z</time>
      </trkpt>
      <trkpt lat="46.47542" lon="5.40487">
        <ele>528.4</ele>
        <time>2022-04-10T14:36:52Z</time>
      </trkpt>
      <trkpt lat="46.47551" lon="5.40484">
        <ele>527.6</ele>
        <time>2022-04-10T14:36:53Z</time>
      </trkpt>
      <trkpt lat="46.4756" lon="5.40477">
        <ele>526.2</ele>
        <time>2022-04-10T14:36:54Z</time>
      </trkpt>
      <trkpt lat="46.47575" lon="5.40462">
        <ele>524.4</ele>
        <time>2022-04-10T14:36:56Z</time>
      </trkpt>
      <trkpt lat="46.47573" lon="5.40445">
        <ele>524</ele>
        <time>2022-04-10T14:36:57Z</time>
      </trkpt>
      <trkpt lat="46.47566" lon="5.40425">
        <ele>523.4</ele>
        <time>2022-04-10T14:36:58Z</time>
      </trkpt>
      <trkpt lat="46.47558" lon="5.40407">
        <ele>523.2</ele>
        <time>2022-04-10T14:36:59Z</time>
      </trkpt>
      <trkpt lat="46.4754" lon="5.40362">
        <ele>521.8</ele>
        <time>2022-04-10T14:37:01Z</time>
      </trkpt>
      <trkpt lat="46.47536" lon="5.40337">
        <ele>521.4</ele>
        <time>2022-04-10T14:37:02Z</time>
      </trkpt>
      <trkpt lat="46.47537" lon="5.40319">
        <ele>521.2</ele>
        <time>2022-04-10T14:37:03Z</time>
      </trkpt>
      <trkpt lat="46.47541" lon="5.40303">
        <ele>520.6</ele>
        <time>2022-04-10T14:37:04Z</time>
      </trkpt>
      <trkpt lat="46.47548" lon="5.4029">
        <ele>519</ele>
        <time>2022-04-10T14:37:05Z</time>
      </trkpt>
      <trkpt lat="46.47566" lon="5.40269">
        <ele>518</ele>
        <time>2022-04-10T14:37:07Z</time>
      </trkpt>
      <trkpt lat="46.47577" lon="5.40261">
        <ele>517.6</ele>
        <time>2022-04-10T14:37:08Z</time>
      </trkpt>
      <trkpt lat="46.47588" lon="5.40257">
        <ele>517.2</ele>
        <time>2022-04-10T14:37:09Z</time>
      </trkpt>
      <trkpt lat="46.47598" lon="5.40254">
        <ele>516.4</ele>
        <time>2022-04-10T14:37:10Z</time>
      </trkpt>
      <trkpt lat="46.47621" lon="5.40249">
        <ele>515.2</ele>
        <time>2022-04-10T14:37:12Z</time>
      </trkpt>
      <trkpt lat="46.47642" lon="5.40246">
        <ele>513.8</ele>
        <time>2022-04-10T14:37:14Z</time>
      </trkpt>
      <trkpt lat="46.47653" lon="5.40245">
        <ele>513.6</ele>
        <time>2022-04-10T14:37:15Z</time>
      </trkpt>
      <trkpt lat="46.47663" lon="5.40245">
        <ele>512.8</ele>
        <time>2022-04-10T14:37:16Z</time>
      </trkpt>
      <trkpt lat="46.47685" lon="5.40244">
        <ele>512</ele>
        <time>2022-04-10T14:37:18Z</time>
      </trkpt>
      <trkpt lat="46.47694" lon="5.40241">
        <ele>511</ele>
        <time>2022-04-10T14:37:19Z</time>
      </trkpt>
      <trkpt lat="46.47702" lon="5.40236">
        <ele>510.6</ele>
        <time>2022-04-10T14:37:20Z</time>
      </trkpt>
      <trkpt lat="46.4771" lon="5.40228">
        <ele>509.8</ele>
        <time>2022-04-10T14:37:21Z</time>
      </trkpt>
      <trkpt lat="46.47717" lon="5.40219">
        <ele>509.6</ele>
        <time>2022-04-10T14:37:22Z</time>
      </trkpt>
      <trkpt lat="46.47731" lon="5.40181">
        <ele>508.8</ele>
        <time>2022-04-10T14:37:25Z</time>
      </trkpt>
      <trkpt lat="46.47738" lon="5.4017">
        <ele>508</ele>
        <time>2022-04-10T14:37:26Z</time>
      </trkpt>
      <trkpt lat="46.47745" lon="5.4016">
        <ele>507.8</ele>
        <time>2022-04-10T14:37:27Z</time>
      </trkpt>
      <trkpt lat="46.47759" lon="5.40134">
        <ele>507.2</ele>
        <time>2022-04-10T14:37:29Z</time>
      </trkpt>
      <trkpt lat="46.47763" lon="5.40119">
        <ele>506.8</ele>
        <time>2022-04-10T14:37:30Z</time>
      </trkpt>
      <trkpt lat="46.47767" lon="5.40087">
        <ele>505.2</ele>
        <time>2022-04-10T14:37:32Z</time>
      </trkpt>
      <trkpt lat="46.47766" lon="5.4007">
        <ele>504.8</ele>
        <time>2022-04-10T14:37:33Z</time>
      </trkpt>
      <trkpt lat="46.47763" lon="5.40039">
        <ele>503.6</ele>
        <time>2022-04-10T14:37:35Z</time>
      </trkpt>
      <trkpt lat="46.47765" lon="5.40027">
        <ele>502.8</ele>
        <time>2022-04-10T14:37:36Z</time>
      </trkpt>
      <trkpt lat="46.47769" lon="5.40014">
        <ele>501.6</ele>
        <time>2022-04-10T14:37:37Z</time>
      </trkpt>
      <trkpt lat="46.47783" lon="5.39997">
        <ele>500.8</ele>
        <time>2022-04-10T14:37:39Z</time>
      </trkpt>
      <trkpt lat="46.47791" lon="5.39991">
        <ele>500.2</ele>
        <time>2022-04-10T14:37:40Z</time>
      </trkpt>
      <trkpt lat="46.4781" lon="5.39981">
        <ele>498.6</ele>
        <time>2022-04-10T14:37:42Z</time>
      </trkpt>
      <trkpt lat="46.47821" lon="5.39977">
        <ele>498</ele>
        <time>2022-04-10T14:37:43Z</time>
      </trkpt>
      <trkpt lat="46.47832" lon="5.39971">
        <ele>497</ele>
        <time>2022-04-10T14:37:44Z</time>
      </trkpt>
      <trkpt lat="46.47853" lon="5.39962">
        <ele>495.2</ele>
        <time>2022-04-10T14:37:46Z</time>
      </trkpt>
      <trkpt lat="46.47874" lon="5.39951">
        <ele>493.8</ele>
        <time>2022-04-10T14:37:48Z</time>
      </trkpt>
      <trkpt lat="46.47885" lon="5.39945">
        <ele>493</ele>
        <time>2022-04-10T14:37:49Z</time>
      </trkpt>
      <trkpt lat="46.47895" lon="5.39939">
        <ele>492.6</ele>
        <time>2022-04-10T14:37:50Z</time>
      </trkpt>
      <trkpt lat="46.47927" lon="5.39921">
        <ele>491.2</ele>
        <time>2022-04-10T14:37:53Z</time>
      </trkpt>
      <trkpt lat="46.47947" lon="5.3991">
        <ele>490</ele>
        <time>2022-04-10T14:37:55Z</time>
      </trkpt>
      <trkpt lat="46.47958" lon="5.39905">
        <ele>488.8</ele>
        <time>2022-04-10T14:37:56Z</time>
      </trkpt>
      <trkpt lat="46.47987" lon="5.3989">
        <ele>487.6</ele>
        <time>2022-04-10T14:37:59Z</time>
      </trkpt>
      <trkpt lat="46.47997" lon="5.39886">
        <ele>487.2</ele>
        <time>2022-04-10T14:38:00Z</time>
      </trkpt>
      <trkpt lat="46.48016" lon="5.39882">
        <ele>486.4</ele>
        <time>2022-04-10T14:38:02Z</time>
      </trkpt>
      <trkpt lat="46.48025" lon="5.39884">
        <ele>486</ele>
        <time>2022-04-10T14:38:03Z</time>
      </trkpt>
      <trkpt lat="46.48034" lon="5.39887">
        <ele>486</ele>
        <time>2022-04-10T14:38:04Z</time>
      </trkpt>
      <trkpt lat="46.48051" lon="5.39897">
        <ele>485.6</ele>
        <time>2022-04-10T14:38:06Z</time>
      </trkpt>
      <trkpt lat="46.48066" lon="5.39906">
        <ele>485.6</ele>
        <time>2022-04-10T14:38:08Z</time>
      </trkpt>
      <trkpt lat="46.48074" lon="5.39909">
        <ele>485.4</ele>
        <time>2022-04-10T14:38:09Z</time>
      </trkpt>
      <trkpt lat="46.48082" lon="5.3991">
        <ele>485.4</ele>
        <time>2022-04-10T14:38:10Z</time>
      </trkpt>
      <trkpt lat="46.48119" lon="5.39906">
        <ele>485.6</ele>
        <time>2022-04-10T14:38:15Z</time>
      </trkpt>
      <trkpt lat="46.48157" lon="5.39889">
        <ele>486.2</ele>
        <time>2022-04-10T14:38:20Z</time>
      </trkpt>
      <trkpt lat="46.48178" lon="5.39875">
        <ele>485.8</ele>
        <time>2022-04-10T14:38:23Z</time>
      </trkpt>
      <trkpt lat="46.48191" lon="5.39862">
        <ele>485.8</ele>
        <time>2022-04-10T14:38:25Z</time>
      </trkpt>
      <trkpt lat="46.48198" lon="5.39843">
        <ele>485.6</ele>
        <time>2022-04-10T14:38:27Z</time>
      </trkpt>
      <trkpt lat="46.48198" lon="5.39831">
        <ele>485.4</ele>
        <time>2022-04-10T14:38:28Z</time>
      </trkpt>
      <trkpt lat="46.48184" lon="5.39752">
        <ele>484.8</ele>
        <time>2022-04-10T14:38:35Z</time>
      </trkpt>
      <trkpt lat="46.48182" lon="5.39741">
        <ele>484.6</ele>
        <time>2022-04-10T14:38:36Z</time>
      </trkpt>
      <trkpt lat="46.4818" lon="5.3973">
        <ele>484.4</ele>
        <time>2022-04-10T14:38:37Z</time>
      </trkpt>
      <trkpt lat="46.48176" lon="5.39703">
        <ele>483.8</ele>
        <time>2022-04-10T14:38:40Z</time>
      </trkpt>
      <trkpt lat="46.48176" lon="5.39694">
        <ele>483.8</ele>
        <time>2022-04-10T14:38:41Z</time>
      </trkpt>
      <trkpt lat="46.48177" lon="5.39669">
        <ele>483.2</ele>
        <time>2022-04-10T14:38:44Z</time>
      </trkpt>
      <trkpt lat="46.48179" lon="5.39656">
        <ele>483</ele>
        <time>2022-04-10T14:38:45Z</time>
      </trkpt>
      <trkpt lat="46.48184" lon="5.39635">
        <ele>482.2</ele>
        <time>2022-04-10T14:38:47Z</time>
      </trkpt>
      <trkpt lat="46.48188" lon="5.39623">
        <ele>482</ele>
        <time>2022-04-10T14:38:48Z</time>
      </trkpt>
      <trkpt lat="46.48193" lon="5.39612">
        <ele>481.8</ele>
        <time>2022-04-10T14:38:49Z</time>
      </trkpt>
      <trkpt lat="46.48202" lon="5.39588">
        <ele>480.6</ele>
        <time>2022-04-10T14:38:51Z</time>
      </trkpt>
      <trkpt lat="46.4821" lon="5.39561">
        <ele>479.8</ele>
        <time>2022-04-10T14:38:53Z</time>
      </trkpt>
      <trkpt lat="46.48214" lon="5.39546">
        <ele>479.4</ele>
        <time>2022-04-10T14:38:54Z</time>
      </trkpt>
      <trkpt lat="46.48219" lon="5.39517">
        <ele>478</ele>
        <time>2022-04-10T14:38:56Z</time>
      </trkpt>
      <trkpt lat="46.48224" lon="5.39504">
        <ele>477.2</ele>
        <time>2022-04-10T14:38:57Z</time>
      </trkpt>
      <trkpt lat="46.48229" lon="5.39491">
        <ele>476.4</ele>
        <time>2022-04-10T14:38:58Z</time>
      </trkpt>
      <trkpt lat="46.48241" lon="5.39472">
        <ele>474.6</ele>
        <time>2022-04-10T14:39:00Z</time>
      </trkpt>
      <trkpt lat="46.48255" lon="5.39462">
        <ele>473</ele>
        <time>2022-04-10T14:39:02Z</time>
      </trkpt>
      <trkpt lat="46.48262" lon="5.39461">
        <ele>472.6</ele>
        <time>2022-04-10T14:39:03Z</time>
      </trkpt>
      <trkpt lat="46.4827" lon="5.39462">
        <ele>471.4</ele>
        <time>2022-04-10T14:39:04Z</time>
      </trkpt>
      <trkpt lat="46.48277" lon="5.39463">
        <ele>470.2</ele>
        <time>2022-04-10T14:39:05Z</time>
      </trkpt>
      <trkpt lat="46.48285" lon="5.39464">
        <ele>469.6</ele>
        <time>2022-04-10T14:39:06Z</time>
      </trkpt>
      <trkpt lat="46.48292" lon="5.39462">
        <ele>468.6</ele>
        <time>2022-04-10T14:39:07Z</time>
      </trkpt>
      <trkpt lat="46.48304" lon="5.39453">
        <ele>467.2</ele>
        <time>2022-04-10T14:39:09Z</time>
      </trkpt>
      <trkpt lat="46.48311" lon="5.39435">
        <ele>466.4</ele>
        <time>2022-04-10T14:39:11Z</time>
      </trkpt>
      <trkpt lat="46.48312" lon="5.39419">
        <ele>466</ele>
        <time>2022-04-10T14:39:12Z</time>
      </trkpt>
      <trkpt lat="46.48314" lon="5.39405">
        <ele>465.4</ele>
        <time>2022-04-10T14:39:13Z</time>
      </trkpt>
      <trkpt lat="46.48316" lon="5.3939">
        <ele>464.4</ele>
        <time>2022-04-10T14:39:14Z</time>
      </trkpt>
      <trkpt lat="46.4832" lon="5.39374">
        <ele>464</ele>
        <time>2022-04-10T14:39:15Z</time>
      </trkpt>
      <trkpt lat="46.48326" lon="5.39361">
        <ele>463.2</ele>
        <time>2022-04-10T14:39:16Z</time>
      </trkpt>
      <trkpt lat="46.48348" lon="5.39329">
        <ele>462.4</ele>
        <time>2022-04-10T14:39:19Z</time>
      </trkpt>
      <trkpt lat="46.48356" lon="5.39319">
        <ele>460.6</ele>
        <time>2022-04-10T14:39:20Z</time>
      </trkpt>
      <trkpt lat="46.48364" lon="5.39312">
        <ele>459.4</ele>
        <time>2022-04-10T14:39:21Z</time>
      </trkpt>
      <trkpt lat="46.48373" lon="5.3931">
        <ele>458.6</ele>
        <time>2022-04-10T14:39:22Z</time>
      </trkpt>
      <trkpt lat="46.48383" lon="5.3931">
        <ele>457.2</ele>
        <time>2022-04-10T14:39:23Z</time>
      </trkpt>
      <trkpt lat="46.48404" lon="5.39313">
        <ele>456</ele>
        <time>2022-04-10T14:39:25Z</time>
      </trkpt>
      <trkpt lat="46.48415" lon="5.39314">
        <ele>455.8</ele>
        <time>2022-04-10T14:39:26Z</time>
      </trkpt>
      <trkpt lat="46.48438" lon="5.39313">
        <ele>455</ele>
        <time>2022-04-10T14:39:28Z</time>
      </trkpt>
      <trkpt lat="46.48449" lon="5.3931">
        <ele>453.8</ele>
        <time>2022-04-10T14:39:29Z</time>
      </trkpt>
      <trkpt lat="46.4846" lon="5.39308">
        <ele>452.4</ele>
        <time>2022-04-10T14:39:30Z</time>
      </trkpt>
      <trkpt lat="46.48482" lon="5.39304">
        <ele>450.8</ele>
        <time>2022-04-10T14:39:32Z</time>
      </trkpt>
      <trkpt lat="46.48504" lon="5.39299">
        <ele>449</ele>
        <time>2022-04-10T14:39:34Z</time>
      </trkpt>
      <trkpt lat="46.48516" lon="5.39295">
        <ele>448.2</ele>
        <time>2022-04-10T14:39:35Z</time>
      </trkpt>
      <trkpt lat="46.48528" lon="5.39293">
        <ele>447.4</ele>
        <time>2022-04-10T14:39:36Z</time>
      </trkpt>
      <trkpt lat="46.48564" lon="5.39286">
        <ele>445.4</ele>
        <time>2022-04-10T14:39:39Z</time>
      </trkpt>
      <trkpt lat="46.48589" lon="5.39283">
        <ele>443.8</ele>
        <time>2022-04-10T14:39:41Z</time>
      </trkpt>
      <trkpt lat="46.48613" lon="5.39278">
        <ele>441.8</ele>
        <time>2022-04-10T14:39:43Z</time>
      </trkpt>
      <trkpt lat="46.48625" lon="5.39276">
        <ele>440.8</ele>
        <time>2022-04-10T14:39:44Z</time>
      </trkpt>
      <trkpt lat="46.48649" lon="5.39275">
        <ele>439.4</ele>
        <time>2022-04-10T14:39:46Z</time>
      </trkpt>
      <trkpt lat="46.48661" lon="5.39276">
        <ele>439.2</ele>
        <time>2022-04-10T14:39:47Z</time>
      </trkpt>
      <trkpt lat="46.48672" lon="5.39278">
        <ele>437.4</ele>
        <time>2022-04-10T14:39:48Z</time>
      </trkpt>
      <trkpt lat="46.48681" lon="5.39281">
        <ele>436.4</ele>
        <time>2022-04-10T14:39:49Z</time>
      </trkpt>
      <trkpt lat="46.4869" lon="5.39285">
        <ele>435.4</ele>
        <time>2022-04-10T14:39:50Z</time>
      </trkpt>
      <trkpt lat="46.48706" lon="5.39297">
        <ele>433.6</ele>
        <time>2022-04-10T14:39:52Z</time>
      </trkpt>
      <trkpt lat="46.48714" lon="5.39302">
        <ele>432.4</ele>
        <time>2022-04-10T14:39:53Z</time>
      </trkpt>
      <trkpt lat="46.48729" lon="5.39305">
        <ele>430.4</ele>
        <time>2022-04-10T14:39:55Z</time>
      </trkpt>
      <trkpt lat="46.48738" lon="5.39295">
        <ele>428.2</ele>
        <time>2022-04-10T14:39:57Z</time>
      </trkpt>
      <trkpt lat="46.48732" lon="5.39274">
        <ele>426.8</ele>
        <time>2022-04-10T14:39:59Z</time>
      </trkpt>
      <trkpt lat="46.4872" lon="5.39255">
        <ele>425.8</ele>
        <time>2022-04-10T14:40:01Z</time>
      </trkpt>
      <trkpt lat="46.48712" lon="5.39245">
        <ele>424.4</ele>
        <time>2022-04-10T14:40:02Z</time>
      </trkpt>
      <trkpt lat="46.48704" lon="5.39235">
        <ele>424</ele>
        <time>2022-04-10T14:40:03Z</time>
      </trkpt>
      <trkpt lat="46.48696" lon="5.39224">
        <ele>423</ele>
        <time>2022-04-10T14:40:04Z</time>
      </trkpt>
      <trkpt lat="46.48679" lon="5.39199">
        <ele>420.4</ele>
        <time>2022-04-10T14:40:06Z</time>
      </trkpt>
      <trkpt lat="46.4867" lon="5.39186">
        <ele>419.8</ele>
        <time>2022-04-10T14:40:07Z</time>
      </trkpt>
      <trkpt lat="46.48661" lon="5.39174">
        <ele>418.8</ele>
        <time>2022-04-10T14:40:08Z</time>
      </trkpt>
      <trkpt lat="46.48633" lon="5.39138">
        <ele>417</ele>
        <time>2022-04-10T14:40:11Z</time>
      </trkpt>
      <trkpt lat="46.48622" lon="5.39128">
        <ele>416.8</ele>
        <time>2022-04-10T14:40:12Z</time>
      </trkpt>
      <trkpt lat="46.48599" lon="5.39109">
        <ele>416</ele>
        <time>2022-04-10T14:40:14Z</time>
      </trkpt>
      <trkpt lat="46.48587" lon="5.391">
        <ele>414.8</ele>
        <time>2022-04-10T14:40:15Z</time>
      </trkpt>
      <trkpt lat="46.48564" lon="5.39084">
        <ele>413.6</ele>
        <time>2022-04-10T14:40:17Z</time>
      </trkpt>
      <trkpt lat="46.48552" lon="5.39077">
        <ele>411.8</ele>
        <time>2022-04-10T14:40:18Z</time>
      </trkpt>
      <trkpt lat="46.4854" lon="5.3907">
        <ele>410.8</ele>
        <time>2022-04-10T14:40:19Z</time>
      </trkpt>
      <trkpt lat="46.4853" lon="5.39064">
        <ele>409</ele>
        <time>2022-04-10T14:40:20Z</time>
      </trkpt>
      <trkpt lat="46.48519" lon="5.39056">
        <ele>408.4</ele>
        <time>2022-04-10T14:40:21Z</time>
      </trkpt>
      <trkpt lat="46.4851" lon="5.39048">
        <ele>407</ele>
        <time>2022-04-10T14:40:22Z</time>
      </trkpt>
      <trkpt lat="46.48502" lon="5.39035">
        <ele>405.4</ele>
        <time>2022-04-10T14:40:23Z</time>
      </trkpt>
      <trkpt lat="46.48496" lon="5.3902">
        <ele>404.4</ele>
        <time>2022-04-10T14:40:24Z</time>
      </trkpt>
      <trkpt lat="46.48492" lon="5.39003">
        <ele>402.8</ele>
        <time>2022-04-10T14:40:25Z</time>
      </trkpt>
      <trkpt lat="46.48485" lon="5.38974">
        <ele>400.2</ele>
        <time>2022-04-10T14:40:27Z</time>
      </trkpt>
      <trkpt lat="46.48478" lon="5.38956">
        <ele>399.6</ele>
        <time>2022-04-10T14:40:28Z</time>
      </trkpt>
      <trkpt lat="46.48471" lon="5.38942">
        <ele>398.2</ele>
        <time>2022-04-10T14:40:29Z</time>
      </trkpt>
      <trkpt lat="46.48464" lon="5.38929">
        <ele>397.4</ele>
        <time>2022-04-10T14:40:30Z</time>
      </trkpt>
      <trkpt lat="46.48458" lon="5.38916">
        <ele>396.6</ele>
        <time>2022-04-10T14:40:31Z</time>
      </trkpt>
      <trkpt lat="46.48452" lon="5.3889">
        <ele>395.2</ele>
        <time>2022-04-10T14:40:33Z</time>
      </trkpt>
      <trkpt lat="46.48453" lon="5.38878">
        <ele>393.8</ele>
        <time>2022-04-10T14:40:34Z</time>
      </trkpt>
      <trkpt lat="46.48458" lon="5.38867">
        <ele>393.4</ele>
        <time>2022-04-10T14:40:35Z</time>
      </trkpt>
      <trkpt lat="46.48464" lon="5.38858">
        <ele>392.6</ele>
        <time>2022-04-10T14:40:36Z</time>
      </trkpt>
      <trkpt lat="46.48472" lon="5.38849">
        <ele>392.4</ele>
        <time>2022-04-10T14:40:37Z</time>
      </trkpt>
      <trkpt lat="46.4848" lon="5.38843">
        <ele>391.4</ele>
        <time>2022-04-10T14:40:38Z</time>
      </trkpt>
      <trkpt lat="46.48498" lon="5.38831">
        <ele>390.4</ele>
        <time>2022-04-10T14:40:40Z</time>
      </trkpt>
      <trkpt lat="46.48517" lon="5.38819">
        <ele>389.2</ele>
        <time>2022-04-10T14:40:42Z</time>
      </trkpt>
      <trkpt lat="46.48536" lon="5.38807">
        <ele>388.4</ele>
        <time>2022-04-10T14:40:44Z</time>
      </trkpt>
      <trkpt lat="46.48546" lon="5.38801">
        <ele>387</ele>
        <time>2022-04-10T14:40:45Z</time>
      </trkpt>
      <trkpt lat="46.48555" lon="5.38794">
        <ele>386</ele>
        <time>2022-04-10T14:40:46Z</time>
      </trkpt>
      <trkpt lat="46.48573" lon="5.38782">
        <ele>384.8</ele>
        <time>2022-04-10T14:40:48Z</time>
      </trkpt>
      <trkpt lat="46.48581" lon="5.38777">
        <ele>384.6</ele>
        <time>2022-04-10T14:40:49Z</time>
      </trkpt>
      <trkpt lat="46.48588" lon="5.38775">
        <ele>383.6</ele>
        <time>2022-04-10T14:40:50Z</time>
      </trkpt>
      <trkpt lat="46.48597" lon="5.38776">
        <ele>383.2</ele>
        <time>2022-04-10T14:40:51Z</time>
      </trkpt>
      <trkpt lat="46.48603" lon="5.38778">
        <ele>382.6</ele>
        <time>2022-04-10T14:40:52Z</time>
      </trkpt>
      <trkpt lat="46.48608" lon="5.38779">
        <ele>382.4</ele>
        <time>2022-04-10T14:40:53Z</time>
      </trkpt>
      <trkpt lat="46.48613" lon="5.38779">
        <ele>381.2</ele>
        <time>2022-04-10T14:40:54Z</time>
      </trkpt>
      <trkpt lat="46.48617" lon="5.38775">
        <ele>379.6</ele>
        <time>2022-04-10T14:40:55Z</time>
      </trkpt>
      <trkpt lat="46.48626" lon="5.38762">
        <ele>378</ele>
        <time>2022-04-10T14:40:57Z</time>
      </trkpt>
      <trkpt lat="46.48631" lon="5.38752">
        <ele>377.4</ele>
        <time>2022-04-10T14:40:58Z</time>
      </trkpt>
      <trkpt lat="46.48635" lon="5.38744">
        <ele>376.4</ele>
        <time>2022-04-10T14:40:59Z</time>
      </trkpt>
      <trkpt lat="46.48639" lon="5.38731">
        <ele>376</ele>
        <time>2022-04-10T14:41:00Z</time>
      </trkpt>
      <trkpt lat="46.48643" lon="5.38719">
        <ele>375</ele>
        <time>2022-04-10T14:41:01Z</time>
      </trkpt>
      <trkpt lat="46.48645" lon="5.38705">
        <ele>374.2</ele>
        <time>2022-04-10T14:41:02Z</time>
      </trkpt>
      <trkpt lat="46.48646" lon="5.38691">
        <ele>374</ele>
        <time>2022-04-10T14:41:03Z</time>
      </trkpt>
      <trkpt lat="46.48645" lon="5.38676">
        <ele>373</ele>
        <time>2022-04-10T14:41:04Z</time>
      </trkpt>
      <trkpt lat="46.48644" lon="5.3866">
        <ele>372.8</ele>
        <time>2022-04-10T14:41:05Z</time>
      </trkpt>
      <trkpt lat="46.48636" lon="5.38629">
        <ele>371.6</ele>
        <time>2022-04-10T14:41:07Z</time>
      </trkpt>
      <trkpt lat="46.48629" lon="5.38599">
        <ele>370.6</ele>
        <time>2022-04-10T14:41:09Z</time>
      </trkpt>
      <trkpt lat="46.4862" lon="5.38569">
        <ele>369.2</ele>
        <time>2022-04-10T14:41:11Z</time>
      </trkpt>
      <trkpt lat="46.48612" lon="5.38538">
        <ele>368</ele>
        <time>2022-04-10T14:41:13Z</time>
      </trkpt>
      <trkpt lat="46.48603" lon="5.38508">
        <ele>366.8</ele>
        <time>2022-04-10T14:41:15Z</time>
      </trkpt>
      <trkpt lat="46.48598" lon="5.38494">
        <ele>366.4</ele>
        <time>2022-04-10T14:41:16Z</time>
      </trkpt>
    </trkseg>
  </trk>
</gpx>